<?xml version='1.0' encoding='UTF-8'?><gpx version="1.1" creator="JPX - https://github.com/jenetics/jpx" xmlns="http://www.topografix.com/GPX/1/1"><trk><trkseg><trkpt lat="44.183071152826045" lon="10.303499962709774"><ele>520.0</ele><time>2026-04-24T09:36:27Z</time></trkpt><trkpt lat="44.18300148180449" lon="10.303446549638446"><ele>520.0</ele><time>2026-04-24T09:36:29Z</time></trkpt><trkpt lat="44.182900590876955" lon="10.303515092314893"><ele>520.0</ele><time>2026-04-24T09:36:31Z</time></trkpt><trkpt lat="44.1827980990726" lon="10.303565533839336"><ele>520.0</ele><time>2026-04-24T09:36:33Z</time></trkpt><trkpt lat="44.18272109910861" lon="10.303534496957099"><ele>520.0</ele><time>2026-04-24T09:36:35Z</time></trkpt><trkpt lat="44.182701983972784" lon="10.303392944977618"><ele>520.0</ele><time>2026-04-24T09:36:37Z</time></trkpt><trkpt lat="44.18275408329336" lon="10.303227650807763"><ele>520.0</ele><time>2026-04-24T09:36:39Z</time></trkpt><trkpt lat="44.18280264634707" lon="10.30315469825576"><ele>520.0</ele><time>2026-04-24T09:36:40Z</time></trkpt><trkpt lat="44.18288152324864" lon="10.303133430916988"><ele>520.0</ele><time>2026-04-24T09:36:41Z</time></trkpt><trkpt lat="44.18294811440232" lon="10.303094522028957"><ele>520.0</ele><time>2026-04-24T09:36:42Z</time></trkpt><trkpt lat="44.18302723403795" lon="10.303053989617911"><ele>520.0</ele><time>2026-04-24T09:36:43Z</time></trkpt><trkpt lat="44.18311578067845" lon="10.303010666393"><ele>519.8333333333334</ele><time>2026-04-24T09:36:44Z</time></trkpt><trkpt lat="44.183187465548606" lon="10.302975593082262"><ele>519.6666666666667</ele><time>2026-04-24T09:36:45Z</time></trkpt><trkpt lat="44.183290449361024" lon="10.302910053644995"><ele>519.5</ele><time>2026-04-24T09:36:47Z</time></trkpt><trkpt lat="44.183370258595744" lon="10.30288219027338"><ele>519.3333333333334</ele><time>2026-04-24T09:36:49Z</time></trkpt><trkpt lat="44.18344422582756" lon="10.302849967962684"><ele>519.1666666666666</ele><time>2026-04-24T09:36:56Z</time></trkpt><trkpt lat="44.183430964732274" lon="10.302725915457723"><ele>519.0</ele><time>2026-04-24T09:36:57Z</time></trkpt><trkpt lat="44.183403666348774" lon="10.302628311801861"><ele>519.0</ele><time>2026-04-24T09:36:58Z</time></trkpt><trkpt lat="44.183370382112344" lon="10.30250061011639"><ele>519.0</ele><time>2026-04-24T09:36:59Z</time></trkpt><trkpt lat="44.183347561137836" lon="10.302368338940225"><ele>519.0</ele><time>2026-04-24T09:37:00Z</time></trkpt><trkpt lat="44.18331616437764" lon="10.302207052289381"><ele>519.0</ele><time>2026-04-24T09:37:01Z</time></trkpt><trkpt lat="44.18328487470033" lon="10.302052274152844"><ele>519.0</ele><time>2026-04-24T09:37:02Z</time></trkpt><trkpt lat="44.18325998092609" lon="10.301901645304516"><ele>519.6</ele><time>2026-04-24T09:37:03Z</time></trkpt><trkpt lat="44.183257121343146" lon="10.30177684641817"><ele>520.2</ele><time>2026-04-24T09:37:04Z</time></trkpt><trkpt lat="44.183271237067856" lon="10.301661785691"><ele>520.8000000000001</ele><time>2026-04-24T09:37:05Z</time></trkpt><trkpt lat="44.18330035590494" lon="10.301542003611338"><ele>521.4</ele><time>2026-04-24T09:37:06Z</time></trkpt><trkpt lat="44.18335321861135" lon="10.301427027429261"><ele>522.0</ele><time>2026-04-24T09:37:07Z</time></trkpt><trkpt lat="44.18341324879668" lon="10.301300659509034"><ele>522.0</ele><time>2026-04-24T09:37:08Z</time></trkpt><trkpt lat="44.183467946440324" lon="10.301169788204161"><ele>522.0</ele><time>2026-04-24T09:37:09Z</time></trkpt><trkpt lat="44.183525883979144" lon="10.301028507318174"><ele>522.0</ele><time>2026-04-24T09:37:10Z</time></trkpt><trkpt lat="44.18358816197447" lon="10.300884028409428"><ele>522.0</ele><time>2026-04-24T09:37:11Z</time></trkpt><trkpt lat="44.18364898045471" lon="10.300728012179789"><ele>521.5</ele><time>2026-04-24T09:37:12Z</time></trkpt><trkpt lat="44.1837159599255" lon="10.300548266154287"><ele>521.0</ele><time>2026-04-24T09:37:13Z</time></trkpt><trkpt lat="44.18378712890343" lon="10.30036857162331"><ele>520.5</ele><time>2026-04-24T09:37:14Z</time></trkpt><trkpt lat="44.18385546568039" lon="10.300181648207671"><ele>520.0</ele><time>2026-04-24T09:37:15Z</time></trkpt><trkpt lat="44.18391080576703" lon="10.30001282672965"><ele>520.0</ele><time>2026-04-24T09:37:16Z</time></trkpt><trkpt lat="44.18395350678741" lon="10.299866331500022"><ele>520.0</ele><time>2026-04-24T09:37:17Z</time></trkpt><trkpt lat="44.18398980451406" lon="10.299719695850754"><ele>520.0</ele><time>2026-04-24T09:37:18Z</time></trkpt><trkpt lat="44.184019723681565" lon="10.29957952621337"><ele>520.0</ele><time>2026-04-24T09:37:19Z</time></trkpt><trkpt lat="44.18404528857725" lon="10.299461269301837"><ele>520.0</ele><time>2026-04-24T09:37:20Z</time></trkpt><trkpt lat="44.18407124899058" lon="10.299362497652929"><ele>521.6</ele><time>2026-04-24T09:37:21Z</time></trkpt><trkpt lat="44.1840966394489" lon="10.299270862636192"><ele>523.2</ele><time>2026-04-24T09:37:22Z</time></trkpt><trkpt lat="44.184127955176415" lon="10.299150534303768"><ele>524.8</ele><time>2026-04-24T09:37:23Z</time></trkpt><trkpt lat="44.184163830030336" lon="10.299009478303322"><ele>526.4</ele><time>2026-04-24T09:37:24Z</time></trkpt><trkpt lat="44.18421528983097" lon="10.298871150354474"><ele>528.0</ele><time>2026-04-24T09:37:25Z</time></trkpt><trkpt lat="44.18430182977599" lon="10.298772568117641"><ele>528.0</ele><time>2026-04-24T09:37:26Z</time></trkpt><trkpt lat="44.184394124546664" lon="10.298683965642978"><ele>528.0</ele><time>2026-04-24T09:37:27Z</time></trkpt><trkpt lat="44.1844992072809" lon="10.298588426438895"><ele>528.0</ele><time>2026-04-24T09:37:28Z</time></trkpt><trkpt lat="44.184612496957335" lon="10.298485425618118"><ele>528.0</ele><time>2026-04-24T09:37:29Z</time></trkpt><trkpt lat="44.18471480268177" lon="10.2983663359952"><ele>528.0</ele><time>2026-04-24T09:37:30Z</time></trkpt><trkpt lat="44.18480481538867" lon="10.298282833595753"><ele>528.0</ele><time>2026-04-24T09:37:31Z</time></trkpt><trkpt lat="44.184879813666385" lon="10.298192795559887"><ele>528.0</ele><time>2026-04-24T09:37:32Z</time></trkpt><trkpt lat="44.1849429718178" lon="10.298093560126935"><ele>528.0</ele><time>2026-04-24T09:37:33Z</time></trkpt><trkpt lat="44.18498302300291" lon="10.297964567691729"><ele>528.0</ele><time>2026-04-24T09:37:34Z</time></trkpt><trkpt lat="44.18499714782174" lon="10.297812606344769"><ele>528.4</ele><time>2026-04-24T09:37:35Z</time></trkpt><trkpt lat="44.185000832200735" lon="10.297640990738989"><ele>528.8</ele><time>2026-04-24T09:37:36Z</time></trkpt><trkpt lat="44.18501491304987" lon="10.297467896002981"><ele>529.2</ele><time>2026-04-24T09:37:37Z</time></trkpt><trkpt lat="44.1850231354327" lon="10.297324612934505"><ele>529.6</ele><time>2026-04-24T09:37:38Z</time></trkpt><trkpt lat="44.1850314359932" lon="10.297209649340001"><ele>530.0</ele><time>2026-04-24T09:37:39Z</time></trkpt><trkpt lat="44.18504358865908" lon="10.297117563645678"><ele>529.9999999999999</ele><time>2026-04-24T09:37:40Z</time></trkpt><trkpt lat="44.18505218905123" lon="10.297015924663954"><ele>530.0</ele><time>2026-04-24T09:37:41Z</time></trkpt><trkpt lat="44.18505439772262" lon="10.296900813335089"><ele>530.0</ele><time>2026-04-24T09:37:42Z</time></trkpt><trkpt lat="44.18506281634661" lon="10.296791124123045"><ele>530.0</ele><time>2026-04-24T09:37:43Z</time></trkpt><trkpt lat="44.18507504503164" lon="10.296702291698947"><ele>530.0</ele><time>2026-04-24T09:37:44Z</time></trkpt><trkpt lat="44.185093882718164" lon="10.29661406730884"><ele>529.9999999999999</ele><time>2026-04-24T09:37:45Z</time></trkpt><trkpt lat="44.18513332601847" lon="10.296527545599545"><ele>530.0</ele><time>2026-04-24T09:37:46Z</time></trkpt><trkpt lat="44.1851946894195" lon="10.296456797315969"><ele>528.6</ele><time>2026-04-24T09:37:47Z</time></trkpt><trkpt lat="44.185257958180195" lon="10.296415900362437"><ele>527.2</ele><time>2026-04-24T09:37:48Z</time></trkpt><trkpt lat="44.18533006178678" lon="10.296387680251025"><ele>525.8</ele><time>2026-04-24T09:37:49Z</time></trkpt><trkpt lat="44.18545258989405" lon="10.296341587062374"><ele>524.4</ele><time>2026-04-24T09:37:51Z</time></trkpt><trkpt lat="44.18557005332087" lon="10.296234947031673"><ele>523.0</ele><time>2026-04-24T09:37:53Z</time></trkpt><trkpt lat="44.18563189743992" lon="10.296103967545168"><ele>526.0</ele><time>2026-04-24T09:37:54Z</time></trkpt><trkpt lat="44.185689430934595" lon="10.295921213361733"><ele>529.0</ele><time>2026-04-24T09:37:55Z</time></trkpt><trkpt lat="44.1857426797498" lon="10.29573883791849"><ele>532.0</ele><time>2026-04-24T09:37:56Z</time></trkpt><trkpt lat="44.185794640420134" lon="10.295557845105233"><ele>535.0</ele><time>2026-04-24T09:37:57Z</time></trkpt><trkpt lat="44.18586283965553" lon="10.295384966148358"><ele>535.0</ele><time>2026-04-24T09:37:58Z</time></trkpt><trkpt lat="44.185970783152634" lon="10.295241171971965"><ele>535.0</ele><time>2026-04-24T09:37:59Z</time></trkpt><trkpt lat="44.18604898641318" lon="10.295093085071214"><ele>535.0</ele><time>2026-04-24T09:38:00Z</time></trkpt><trkpt lat="44.18612667151075" lon="10.294956883856079"><ele>535.0</ele><time>2026-04-24T09:38:01Z</time></trkpt><trkpt lat="44.18618450636733" lon="10.29476801193724"><ele>533.6666666666667</ele><time>2026-04-24T09:38:02Z</time></trkpt><trkpt lat="44.18623760971249" lon="10.29454669116383"><ele>532.3333333333334</ele><time>2026-04-24T09:38:03Z</time></trkpt><trkpt lat="44.18630321708834" lon="10.294311712904477"><ele>531.0</ele><time>2026-04-24T09:38:04Z</time></trkpt><trkpt lat="44.186371603691356" lon="10.294073738165562"><ele>530.0</ele><time>2026-04-24T09:38:05Z</time></trkpt><trkpt lat="44.18644952023933" lon="10.293820288529014"><ele>529.0</ele><time>2026-04-24T09:38:06Z</time></trkpt><trkpt lat="44.186523216557084" lon="10.293574615493332"><ele>528.0</ele><time>2026-04-24T09:38:07Z</time></trkpt><trkpt lat="44.18658213480971" lon="10.29335979760044"><ele>531.75</ele><time>2026-04-24T09:38:08Z</time></trkpt><trkpt lat="44.186640105035536" lon="10.293156250970513"><ele>535.5</ele><time>2026-04-24T09:38:09Z</time></trkpt><trkpt lat="44.18669701347501" lon="10.29296163491186"><ele>539.25</ele><time>2026-04-24T09:38:10Z</time></trkpt><trkpt lat="44.186747091620866" lon="10.292780116929153"><ele>543.0</ele><time>2026-04-24T09:38:11Z</time></trkpt><trkpt lat="44.18680306626294" lon="10.292619964878137"><ele>543.0</ele><time>2026-04-24T09:38:12Z</time></trkpt><trkpt lat="44.186847367253115" lon="10.29247037344993"><ele>543.0</ele><time>2026-04-24T09:38:13Z</time></trkpt><trkpt lat="44.18688664892795" lon="10.292315321065386"><ele>543.0</ele><time>2026-04-24T09:38:14Z</time></trkpt><trkpt lat="44.186927367165524" lon="10.292174939554519"><ele>543.0</ele><time>2026-04-24T09:38:15Z</time></trkpt><trkpt lat="44.18696736792487" lon="10.292055561242684"><ele>543.0</ele><time>2026-04-24T09:38:16Z</time></trkpt><trkpt lat="44.1870024912445" lon="10.2918343532892"><ele>543.1999999999999</ele><time>2026-04-24T09:38:18Z</time></trkpt><trkpt lat="44.18698049138" lon="10.291723123514311"><ele>543.4</ele><time>2026-04-24T09:38:19Z</time></trkpt><trkpt lat="44.18691654674183" lon="10.29162549279198"><ele>543.5999999999999</ele><time>2026-04-24T09:38:20Z</time></trkpt><trkpt lat="44.18682108171363" lon="10.291543774062939"><ele>543.8</ele><time>2026-04-24T09:38:21Z</time></trkpt><trkpt lat="44.18671509187482" lon="10.291464707384854"><ele>544.0</ele><time>2026-04-24T09:38:22Z</time></trkpt><trkpt lat="44.18660453020717" lon="10.29137506138573"><ele>543.75</ele><time>2026-04-24T09:38:23Z</time></trkpt><trkpt lat="44.186494642155736" lon="10.291269883681956"><ele>543.5</ele><time>2026-04-24T09:38:24Z</time></trkpt><trkpt lat="44.186390639365634" lon="10.291166690412796"><ele>543.25</ele><time>2026-04-24T09:38:25Z</time></trkpt><trkpt lat="44.18628996422106" lon="10.2910754915689"><ele>543.0</ele><time>2026-04-24T09:38:26Z</time></trkpt><trkpt lat="44.18619203243433" lon="10.290990667144536"><ele>543.0</ele><time>2026-04-24T09:38:27Z</time></trkpt><trkpt lat="44.18608931584132" lon="10.29092616739963"><ele>543.0</ele><time>2026-04-24T09:38:28Z</time></trkpt><trkpt lat="44.185992994437655" lon="10.290877840702445"><ele>543.0</ele><time>2026-04-24T09:38:29Z</time></trkpt><trkpt lat="44.18590057727764" lon="10.290836280312071"><ele>543.0</ele><time>2026-04-24T09:38:30Z</time></trkpt><trkpt lat="44.18581455395478" lon="10.290811098343832"><ele>543.0</ele><time>2026-04-24T09:38:31Z</time></trkpt><trkpt lat="44.18574785420518" lon="10.290766726737786"><ele>543.0</ele><time>2026-04-24T09:38:32Z</time></trkpt><trkpt lat="44.18568669129124" lon="10.290687892936937"><ele>543.0</ele><time>2026-04-24T09:38:33Z</time></trkpt><trkpt lat="44.18563756072331" lon="10.2905807973254"><ele>543.0</ele><time>2026-04-24T09:38:34Z</time></trkpt><trkpt lat="44.185603214452705" lon="10.290448020703144"><ele>543.0</ele><time>2026-04-24T09:38:35Z</time></trkpt><trkpt lat="44.18556778902702" lon="10.290304551559705"><ele>543.0</ele><time>2026-04-24T09:38:36Z</time></trkpt><trkpt lat="44.18552858923185" lon="10.290156563275211"><ele>543.4</ele><time>2026-04-24T09:38:37Z</time></trkpt><trkpt lat="44.18548625318684" lon="10.290011108390164"><ele>543.8</ele><time>2026-04-24T09:38:38Z</time></trkpt><trkpt lat="44.185447017976294" lon="10.289874078248896"><ele>544.2</ele><time>2026-04-24T09:38:39Z</time></trkpt><trkpt lat="44.18541091759649" lon="10.289739796543515"><ele>544.6</ele><time>2026-04-24T09:38:40Z</time></trkpt><trkpt lat="44.18536993875198" lon="10.289614850593846"><ele>545.0</ele><time>2026-04-24T09:38:41Z</time></trkpt><trkpt lat="44.185320520470334" lon="10.289499944452162"><ele>545.0</ele><time>2026-04-24T09:38:42Z</time></trkpt><trkpt lat="44.18524940689969" lon="10.289407824653248"><ele>545.0</ele><time>2026-04-24T09:38:43Z</time></trkpt><trkpt lat="44.18516352556494" lon="10.289343854730745"><ele>545.0</ele><time>2026-04-24T09:38:44Z</time></trkpt><trkpt lat="44.18507271939039" lon="10.289311587159396"><ele>545.0</ele><time>2026-04-24T09:38:45Z</time></trkpt><trkpt lat="44.184984177433044" lon="10.289289071578159"><ele>545.0</ele><time>2026-04-24T09:38:46Z</time></trkpt><trkpt lat="44.18489764192573" lon="10.289271662370968"><ele>542.2</ele><time>2026-04-24T09:38:47Z</time></trkpt><trkpt lat="44.184819792306634" lon="10.28924981002387"><ele>539.4</ele><time>2026-04-24T09:38:48Z</time></trkpt><trkpt lat="44.184685222196414" lon="10.289152603970079"><ele>536.6</ele><time>2026-04-24T09:38:51Z</time></trkpt><trkpt lat="44.18468914980055" lon="10.288985539749161"><ele>533.8</ele><time>2026-04-24T09:38:53Z</time></trkpt><trkpt lat="44.18473052086639" lon="10.288881950000667"><ele>531.0</ele><time>2026-04-24T09:38:54Z</time></trkpt><trkpt lat="44.18478576685743" lon="10.28876377702647"><ele>529.8</ele><time>2026-04-24T09:38:55Z</time></trkpt><trkpt lat="44.18483812460677" lon="10.288638848681504"><ele>528.6</ele><time>2026-04-24T09:38:56Z</time></trkpt><trkpt lat="44.18487988909737" lon="10.28853865687944"><ele>527.4</ele><time>2026-04-24T09:38:57Z</time></trkpt><trkpt lat="44.18490955632919" lon="10.288460582620836"><ele>526.2</ele><time>2026-04-24T09:38:58Z</time></trkpt><trkpt lat="44.18495557329304" lon="10.28833925770322"><ele>525.0</ele><time>2026-04-24T09:39:00Z</time></trkpt><trkpt lat="44.184932172911175" lon="10.288156002466483"><ele>528.6</ele><time>2026-04-24T09:39:02Z</time></trkpt><trkpt lat="44.18492733093459" lon="10.28803560924865"><ele>532.2</ele><time>2026-04-24T09:39:03Z</time></trkpt><trkpt lat="44.18494894492505" lon="10.287903788623694"><ele>535.8</ele><time>2026-04-24T09:39:04Z</time></trkpt><trkpt lat="44.184995133205945" lon="10.287741288238355"><ele>539.4</ele><time>2026-04-24T09:39:05Z</time></trkpt><trkpt lat="44.18504048480396" lon="10.28757897470874"><ele>543.0</ele><time>2026-04-24T09:39:06Z</time></trkpt><trkpt lat="44.18508810064974" lon="10.287416956304703"><ele>540.75</ele><time>2026-04-24T09:39:07Z</time></trkpt><trkpt lat="44.185131319330495" lon="10.287232040093441"><ele>538.5</ele><time>2026-04-24T09:39:08Z</time></trkpt><trkpt lat="44.18518648215577" lon="10.28703988521888"><ele>536.25</ele><time>2026-04-24T09:39:09Z</time></trkpt><trkpt lat="44.18523918024618" lon="10.286864751472566"><ele>534.0</ele><time>2026-04-24T09:39:10Z</time></trkpt><trkpt lat="44.18528894860469" lon="10.286698217596236"><ele>534.0</ele><time>2026-04-24T09:39:11Z</time></trkpt><trkpt lat="44.18535176615292" lon="10.286538766175726"><ele>534.0</ele><time>2026-04-24T09:39:12Z</time></trkpt><trkpt lat="44.185418977131725" lon="10.286396885522963"><ele>534.0</ele><time>2026-04-24T09:39:13Z</time></trkpt><trkpt lat="44.18548086757683" lon="10.286273289910344"><ele>534.0</ele><time>2026-04-24T09:39:14Z</time></trkpt><trkpt lat="44.1855255260093" lon="10.286164628999275"><ele>531.6</ele><time>2026-04-24T09:39:15Z</time></trkpt><trkpt lat="44.185567325636875" lon="10.28606760920713"><ele>529.2</ele><time>2026-04-24T09:39:16Z</time></trkpt><trkpt lat="44.185601474464406" lon="10.285941016357722"><ele>526.8000000000001</ele><time>2026-04-24T09:39:17Z</time></trkpt><trkpt lat="44.18559976058169" lon="10.285801466829398"><ele>524.4</ele><time>2026-04-24T09:39:18Z</time></trkpt><trkpt lat="44.18559580727623" lon="10.285640005674923"><ele>522.0</ele><time>2026-04-24T09:39:19Z</time></trkpt><trkpt lat="44.18558897266094" lon="10.285492728561888"><ele>521.0</ele><time>2026-04-24T09:39:20Z</time></trkpt><trkpt lat="44.18558594440912" lon="10.285353191612751"><ele>520.0</ele><time>2026-04-24T09:39:21Z</time></trkpt><trkpt lat="44.185596634976136" lon="10.285235990583137"><ele>519.0</ele><time>2026-04-24T09:39:22Z</time></trkpt><trkpt lat="44.18562383858959" lon="10.285138544539272"><ele>518.0</ele><time>2026-04-24T09:39:23Z</time></trkpt><trkpt lat="44.185680484229444" lon="10.285043249536601"><ele>517.0</ele><time>2026-04-24T09:39:24Z</time></trkpt><trkpt lat="44.18576612454004" lon="10.284927479330367"><ele>518.0</ele><time>2026-04-24T09:39:25Z</time></trkpt><trkpt lat="44.185864390696366" lon="10.284809460694172"><ele>519.0</ele><time>2026-04-24T09:39:26Z</time></trkpt><trkpt lat="44.18596566383265" lon="10.284695283860412"><ele>520.0</ele><time>2026-04-24T09:39:27Z</time></trkpt><trkpt lat="44.18606932978679" lon="10.28454964485336"><ele>521.0</ele><time>2026-04-24T09:39:28Z</time></trkpt><trkpt lat="44.18617266089415" lon="10.284444511346502"><ele>521.0</ele><time>2026-04-24T09:39:29Z</time></trkpt><trkpt lat="44.18626363016191" lon="10.284342554343779"><ele>521.0</ele><time>2026-04-24T09:39:30Z</time></trkpt><trkpt lat="44.186338365568325" lon="10.284260659394171"><ele>521.0</ele><time>2026-04-24T09:39:31Z</time></trkpt><trkpt lat="44.1863995679484" lon="10.284164132020408"><ele>521.0</ele><time>2026-04-24T09:39:32Z</time></trkpt><trkpt lat="44.18643427659787" lon="10.284042155860174"><ele>521.0</ele><time>2026-04-24T09:39:33Z</time></trkpt><trkpt lat="44.18643405724786" lon="10.283897329305814"><ele>519.75</ele><time>2026-04-24T09:39:34Z</time></trkpt><trkpt lat="44.18640634980369" lon="10.283734733478227"><ele>518.5</ele><time>2026-04-24T09:39:35Z</time></trkpt><trkpt lat="44.186366164961704" lon="10.283574243451676"><ele>517.25</ele><time>2026-04-24T09:39:36Z</time></trkpt><trkpt lat="44.186333264184974" lon="10.283430665384197"><ele>516.0</ele><time>2026-04-24T09:39:37Z</time></trkpt><trkpt lat="44.18632007363374" lon="10.283282204205143"><ele>516.0</ele><time>2026-04-24T09:39:38Z</time></trkpt><trkpt lat="44.186325489050624" lon="10.283123988922176"><ele>516.0</ele><time>2026-04-24T09:39:39Z</time></trkpt><trkpt lat="44.18637929426256" lon="10.282992765139918"><ele>516.0</ele><time>2026-04-24T09:39:40Z</time></trkpt><trkpt lat="44.18644379516246" lon="10.282871666164397"><ele>516.0</ele><time>2026-04-24T09:39:41Z</time></trkpt><trkpt lat="44.18654572515363" lon="10.28278710517225"><ele>516.0</ele><time>2026-04-24T09:39:42Z</time></trkpt><trkpt lat="44.18666081651272" lon="10.282677241594767"><ele>517.5</ele><time>2026-04-24T09:39:43Z</time></trkpt><trkpt lat="44.18676801373312" lon="10.282564127307353"><ele>519.0</ele><time>2026-04-24T09:39:44Z</time></trkpt><trkpt lat="44.186866529351306" lon="10.282467868196242"><ele>520.5</ele><time>2026-04-24T09:39:45Z</time></trkpt><trkpt lat="44.18695814515095" lon="10.282376686066932"><ele>522.0</ele><time>2026-04-24T09:39:46Z</time></trkpt><trkpt lat="44.18703286052414" lon="10.282273153170118"><ele>521.2</ele><time>2026-04-24T09:39:47Z</time></trkpt><trkpt lat="44.187076578726" lon="10.282164172278518"><ele>520.4000000000001</ele><time>2026-04-24T09:39:48Z</time></trkpt><trkpt lat="44.18709306698119" lon="10.28205068771861"><ele>519.5999999999999</ele><time>2026-04-24T09:39:49Z</time></trkpt><trkpt lat="44.18707224928225" lon="10.281927993169006"><ele>518.8</ele><time>2026-04-24T09:39:50Z</time></trkpt><trkpt lat="44.187014630832515" lon="10.281804171411293"><ele>518.0</ele><time>2026-04-24T09:39:51Z</time></trkpt><trkpt lat="44.18692884496886" lon="10.281684873688846"><ele>518.0</ele><time>2026-04-24T09:39:52Z</time></trkpt><trkpt lat="44.18683197220885" lon="10.281552724466984"><ele>518.0</ele><time>2026-04-24T09:39:53Z</time></trkpt><trkpt lat="44.18675274445317" lon="10.281436529292135"><ele>518.0</ele><time>2026-04-24T09:39:54Z</time></trkpt><trkpt lat="44.186667430686896" lon="10.281336889733652"><ele>518.0</ele><time>2026-04-24T09:39:55Z</time></trkpt><trkpt lat="44.18655610465504" lon="10.281276300607443"><ele>522.5</ele><time>2026-04-24T09:39:56Z</time></trkpt><trkpt lat="44.1864269715728" lon="10.281240919876856"><ele>527.0</ele><time>2026-04-24T09:39:57Z</time></trkpt><trkpt lat="44.18628616922208" lon="10.281244227897188"><ele>531.5</ele><time>2026-04-24T09:39:58Z</time></trkpt><trkpt lat="44.186134083813506" lon="10.281279232421188"><ele>536.0</ele><time>2026-04-24T09:39:59Z</time></trkpt><trkpt lat="44.185966641291515" lon="10.281345715614925"><ele>536.0</ele><time>2026-04-24T09:40:00Z</time></trkpt><trkpt lat="44.18578327013169" lon="10.281424520406768"><ele>536.0</ele><time>2026-04-24T09:40:01Z</time></trkpt><trkpt lat="44.185614887968505" lon="10.281475734011815"><ele>536.0</ele><time>2026-04-24T09:40:02Z</time></trkpt><trkpt lat="44.185472776575494" lon="10.281519001219344"><ele>534.8</ele><time>2026-04-24T09:40:03Z</time></trkpt><trkpt lat="44.18534912316925" lon="10.281575827547334"><ele>533.6</ele><time>2026-04-24T09:40:04Z</time></trkpt><trkpt lat="44.18523821593854" lon="10.281609350707235"><ele>532.4</ele><time>2026-04-24T09:40:05Z</time></trkpt><trkpt lat="44.18513555427481" lon="10.281628332237549"><ele>531.2</ele><time>2026-04-24T09:40:06Z</time></trkpt><trkpt lat="44.1850457834146" lon="10.281590027206606"><ele>530.0</ele><time>2026-04-24T09:40:07Z</time></trkpt><trkpt lat="44.18498644862094" lon="10.281517266256856"><ele>532.2</ele><time>2026-04-24T09:40:08Z</time></trkpt><trkpt lat="44.18493541374167" lon="10.281405950688951"><ele>534.4</ele><time>2026-04-24T09:40:09Z</time></trkpt><trkpt lat="44.18491249931383" lon="10.281265242945874"><ele>536.6</ele><time>2026-04-24T09:40:10Z</time></trkpt><trkpt lat="44.184921830512415" lon="10.281109819992967"><ele>538.8</ele><time>2026-04-24T09:40:11Z</time></trkpt><trkpt lat="44.1849454159844" lon="10.280937248470227"><ele>541.0</ele><time>2026-04-24T09:40:12Z</time></trkpt><trkpt lat="44.18496697904469" lon="10.28076751725968"><ele>541.0</ele><time>2026-04-24T09:40:13Z</time></trkpt><trkpt lat="44.18497346709574" lon="10.280633829079482"><ele>541.0</ele><time>2026-04-24T09:40:14Z</time></trkpt><trkpt lat="44.1849500953879" lon="10.280515453778575"><ele>541.0</ele><time>2026-04-24T09:40:15Z</time></trkpt><trkpt lat="44.18488325713049" lon="10.280409783377035"><ele>541.0</ele><time>2026-04-24T09:40:16Z</time></trkpt><trkpt lat="44.184788454803005" lon="10.280325335088406"><ele>541.0</ele><time>2026-04-24T09:40:17Z</time></trkpt><trkpt lat="44.18467998486898" lon="10.280242065505822"><ele>542.75</ele><time>2026-04-24T09:40:18Z</time></trkpt><trkpt lat="44.18456433800531" lon="10.28013446185189"><ele>544.5</ele><time>2026-04-24T09:40:19Z</time></trkpt><trkpt lat="44.18445007403856" lon="10.28002081748341"><ele>546.25</ele><time>2026-04-24T09:40:20Z</time></trkpt><trkpt lat="44.18435145157731" lon="10.279923881266885"><ele>548.0</ele><time>2026-04-24T09:40:21Z</time></trkpt><trkpt lat="44.1842733700483" lon="10.279841349826688"><ele>550.4</ele><time>2026-04-24T09:40:22Z</time></trkpt><trkpt lat="44.18419863761061" lon="10.279764592513525"><ele>552.8</ele><time>2026-04-24T09:40:23Z</time></trkpt><trkpt lat="44.184119470308126" lon="10.279695417703417"><ele>555.2</ele><time>2026-04-24T09:40:24Z</time></trkpt><trkpt lat="44.184039162691626" lon="10.279648973370648"><ele>557.6</ele><time>2026-04-24T09:40:25Z</time></trkpt><trkpt lat="44.1839396170901" lon="10.279655470773386"><ele>560.0</ele><time>2026-04-24T09:40:26Z</time></trkpt><trkpt lat="44.1838333740109" lon="10.27971895162756"><ele>561.0</ele><time>2026-04-24T09:40:27Z</time></trkpt><trkpt lat="44.18372247679666" lon="10.279827546368782"><ele>562.0</ele><time>2026-04-24T09:40:28Z</time></trkpt><trkpt lat="44.183597492638384" lon="10.279947946243201"><ele>563.0</ele><time>2026-04-24T09:40:29Z</time></trkpt><trkpt lat="44.18344835592001" lon="10.280057702386515"><ele>563.0</ele><time>2026-04-24T09:40:30Z</time></trkpt><trkpt lat="44.18330527396824" lon="10.280205201853274"><ele>563.0</ele><time>2026-04-24T09:40:31Z</time></trkpt><trkpt lat="44.18315542626523" lon="10.28032493718696"><ele>563.0</ele><time>2026-04-24T09:40:32Z</time></trkpt><trkpt lat="44.183028519169056" lon="10.280445660842213"><ele>562.0</ele><time>2026-04-24T09:40:33Z</time></trkpt><trkpt lat="44.18292129792628" lon="10.280553097112703"><ele>561.0</ele><time>2026-04-24T09:40:34Z</time></trkpt><trkpt lat="44.182828703011886" lon="10.280654432157565"><ele>560.0</ele><time>2026-04-24T09:40:35Z</time></trkpt><trkpt lat="44.18273542555444" lon="10.280754758601448"><ele>559.0</ele><time>2026-04-24T09:40:36Z</time></trkpt><trkpt lat="44.18261861149282" lon="10.280838048022511"><ele>559.0</ele><time>2026-04-24T09:40:37Z</time></trkpt><trkpt lat="44.182480261628896" lon="10.280866636161026"><ele>559.0</ele><time>2026-04-24T09:40:38Z</time></trkpt><trkpt lat="44.182353029490976" lon="10.280923560042467"><ele>559.0</ele><time>2026-04-24T09:40:39Z</time></trkpt><trkpt lat="44.1822414318626" lon="10.280952681655053"><ele>559.0</ele><time>2026-04-24T09:40:40Z</time></trkpt><trkpt lat="44.182141994228736" lon="10.280978485131897"><ele>560.2</ele><time>2026-04-24T09:40:41Z</time></trkpt><trkpt lat="44.182047290067416" lon="10.280979726230695"><ele>561.4</ele><time>2026-04-24T09:40:42Z</time></trkpt><trkpt lat="44.18196081970049" lon="10.280941584621813"><ele>562.6</ele><time>2026-04-24T09:40:43Z</time></trkpt><trkpt lat="44.18188059854876" lon="10.280856403740508"><ele>563.8</ele><time>2026-04-24T09:40:44Z</time></trkpt><trkpt lat="44.181798706476265" lon="10.280742262693108"><ele>565.0</ele><time>2026-04-24T09:40:45Z</time></trkpt><trkpt lat="44.1817214323794" lon="10.280615327791645"><ele>564.8</ele><time>2026-04-24T09:40:46Z</time></trkpt><trkpt lat="44.18163864461895" lon="10.280523258275082"><ele>564.6</ele><time>2026-04-24T09:40:47Z</time></trkpt><trkpt lat="44.18155472648324" lon="10.280504979242847"><ele>564.4</ele><time>2026-04-24T09:40:48Z</time></trkpt><trkpt lat="44.1814666667245" lon="10.280547012031612"><ele>564.2</ele><time>2026-04-24T09:40:49Z</time></trkpt><trkpt lat="44.18137819714135" lon="10.280636665982758"><ele>564.0</ele><time>2026-04-24T09:40:50Z</time></trkpt><trkpt lat="44.181292319864916" lon="10.280725429985875"><ele>564.0</ele><time>2026-04-24T09:40:51Z</time></trkpt><trkpt lat="44.1811983962703" lon="10.280774817994605"><ele>564.0</ele><time>2026-04-24T09:40:52Z</time></trkpt><trkpt lat="44.18110461423842" lon="10.2807637711899"><ele>564.0</ele><time>2026-04-24T09:40:53Z</time></trkpt><trkpt lat="44.18102409802283" lon="10.280710482937323"><ele>564.0</ele><time>2026-04-24T09:40:54Z</time></trkpt><trkpt lat="44.180943263643044" lon="10.280618137197807"><ele>564.0</ele><time>2026-04-24T09:40:55Z</time></trkpt><trkpt lat="44.18086309588214" lon="10.280511761307418"><ele>568.25</ele><time>2026-04-24T09:40:56Z</time></trkpt><trkpt lat="44.18078262774223" lon="10.280389798451427"><ele>572.5</ele><time>2026-04-24T09:40:57Z</time></trkpt><trkpt lat="44.1807528862099" lon="10.280230606892758"><ele>576.75</ele><time>2026-04-24T09:40:58Z</time></trkpt><trkpt lat="44.1807111165646" lon="10.280079077755994"><ele>581.0</ele><time>2026-04-24T09:40:59Z</time></trkpt><trkpt lat="44.18069169153176" lon="10.27991650106072"><ele>581.0</ele><time>2026-04-24T09:41:00Z</time></trkpt><trkpt lat="44.18065270975011" lon="10.279791086905119"><ele>581.0</ele><time>2026-04-24T09:41:01Z</time></trkpt><trkpt lat="44.18058560684498" lon="10.279672749569126"><ele>581.0</ele><time>2026-04-24T09:41:02Z</time></trkpt><trkpt lat="44.180481847392706" lon="10.279571053370908"><ele>581.0</ele><time>2026-04-24T09:41:03Z</time></trkpt><trkpt lat="44.18036445228871" lon="10.279465018001366"><ele>581.0</ele><time>2026-04-24T09:41:04Z</time></trkpt><trkpt lat="44.18025807403626" lon="10.279327473560032"><ele>581.0</ele><time>2026-04-24T09:41:05Z</time></trkpt><trkpt lat="44.18015913893754" lon="10.279160128820662"><ele>581.0</ele><time>2026-04-24T09:41:06Z</time></trkpt><trkpt lat="44.18005709237144" lon="10.278964294931415"><ele>582.3333333333333</ele><time>2026-04-24T09:41:07Z</time></trkpt><trkpt lat="44.17994170020306" lon="10.278759258145556"><ele>583.6666666666666</ele><time>2026-04-24T09:41:08Z</time></trkpt><trkpt lat="44.1798199365855" lon="10.278535078702758"><ele>585.0</ele><time>2026-04-24T09:41:09Z</time></trkpt><trkpt lat="44.179695816783" lon="10.278301500611487"><ele>583.6666666666666</ele><time>2026-04-24T09:41:10Z</time></trkpt><trkpt lat="44.17957266328318" lon="10.27807582664487"><ele>582.3333333333333</ele><time>2026-04-24T09:41:11Z</time></trkpt><trkpt lat="44.17946403864472" lon="10.277873079344717"><ele>581.0</ele><time>2026-04-24T09:41:12Z</time></trkpt><trkpt lat="44.17935641270941" lon="10.277684573997233"><ele>581.0</ele><time>2026-04-24T09:41:13Z</time></trkpt><trkpt lat="44.17926279192938" lon="10.277503854162042"><ele>581.0</ele><time>2026-04-24T09:41:14Z</time></trkpt><trkpt lat="44.179173908441925" lon="10.27732942770408"><ele>581.0</ele><time>2026-04-24T09:41:15Z</time></trkpt><trkpt lat="44.179076286018876" lon="10.277162975949867"><ele>578.75</ele><time>2026-04-24T09:41:16Z</time></trkpt><trkpt lat="44.17898376771213" lon="10.27700542324126"><ele>576.5</ele><time>2026-04-24T09:41:17Z</time></trkpt><trkpt lat="44.17890449086085" lon="10.276861274711122"><ele>574.25</ele><time>2026-04-24T09:41:18Z</time></trkpt><trkpt lat="44.1788349412089" lon="10.276732924569197"><ele>572.0</ele><time>2026-04-24T09:41:19Z</time></trkpt><trkpt lat="44.17877237192586" lon="10.276616102078824"><ele>572.0</ele><time>2026-04-24T09:41:20Z</time></trkpt><trkpt lat="44.178725187318356" lon="10.276477910773197"><ele>572.0</ele><time>2026-04-24T09:41:21Z</time></trkpt><trkpt lat="44.178698637009255" lon="10.276318640217676"><ele>572.0</ele><time>2026-04-24T09:41:22Z</time></trkpt><trkpt lat="44.17870410636788" lon="10.276127824281454"><ele>572.0</ele><time>2026-04-24T09:41:23Z</time></trkpt><trkpt lat="44.178702336633606" lon="10.275939667965437"><ele>571.75</ele><time>2026-04-24T09:41:24Z</time></trkpt><trkpt lat="44.178699131577304" lon="10.275753783539788"><ele>571.5</ele><time>2026-04-24T09:41:25Z</time></trkpt><trkpt lat="44.17871217500875" lon="10.275580482788717"><ele>571.25</ele><time>2026-04-24T09:41:26Z</time></trkpt><trkpt lat="44.1787463694224" lon="10.27539704717751"><ele>571.0</ele><time>2026-04-24T09:41:27Z</time></trkpt><trkpt lat="44.17882323660938" lon="10.275228807082968"><ele>571.0</ele><time>2026-04-24T09:41:28Z</time></trkpt><trkpt lat="44.17889984927219" lon="10.275032250605506"><ele>571.0</ele><time>2026-04-24T09:41:29Z</time></trkpt><trkpt lat="44.17900228064315" lon="10.274839076093416"><ele>571.0</ele><time>2026-04-24T09:41:30Z</time></trkpt><trkpt lat="44.17908980512927" lon="10.274657336378812"><ele>574.75</ele><time>2026-04-24T09:41:31Z</time></trkpt><trkpt lat="44.17917103280513" lon="10.274499156182458"><ele>578.5</ele><time>2026-04-24T09:41:32Z</time></trkpt><trkpt lat="44.17923764259993" lon="10.274342567322773"><ele>582.25</ele><time>2026-04-24T09:41:33Z</time></trkpt><trkpt lat="44.17928828450739" lon="10.2741642087994"><ele>586.0</ele><time>2026-04-24T09:41:34Z</time></trkpt><trkpt lat="44.179313064119945" lon="10.27397908809276"><ele>585.5</ele><time>2026-04-24T09:41:35Z</time></trkpt><trkpt lat="44.1793167930988" lon="10.273798445456299"><ele>585.0</ele><time>2026-04-24T09:41:36Z</time></trkpt><trkpt lat="44.179290575977994" lon="10.273608228633075"><ele>584.5</ele><time>2026-04-24T09:41:37Z</time></trkpt><trkpt lat="44.17923092055109" lon="10.273408494016026"><ele>584.0</ele><time>2026-04-24T09:41:38Z</time></trkpt><trkpt lat="44.179159554655705" lon="10.273190474402336"><ele>584.75</ele><time>2026-04-24T09:41:39Z</time></trkpt><trkpt lat="44.17910465256845" lon="10.272975723575888"><ele>585.5</ele><time>2026-04-24T09:41:40Z</time></trkpt><trkpt lat="44.179051297498425" lon="10.27279773353098"><ele>586.25</ele><time>2026-04-24T09:41:41Z</time></trkpt><trkpt lat="44.178998641426325" lon="10.27263010554256"><ele>587.0</ele><time>2026-04-24T09:41:42Z</time></trkpt><trkpt lat="44.17896497812636" lon="10.272464992176753"><ele>586.75</ele><time>2026-04-24T09:41:43Z</time></trkpt><trkpt lat="44.17894880619268" lon="10.272287266996983"><ele>586.5</ele><time>2026-04-24T09:41:44Z</time></trkpt><trkpt lat="44.17896045575873" lon="10.272105900752372"><ele>586.25</ele><time>2026-04-24T09:41:45Z</time></trkpt><trkpt lat="44.17900300626149" lon="10.271925216296372"><ele>586.0</ele><time>2026-04-24T09:41:46Z</time></trkpt><trkpt lat="44.1790665295223" lon="10.27174737521809"><ele>586.0</ele><time>2026-04-24T09:41:47Z</time></trkpt><trkpt lat="44.17913665141773" lon="10.271597864907912"><ele>586.0</ele><time>2026-04-24T09:41:48Z</time></trkpt><trkpt lat="44.17918429591588" lon="10.271459001844265"><ele>586.0</ele><time>2026-04-24T09:41:49Z</time></trkpt><trkpt lat="44.17920310408706" lon="10.271318143056192"><ele>586.0</ele><time>2026-04-24T09:41:50Z</time></trkpt><trkpt lat="44.1791910456225" lon="10.271171665318029"><ele>586.0</ele><time>2026-04-24T09:41:51Z</time></trkpt><trkpt lat="44.179147803673274" lon="10.271036962363137"><ele>587.25</ele><time>2026-04-24T09:41:52Z</time></trkpt><trkpt lat="44.17907311389275" lon="10.270929458034258"><ele>588.5</ele><time>2026-04-24T09:41:53Z</time></trkpt><trkpt lat="44.178975647344615" lon="10.270865257317737"><ele>589.75</ele><time>2026-04-24T09:41:54Z</time></trkpt><trkpt lat="44.17886047925976" lon="10.270860417594553"><ele>591.0</ele><time>2026-04-24T09:41:55Z</time></trkpt><trkpt lat="44.17872729678416" lon="10.270897039401879"><ele>591.0</ele><time>2026-04-24T09:41:56Z</time></trkpt><trkpt lat="44.17856790080298" lon="10.270950593173271"><ele>591.0</ele><time>2026-04-24T09:41:57Z</time></trkpt><trkpt lat="44.1783870704953" lon="10.270982140163548"><ele>591.0</ele><time>2026-04-24T09:41:58Z</time></trkpt><trkpt lat="44.178175753255076" lon="10.270994934094137"><ele>594.6666666666666</ele><time>2026-04-24T09:41:59Z</time></trkpt><trkpt lat="44.17798283703137" lon="10.270997945552955"><ele>598.3333333333333</ele><time>2026-04-24T09:42:00Z</time></trkpt><trkpt lat="44.17780906530763" lon="10.271007735668038"><ele>602.0</ele><time>2026-04-24T09:42:01Z</time></trkpt><trkpt lat="44.17763306809765" lon="10.27103633665519"><ele>602.0</ele><time>2026-04-24T09:42:02Z</time></trkpt><trkpt lat="44.177470327636335" lon="10.271055781579287"><ele>602.0</ele><time>2026-04-24T09:42:03Z</time></trkpt><trkpt lat="44.177321832549076" lon="10.27107293436462"><ele>602.0</ele><time>2026-04-24T09:42:04Z</time></trkpt><trkpt lat="44.17717883750975" lon="10.27109934885899"><ele>604.25</ele><time>2026-04-24T09:42:05Z</time></trkpt><trkpt lat="44.177046101829816" lon="10.271118127008112"><ele>606.5</ele><time>2026-04-24T09:42:06Z</time></trkpt><trkpt lat="44.17692293534389" lon="10.271134434199489"><ele>608.75</ele><time>2026-04-24T09:42:07Z</time></trkpt><trkpt lat="44.17681906788357" lon="10.271162280511419"><ele>611.0</ele><time>2026-04-24T09:42:08Z</time></trkpt><trkpt lat="44.17673159309104" lon="10.271199401766427"><ele>611.0</ele><time>2026-04-24T09:42:09Z</time></trkpt><trkpt lat="44.17664759960095" lon="10.271233260683946"><ele>611.0</ele><time>2026-04-24T09:42:10Z</time></trkpt><trkpt lat="44.17654387026559" lon="10.271273823460325"><ele>611.0</ele><time>2026-04-24T09:42:11Z</time></trkpt><trkpt lat="44.17642256651506" lon="10.27129794343761"><ele>611.0</ele><time>2026-04-24T09:42:12Z</time></trkpt><trkpt lat="44.17629234113886" lon="10.27129725837745"><ele>611.0</ele><time>2026-04-24T09:42:13Z</time></trkpt><trkpt lat="44.176173418973335" lon="10.271283215573288"><ele>612.0</ele><time>2026-04-24T09:42:14Z</time></trkpt><trkpt lat="44.176057757977865" lon="10.27127283244615"><ele>613.0</ele><time>2026-04-24T09:42:15Z</time></trkpt><trkpt lat="44.17594015508026" lon="10.271270962234444"><ele>614.0</ele><time>2026-04-24T09:42:16Z</time></trkpt><trkpt lat="44.175832355002555" lon="10.271259198485026"><ele>615.0</ele><time>2026-04-24T09:42:17Z</time></trkpt><trkpt lat="44.17574415680428" lon="10.271236701902602"><ele>616.0</ele><time>2026-04-24T09:42:18Z</time></trkpt><trkpt lat="44.17564986921813" lon="10.271210562827157"><ele>612.0</ele><time>2026-04-24T09:42:19Z</time></trkpt><trkpt lat="44.17554157013001" lon="10.271177680360259"><ele>608.0</ele><time>2026-04-24T09:42:20Z</time></trkpt><trkpt lat="44.17542248746149" lon="10.27113054095601"><ele>604.0</ele><time>2026-04-24T09:42:21Z</time></trkpt><trkpt lat="44.17529261232352" lon="10.271065863544916"><ele>600.0</ele><time>2026-04-24T09:42:22Z</time></trkpt><trkpt lat="44.1751522486959" lon="10.270974936806663"><ele>600.0</ele><time>2026-04-24T09:42:23Z</time></trkpt><trkpt lat="44.1749791075984" lon="10.270889605459297"><ele>600.0</ele><time>2026-04-24T09:42:24Z</time></trkpt><trkpt lat="44.17478204976298" lon="10.270816376191151"><ele>600.0</ele><time>2026-04-24T09:42:25Z</time></trkpt><trkpt lat="44.174610363520536" lon="10.270697873134614"><ele>607.6666666666666</ele><time>2026-04-24T09:42:26Z</time></trkpt><trkpt lat="44.17445679334918" lon="10.270548664690436"><ele>615.3333333333333</ele><time>2026-04-24T09:42:27Z</time></trkpt><trkpt lat="44.174293746418996" lon="10.270457129007957"><ele>623.0</ele><time>2026-04-24T09:42:28Z</time></trkpt><trkpt lat="44.17411265895244" lon="10.270405365436694"><ele>617.0</ele><time>2026-04-24T09:42:29Z</time></trkpt><trkpt lat="44.17397053034435" lon="10.270302026104192"><ele>611.0</ele><time>2026-04-24T09:42:30Z</time></trkpt><trkpt lat="44.17383532906634" lon="10.27021741754411"><ele>605.0</ele><time>2026-04-24T09:42:31Z</time></trkpt><trkpt lat="44.17369107885187" lon="10.270142725941012"><ele>605.0</ele><time>2026-04-24T09:42:32Z</time></trkpt><trkpt lat="44.17352102189105" lon="10.270096884970577"><ele>605.0</ele><time>2026-04-24T09:42:33Z</time></trkpt><trkpt lat="44.17332660869893" lon="10.270063673847822"><ele>605.0</ele><time>2026-04-24T09:42:34Z</time></trkpt><trkpt lat="44.173133029810735" lon="10.270011381258852"><ele>599.6666666666666</ele><time>2026-04-24T09:42:35Z</time></trkpt><trkpt lat="44.17296359797523" lon="10.269969138162761"><ele>594.3333333333334</ele><time>2026-04-24T09:42:36Z</time></trkpt><trkpt lat="44.17280749149013" lon="10.26993940630771"><ele>589.0</ele><time>2026-04-24T09:42:37Z</time></trkpt><trkpt lat="44.17267027228362" lon="10.269892595109871"><ele>589.0</ele><time>2026-04-24T09:42:38Z</time></trkpt><trkpt lat="44.17254740648936" lon="10.26985457708495"><ele>589.0</ele><time>2026-04-24T09:42:39Z</time></trkpt><trkpt lat="44.17243522316996" lon="10.269839762705985"><ele>589.0</ele><time>2026-04-24T09:42:40Z</time></trkpt><trkpt lat="44.172333742158" lon="10.269822274417614"><ele>589.0</ele><time>2026-04-24T09:42:41Z</time></trkpt><trkpt lat="44.17225812375587" lon="10.269789800895515"><ele>589.0</ele><time>2026-04-24T09:42:42Z</time></trkpt><trkpt lat="44.17219198279086" lon="10.26973191591297"><ele>590.4</ele><time>2026-04-24T09:42:43Z</time></trkpt><trkpt lat="44.172139971168235" lon="10.269629303606331"><ele>591.8</ele><time>2026-04-24T09:42:44Z</time></trkpt><trkpt lat="44.172126914005815" lon="10.269494674644942"><ele>593.2</ele><time>2026-04-24T09:42:45Z</time></trkpt><trkpt lat="44.17217829247582" lon="10.269345579304556"><ele>594.6</ele><time>2026-04-24T09:42:46Z</time></trkpt><trkpt lat="44.17226255029011" lon="10.269245992550477"><ele>596.0</ele><time>2026-04-24T09:42:47Z</time></trkpt><trkpt lat="44.17236360977904" lon="10.269180755503518"><ele>596.0</ele><time>2026-04-24T09:42:48Z</time></trkpt><trkpt lat="44.17248747809059" lon="10.269062276499916"><ele>596.0</ele><time>2026-04-24T09:42:49Z</time></trkpt><trkpt lat="44.172631135040234" lon="10.268928969301427"><ele>596.0</ele><time>2026-04-24T09:42:50Z</time></trkpt><trkpt lat="44.17277524327556" lon="10.268781981918528"><ele>594.2</ele><time>2026-04-24T09:42:51Z</time></trkpt><trkpt lat="44.172885668599164" lon="10.26867845871539"><ele>592.4000000000001</ele><time>2026-04-24T09:42:52Z</time></trkpt><trkpt lat="44.172969916683456" lon="10.268595662310233"><ele>590.6</ele><time>2026-04-24T09:42:53Z</time></trkpt><trkpt lat="44.173037622712364" lon="10.268499886540583"><ele>588.8000000000001</ele><time>2026-04-24T09:42:54Z</time></trkpt><trkpt lat="44.17307150076244" lon="10.268368800175097"><ele>587.0</ele><time>2026-04-24T09:42:55Z</time></trkpt><trkpt lat="44.173064975136384" lon="10.268211310951273"><ele>587.75</ele><time>2026-04-24T09:42:56Z</time></trkpt><trkpt lat="44.17301793926745" lon="10.268046530393473"><ele>588.5</ele><time>2026-04-24T09:42:57Z</time></trkpt><trkpt lat="44.17295901508269" lon="10.267862218035134"><ele>589.25</ele><time>2026-04-24T09:42:58Z</time></trkpt><trkpt lat="44.172904387326696" lon="10.267673621030651"><ele>590.0</ele><time>2026-04-24T09:42:59Z</time></trkpt><trkpt lat="44.17287741011246" lon="10.26748984020128"><ele>590.0</ele><time>2026-04-24T09:43:00Z</time></trkpt><trkpt lat="44.17286809871649" lon="10.267306075369627"><ele>590.0</ele><time>2026-04-24T09:43:01Z</time></trkpt><trkpt lat="44.1728487442893" lon="10.26712881740397"><ele>590.0</ele><time>2026-04-24T09:43:02Z</time></trkpt><trkpt lat="44.17279818846678" lon="10.266945882966812"><ele>590.0</ele><time>2026-04-24T09:43:03Z</time></trkpt><trkpt lat="44.17271711489189" lon="10.266751993319955"><ele>590.0</ele><time>2026-04-24T09:43:04Z</time></trkpt><trkpt lat="44.17262676593766" lon="10.266560099592429"><ele>590.0</ele><time>2026-04-24T09:43:05Z</time></trkpt><trkpt lat="44.17253783230551" lon="10.2663897746047"><ele>590.0</ele><time>2026-04-24T09:43:06Z</time></trkpt><trkpt lat="44.172463845419415" lon="10.266233794724847"><ele>592.5</ele><time>2026-04-24T09:43:07Z</time></trkpt><trkpt lat="44.17237310981793" lon="10.266099328401763"><ele>595.0</ele><time>2026-04-24T09:43:08Z</time></trkpt><trkpt lat="44.172266766675094" lon="10.266001494034724"><ele>597.5</ele><time>2026-04-24T09:43:09Z</time></trkpt><trkpt lat="44.17213352906717" lon="10.265928705341693"><ele>600.0</ele><time>2026-04-24T09:43:10Z</time></trkpt><trkpt lat="44.17197269590207" lon="10.265883246572866"><ele>600.0</ele><time>2026-04-24T09:43:11Z</time></trkpt><trkpt lat="44.171800539362415" lon="10.265849943493592"><ele>600.0</ele><time>2026-04-24T09:43:12Z</time></trkpt><trkpt lat="44.17161589122932" lon="10.265792013905466"><ele>600.0</ele><time>2026-04-24T09:43:13Z</time></trkpt><trkpt lat="44.1714570497011" lon="10.265725986726583"><ele>596.0</ele><time>2026-04-24T09:43:14Z</time></trkpt><trkpt lat="44.17131771701774" lon="10.265643422647628"><ele>592.0</ele><time>2026-04-24T09:43:15Z</time></trkpt><trkpt lat="44.171191354239575" lon="10.265569874654428"><ele>588.0</ele><time>2026-04-24T09:43:16Z</time></trkpt><trkpt lat="44.171070086709356" lon="10.265501319383818"><ele>584.0</ele><time>2026-04-24T09:43:17Z</time></trkpt><trkpt lat="44.17096918393899" lon="10.265429405685506"><ele>584.0</ele><time>2026-04-24T09:43:18Z</time></trkpt><trkpt lat="44.17088961483829" lon="10.265356597306697"><ele>584.0</ele><time>2026-04-24T09:43:19Z</time></trkpt><trkpt lat="44.170836576477015" lon="10.265268877343226"><ele>584.0</ele><time>2026-04-24T09:43:20Z</time></trkpt><trkpt lat="44.17079792752936" lon="10.265154370608263"><ele>584.0</ele><time>2026-04-24T09:43:21Z</time></trkpt><trkpt lat="44.17078948823331" lon="10.265029116309632"><ele>584.0</ele><time>2026-04-24T09:43:22Z</time></trkpt><trkpt lat="44.170822086350185" lon="10.264910749554891"><ele>584.0</ele><time>2026-04-24T09:43:23Z</time></trkpt><trkpt lat="44.17089061307063" lon="10.264799668153124"><ele>579.6666666666666</ele><time>2026-04-24T09:43:24Z</time></trkpt><trkpt lat="44.17099387743006" lon="10.264686875895082"><ele>575.3333333333334</ele><time>2026-04-24T09:43:25Z</time></trkpt><trkpt lat="44.171122488333104" lon="10.264558033758993"><ele>571.0</ele><time>2026-04-24T09:43:26Z</time></trkpt><trkpt lat="44.17126393993532" lon="10.26442372241774"><ele>571.0</ele><time>2026-04-24T09:43:27Z</time></trkpt><trkpt lat="44.17140102643602" lon="10.264293197447184"><ele>571.0</ele><time>2026-04-24T09:43:28Z</time></trkpt><trkpt lat="44.17152129089393" lon="10.264160994591109"><ele>571.0</ele><time>2026-04-24T09:43:29Z</time></trkpt><trkpt lat="44.1716362724075" lon="10.264035884454588"><ele>573.75</ele><time>2026-04-24T09:43:30Z</time></trkpt><trkpt lat="44.17173337936333" lon="10.263910951732214"><ele>576.5</ele><time>2026-04-24T09:43:31Z</time></trkpt><trkpt lat="44.17181185986772" lon="10.263755903076422"><ele>579.25</ele><time>2026-04-24T09:43:32Z</time></trkpt><trkpt lat="44.171872769933096" lon="10.263575210513423"><ele>582.0</ele><time>2026-04-24T09:43:33Z</time></trkpt><trkpt lat="44.17194886815158" lon="10.263417638540473"><ele>582.0</ele><time>2026-04-24T09:43:34Z</time></trkpt><trkpt lat="44.172034476127465" lon="10.263307414271262"><ele>582.0</ele><time>2026-04-24T09:43:35Z</time></trkpt><trkpt lat="44.17211714360169" lon="10.263213787342721"><ele>582.0</ele><time>2026-04-24T09:43:36Z</time></trkpt><trkpt lat="44.17219272741715" lon="10.26311891908338"><ele>582.0</ele><time>2026-04-24T09:43:37Z</time></trkpt><trkpt lat="44.1722395209228" lon="10.26302010768354"><ele>582.0</ele><time>2026-04-24T09:43:38Z</time></trkpt><trkpt lat="44.17226259126459" lon="10.262880726676546"><ele>581.75</ele><time>2026-04-24T09:43:39Z</time></trkpt><trkpt lat="44.17224981779618" lon="10.262714866274045"><ele>581.5</ele><time>2026-04-24T09:43:40Z</time></trkpt><trkpt lat="44.17221797726847" lon="10.262528199685066"><ele>581.25</ele><time>2026-04-24T09:43:41Z</time></trkpt><trkpt lat="44.17218985691088" lon="10.262336210367751"><ele>581.0</ele><time>2026-04-24T09:43:42Z</time></trkpt><trkpt lat="44.172190967414856" lon="10.262130987102248"><ele>584.25</ele><time>2026-04-24T09:43:43Z</time></trkpt><trkpt lat="44.172180227813904" lon="10.261936333081918"><ele>587.5</ele><time>2026-04-24T09:43:44Z</time></trkpt><trkpt lat="44.17216960618029" lon="10.261732586451576"><ele>590.75</ele><time>2026-04-24T09:43:45Z</time></trkpt><trkpt lat="44.17215784665124" lon="10.261527180754399"><ele>594.0</ele><time>2026-04-24T09:43:46Z</time></trkpt><trkpt lat="44.17215017039753" lon="10.261333058628558"><ele>599.25</ele><time>2026-04-24T09:43:47Z</time></trkpt><trkpt lat="44.172077499530815" lon="10.261196300916362"><ele>604.5</ele><time>2026-04-24T09:43:49Z</time></trkpt><trkpt lat="44.171975620581485" lon="10.261146901281544"><ele>609.75</ele><time>2026-04-24T09:43:50Z</time></trkpt><trkpt lat="44.1718607333363" lon="10.261112941811888"><ele>615.0</ele><time>2026-04-24T09:43:51Z</time></trkpt><trkpt lat="44.17173932133579" lon="10.261086088444747"><ele>615.0</ele><time>2026-04-24T09:43:52Z</time></trkpt><trkpt lat="44.17163053776106" lon="10.261031029569315"><ele>615.0</ele><time>2026-04-24T09:43:53Z</time></trkpt><trkpt lat="44.171546241918115" lon="10.260933437808198"><ele>615.0</ele><time>2026-04-24T09:43:54Z</time></trkpt><trkpt lat="44.171486338441305" lon="10.260800987323123"><ele>615.0</ele><time>2026-04-24T09:43:55Z</time></trkpt><trkpt lat="44.17144645057904" lon="10.26064789747292"><ele>610.5</ele><time>2026-04-24T09:43:56Z</time></trkpt><trkpt lat="44.17143215780476" lon="10.26048370299509"><ele>606.0</ele><time>2026-04-24T09:43:57Z</time></trkpt><trkpt lat="44.171444799247105" lon="10.26029905784046"><ele>601.5</ele><time>2026-04-24T09:43:58Z</time></trkpt><trkpt lat="44.17145495605777" lon="10.260098150371853"><ele>597.0</ele><time>2026-04-24T09:43:59Z</time></trkpt><trkpt lat="44.17145269630022" lon="10.25990396763544"><ele>602.0</ele><time>2026-04-24T09:44:00Z</time></trkpt><trkpt lat="44.17143013417381" lon="10.25974850895113"><ele>607.0</ele><time>2026-04-24T09:44:01Z</time></trkpt><trkpt lat="44.171364118488476" lon="10.259625186810643"><ele>612.0</ele><time>2026-04-24T09:44:02Z</time></trkpt><trkpt lat="44.17126349561759" lon="10.259504336776278"><ele>617.0</ele><time>2026-04-24T09:44:03Z</time></trkpt><trkpt lat="44.17115259279227" lon="10.259404783830096"><ele>617.0</ele><time>2026-04-24T09:44:04Z</time></trkpt><trkpt lat="44.17105657478802" lon="10.259312176745947"><ele>617.0</ele><time>2026-04-24T09:44:05Z</time></trkpt><trkpt lat="44.17099998392991" lon="10.259180503603616"><ele>617.0</ele><time>2026-04-24T09:44:06Z</time></trkpt><trkpt lat="44.17095538578437" lon="10.259024942782053"><ele>617.0</ele><time>2026-04-24T09:44:07Z</time></trkpt><trkpt lat="44.17092995055798" lon="10.258877676026204"><ele>614.0</ele><time>2026-04-24T09:44:08Z</time></trkpt><trkpt lat="44.170871567672926" lon="10.25875762192112"><ele>611.0</ele><time>2026-04-24T09:44:09Z</time></trkpt><trkpt lat="44.170779823888296" lon="10.258679019561077"><ele>608.0</ele><time>2026-04-24T09:44:10Z</time></trkpt><trkpt lat="44.17067925442146" lon="10.258631596292856"><ele>605.0</ele><time>2026-04-24T09:44:11Z</time></trkpt><trkpt lat="44.17057373259476" lon="10.258583437295067"><ele>602.0</ele><time>2026-04-24T09:44:12Z</time></trkpt><trkpt lat="44.1704803409886" lon="10.258530520089794"><ele>602.0</ele><time>2026-04-24T09:44:13Z</time></trkpt><trkpt lat="44.17039256822941" lon="10.258435933135631"><ele>602.0</ele><time>2026-04-24T09:44:14Z</time></trkpt><trkpt lat="44.17031961902767" lon="10.258324380512036"><ele>602.0</ele><time>2026-04-24T09:44:15Z</time></trkpt><trkpt lat="44.170262572737215" lon="10.258216431696221"><ele>602.0</ele><time>2026-04-24T09:44:16Z</time></trkpt><trkpt lat="44.17023402239585" lon="10.258098180990832"><ele>602.0</ele><time>2026-04-24T09:44:17Z</time></trkpt><trkpt lat="44.17024538477556" lon="10.25796656795028"><ele>601.25</ele><time>2026-04-24T09:44:18Z</time></trkpt><trkpt lat="44.17029675252039" lon="10.25784115295326"><ele>600.5</ele><time>2026-04-24T09:44:19Z</time></trkpt><trkpt lat="44.17037896256343" lon="10.257712548316636"><ele>599.75</ele><time>2026-04-24T09:44:20Z</time></trkpt><trkpt lat="44.17045873054201" lon="10.25755733686322"><ele>599.0</ele><time>2026-04-24T09:44:21Z</time></trkpt><trkpt lat="44.17050377202101" lon="10.257365980507345"><ele>597.6</ele><time>2026-04-24T09:44:22Z</time></trkpt><trkpt lat="44.17053470522046" lon="10.257205279737493"><ele>596.2</ele><time>2026-04-24T09:44:23Z</time></trkpt><trkpt lat="44.170596483504" lon="10.257139305503435"><ele>594.8000000000001</ele><time>2026-04-24T09:44:24Z</time></trkpt><trkpt lat="44.17067516456829" lon="10.25709299489872"><ele>593.4</ele><time>2026-04-24T09:44:25Z</time></trkpt><trkpt lat="44.170778256134255" lon="10.257018075031167"><ele>592.0</ele><time>2026-04-24T09:44:26Z</time></trkpt><trkpt lat="44.1709043375318" lon="10.256953551780287"><ele>601.0</ele><time>2026-04-24T09:44:27Z</time></trkpt><trkpt lat="44.17102094367263" lon="10.25688574555637"><ele>610.0</ele><time>2026-04-24T09:44:28Z</time></trkpt><trkpt lat="44.17111715317082" lon="10.256806077857682"><ele>619.0</ele><time>2026-04-24T09:44:29Z</time></trkpt><trkpt lat="44.17119462602926" lon="10.256678415443034"><ele>628.0</ele><time>2026-04-24T09:44:30Z</time></trkpt><trkpt lat="44.17125711667943" lon="10.256514962335253"><ele>628.5</ele><time>2026-04-24T09:44:31Z</time></trkpt><trkpt lat="44.17130842058467" lon="10.256320697847663"><ele>629.0</ele><time>2026-04-24T09:44:32Z</time></trkpt><trkpt lat="44.17136576820283" lon="10.256118997499623"><ele>629.5</ele><time>2026-04-24T09:44:33Z</time></trkpt><trkpt lat="44.17142019858295" lon="10.255962904090383"><ele>630.0</ele><time>2026-04-24T09:44:34Z</time></trkpt><trkpt lat="44.17145582617323" lon="10.255820341818756"><ele>630.0</ele><time>2026-04-24T09:44:35Z</time></trkpt><trkpt lat="44.17147105079779" lon="10.255680903725532"><ele>630.0</ele><time>2026-04-24T09:44:36Z</time></trkpt><trkpt lat="44.171455547891675" lon="10.255535494397938"><ele>630.0</ele><time>2026-04-24T09:44:37Z</time></trkpt><trkpt lat="44.17140630101677" lon="10.255377117962027"><ele>630.0</ele><time>2026-04-24T09:44:38Z</time></trkpt><trkpt lat="44.171328207880265" lon="10.255214386128172"><ele>630.5</ele><time>2026-04-24T09:44:39Z</time></trkpt><trkpt lat="44.17124064397077" lon="10.255056659020786"><ele>631.0</ele><time>2026-04-24T09:44:40Z</time></trkpt><trkpt lat="44.171169198528105" lon="10.25490262965638"><ele>631.5</ele><time>2026-04-24T09:44:41Z</time></trkpt><trkpt lat="44.17110596332585" lon="10.254747664987514"><ele>632.0</ele><time>2026-04-24T09:44:42Z</time></trkpt><trkpt lat="44.17103459216431" lon="10.254616751184134"><ele>632.0</ele><time>2026-04-24T09:44:43Z</time></trkpt><trkpt lat="44.17098023103691" lon="10.254489451949919"><ele>632.0</ele><time>2026-04-24T09:44:44Z</time></trkpt><trkpt lat="44.1709495149013" lon="10.254362668043711"><ele>632.0</ele><time>2026-04-24T09:44:45Z</time></trkpt><trkpt lat="44.1709463155176" lon="10.254234550670674"><ele>632.0</ele><time>2026-04-24T09:44:46Z</time></trkpt><trkpt lat="44.17098371176698" lon="10.254097546708715"><ele>632.0</ele><time>2026-04-24T09:44:47Z</time></trkpt><trkpt lat="44.17103606784608" lon="10.25395213542848"><ele>633.6</ele><time>2026-04-24T09:44:48Z</time></trkpt><trkpt lat="44.17108602854853" lon="10.253809894921053"><ele>635.2</ele><time>2026-04-24T09:44:49Z</time></trkpt><trkpt lat="44.17112793357133" lon="10.253682317970942"><ele>636.8</ele><time>2026-04-24T09:44:50Z</time></trkpt><trkpt lat="44.17113416851673" lon="10.253554181345994"><ele>638.4</ele><time>2026-04-24T09:44:51Z</time></trkpt><trkpt lat="44.17110123697782" lon="10.253434609078052"><ele>640.0</ele><time>2026-04-24T09:44:52Z</time></trkpt><trkpt lat="44.171043023741184" lon="10.253335124235358"><ele>640.0</ele><time>2026-04-24T09:44:53Z</time></trkpt><trkpt lat="44.17094929338202" lon="10.253282643643148"><ele>640.0</ele><time>2026-04-24T09:44:54Z</time></trkpt><trkpt lat="44.170839262308746" lon="10.253287065288657"><ele>640.0</ele><time>2026-04-24T09:44:55Z</time></trkpt><trkpt lat="44.17073107778166" lon="10.253348008933175"><ele>640.0</ele><time>2026-04-24T09:44:56Z</time></trkpt><trkpt lat="44.170605511866945" lon="10.253428626662222"><ele>640.0</ele><time>2026-04-24T09:44:57Z</time></trkpt><trkpt lat="44.17044351029346" lon="10.253488760594854"><ele>640.0</ele><time>2026-04-24T09:44:58Z</time></trkpt><trkpt lat="44.17027303808826" lon="10.253496840550975"><ele>640.0</ele><time>2026-04-24T09:44:59Z</time></trkpt><trkpt lat="44.17012613606928" lon="10.253550284744858"><ele>640.0</ele><time>2026-04-24T09:45:00Z</time></trkpt><trkpt lat="44.16999702706384" lon="10.253605230085576"><ele>640.0</ele><time>2026-04-24T09:45:01Z</time></trkpt><trkpt lat="44.16987628233197" lon="10.25366633365453"><ele>640.0</ele><time>2026-04-24T09:45:02Z</time></trkpt><trkpt lat="44.1697462135687" lon="10.253679774025429"><ele>640.0</ele><time>2026-04-24T09:45:03Z</time></trkpt><trkpt lat="44.16960138996403" lon="10.253663253537972"><ele>636.6666666666667</ele><time>2026-04-24T09:45:04Z</time></trkpt><trkpt lat="44.16943614045835" lon="10.253632941577331"><ele>633.3333333333334</ele><time>2026-04-24T09:45:05Z</time></trkpt><trkpt lat="44.1692665693475" lon="10.253586436593949"><ele>630.0</ele><time>2026-04-24T09:45:06Z</time></trkpt><trkpt lat="44.16911104526419" lon="10.253552163275447"><ele>631.0</ele><time>2026-04-24T09:45:07Z</time></trkpt><trkpt lat="44.168946063430916" lon="10.253523403678448"><ele>632.0</ele><time>2026-04-24T09:45:08Z</time></trkpt><trkpt lat="44.1687983609345" lon="10.253496551257154"><ele>633.0</ele><time>2026-04-24T09:45:09Z</time></trkpt><trkpt lat="44.168656603126415" lon="10.253458318862478"><ele>633.0</ele><time>2026-04-24T09:45:10Z</time></trkpt><trkpt lat="44.16852242144027" lon="10.2534446166492"><ele>633.0</ele><time>2026-04-24T09:45:11Z</time></trkpt><trkpt lat="44.16840093012169" lon="10.253456101670015"><ele>633.0</ele><time>2026-04-24T09:45:12Z</time></trkpt><trkpt lat="44.168281861345555" lon="10.25350767723172"><ele>633.0</ele><time>2026-04-24T09:45:13Z</time></trkpt><trkpt lat="44.16815722490478" lon="10.253604667030874"><ele>628.75</ele><time>2026-04-24T09:45:14Z</time></trkpt><trkpt lat="44.16802826375579" lon="10.25371937453256"><ele>624.5</ele><time>2026-04-24T09:45:15Z</time></trkpt><trkpt lat="44.16790618735243" lon="10.253811503136518"><ele>620.25</ele><time>2026-04-24T09:45:16Z</time></trkpt><trkpt lat="44.167795820394936" lon="10.253907774932035"><ele>616.0</ele><time>2026-04-24T09:45:17Z</time></trkpt><trkpt lat="44.16768045901042" lon="10.25399377200216"><ele>616.0</ele><time>2026-04-24T09:45:18Z</time></trkpt><trkpt lat="44.1675597110912" lon="10.254070251724148"><ele>616.0</ele><time>2026-04-24T09:45:19Z</time></trkpt><trkpt lat="44.167449486025625" lon="10.254123854029908"><ele>616.0</ele><time>2026-04-24T09:45:20Z</time></trkpt><trkpt lat="44.167353105591765" lon="10.254144973104818"><ele>616.0</ele><time>2026-04-24T09:45:21Z</time></trkpt><trkpt lat="44.16725976327193" lon="10.254132885240717"><ele>616.0</ele><time>2026-04-24T09:45:22Z</time></trkpt><trkpt lat="44.167174871060496" lon="10.254070686584008"><ele>613.0</ele><time>2026-04-24T09:45:23Z</time></trkpt><trkpt lat="44.16709473823332" lon="10.253960837815322"><ele>610.0</ele><time>2026-04-24T09:45:24Z</time></trkpt><trkpt lat="44.16700638744509" lon="10.253840343732051"><ele>607.0</ele><time>2026-04-24T09:45:25Z</time></trkpt><trkpt lat="44.16691515974992" lon="10.253755770831093"><ele>604.0</ele><time>2026-04-24T09:45:26Z</time></trkpt><trkpt lat="44.166806585874824" lon="10.253704489079636"><ele>603.4</ele><time>2026-04-24T09:45:27Z</time></trkpt><trkpt lat="44.166698978295464" lon="10.25370009626089"><ele>602.8</ele><time>2026-04-24T09:45:28Z</time></trkpt><trkpt lat="44.166602485202226" lon="10.253709800126687"><ele>602.2</ele><time>2026-04-24T09:45:29Z</time></trkpt><trkpt lat="44.16652686555065" lon="10.25368452706456"><ele>601.6</ele><time>2026-04-24T09:45:30Z</time></trkpt><trkpt lat="44.16646678619727" lon="10.253629351680601"><ele>601.0</ele><time>2026-04-24T09:45:31Z</time></trkpt><trkpt lat="44.166385872263" lon="10.253524958621748"><ele>601.0</ele><time>2026-04-24T09:45:32Z</time></trkpt><trkpt lat="44.166325922317476" lon="10.25338175073865"><ele>601.0</ele><time>2026-04-24T09:45:33Z</time></trkpt><trkpt lat="44.16625285194292" lon="10.253227695353303"><ele>601.0</ele><time>2026-04-24T09:45:34Z</time></trkpt><trkpt lat="44.16616050177118" lon="10.253095267982866"><ele>601.0</ele><time>2026-04-24T09:45:35Z</time></trkpt><trkpt lat="44.1660658558674" lon="10.25299584216268"><ele>602.0</ele><time>2026-04-24T09:45:36Z</time></trkpt><trkpt lat="44.165977654146594" lon="10.252928953666384"><ele>603.0</ele><time>2026-04-24T09:45:37Z</time></trkpt><trkpt lat="44.165899388886814" lon="10.252860320648976"><ele>604.0</ele><time>2026-04-24T09:45:38Z</time></trkpt><trkpt lat="44.16585230812809" lon="10.25275985562232"><ele>605.0</ele><time>2026-04-24T09:45:39Z</time></trkpt><trkpt lat="44.165830524877464" lon="10.252643733757"><ele>606.0</ele><time>2026-04-24T09:45:40Z</time></trkpt><trkpt lat="44.165837351858535" lon="10.252504292526366"><ele>606.0</ele><time>2026-04-24T09:45:41Z</time></trkpt><trkpt lat="44.165875175662954" lon="10.252350713878702"><ele>606.0</ele><time>2026-04-24T09:45:42Z</time></trkpt><trkpt lat="44.16591412478483" lon="10.252179515679147"><ele>606.0</ele><time>2026-04-24T09:45:43Z</time></trkpt><trkpt lat="44.16594534819504" lon="10.252003969484127"><ele>606.0</ele><time>2026-04-24T09:45:44Z</time></trkpt><trkpt lat="44.16596842226083" lon="10.251838391327802"><ele>605.75</ele><time>2026-04-24T09:45:45Z</time></trkpt><trkpt lat="44.16597670311129" lon="10.25168246577931"><ele>605.5</ele><time>2026-04-24T09:45:46Z</time></trkpt><trkpt lat="44.16595453403493" lon="10.251512684704544"><ele>605.25</ele><time>2026-04-24T09:45:47Z</time></trkpt><trkpt lat="44.16591049156911" lon="10.251335834349113"><ele>605.0</ele><time>2026-04-24T09:45:48Z</time></trkpt><trkpt lat="44.16585122126862" lon="10.25116120108268"><ele>604.75</ele><time>2026-04-24T09:45:49Z</time></trkpt><trkpt lat="44.16578286270053" lon="10.250988769447112"><ele>604.5</ele><time>2026-04-24T09:45:50Z</time></trkpt><trkpt lat="44.165711657297265" lon="10.250809467021993"><ele>604.25</ele><time>2026-04-24T09:45:51Z</time></trkpt><trkpt lat="44.16565457915773" lon="10.250633728321215"><ele>604.0</ele><time>2026-04-24T09:45:52Z</time></trkpt><trkpt lat="44.165605686071935" lon="10.250495420251951"><ele>603.5714285714287</ele><time>2026-04-24T09:45:53Z</time></trkpt><trkpt lat="44.16556739279357" lon="10.25038959081257"><ele>603.1428571428571</ele><time>2026-04-24T09:45:54Z</time></trkpt><trkpt lat="44.16553816404634" lon="10.250302375991236"><ele>602.7142857142858</ele><time>2026-04-24T09:45:55Z</time></trkpt><trkpt lat="44.165510154521044" lon="10.250215763671438"><ele>602.2857142857143</ele><time>2026-04-24T09:45:56Z</time></trkpt><trkpt lat="44.16548407804636" lon="10.250131905693676"><ele>601.8571428571429</ele><time>2026-04-24T09:45:57Z</time></trkpt><trkpt lat="44.16545094987628" lon="10.250049556035338"><ele>601.4285714285714</ele><time>2026-04-24T09:45:59Z</time></trkpt><trkpt lat="44.16541667188936" lon="10.249943086166141"><ele>601.0</ele><time>2026-04-24T09:48:24Z</time></trkpt><trkpt lat="44.16539459491733" lon="10.249848001548543"><ele>601.6</ele><time>2026-04-24T09:48:25Z</time></trkpt><trkpt lat="44.165354358249296" lon="10.24973474750251"><ele>602.2</ele><time>2026-04-24T09:48:26Z</time></trkpt><trkpt lat="44.165302232845306" lon="10.249605393353638"><ele>602.8</ele><time>2026-04-24T09:48:27Z</time></trkpt><trkpt lat="44.16525242779777" lon="10.249477850593784"><ele>603.4</ele><time>2026-04-24T09:48:28Z</time></trkpt><trkpt lat="44.165204650403034" lon="10.249330970900905"><ele>604.0</ele><time>2026-04-24T09:48:29Z</time></trkpt><trkpt lat="44.16514650230931" lon="10.249179423683675"><ele>604.0</ele><time>2026-04-24T09:48:30Z</time></trkpt><trkpt lat="44.16506127407895" lon="10.249039477012323"><ele>604.0</ele><time>2026-04-24T09:48:31Z</time></trkpt><trkpt lat="44.164956796358936" lon="10.24888995719584"><ele>604.0</ele><time>2026-04-24T09:48:32Z</time></trkpt><trkpt lat="44.16485244201868" lon="10.248745131814283"><ele>604.0</ele><time>2026-04-24T09:48:33Z</time></trkpt><trkpt lat="44.16472849757158" lon="10.24860819339802"><ele>604.6666666666667</ele><time>2026-04-24T09:48:34Z</time></trkpt><trkpt lat="44.16459332401016" lon="10.248468038275014"><ele>605.3333333333334</ele><time>2026-04-24T09:48:35Z</time></trkpt><trkpt lat="44.16447023772376" lon="10.248343034794011"><ele>606.0</ele><time>2026-04-24T09:48:36Z</time></trkpt><trkpt lat="44.16436556939137" lon="10.248226678251852"><ele>605.25</ele><time>2026-04-24T09:48:37Z</time></trkpt><trkpt lat="44.16426169034866" lon="10.248117803378582"><ele>604.5</ele><time>2026-04-24T09:48:38Z</time></trkpt><trkpt lat="44.16415075908531" lon="10.248006022851749"><ele>603.75</ele><time>2026-04-24T09:48:39Z</time></trkpt><trkpt lat="44.16402808118848" lon="10.247880469180004"><ele>603.0</ele><time>2026-04-24T09:48:40Z</time></trkpt><trkpt lat="44.16390316370094" lon="10.247744775247876"><ele>603.0</ele><time>2026-04-24T09:48:41Z</time></trkpt><trkpt lat="44.16377351263938" lon="10.247602341897284"><ele>603.0</ele><time>2026-04-24T09:48:42Z</time></trkpt><trkpt lat="44.163631331519895" lon="10.247460871734589"><ele>603.0</ele><time>2026-04-24T09:48:43Z</time></trkpt><trkpt lat="44.163498225150526" lon="10.247326680878773"><ele>602.25</ele><time>2026-04-24T09:48:44Z</time></trkpt><trkpt lat="44.163376919887384" lon="10.24719770087197"><ele>601.5</ele><time>2026-04-24T09:48:45Z</time></trkpt><trkpt lat="44.16326693434902" lon="10.247074029419863"><ele>600.75</ele><time>2026-04-24T09:48:46Z</time></trkpt><trkpt lat="44.163153399284354" lon="10.246952482100854"><ele>600.0</ele><time>2026-04-24T09:48:47Z</time></trkpt><trkpt lat="44.16304452747686" lon="10.246837662504346"><ele>600.0</ele><time>2026-04-24T09:48:48Z</time></trkpt><trkpt lat="44.162936008712244" lon="10.246727786056303"><ele>600.0</ele><time>2026-04-24T09:48:49Z</time></trkpt><trkpt lat="44.16283741597855" lon="10.246605871712362"><ele>600.0</ele><time>2026-04-24T09:48:50Z</time></trkpt><trkpt lat="44.16275622248586" lon="10.246448878427115"><ele>600.0</ele><time>2026-04-24T09:48:51Z</time></trkpt><trkpt lat="44.16267820466314" lon="10.246265380927332"><ele>601.25</ele><time>2026-04-24T09:48:52Z</time></trkpt><trkpt lat="44.16260911087782" lon="10.246084524825822"><ele>602.5</ele><time>2026-04-24T09:48:53Z</time></trkpt><trkpt lat="44.162541972520174" lon="10.245925438169696"><ele>603.75</ele><time>2026-04-24T09:48:54Z</time></trkpt><trkpt lat="44.16246809375806" lon="10.245770377850421"><ele>605.0</ele><time>2026-04-24T09:48:55Z</time></trkpt><trkpt lat="44.16241032906915" lon="10.245624649161527"><ele>605.5</ele><time>2026-04-24T09:48:56Z</time></trkpt><trkpt lat="44.162368751009545" lon="10.245457244165516"><ele>606.0</ele><time>2026-04-24T09:48:57Z</time></trkpt><trkpt lat="44.162355921294306" lon="10.245267805714207"><ele>606.5</ele><time>2026-04-24T09:48:58Z</time></trkpt><trkpt lat="44.162378163893564" lon="10.245071098396528"><ele>607.0</ele><time>2026-04-24T09:48:59Z</time></trkpt><trkpt lat="44.16242440745751" lon="10.244876316317583"><ele>607.0</ele><time>2026-04-24T09:49:00Z</time></trkpt><trkpt lat="44.16247205288765" lon="10.244682790453567"><ele>607.0</ele><time>2026-04-24T09:49:01Z</time></trkpt><trkpt lat="44.162525692577304" lon="10.244523781111942"><ele>607.0</ele><time>2026-04-24T09:49:02Z</time></trkpt><trkpt lat="44.16256876238733" lon="10.24437850668934"><ele>607.0</ele><time>2026-04-24T09:49:03Z</time></trkpt><trkpt lat="44.162593545303345" lon="10.244218292737955"><ele>607.0</ele><time>2026-04-24T09:49:04Z</time></trkpt><trkpt lat="44.162606005817736" lon="10.24404617655877"><ele>607.0</ele><time>2026-04-24T09:49:05Z</time></trkpt><trkpt lat="44.1625956712063" lon="10.243870694130438"><ele>607.0</ele><time>2026-04-24T09:49:06Z</time></trkpt><trkpt lat="44.16255595498372" lon="10.243693828319806"><ele>607.0</ele><time>2026-04-24T09:49:07Z</time></trkpt><trkpt lat="44.16250164190996" lon="10.243537927938535"><ele>607.25</ele><time>2026-04-24T09:49:08Z</time></trkpt><trkpt lat="44.16242623423872" lon="10.243396474867032"><ele>607.5</ele><time>2026-04-24T09:49:09Z</time></trkpt><trkpt lat="44.16233760333822" lon="10.243261859377139"><ele>607.75</ele><time>2026-04-24T09:49:10Z</time></trkpt><trkpt lat="44.16225892697167" lon="10.243135200830151"><ele>608.0</ele><time>2026-04-24T09:49:11Z</time></trkpt><trkpt lat="44.16217756559812" lon="10.243015991049178"><ele>608.0</ele><time>2026-04-24T09:49:12Z</time></trkpt><trkpt lat="44.16209776493301" lon="10.242904287931953"><ele>608.0</ele><time>2026-04-24T09:49:13Z</time></trkpt><trkpt lat="44.16204396323865" lon="10.242784909781466"><ele>608.0</ele><time>2026-04-24T09:49:14Z</time></trkpt><trkpt lat="44.162014409146764" lon="10.242663850750846"><ele>608.0</ele><time>2026-04-24T09:49:15Z</time></trkpt><trkpt lat="44.16198696729344" lon="10.242542054605954"><ele>608.0</ele><time>2026-04-24T09:49:16Z</time></trkpt><trkpt lat="44.16196863347269" lon="10.24242844123935"><ele>608.0</ele><time>2026-04-24T09:49:17Z</time></trkpt><trkpt lat="44.1619940159605" lon="10.242313870090639"><ele>608.0</ele><time>2026-04-24T09:49:18Z</time></trkpt><trkpt lat="44.16201170819522" lon="10.242090232572796"><ele>608.0</ele><time>2026-04-24T09:49:20Z</time></trkpt><trkpt lat="44.161964689200374" lon="10.2419789682035"><ele>608.0</ele><time>2026-04-24T09:49:21Z</time></trkpt><trkpt lat="44.16193158644667" lon="10.241863677030382"><ele>608.0</ele><time>2026-04-24T09:49:22Z</time></trkpt><trkpt lat="44.16192176592979" lon="10.241744318693534"><ele>608.0</ele><time>2026-04-24T09:49:23Z</time></trkpt><trkpt lat="44.161911204459834" lon="10.241617196236293"><ele>608.0</ele><time>2026-04-24T09:49:24Z</time></trkpt><trkpt lat="44.16187737836092" lon="10.241500358662146"><ele>608.0</ele><time>2026-04-24T09:49:25Z</time></trkpt><trkpt lat="44.161819961866044" lon="10.241399656347665"><ele>608.0</ele><time>2026-04-24T09:49:26Z</time></trkpt><trkpt lat="44.16174254550614" lon="10.241333136660964"><ele>608.0</ele><time>2026-04-24T09:49:27Z</time></trkpt><trkpt lat="44.16164902636983" lon="10.241307342792398"><ele>608.25</ele><time>2026-04-24T09:49:28Z</time></trkpt><trkpt lat="44.161545707314" lon="10.241312904648396"><ele>608.5</ele><time>2026-04-24T09:49:29Z</time></trkpt><trkpt lat="44.16142564578599" lon="10.241324776901966"><ele>608.75</ele><time>2026-04-24T09:49:30Z</time></trkpt><trkpt lat="44.1612942224271" lon="10.241333396463649"><ele>609.0</ele><time>2026-04-24T09:49:31Z</time></trkpt><trkpt lat="44.161159483650756" lon="10.241352286436571"><ele>610.0</ele><time>2026-04-24T09:49:32Z</time></trkpt><trkpt lat="44.161039938948434" lon="10.241350602561871"><ele>611.0</ele><time>2026-04-24T09:49:33Z</time></trkpt><trkpt lat="44.16093302538592" lon="10.241353863802912"><ele>612.0</ele><time>2026-04-24T09:49:34Z</time></trkpt><trkpt lat="44.16082845007408" lon="10.24136837439219"><ele>613.0</ele><time>2026-04-24T09:49:35Z</time></trkpt><trkpt lat="44.160732391247905" lon="10.241385685963792"><ele>614.0</ele><time>2026-04-24T09:49:36Z</time></trkpt><trkpt lat="44.16064913919988" lon="10.241417769389967"><ele>619.75</ele><time>2026-04-24T09:49:37Z</time></trkpt><trkpt lat="44.1604902153817" lon="10.241533408629406"><ele>625.5</ele><time>2026-04-24T09:49:39Z</time></trkpt><trkpt lat="44.16043829085327" lon="10.241644490600939"><ele>631.25</ele><time>2026-04-24T09:49:40Z</time></trkpt><trkpt lat="44.16038907223394" lon="10.241774616779967"><ele>637.0</ele><time>2026-04-24T09:49:41Z</time></trkpt><trkpt lat="44.16034860513611" lon="10.241915103504844"><ele>637.0</ele><time>2026-04-24T09:49:42Z</time></trkpt><trkpt lat="44.16032272319911" lon="10.242070318918051"><ele>637.0</ele><time>2026-04-24T09:49:43Z</time></trkpt><trkpt lat="44.16032622607132" lon="10.24223458940856"><ele>637.0</ele><time>2026-04-24T09:49:44Z</time></trkpt><trkpt lat="44.160345639109885" lon="10.242401206833263"><ele>637.0</ele><time>2026-04-24T09:49:45Z</time></trkpt><trkpt lat="44.160345452153074" lon="10.242589046385156"><ele>636.6666666666667</ele><time>2026-04-24T09:49:46Z</time></trkpt><trkpt lat="44.16033539727168" lon="10.242910153742248"><ele>636.3333333333334</ele><time>2026-04-24T09:49:48Z</time></trkpt><trkpt lat="44.16030721957494" lon="10.243081696431494"><ele>636.0</ele><time>2026-04-24T09:49:49Z</time></trkpt><trkpt lat="44.16027417777515" lon="10.243269738078949"><ele>635.25</ele><time>2026-04-24T09:49:50Z</time></trkpt><trkpt lat="44.16025505604144" lon="10.243471787253043"><ele>634.5</ele><time>2026-04-24T09:49:51Z</time></trkpt><trkpt lat="44.16022127703123" lon="10.243647884961819"><ele>633.75</ele><time>2026-04-24T09:49:52Z</time></trkpt><trkpt lat="44.16017977708885" lon="10.243801621148792"><ele>633.0</ele><time>2026-04-24T09:49:53Z</time></trkpt><trkpt lat="44.16015070001226" lon="10.243961196191467"><ele>630.5</ele><time>2026-04-24T09:49:54Z</time></trkpt><trkpt lat="44.160136903205455" lon="10.244128941468405"><ele>628.0</ele><time>2026-04-24T09:49:55Z</time></trkpt><trkpt lat="44.16008773617825" lon="10.244273969206414"><ele>625.5</ele><time>2026-04-24T09:49:56Z</time></trkpt><trkpt lat="44.160040731167136" lon="10.24441376207956"><ele>623.0</ele><time>2026-04-24T09:49:57Z</time></trkpt><trkpt lat="44.15998640325476" lon="10.24456223700308"><ele>623.0</ele><time>2026-04-24T09:49:58Z</time></trkpt><trkpt lat="44.15988210219887" lon="10.244671331776896"><ele>623.0</ele><time>2026-04-24T09:49:59Z</time></trkpt><trkpt lat="44.15977338342604" lon="10.244791527689786"><ele>623.0</ele><time>2026-04-24T09:50:00Z</time></trkpt><trkpt lat="44.159653390783" lon="10.244917022375311"><ele>623.0</ele><time>2026-04-24T09:50:01Z</time></trkpt><trkpt lat="44.15954030706075" lon="10.245050169419104"><ele>624.75</ele><time>2026-04-24T09:50:02Z</time></trkpt><trkpt lat="44.159430736747225" lon="10.245150300460585"><ele>626.5</ele><time>2026-04-24T09:50:03Z</time></trkpt><trkpt lat="44.159312157185965" lon="10.245198251098648"><ele>628.25</ele><time>2026-04-24T09:50:04Z</time></trkpt><trkpt lat="44.15918431871015" lon="10.245248571826206"><ele>630.0</ele><time>2026-04-24T09:50:05Z</time></trkpt><trkpt lat="44.1590394450607" lon="10.245293342612731"><ele>631.5</ele><time>2026-04-24T09:50:06Z</time></trkpt><trkpt lat="44.158878186195906" lon="10.245323738227786"><ele>633.0</ele><time>2026-04-24T09:50:07Z</time></trkpt><trkpt lat="44.15873841377027" lon="10.245341732536838"><ele>634.5</ele><time>2026-04-24T09:50:08Z</time></trkpt><trkpt lat="44.158596598570476" lon="10.245348665696733"><ele>636.0</ele><time>2026-04-24T09:50:09Z</time></trkpt><trkpt lat="44.15845920684705" lon="10.245363844819114"><ele>636.0</ele><time>2026-04-24T09:50:10Z</time></trkpt><trkpt lat="44.158331382835705" lon="10.245391246544484"><ele>636.0</ele><time>2026-04-24T09:50:11Z</time></trkpt><trkpt lat="44.15820957334917" lon="10.245447979073411"><ele>636.0</ele><time>2026-04-24T09:50:12Z</time></trkpt><trkpt lat="44.1580856890788" lon="10.245533299995873"><ele>636.0</ele><time>2026-04-24T09:50:13Z</time></trkpt><trkpt lat="44.15796344176275" lon="10.24563045286514"><ele>629.6666666666666</ele><time>2026-04-24T09:50:14Z</time></trkpt><trkpt lat="44.157842828189075" lon="10.245748607060161"><ele>623.3333333333333</ele><time>2026-04-24T09:50:15Z</time></trkpt><trkpt lat="44.157709692811956" lon="10.245859465054906"><ele>617.0</ele><time>2026-04-24T09:50:16Z</time></trkpt><trkpt lat="44.15757021397724" lon="10.245969857845672"><ele>617.0</ele><time>2026-04-24T09:50:17Z</time></trkpt><trkpt lat="44.15743316909783" lon="10.24609581015908"><ele>617.0</ele><time>2026-04-24T09:50:18Z</time></trkpt><trkpt lat="44.15728839581566" lon="10.24622169382678"><ele>617.0</ele><time>2026-04-24T09:50:19Z</time></trkpt><trkpt lat="44.15713703092097" lon="10.246351525761147"><ele>616.3333333333333</ele><time>2026-04-24T09:50:20Z</time></trkpt><trkpt lat="44.15699005898453" lon="10.246488779646988"><ele>615.6666666666666</ele><time>2026-04-24T09:50:21Z</time></trkpt><trkpt lat="44.1568494165345" lon="10.246613023119103"><ele>615.0</ele><time>2026-04-24T09:50:22Z</time></trkpt><trkpt lat="44.15672265116679" lon="10.24671504131365"><ele>615.0</ele><time>2026-04-24T09:50:23Z</time></trkpt><trkpt lat="44.15660370318675" lon="10.246822147229162"><ele>615.0</ele><time>2026-04-24T09:50:24Z</time></trkpt><trkpt lat="44.15648466569137" lon="10.246925615178013"><ele>615.0</ele><time>2026-04-24T09:50:25Z</time></trkpt><trkpt lat="44.15635435875797" lon="10.247028934583255"><ele>615.0</ele><time>2026-04-24T09:50:26Z</time></trkpt><trkpt lat="44.15622700654473" lon="10.247144704205995"><ele>615.0</ele><time>2026-04-24T09:50:27Z</time></trkpt><trkpt lat="44.15608618545383" lon="10.247239243579228"><ele>615.0</ele><time>2026-04-24T09:50:28Z</time></trkpt><trkpt lat="44.15596647610432" lon="10.247352779567846"><ele>615.0</ele><time>2026-04-24T09:50:29Z</time></trkpt><trkpt lat="44.155845774810786" lon="10.247412084335888"><ele>615.0</ele><time>2026-04-24T09:50:30Z</time></trkpt><trkpt lat="44.15572496183913" lon="10.247453977541698"><ele>615.25</ele><time>2026-04-24T09:50:31Z</time></trkpt><trkpt lat="44.15559527458648" lon="10.247488513357109"><ele>615.5</ele><time>2026-04-24T09:50:32Z</time></trkpt><trkpt lat="44.15545065820063" lon="10.247507201220907"><ele>615.75</ele><time>2026-04-24T09:50:33Z</time></trkpt><trkpt lat="44.15529841908651" lon="10.247497153506965"><ele>616.0</ele><time>2026-04-24T09:50:34Z</time></trkpt><trkpt lat="44.155144067880705" lon="10.247524119170057"><ele>616.0</ele><time>2026-04-24T09:50:35Z</time></trkpt><trkpt lat="44.15498055803222" lon="10.247522531423483"><ele>616.0</ele><time>2026-04-24T09:50:36Z</time></trkpt><trkpt lat="44.15481526610328" lon="10.247542202447155"><ele>616.0</ele><time>2026-04-24T09:50:37Z</time></trkpt><trkpt lat="44.15466773298801" lon="10.247547100295886"><ele>616.5</ele><time>2026-04-24T09:50:38Z</time></trkpt><trkpt lat="44.154528365409604" lon="10.247554468712014"><ele>617.0</ele><time>2026-04-24T09:50:39Z</time></trkpt><trkpt lat="44.15439307933139" lon="10.247568118554526"><ele>617.5</ele><time>2026-04-24T09:50:40Z</time></trkpt><trkpt lat="44.154260988062056" lon="10.24757580170548"><ele>618.0</ele><time>2026-04-24T09:50:41Z</time></trkpt><trkpt lat="44.15412497660455" lon="10.247576852288246"><ele>619.75</ele><time>2026-04-24T09:50:42Z</time></trkpt><trkpt lat="44.153984625157726" lon="10.247584332423973"><ele>621.5</ele><time>2026-04-24T09:50:43Z</time></trkpt><trkpt lat="44.15384123188398" lon="10.247608010431936"><ele>623.25</ele><time>2026-04-24T09:50:44Z</time></trkpt><trkpt lat="44.15369585399379" lon="10.247643290754542"><ele>625.0</ele><time>2026-04-24T09:50:45Z</time></trkpt><trkpt lat="44.15354877718766" lon="10.247694672962268"><ele>625.0</ele><time>2026-04-24T09:50:46Z</time></trkpt><trkpt lat="44.15340330880637" lon="10.247762091191056"><ele>625.0</ele><time>2026-04-24T09:50:47Z</time></trkpt><trkpt lat="44.15325269526341" lon="10.247853653725373"><ele>625.0</ele><time>2026-04-24T09:50:48Z</time></trkpt><trkpt lat="44.15311373317684" lon="10.247938479731005"><ele>624.75</ele><time>2026-04-24T09:50:49Z</time></trkpt><trkpt lat="44.15298739144439" lon="10.248002942656804"><ele>624.5</ele><time>2026-04-24T09:50:50Z</time></trkpt><trkpt lat="44.15287081532535" lon="10.248078058670465"><ele>624.25</ele><time>2026-04-24T09:50:51Z</time></trkpt><trkpt lat="44.15274968449759" lon="10.248143388169776"><ele>624.0</ele><time>2026-04-24T09:50:52Z</time></trkpt><trkpt lat="44.15263579200564" lon="10.248204746922088"><ele>624.0</ele><time>2026-04-24T09:50:53Z</time></trkpt><trkpt lat="44.1525248984852" lon="10.248244909685875"><ele>624.0</ele><time>2026-04-24T09:50:54Z</time></trkpt><trkpt lat="44.15241871413364" lon="10.248311695889331"><ele>624.0</ele><time>2026-04-24T09:50:55Z</time></trkpt><trkpt lat="44.15229721379846" lon="10.248332713543125"><ele>624.0</ele><time>2026-04-24T09:50:56Z</time></trkpt><trkpt lat="44.152174584933775" lon="10.248322020846572"><ele>624.25</ele><time>2026-04-24T09:50:57Z</time></trkpt><trkpt lat="44.15203651777595" lon="10.24830802223011"><ele>624.5</ele><time>2026-04-24T09:50:58Z</time></trkpt><trkpt lat="44.15188911694834" lon="10.248287636341214"><ele>624.75</ele><time>2026-04-24T09:50:59Z</time></trkpt><trkpt lat="44.15173582248812" lon="10.248255519031527"><ele>625.0</ele><time>2026-04-24T09:51:00Z</time></trkpt><trkpt lat="44.15158692726266" lon="10.248236297724839"><ele>628.25</ele><time>2026-04-24T09:51:01Z</time></trkpt><trkpt lat="44.151455343952115" lon="10.248215278583505"><ele>631.5</ele><time>2026-04-24T09:51:02Z</time></trkpt><trkpt lat="44.15133134444746" lon="10.248212565144605"><ele>634.75</ele><time>2026-04-24T09:51:03Z</time></trkpt><trkpt lat="44.15119926071851" lon="10.248250527759527"><ele>638.0</ele><time>2026-04-24T09:51:04Z</time></trkpt><trkpt lat="44.15106996407608" lon="10.248331344862438"><ele>638.0</ele><time>2026-04-24T09:51:05Z</time></trkpt><trkpt lat="44.15093231417045" lon="10.248426679484764"><ele>638.0</ele><time>2026-04-24T09:51:06Z</time></trkpt><trkpt lat="44.1507935947278" lon="10.24852655369221"><ele>638.0</ele><time>2026-04-24T09:51:07Z</time></trkpt><trkpt lat="44.150646222201736" lon="10.248639829149644"><ele>644.6666666666666</ele><time>2026-04-24T09:51:08Z</time></trkpt><trkpt lat="44.15051385194797" lon="10.248756252669326"><ele>651.3333333333334</ele><time>2026-04-24T09:51:09Z</time></trkpt><trkpt lat="44.1503825683872" lon="10.24884883140444"><ele>658.0</ele><time>2026-04-24T09:51:10Z</time></trkpt><trkpt lat="44.15024374473848" lon="10.24893019783989"><ele>652.6666666666667</ele><time>2026-04-24T09:51:11Z</time></trkpt><trkpt lat="44.15009387212082" lon="10.248992873387726"><ele>647.3333333333334</ele><time>2026-04-24T09:51:12Z</time></trkpt><trkpt lat="44.14994147375033" lon="10.24904098479943"><ele>642.0</ele><time>2026-04-24T09:51:13Z</time></trkpt><trkpt lat="44.1497993775416" lon="10.249074657841135"><ele>642.0</ele><time>2026-04-24T09:51:14Z</time></trkpt><trkpt lat="44.14967602287823" lon="10.249084215766514"><ele>642.0</ele><time>2026-04-24T09:51:15Z</time></trkpt><trkpt lat="44.149562551640706" lon="10.249101011026578"><ele>642.0</ele><time>2026-04-24T09:51:16Z</time></trkpt><trkpt lat="44.149456151736764" lon="10.249104479219916"><ele>642.0</ele><time>2026-04-24T09:51:17Z</time></trkpt><trkpt lat="44.149356224066985" lon="10.249140363957224"><ele>642.0</ele><time>2026-04-24T09:51:18Z</time></trkpt><trkpt lat="44.14924193616771" lon="10.249219738674622"><ele>642.0</ele><time>2026-04-24T09:51:19Z</time></trkpt><trkpt lat="44.14910910657632" lon="10.249319247462266"><ele>642.0</ele><time>2026-04-24T09:51:20Z</time></trkpt><trkpt lat="44.14896430881033" lon="10.249429096645684"><ele>642.0</ele><time>2026-04-24T09:51:21Z</time></trkpt><trkpt lat="44.14883153811441" lon="10.249523228978754"><ele>641.75</ele><time>2026-04-24T09:51:22Z</time></trkpt><trkpt lat="44.14870227600372" lon="10.249617901569342"><ele>641.5</ele><time>2026-04-24T09:51:23Z</time></trkpt><trkpt lat="44.14857414208266" lon="10.249708967302116"><ele>641.25</ele><time>2026-04-24T09:51:24Z</time></trkpt><trkpt lat="44.148444766846595" lon="10.249813968208706"><ele>641.0</ele><time>2026-04-24T09:51:25Z</time></trkpt><trkpt lat="44.148319558723664" lon="10.249921576101764"><ele>645.25</ele><time>2026-04-24T09:51:26Z</time></trkpt><trkpt lat="44.148181931789615" lon="10.250021453904129"><ele>649.5</ele><time>2026-04-24T09:51:27Z</time></trkpt><trkpt lat="44.14806012346455" lon="10.250105599124597"><ele>653.75</ele><time>2026-04-24T09:51:28Z</time></trkpt><trkpt lat="44.1479407282982" lon="10.25018971797335"><ele>658.0</ele><time>2026-04-24T09:51:29Z</time></trkpt><trkpt lat="44.14780500404527" lon="10.250249277665143"><ele>658.0</ele><time>2026-04-24T09:51:30Z</time></trkpt><trkpt lat="44.14766165055743" lon="10.250295147893427"><ele>658.0</ele><time>2026-04-24T09:51:31Z</time></trkpt><trkpt lat="44.14751723492701" lon="10.250365651711451"><ele>658.0</ele><time>2026-04-24T09:51:32Z</time></trkpt><trkpt lat="44.14737666061295" lon="10.250468211285252"><ele>656.6666666666667</ele><time>2026-04-24T09:51:33Z</time></trkpt><trkpt lat="44.14723579261268" lon="10.250600621079615"><ele>655.3333333333334</ele><time>2026-04-24T09:51:34Z</time></trkpt><trkpt lat="44.147095130731856" lon="10.25073607463858"><ele>654.0</ele><time>2026-04-24T09:51:35Z</time></trkpt><trkpt lat="44.14696141998116" lon="10.250853972887"><ele>654.0</ele><time>2026-04-24T09:51:36Z</time></trkpt><trkpt lat="44.14685396782303" lon="10.250958131532386"><ele>654.0</ele><time>2026-04-24T09:51:37Z</time></trkpt><trkpt lat="44.146746921042414" lon="10.251056485913617"><ele>654.0</ele><time>2026-04-24T09:51:38Z</time></trkpt><trkpt lat="44.14658417449392" lon="10.251227190634657"><ele>653.2</ele><time>2026-04-24T09:51:39Z</time></trkpt><trkpt lat="44.146479985801165" lon="10.251333203837367"><ele>652.4000000000001</ele><time>2026-04-24T09:51:40Z</time></trkpt><trkpt lat="44.1463834706171" lon="10.251425542991502"><ele>651.6</ele><time>2026-04-24T09:51:41Z</time></trkpt><trkpt lat="44.14628903466596" lon="10.251499726926255"><ele>650.8</ele><time>2026-04-24T09:51:42Z</time></trkpt><trkpt lat="44.146205128336696" lon="10.251547251458604"><ele>650.0</ele><time>2026-04-24T09:51:43Z</time></trkpt><trkpt lat="44.14612427567457" lon="10.251577975658641"><ele>650.0</ele><time>2026-04-24T09:51:44Z</time></trkpt><trkpt lat="44.14602953809513" lon="10.251622946998278"><ele>650.0</ele><time>2026-04-24T09:51:45Z</time></trkpt><trkpt lat="44.14591659573992" lon="10.251634996250834"><ele>650.0</ele><time>2026-04-24T09:51:46Z</time></trkpt><trkpt lat="44.14578927142754" lon="10.251616595264869"><ele>650.0</ele><time>2026-04-24T09:51:47Z</time></trkpt><trkpt lat="44.14565578230622" lon="10.251616251342861"><ele>650.25</ele><time>2026-04-24T09:51:48Z</time></trkpt><trkpt lat="44.14553435542565" lon="10.251614006711092"><ele>650.5</ele><time>2026-04-24T09:51:49Z</time></trkpt><trkpt lat="44.14542248773795" lon="10.251631845672765"><ele>650.75</ele><time>2026-04-24T09:51:50Z</time></trkpt><trkpt lat="44.14530489906699" lon="10.251647451162807"><ele>651.0</ele><time>2026-04-24T09:51:51Z</time></trkpt><trkpt lat="44.14518712823949" lon="10.251701886891912"><ele>651.0</ele><time>2026-04-24T09:51:52Z</time></trkpt><trkpt lat="44.14506074936426" lon="10.251778744449116"><ele>651.0</ele><time>2026-04-24T09:51:53Z</time></trkpt><trkpt lat="44.14492705084397" lon="10.25186557457861"><ele>651.0</ele><time>2026-04-24T09:51:54Z</time></trkpt><trkpt lat="44.14478091772467" lon="10.25196208278272"><ele>651.0</ele><time>2026-04-24T09:51:55Z</time></trkpt><trkpt lat="44.14462281012326" lon="10.252045410358477"><ele>657.0</ele><time>2026-04-24T09:51:56Z</time></trkpt><trkpt lat="44.144473813792494" lon="10.252128019792941"><ele>663.0</ele><time>2026-04-24T09:51:57Z</time></trkpt><trkpt lat="44.144332727575026" lon="10.252210538331406"><ele>669.0</ele><time>2026-04-24T09:51:58Z</time></trkpt><trkpt lat="44.144194662585974" lon="10.252287463727273"><ele>668.0</ele><time>2026-04-24T09:51:59Z</time></trkpt><trkpt lat="44.144076504648226" lon="10.252364632296835"><ele>667.0</ele><time>2026-04-24T09:52:00Z</time></trkpt><trkpt lat="44.1439794171621" lon="10.252437703025166"><ele>666.0</ele><time>2026-04-24T09:52:01Z</time></trkpt><trkpt lat="44.14387297866834" lon="10.252494117456655"><ele>665.0</ele><time>2026-04-24T09:52:02Z</time></trkpt><trkpt lat="44.14375815111512" lon="10.252559117296443"><ele>665.0</ele><time>2026-04-24T09:52:03Z</time></trkpt><trkpt lat="44.14364323529421" lon="10.25262324814265"><ele>665.0</ele><time>2026-04-24T09:52:04Z</time></trkpt><trkpt lat="44.14351058697328" lon="10.252677578310738"><ele>665.0</ele><time>2026-04-24T09:52:05Z</time></trkpt><trkpt lat="44.14337259055481" lon="10.252725164455775"><ele>665.0</ele><time>2026-04-24T09:52:06Z</time></trkpt><trkpt lat="44.14323217673831" lon="10.252763594423259"><ele>664.5</ele><time>2026-04-24T09:52:07Z</time></trkpt><trkpt lat="44.14311391504032" lon="10.252811790711716"><ele>664.0</ele><time>2026-04-24T09:52:08Z</time></trkpt><trkpt lat="44.142984438711785" lon="10.252849828962994"><ele>663.5</ele><time>2026-04-24T09:52:09Z</time></trkpt><trkpt lat="44.14284915769312" lon="10.252860848351958"><ele>663.0</ele><time>2026-04-24T09:52:10Z</time></trkpt><trkpt lat="44.142726799860895" lon="10.252849372792733"><ele>663.0</ele><time>2026-04-24T09:52:11Z</time></trkpt><trkpt lat="44.14262096982032" lon="10.252818050975325"><ele>663.0</ele><time>2026-04-24T09:52:12Z</time></trkpt><trkpt lat="44.142516619436506" lon="10.252766787983337"><ele>663.0</ele><time>2026-04-24T09:52:13Z</time></trkpt><trkpt lat="44.142432631222164" lon="10.252674944567438"><ele>663.0</ele><time>2026-04-24T09:52:14Z</time></trkpt><trkpt lat="44.142356709826785" lon="10.252551989687156"><ele>663.0</ele><time>2026-04-24T09:52:15Z</time></trkpt><trkpt lat="44.14227151297657" lon="10.252397670170243"><ele>661.6666666666666</ele><time>2026-04-24T09:52:16Z</time></trkpt><trkpt lat="44.1421690309027" lon="10.25223353789464"><ele>660.3333333333333</ele><time>2026-04-24T09:52:17Z</time></trkpt><trkpt lat="44.142046627880895" lon="10.252081010193502"><ele>659.0</ele><time>2026-04-24T09:52:18Z</time></trkpt><trkpt lat="44.141906319416414" lon="10.251927276230616"><ele>659.0</ele><time>2026-04-24T09:52:19Z</time></trkpt><trkpt lat="44.14175551251642" lon="10.251778923722169"><ele>659.0</ele><time>2026-04-24T09:52:20Z</time></trkpt><trkpt lat="44.141603071946825" lon="10.251618455269544"><ele>659.0</ele><time>2026-04-24T09:52:21Z</time></trkpt><trkpt lat="44.141451345907264" lon="10.251454540088233"><ele>660.3333333333333</ele><time>2026-04-24T09:52:22Z</time></trkpt><trkpt lat="44.14130068574537" lon="10.251313162228106"><ele>661.6666666666666</ele><time>2026-04-24T09:52:23Z</time></trkpt><trkpt lat="44.14116556327609" lon="10.251182292864275"><ele>663.0</ele><time>2026-04-24T09:52:24Z</time></trkpt><trkpt lat="44.14103116743608" lon="10.251042876425638"><ele>663.0</ele><time>2026-04-24T09:52:25Z</time></trkpt><trkpt lat="44.14089710556437" lon="10.250919932093726"><ele>663.0</ele><time>2026-04-24T09:52:26Z</time></trkpt><trkpt lat="44.14076650463499" lon="10.250802572698385"><ele>663.0</ele><time>2026-04-24T09:52:27Z</time></trkpt><trkpt lat="44.14064683529691" lon="10.250680825659963"><ele>664.75</ele><time>2026-04-24T09:52:28Z</time></trkpt><trkpt lat="44.14053274171487" lon="10.25058068969726"><ele>666.5</ele><time>2026-04-24T09:52:29Z</time></trkpt><trkpt lat="44.14042346418273" lon="10.250478015286848"><ele>668.25</ele><time>2026-04-24T09:52:30Z</time></trkpt><trkpt lat="44.140311353675806" lon="10.250367532910703"><ele>670.0</ele><time>2026-04-24T09:52:31Z</time></trkpt><trkpt lat="44.14018895096771" lon="10.250272565286702"><ele>670.0</ele><time>2026-04-24T09:52:32Z</time></trkpt><trkpt lat="44.14005158736898" lon="10.250201216939718"><ele>670.0</ele><time>2026-04-24T09:52:33Z</time></trkpt><trkpt lat="44.13991343541612" lon="10.250147660369604"><ele>670.0</ele><time>2026-04-24T09:52:34Z</time></trkpt><trkpt lat="44.13978843734634" lon="10.250125360330147"><ele>670.0</ele><time>2026-04-24T09:52:35Z</time></trkpt><trkpt lat="44.139677735420705" lon="10.25009729112492"><ele>670.75</ele><time>2026-04-24T09:52:36Z</time></trkpt><trkpt lat="44.13956703169475" lon="10.250052454964461"><ele>671.5</ele><time>2026-04-24T09:52:37Z</time></trkpt><trkpt lat="44.13945753231349" lon="10.249986217144157"><ele>672.25</ele><time>2026-04-24T09:52:38Z</time></trkpt><trkpt lat="44.139366194114054" lon="10.249896999862157"><ele>673.0</ele><time>2026-04-24T09:52:39Z</time></trkpt><trkpt lat="44.139289330702965" lon="10.24980056417724"><ele>672.5</ele><time>2026-04-24T09:52:40Z</time></trkpt><trkpt lat="44.139227580862915" lon="10.24967542145068"><ele>672.0</ele><time>2026-04-24T09:52:41Z</time></trkpt><trkpt lat="44.13917293503947" lon="10.249516100234084"><ele>671.5</ele><time>2026-04-24T09:52:42Z</time></trkpt><trkpt lat="44.139117890074985" lon="10.24934417886422"><ele>671.0</ele><time>2026-04-24T09:52:43Z</time></trkpt><trkpt lat="44.13905963085138" lon="10.249166091044199"><ele>671.25</ele><time>2026-04-24T09:52:44Z</time></trkpt><trkpt lat="44.13899101911127" lon="10.248986915879422"><ele>671.5</ele><time>2026-04-24T09:52:45Z</time></trkpt><trkpt lat="44.138933831539504" lon="10.248818360863076"><ele>671.75</ele><time>2026-04-24T09:52:46Z</time></trkpt><trkpt lat="44.13887783328477" lon="10.248662189847941"><ele>672.0</ele><time>2026-04-24T09:52:47Z</time></trkpt><trkpt lat="44.13882143225564" lon="10.248497641293017"><ele>672.0</ele><time>2026-04-24T09:52:48Z</time></trkpt><trkpt lat="44.13877646880653" lon="10.248335321007291"><ele>672.0</ele><time>2026-04-24T09:52:49Z</time></trkpt><trkpt lat="44.138719338258234" lon="10.248176041944978"><ele>672.0</ele><time>2026-04-24T09:52:50Z</time></trkpt><trkpt lat="44.13865137801715" lon="10.248036197534667"><ele>672.0</ele><time>2026-04-24T09:52:51Z</time></trkpt><trkpt lat="44.13857186238083" lon="10.24791570864856"><ele>672.5</ele><time>2026-04-24T09:52:52Z</time></trkpt><trkpt lat="44.13848288633153" lon="10.247805576100719"><ele>673.0</ele><time>2026-04-24T09:52:53Z</time></trkpt><trkpt lat="44.13837411927033" lon="10.247707443611665"><ele>673.5</ele><time>2026-04-24T09:52:54Z</time></trkpt><trkpt lat="44.13825139816625" lon="10.24761022489002"><ele>674.0</ele><time>2026-04-24T09:52:55Z</time></trkpt><trkpt lat="44.13811987655777" lon="10.247511389287098"><ele>675.0</ele><time>2026-04-24T09:52:56Z</time></trkpt><trkpt lat="44.13797515739216" lon="10.247421455693848"><ele>676.0</ele><time>2026-04-24T09:52:57Z</time></trkpt><trkpt lat="44.13782787976982" lon="10.247325197652229"><ele>677.0</ele><time>2026-04-24T09:52:58Z</time></trkpt><trkpt lat="44.13768290398032" lon="10.247240827569165"><ele>677.0</ele><time>2026-04-24T09:52:59Z</time></trkpt><trkpt lat="44.13755226387242" lon="10.247161042477597"><ele>677.0</ele><time>2026-04-24T09:53:00Z</time></trkpt><trkpt lat="44.13743633426242" lon="10.247071280393838"><ele>677.0</ele><time>2026-04-24T09:53:01Z</time></trkpt><trkpt lat="44.1373314444223" lon="10.24698798453985"><ele>677.0</ele><time>2026-04-24T09:53:02Z</time></trkpt><trkpt lat="44.137226380219204" lon="10.246921386347502"><ele>679.25</ele><time>2026-04-24T09:53:03Z</time></trkpt><trkpt lat="44.137125160913904" lon="10.246844807839482"><ele>681.5</ele><time>2026-04-24T09:53:04Z</time></trkpt><trkpt lat="44.137029762107346" lon="10.246763714954067"><ele>683.75</ele><time>2026-04-24T09:53:05Z</time></trkpt><trkpt lat="44.136926714448144" lon="10.246678911272612"><ele>686.0</ele><time>2026-04-24T09:53:06Z</time></trkpt><trkpt lat="44.136826810688795" lon="10.246575428058335"><ele>686.0</ele><time>2026-04-24T09:53:07Z</time></trkpt><trkpt lat="44.13674639730732" lon="10.246466829447433"><ele>686.0</ele><time>2026-04-24T09:53:08Z</time></trkpt><trkpt lat="44.13667203147235" lon="10.24633842324551"><ele>686.0</ele><time>2026-04-24T09:53:09Z</time></trkpt><trkpt lat="44.13660025307534" lon="10.246196191277162"><ele>686.0</ele><time>2026-04-24T09:53:10Z</time></trkpt><trkpt lat="44.13652928106096" lon="10.246032806578459"><ele>685.3333333333333</ele><time>2026-04-24T09:53:11Z</time></trkpt><trkpt lat="44.13645668276552" lon="10.245855665294982"><ele>684.6666666666666</ele><time>2026-04-24T09:53:12Z</time></trkpt><trkpt lat="44.136377242888294" lon="10.245676204390282"><ele>684.0</ele><time>2026-04-24T09:53:13Z</time></trkpt><trkpt lat="44.13629881232307" lon="10.245482265120717"><ele>684.0</ele><time>2026-04-24T09:53:14Z</time></trkpt><trkpt lat="44.13622963830311" lon="10.245308694552161"><ele>684.0</ele><time>2026-04-24T09:53:15Z</time></trkpt><trkpt lat="44.13616388461459" lon="10.24515089196473"><ele>684.0</ele><time>2026-04-24T09:53:16Z</time></trkpt><trkpt lat="44.1360977702867" lon="10.244993662274508"><ele>684.0</ele><time>2026-04-24T09:53:17Z</time></trkpt><trkpt lat="44.13602227268775" lon="10.24483346154569"><ele>683.25</ele><time>2026-04-24T09:53:18Z</time></trkpt><trkpt lat="44.13595019530831" lon="10.244685945977544"><ele>682.5</ele><time>2026-04-24T09:53:19Z</time></trkpt><trkpt lat="44.13589084907001" lon="10.244544391086357"><ele>681.75</ele><time>2026-04-24T09:53:20Z</time></trkpt><trkpt lat="44.135839166256645" lon="10.244412769471177"><ele>681.0</ele><time>2026-04-24T09:53:21Z</time></trkpt><trkpt lat="44.135793980956166" lon="10.244274661208486"><ele>681.0</ele><time>2026-04-24T09:53:22Z</time></trkpt><trkpt lat="44.13576399533389" lon="10.244123994087467"><ele>681.0</ele><time>2026-04-24T09:53:23Z</time></trkpt><trkpt lat="44.13574997422978" lon="10.24395685061737"><ele>681.0</ele><time>2026-04-24T09:53:24Z</time></trkpt><trkpt lat="44.13575837174593" lon="10.243775611005594"><ele>681.0</ele><time>2026-04-24T09:53:25Z</time></trkpt><trkpt lat="44.13576989730736" lon="10.243577333795836"><ele>681.6666666666666</ele><time>2026-04-24T09:53:26Z</time></trkpt><trkpt lat="44.13577626460646" lon="10.243365434431842"><ele>682.3333333333333</ele><time>2026-04-24T09:53:27Z</time></trkpt><trkpt lat="44.135794302702685" lon="10.24313696959716"><ele>683.0</ele><time>2026-04-24T09:53:28Z</time></trkpt><trkpt lat="44.13580918960953" lon="10.24291926410355"><ele>683.6666666666666</ele><time>2026-04-24T09:53:29Z</time></trkpt><trkpt lat="44.135821571431585" lon="10.242706965960888"><ele>684.3333333333334</ele><time>2026-04-24T09:53:30Z</time></trkpt><trkpt lat="44.13583459359388" lon="10.242497444653145"><ele>685.0</ele><time>2026-04-24T09:53:31Z</time></trkpt><trkpt lat="44.1358477841109" lon="10.242284672805786"><ele>685.75</ele><time>2026-04-24T09:53:32Z</time></trkpt><trkpt lat="44.13586172700814" lon="10.242090459591687"><ele>686.5</ele><time>2026-04-24T09:53:33Z</time></trkpt><trkpt lat="44.13587671400392" lon="10.241917185951312"><ele>687.25</ele><time>2026-04-24T09:53:34Z</time></trkpt><trkpt lat="44.13588452733984" lon="10.241740510726501"><ele>688.0</ele><time>2026-04-24T09:53:35Z</time></trkpt><trkpt lat="44.13589496271254" lon="10.241570783609962"><ele>688.2</ele><time>2026-04-24T09:53:36Z</time></trkpt><trkpt lat="44.13590463262898" lon="10.241421592713055"><ele>688.4</ele><time>2026-04-24T09:53:37Z</time></trkpt><trkpt lat="44.135899567766515" lon="10.24127783572765"><ele>688.6</ele><time>2026-04-24T09:53:38Z</time></trkpt><trkpt lat="44.13587109461723" lon="10.241124741598588"><ele>688.8000000000001</ele><time>2026-04-24T09:53:39Z</time></trkpt><trkpt lat="44.135823051756596" lon="10.240970491404804"><ele>689.0</ele><time>2026-04-24T09:53:40Z</time></trkpt><trkpt lat="44.13575338367403" lon="10.240836299391974"><ele>691.25</ele><time>2026-04-24T09:53:41Z</time></trkpt><trkpt lat="44.13566272870386" lon="10.240711507456318"><ele>693.5</ele><time>2026-04-24T09:53:42Z</time></trkpt><trkpt lat="44.13555504522809" lon="10.24059516007183"><ele>695.75</ele><time>2026-04-24T09:53:43Z</time></trkpt><trkpt lat="44.13543443714408" lon="10.240475275296495"><ele>698.0</ele><time>2026-04-24T09:53:44Z</time></trkpt><trkpt lat="44.13531191135541" lon="10.240348872185727"><ele>698.0</ele><time>2026-04-24T09:53:45Z</time></trkpt><trkpt lat="44.135198482259746" lon="10.240221879335094"><ele>698.0</ele><time>2026-04-24T09:53:46Z</time></trkpt><trkpt lat="44.13509991598582" lon="10.240120349456456"><ele>698.0</ele><time>2026-04-24T09:53:47Z</time></trkpt><trkpt lat="44.13501105655673" lon="10.240033173362173"><ele>698.0</ele><time>2026-04-24T09:53:48Z</time></trkpt><trkpt lat="44.134933763291166" lon="10.23994789958334"><ele>700.3333333333333</ele><time>2026-04-24T09:53:49Z</time></trkpt><trkpt lat="44.134861879566266" lon="10.239897599088524"><ele>702.6666666666666</ele><time>2026-04-24T09:53:50Z</time></trkpt><trkpt lat="44.13478552593268" lon="10.2398794233461"><ele>705.0</ele><time>2026-04-24T09:53:51Z</time></trkpt><trkpt lat="44.13470666275744" lon="10.239875719280619"><ele>707.3333333333334</ele><time>2026-04-24T09:53:52Z</time></trkpt><trkpt lat="44.13461786070855" lon="10.239846119473276"><ele>709.6666666666667</ele><time>2026-04-24T09:53:53Z</time></trkpt><trkpt lat="44.13450632208032" lon="10.239817053858006"><ele>712.0</ele><time>2026-04-24T09:53:55Z</time></trkpt><trkpt lat="44.1344301199285" lon="10.239872506047584"><ele>712.0</ele><time>2026-04-24T09:53:57Z</time></trkpt><trkpt lat="44.13444667355004" lon="10.240044764348216"><ele>712.0</ele><time>2026-04-24T09:53:59Z</time></trkpt><trkpt lat="44.13451701215695" lon="10.240073151720262"><ele>712.0</ele><time>2026-04-24T09:54:00Z</time></trkpt><trkpt lat="44.13458433746033" lon="10.240104942970998"><ele>712.0</ele><time>2026-04-24T09:54:01Z</time></trkpt><trkpt lat="44.13464010608047" lon="10.24015944338565"><ele>712.0</ele><time>2026-04-24T09:54:02Z</time></trkpt><trkpt lat="44.1346986371367" lon="10.240258473740244"><ele>712.0</ele><time>2026-04-24T09:54:03Z</time></trkpt><trkpt lat="44.134767653450645" lon="10.240339484865366"><ele>712.0</ele><time>2026-04-24T09:54:04Z</time></trkpt><trkpt lat="44.13486148555614" lon="10.240386724409145"><ele>712.0</ele><time>2026-04-24T09:54:05Z</time></trkpt><trkpt lat="44.1349336303453" lon="10.240424702362764"><ele>712.0</ele><time>2026-04-24T09:54:06Z</time></trkpt><trkpt lat="44.13499486202543" lon="10.24048451119563"><ele>712.0</ele><time>2026-04-24T09:54:07Z</time></trkpt><trkpt lat="44.13508402430618" lon="10.24053715017284"><ele>712.0</ele><time>2026-04-24T09:54:09Z</time></trkpt><trkpt lat="44.13515841978383" lon="10.24061842812772"><ele>712.0</ele><time>2026-04-24T09:54:11Z</time></trkpt><trkpt lat="44.13516607130658" lon="10.24071210588951"><ele>711.5</ele><time>2026-04-24T09:54:12Z</time></trkpt><trkpt lat="44.13518262093386" lon="10.240800791437259"><ele>711.0</ele><time>2026-04-24T09:54:13Z</time></trkpt><trkpt lat="44.13519777217505" lon="10.240898636755178"><ele>710.5</ele><time>2026-04-24T09:54:14Z</time></trkpt><trkpt lat="44.135209978311956" lon="10.2410005191521"><ele>710.0</ele><time>2026-04-24T09:54:15Z</time></trkpt><trkpt lat="44.13518454518475" lon="10.24109792485819"><ele>709.5</ele><time>2026-04-24T09:54:16Z</time></trkpt><trkpt lat="44.13514157370743" lon="10.241167334262261"><ele>709.0</ele><time>2026-04-24T09:54:17Z</time></trkpt><trkpt lat="44.13502597965395" lon="10.241270650579972"><ele>709.0</ele><time>2026-04-24T09:54:19Z</time></trkpt><trkpt lat="44.13494634398216" lon="10.241319634855335"><ele>709.0</ele><time>2026-04-24T09:54:20Z</time></trkpt><trkpt lat="44.13486392595364" lon="10.241391621008932"><ele>709.0</ele><time>2026-04-24T09:54:21Z</time></trkpt><trkpt lat="44.134813375124004" lon="10.241464124612422"><ele>709.0</ele><time>2026-04-24T09:54:22Z</time></trkpt><trkpt lat="44.13475556310713" lon="10.241534534679692"><ele>709.0</ele><time>2026-04-24T09:54:23Z</time></trkpt><trkpt lat="44.134695890041215" lon="10.24158788635066"><ele>709.0</ele><time>2026-04-24T09:54:24Z</time></trkpt><trkpt lat="44.134627480275036" lon="10.241633240939"><ele>712.6</ele><time>2026-04-24T09:54:25Z</time></trkpt><trkpt lat="44.13454425427609" lon="10.24165870318386"><ele>716.2</ele><time>2026-04-24T09:54:26Z</time></trkpt><trkpt lat="44.13446276121244" lon="10.241709443371338"><ele>719.8000000000001</ele><time>2026-04-24T09:54:27Z</time></trkpt><trkpt lat="44.13439814757523" lon="10.241740281831845"><ele>723.4000000000001</ele><time>2026-04-24T09:54:28Z</time></trkpt><trkpt lat="44.13426844438328" lon="10.241808540910844"><ele>727.0</ele><time>2026-04-24T09:54:30Z</time></trkpt><trkpt lat="44.134149675614566" lon="10.241801819765904"><ele>727.0</ele><time>2026-04-24T09:54:32Z</time></trkpt><trkpt lat="44.134102076596555" lon="10.24173737872873"><ele>727.0</ele><time>2026-04-24T09:54:33Z</time></trkpt><trkpt lat="44.13406077792265" lon="10.24164479332888"><ele>727.0</ele><time>2026-04-24T09:54:34Z</time></trkpt><trkpt lat="44.13403551747366" lon="10.241546720891394"><ele>727.0</ele><time>2026-04-24T09:54:35Z</time></trkpt><trkpt lat="44.134015269742896" lon="10.241449837318898"><ele>727.0</ele><time>2026-04-24T09:54:36Z</time></trkpt><trkpt lat="44.1339860543987" lon="10.241317177565268"><ele>727.0</ele><time>2026-04-24T09:54:38Z</time></trkpt><trkpt lat="44.1339169608615" lon="10.241267035265645"><ele>730.6</ele><time>2026-04-24T09:54:40Z</time></trkpt><trkpt lat="44.133798682380224" lon="10.241435914611507"><ele>734.2</ele><time>2026-04-24T09:54:43Z</time></trkpt><trkpt lat="44.1338125531383" lon="10.24156639324356"><ele>737.8</ele><time>2026-04-24T09:54:44Z</time></trkpt><trkpt lat="44.133795140934964" lon="10.24167451979402"><ele>741.4</ele><time>2026-04-24T09:54:45Z</time></trkpt><trkpt lat="44.13380748844613" lon="10.241788360183069"><ele>745.0</ele><time>2026-04-24T09:54:46Z</time></trkpt><trkpt lat="44.13380178906765" lon="10.241906032107044"><ele>748.4</ele><time>2026-04-24T09:54:47Z</time></trkpt><trkpt lat="44.13380527270282" lon="10.24202516791666"><ele>751.8</ele><time>2026-04-24T09:54:48Z</time></trkpt><trkpt lat="44.133809600629014" lon="10.242147887767766"><ele>755.2</ele><time>2026-04-24T09:54:49Z</time></trkpt><trkpt lat="44.13380954627973" lon="10.242278562235898"><ele>758.6</ele><time>2026-04-24T09:54:50Z</time></trkpt><trkpt lat="44.133825058105515" lon="10.242419220626546"><ele>762.0</ele><time>2026-04-24T09:54:51Z</time></trkpt><trkpt lat="44.13385139467194" lon="10.242565139988848"><ele>764.6</ele><time>2026-04-24T09:54:52Z</time></trkpt><trkpt lat="44.133870109701654" lon="10.242721840119795"><ele>767.2</ele><time>2026-04-24T09:54:53Z</time></trkpt><trkpt lat="44.1338978775697" lon="10.242885065129569"><ele>769.8</ele><time>2026-04-24T09:54:54Z</time></trkpt><trkpt lat="44.13390509127433" lon="10.243044142621386"><ele>772.4</ele><time>2026-04-24T09:54:55Z</time></trkpt><trkpt lat="44.13390651333939" lon="10.243167637419099"><ele>775.0</ele><time>2026-04-24T09:54:56Z</time></trkpt><trkpt lat="44.13390777542406" lon="10.24327723911333"><ele>776.3333333333333</ele><time>2026-04-24T09:54:57Z</time></trkpt><trkpt lat="44.13390711297713" lon="10.243367451736447"><ele>777.6666666666666</ele><time>2026-04-24T09:54:58Z</time></trkpt><trkpt lat="44.13389804863696" lon="10.24350141514015"><ele>779.0</ele><time>2026-04-24T09:55:00Z</time></trkpt><trkpt lat="44.133805537115855" lon="10.243517384812607"><ele>780.3333333333333</ele><time>2026-04-24T09:55:03Z</time></trkpt><trkpt lat="44.13376162167253" lon="10.243382878063414"><ele>781.6666666666666</ele><time>2026-04-24T09:55:05Z</time></trkpt><trkpt lat="44.13378937037643" lon="10.243295474077728"><ele>783.0</ele><time>2026-04-24T09:55:06Z</time></trkpt><trkpt lat="44.13377854152675" lon="10.243169677227499"><ele>781.4</ele><time>2026-04-24T09:55:08Z</time></trkpt><trkpt lat="44.13375138611418" lon="10.243056879965506"><ele>779.8</ele><time>2026-04-24T09:55:10Z</time></trkpt><trkpt lat="44.133705819263334" lon="10.242930812690037"><ele>778.2</ele><time>2026-04-24T09:55:12Z</time></trkpt><trkpt lat="44.1336319842089" lon="10.242786523444778"><ele>776.6</ele><time>2026-04-24T09:55:14Z</time></trkpt><trkpt lat="44.13359172358197" lon="10.242710452200974"><ele>775.0</ele><time>2026-04-24T09:55:15Z</time></trkpt><trkpt lat="44.13356167014822" lon="10.242610556061745"><ele>774.9999999999999</ele><time>2026-04-24T09:55:16Z</time></trkpt><trkpt lat="44.1335218513068" lon="10.242524797295662"><ele>775.0</ele><time>2026-04-24T09:55:17Z</time></trkpt><trkpt lat="44.13347605075437" lon="10.242432601311746"><ele>775.0</ele><time>2026-04-24T09:55:18Z</time></trkpt><trkpt lat="44.13342908192571" lon="10.242328296884287"><ele>775.0</ele><time>2026-04-24T09:55:19Z</time></trkpt><trkpt lat="44.13338619455823" lon="10.242218754429297"><ele>774.9999999999999</ele><time>2026-04-24T09:55:20Z</time></trkpt><trkpt lat="44.13335037981091" lon="10.242110900985102"><ele>775.0</ele><time>2026-04-24T09:55:21Z</time></trkpt><trkpt lat="44.13332079420176" lon="10.242014815031826"><ele>771.75</ele><time>2026-04-24T09:55:22Z</time></trkpt><trkpt lat="44.13325692687268" lon="10.24187816563823"><ele>768.5</ele><time>2026-04-24T09:55:24Z</time></trkpt><trkpt lat="44.133168209049806" lon="10.241647062820688"><ele>765.25</ele><time>2026-04-24T09:55:27Z</time></trkpt><trkpt lat="44.13305476026242" lon="10.241662818572648"><ele>762.0</ele><time>2026-04-24T09:55:29Z</time></trkpt><trkpt lat="44.13301980100614" lon="10.24184132480464"><ele>769.1666666666666</ele><time>2026-04-24T09:55:31Z</time></trkpt><trkpt lat="44.133031269516124" lon="10.241943973549713"><ele>776.3333333333333</ele><time>2026-04-24T09:55:32Z</time></trkpt><trkpt lat="44.133046766105736" lon="10.242053029441562"><ele>783.5</ele><time>2026-04-24T09:55:33Z</time></trkpt><trkpt lat="44.13305521418911" lon="10.242177258026281"><ele>790.6666666666666</ele><time>2026-04-24T09:55:34Z</time></trkpt><trkpt lat="44.13303327585374" lon="10.242300819620272"><ele>797.8333333333333</ele><time>2026-04-24T09:55:35Z</time></trkpt><trkpt lat="44.13302902023958" lon="10.242434345016692"><ele>805.0</ele><time>2026-04-24T09:55:36Z</time></trkpt><trkpt lat="44.13304424549078" lon="10.242567892267507"><ele>807.2857142857143</ele><time>2026-04-24T09:55:37Z</time></trkpt><trkpt lat="44.13304731856392" lon="10.242679256681988"><ele>809.5714285714286</ele><time>2026-04-24T09:55:38Z</time></trkpt><trkpt lat="44.13303588360153" lon="10.242778501732895"><ele>811.8571428571429</ele><time>2026-04-24T09:55:39Z</time></trkpt><trkpt lat="44.13304329772931" lon="10.242881151871195"><ele>814.1428571428571</ele><time>2026-04-24T09:55:40Z</time></trkpt><trkpt lat="44.1330479491154" lon="10.24297663016768"><ele>816.4285714285714</ele><time>2026-04-24T09:55:41Z</time></trkpt><trkpt lat="44.133028242757554" lon="10.243077683656184"><ele>818.7142857142858</ele><time>2026-04-24T09:55:42Z</time></trkpt><trkpt lat="44.13300039829333" lon="10.243159131090142"><ele>821.0</ele><time>2026-04-24T09:55:43Z</time></trkpt><trkpt lat="44.132950033362725" lon="10.243254169141629"><ele>821.8</ele><time>2026-04-24T09:55:44Z</time></trkpt><trkpt lat="44.1329021007164" lon="10.243361542317501"><ele>822.5999999999999</ele><time>2026-04-24T09:55:45Z</time></trkpt><trkpt lat="44.13285780827403" lon="10.243467871436179"><ele>823.4</ele><time>2026-04-24T09:55:46Z</time></trkpt><trkpt lat="44.132798269131776" lon="10.243624448306246"><ele>824.2</ele><time>2026-04-24T09:55:48Z</time></trkpt><trkpt lat="44.13276607136986" lon="10.243782351500064"><ele>825.0</ele><time>2026-04-24T09:55:50Z</time></trkpt><trkpt lat="44.132780458814786" lon="10.243911338497073"><ele>826.0</ele><time>2026-04-24T09:55:52Z</time></trkpt><trkpt lat="44.13283344821934" lon="10.244029299195763"><ele>827.0</ele><time>2026-04-24T09:55:54Z</time></trkpt><trkpt lat="44.1328867641592" lon="10.244083052714492"><ele>828.0</ele><time>2026-04-24T09:55:55Z</time></trkpt><trkpt lat="44.132987398475485" lon="10.244213336372757"><ele>829.0</ele><time>2026-04-24T09:55:57Z</time></trkpt><trkpt lat="44.13303299182467" lon="10.244324395800161"><ele>830.0</ele><time>2026-04-24T09:55:58Z</time></trkpt><trkpt lat="44.13304908892306" lon="10.244437001228492"><ele>830.0</ele><time>2026-04-24T09:55:59Z</time></trkpt><trkpt lat="44.13305503618539" lon="10.244540461410002"><ele>830.0</ele><time>2026-04-24T09:56:00Z</time></trkpt><trkpt lat="44.133074932702364" lon="10.244713482204201"><ele>830.0</ele><time>2026-04-24T09:56:02Z</time></trkpt><trkpt lat="44.1330548167193" lon="10.244873251708327"><ele>830.0</ele><time>2026-04-24T09:56:04Z</time></trkpt><trkpt lat="44.13299745598271" lon="10.244938973837662"><ele>830.0</ele><time>2026-04-24T09:56:06Z</time></trkpt><trkpt lat="44.132914785858105" lon="10.244850770127814"><ele>830.0000000000001</ele><time>2026-04-24T09:56:07Z</time></trkpt><trkpt lat="44.13286679708342" lon="10.244766591219019"><ele>830.0</ele><time>2026-04-24T09:56:08Z</time></trkpt><trkpt lat="44.13282826459161" lon="10.244672303889152"><ele>830.0</ele><time>2026-04-24T09:56:09Z</time></trkpt><trkpt lat="44.132779929001224" lon="10.244568284146254"><ele>830.0</ele><time>2026-04-24T09:56:10Z</time></trkpt><trkpt lat="44.1327195410956" lon="10.244467517482931"><ele>830.0000000000001</ele><time>2026-04-24T09:56:11Z</time></trkpt><trkpt lat="44.13266266941491" lon="10.244368424639068"><ele>830.0</ele><time>2026-04-24T09:56:12Z</time></trkpt><trkpt lat="44.132617255709945" lon="10.244268357371277"><ele>830.0000000000001</ele><time>2026-04-24T09:56:13Z</time></trkpt><trkpt lat="44.13257851680028" lon="10.24417527340378"><ele>830.0</ele><time>2026-04-24T09:56:14Z</time></trkpt><trkpt lat="44.13255091650562" lon="10.244081262180343"><ele>830.0</ele><time>2026-04-24T09:56:15Z</time></trkpt><trkpt lat="44.132529645558805" lon="10.243992288258678"><ele>830.0</ele><time>2026-04-24T09:56:16Z</time></trkpt><trkpt lat="44.13249886591856" lon="10.24387656094041"><ele>830.0000000000001</ele><time>2026-04-24T09:56:17Z</time></trkpt><trkpt lat="44.1324924134406" lon="10.2437676320482"><ele>830.0</ele><time>2026-04-24T09:56:18Z</time></trkpt><trkpt lat="44.13250088577003" lon="10.243660023595572"><ele>829.1666666666667</ele><time>2026-04-24T09:56:19Z</time></trkpt><trkpt lat="44.13248331627936" lon="10.243552938073798"><ele>828.3333333333334</ele><time>2026-04-24T09:56:20Z</time></trkpt><trkpt lat="44.132479162782914" lon="10.243429173616645"><ele>827.5</ele><time>2026-04-24T09:56:21Z</time></trkpt><trkpt lat="44.13247355949581" lon="10.243309443833189"><ele>826.6666666666667</ele><time>2026-04-24T09:56:22Z</time></trkpt><trkpt lat="44.13244315683234" lon="10.243195275570645"><ele>825.8333333333334</ele><time>2026-04-24T09:56:23Z</time></trkpt><trkpt lat="44.13240003285245" lon="10.243086978696534"><ele>825.0</ele><time>2026-04-24T09:56:24Z</time></trkpt><trkpt lat="44.132354637889996" lon="10.242976421084308"><ele>830.0</ele><time>2026-04-24T09:56:25Z</time></trkpt><trkpt lat="44.132324190540736" lon="10.24285949047378"><ele>835.0</ele><time>2026-04-24T09:56:26Z</time></trkpt><trkpt lat="44.13228909548945" lon="10.242781037086612"><ele>840.0</ele><time>2026-04-24T09:56:27Z</time></trkpt><trkpt lat="44.13222096480374" lon="10.24269466023351"><ele>845.0</ele><time>2026-04-24T09:56:29Z</time></trkpt><trkpt lat="44.132105612628145" lon="10.24270395503931"><ele>850.0</ele><time>2026-04-24T09:56:31Z</time></trkpt><trkpt lat="44.132060563562945" lon="10.242822027749286"><ele>849.9999999999999</ele><time>2026-04-24T09:56:32Z</time></trkpt><trkpt lat="44.13204079270571" lon="10.242940305527055"><ele>850.0</ele><time>2026-04-24T09:56:33Z</time></trkpt><trkpt lat="44.13201846750175" lon="10.243059305687378"><ele>850.0</ele><time>2026-04-24T09:56:34Z</time></trkpt><trkpt lat="44.13199592524237" lon="10.243177072743435"><ele>850.0</ele><time>2026-04-24T09:56:35Z</time></trkpt><trkpt lat="44.13197349644692" lon="10.2432850537992"><ele>849.9999999999999</ele><time>2026-04-24T09:56:36Z</time></trkpt><trkpt lat="44.13195275204616" lon="10.243380534145347"><ele>850.0</ele><time>2026-04-24T09:56:37Z</time></trkpt><trkpt lat="44.1319286421896" lon="10.243493614472886"><ele>851.6666666666666</ele><time>2026-04-24T09:56:38Z</time></trkpt><trkpt lat="44.13191210362522" lon="10.243636756155679"><ele>853.3333333333333</ele><time>2026-04-24T09:56:39Z</time></trkpt><trkpt lat="44.131930345078786" lon="10.243770299767085"><ele>855.0</ele><time>2026-04-24T09:56:40Z</time></trkpt><trkpt lat="44.13197507990939" lon="10.243876190643109"><ele>856.6666666666667</ele><time>2026-04-24T09:56:41Z</time></trkpt><trkpt lat="44.132017727131085" lon="10.243967843385306"><ele>858.3333333333334</ele><time>2026-04-24T09:56:42Z</time></trkpt><trkpt lat="44.132052811022575" lon="10.244043047892552"><ele>860.0</ele><time>2026-04-24T09:56:43Z</time></trkpt><trkpt lat="44.13207444730868" lon="10.244128644424446"><ele>863.6</ele><time>2026-04-24T09:56:44Z</time></trkpt><trkpt lat="44.13212044372767" lon="10.244284306156606"><ele>867.2</ele><time>2026-04-24T09:56:46Z</time></trkpt><trkpt lat="44.13210505277716" lon="10.244383155766268"><ele>870.8</ele><time>2026-04-24T09:56:47Z</time></trkpt><trkpt lat="44.13207445397908" lon="10.24448898861081"><ele>874.4</ele><time>2026-04-24T09:56:48Z</time></trkpt><trkpt lat="44.13206927927398" lon="10.244611465341324"><ele>878.0</ele><time>2026-04-24T09:56:49Z</time></trkpt><trkpt lat="44.13205702277906" lon="10.244747406021055"><ele>880.4</ele><time>2026-04-24T09:56:50Z</time></trkpt><trkpt lat="44.13205444387682" lon="10.244888729555068"><ele>882.8</ele><time>2026-04-24T09:56:51Z</time></trkpt><trkpt lat="44.132073530675825" lon="10.245023457689149"><ele>885.2</ele><time>2026-04-24T09:56:52Z</time></trkpt><trkpt lat="44.13208068778182" lon="10.245181428797578"><ele>887.6</ele><time>2026-04-24T09:56:53Z</time></trkpt><trkpt lat="44.13209226546792" lon="10.245290161929013"><ele>890.0</ele><time>2026-04-24T09:56:54Z</time></trkpt><trkpt lat="44.13208348122414" lon="10.245460899482593"><ele>890.0000000000001</ele><time>2026-04-24T09:56:56Z</time></trkpt><trkpt lat="44.13205531278534" lon="10.245555157829463"><ele>890.0</ele><time>2026-04-24T09:56:57Z</time></trkpt><trkpt lat="44.132029936631746" lon="10.245658087978832"><ele>890.0</ele><time>2026-04-24T09:56:58Z</time></trkpt><trkpt lat="44.132012720644944" lon="10.24575879160555"><ele>890.0</ele><time>2026-04-24T09:56:59Z</time></trkpt><trkpt lat="44.13196807983614" lon="10.245858387653266"><ele>890.0000000000001</ele><time>2026-04-24T09:57:00Z</time></trkpt><trkpt lat="44.13195885242147" lon="10.245974479518782"><ele>890.0</ele><time>2026-04-24T09:57:01Z</time></trkpt><trkpt lat="44.131995315782476" lon="10.24606984444888"><ele>889.3333333333334</ele><time>2026-04-24T09:57:02Z</time></trkpt><trkpt lat="44.13200199383965" lon="10.246162516255053"><ele>888.6666666666667</ele><time>2026-04-24T09:57:03Z</time></trkpt><trkpt lat="44.132020083238764" lon="10.246254545575434"><ele>888.0</ele><time>2026-04-24T09:57:04Z</time></trkpt><trkpt lat="44.13204438170853" lon="10.246344955339662"><ele>887.3333333333333</ele><time>2026-04-24T09:57:05Z</time></trkpt><trkpt lat="44.1319508580784" lon="10.246449733198542"><ele>886.6666666666666</ele><time>2026-04-24T09:57:07Z</time></trkpt><trkpt lat="44.13186244228705" lon="10.246454485015791"><ele>886.0</ele><time>2026-04-24T09:57:08Z</time></trkpt><trkpt lat="44.13176444574612" lon="10.246532140414823"><ele>885.9999999999999</ele><time>2026-04-24T09:57:10Z</time></trkpt><trkpt lat="44.13171154739667" lon="10.246604846598801"><ele>886.0</ele><time>2026-04-24T09:57:11Z</time></trkpt><trkpt lat="44.13164571219434" lon="10.24667304352268"><ele>886.0</ele><time>2026-04-24T09:57:12Z</time></trkpt><trkpt lat="44.13157936969486" lon="10.24676008205092"><ele>886.0</ele><time>2026-04-24T09:57:13Z</time></trkpt><trkpt lat="44.13152384860478" lon="10.2468834351843"><ele>885.9999999999999</ele><time>2026-04-24T09:57:14Z</time></trkpt><trkpt lat="44.13149427511724" lon="10.247011096989757"><ele>886.0</ele><time>2026-04-24T09:57:15Z</time></trkpt><trkpt lat="44.13147521581739" lon="10.247117206941596"><ele>886.6666666666666</ele><time>2026-04-24T09:57:16Z</time></trkpt><trkpt lat="44.131455938626715" lon="10.247218141916107"><ele>887.3333333333333</ele><time>2026-04-24T09:57:17Z</time></trkpt><trkpt lat="44.13145616249821" lon="10.247309983555796"><ele>888.0</ele><time>2026-04-24T09:57:18Z</time></trkpt><trkpt lat="44.13144494361834" lon="10.247413188122064"><ele>888.6666666666667</ele><time>2026-04-24T09:57:19Z</time></trkpt><trkpt lat="44.131468978667705" lon="10.247525087007592"><ele>889.3333333333334</ele><time>2026-04-24T09:57:20Z</time></trkpt><trkpt lat="44.13154430690589" lon="10.247635151824975"><ele>890.0</ele><time>2026-04-24T09:57:21Z</time></trkpt><trkpt lat="44.13162674530595" lon="10.247731845796467"><ele>890.0</ele><time>2026-04-24T09:57:22Z</time></trkpt><trkpt lat="44.13171195896136" lon="10.247830450290316"><ele>890.0</ele><time>2026-04-24T09:57:23Z</time></trkpt><trkpt lat="44.13178649833412" lon="10.247929928230237"><ele>890.0</ele><time>2026-04-24T09:57:24Z</time></trkpt><trkpt lat="44.13184261759583" lon="10.248022055430054"><ele>890.0</ele><time>2026-04-24T09:57:25Z</time></trkpt><trkpt lat="44.13189361991221" lon="10.248117378366732"><ele>890.0</ele><time>2026-04-24T09:57:26Z</time></trkpt><trkpt lat="44.13194566708678" lon="10.248229460928277"><ele>893.6</ele><time>2026-04-24T09:57:27Z</time></trkpt><trkpt lat="44.131987387818725" lon="10.248343931372547"><ele>897.2</ele><time>2026-04-24T09:57:28Z</time></trkpt><trkpt lat="44.13199798980587" lon="10.248456424154819"><ele>900.8</ele><time>2026-04-24T09:57:29Z</time></trkpt><trkpt lat="44.13199578717299" lon="10.24857059323275"><ele>904.4</ele><time>2026-04-24T09:57:30Z</time></trkpt><trkpt lat="44.13197507232886" lon="10.248704988358385"><ele>908.0</ele><time>2026-04-24T09:57:31Z</time></trkpt><trkpt lat="44.131966491942904" lon="10.24884733232184"><ele>907.4</ele><time>2026-04-24T09:57:32Z</time></trkpt><trkpt lat="44.131948872646305" lon="10.248991687570232"><ele>906.8</ele><time>2026-04-24T09:57:33Z</time></trkpt><trkpt lat="44.13196219857799" lon="10.24914209336788"><ele>906.2</ele><time>2026-04-24T09:57:34Z</time></trkpt><trkpt lat="44.131962090946736" lon="10.249298459019261"><ele>905.6</ele><time>2026-04-24T09:57:35Z</time></trkpt><trkpt lat="44.131976449681275" lon="10.24942234986827"><ele>905.0</ele><time>2026-04-24T09:57:36Z</time></trkpt><trkpt lat="44.13199859640506" lon="10.249547675249058"><ele>905.0000000000001</ele><time>2026-04-24T09:57:37Z</time></trkpt><trkpt lat="44.13203201611488" lon="10.249655421484665"><ele>905.0</ele><time>2026-04-24T09:57:38Z</time></trkpt><trkpt lat="44.13205854351694" lon="10.24973843687185"><ele>905.0</ele><time>2026-04-24T09:57:39Z</time></trkpt><trkpt lat="44.13208493486953" lon="10.249821027931466"><ele>905.0</ele><time>2026-04-24T09:57:40Z</time></trkpt><trkpt lat="44.132102246724315" lon="10.249990736644712"><ele>905.0000000000001</ele><time>2026-04-24T09:57:42Z</time></trkpt><trkpt lat="44.132061287856025" lon="10.250081892321102"><ele>905.0</ele><time>2026-04-24T09:57:43Z</time></trkpt><trkpt lat="44.13199269006731" lon="10.250146442203226"><ele>902.0</ele><time>2026-04-24T09:57:44Z</time></trkpt><trkpt lat="44.13191174254316" lon="10.250182430792384"><ele>899.0</ele><time>2026-04-24T09:57:45Z</time></trkpt><trkpt lat="44.1318136128353" lon="10.250194626186962"><ele>896.0</ele><time>2026-04-24T09:57:46Z</time></trkpt><trkpt lat="44.13171055827176" lon="10.250188401782355"><ele>893.0</ele><time>2026-04-24T09:57:47Z</time></trkpt><trkpt lat="44.131608466803876" lon="10.25016896007488"><ele>890.0</ele><time>2026-04-24T09:57:48Z</time></trkpt><trkpt lat="44.13152576766189" lon="10.250151408203164"><ele>889.3333333333334</ele><time>2026-04-24T09:57:49Z</time></trkpt><trkpt lat="44.13146362432045" lon="10.250111985056726"><ele>888.6666666666667</ele><time>2026-04-24T09:57:50Z</time></trkpt><trkpt lat="44.1314044487507" lon="10.250052023711035"><ele>888.0</ele><time>2026-04-24T09:57:51Z</time></trkpt><trkpt lat="44.13133849618505" lon="10.24999449143466"><ele>887.3333333333333</ele><time>2026-04-24T09:57:52Z</time></trkpt><trkpt lat="44.13127824034093" lon="10.249913050225008"><ele>886.6666666666666</ele><time>2026-04-24T09:57:53Z</time></trkpt><trkpt lat="44.13122723569058" lon="10.249812043103235"><ele>886.0</ele><time>2026-04-24T09:57:54Z</time></trkpt><trkpt lat="44.1311663552878" lon="10.249721417280732"><ele>893.0</ele><time>2026-04-24T09:57:55Z</time></trkpt><trkpt lat="44.131084868489516" lon="10.24965824282424"><ele>899.9999999999999</ele><time>2026-04-24T09:57:56Z</time></trkpt><trkpt lat="44.130972395032735" lon="10.249632682999122"><ele>906.9999999999999</ele><time>2026-04-24T09:57:57Z</time></trkpt><trkpt lat="44.130868915724726" lon="10.249611075447039"><ele>914.0</ele><time>2026-04-24T09:57:58Z</time></trkpt><trkpt lat="44.1307674959391" lon="10.249571594626197"><ele>921.0</ele><time>2026-04-24T09:57:59Z</time></trkpt><trkpt lat="44.13066403654758" lon="10.249497173244624"><ele>921.5</ele><time>2026-04-24T09:58:00Z</time></trkpt><trkpt lat="44.13055908792081" lon="10.24943843922279"><ele>922.0</ele><time>2026-04-24T09:58:01Z</time></trkpt><trkpt lat="44.13044522149868" lon="10.249390611717436"><ele>922.5</ele><time>2026-04-24T09:58:02Z</time></trkpt><trkpt lat="44.13033277922351" lon="10.249371816327306"><ele>923.0</ele><time>2026-04-24T09:58:03Z</time></trkpt><trkpt lat="44.13020974170577" lon="10.249359605461732"><ele>923.0</ele><time>2026-04-24T09:58:04Z</time></trkpt><trkpt lat="44.130100404273634" lon="10.24935474333308"><ele>923.0</ele><time>2026-04-24T09:58:05Z</time></trkpt><trkpt lat="44.1300006098291" lon="10.249340911987824"><ele>923.0</ele><time>2026-04-24T09:58:06Z</time></trkpt><trkpt lat="44.12989958294853" lon="10.249349009964483"><ele>923.0</ele><time>2026-04-24T09:58:07Z</time></trkpt><trkpt lat="44.1297946346041" lon="10.24939554338915"><ele>923.0</ele><time>2026-04-24T09:58:08Z</time></trkpt><trkpt lat="44.12969074178312" lon="10.249455804215257"><ele>925.8</ele><time>2026-04-24T09:58:09Z</time></trkpt><trkpt lat="44.129585966501864" lon="10.249505238178658"><ele>928.5999999999999</ele><time>2026-04-24T09:58:10Z</time></trkpt><trkpt lat="44.12947691256526" lon="10.249576666171341"><ele>931.4000000000001</ele><time>2026-04-24T09:58:11Z</time></trkpt><trkpt lat="44.1293889858625" lon="10.249648482202158"><ele>934.2</ele><time>2026-04-24T09:58:12Z</time></trkpt><trkpt lat="44.12931299910725" lon="10.249707860665007"><ele>937.0</ele><time>2026-04-24T09:58:13Z</time></trkpt><trkpt lat="44.12924365351474" lon="10.249756457621263"><ele>933.4000000000001</ele><time>2026-04-24T09:58:14Z</time></trkpt><trkpt lat="44.12919722909198" lon="10.24982142256808"><ele>929.8000000000001</ele><time>2026-04-24T09:58:15Z</time></trkpt><trkpt lat="44.12914939441788" lon="10.249905517521414"><ele>926.2</ele><time>2026-04-24T09:58:16Z</time></trkpt><trkpt lat="44.129144831470164" lon="10.250031098905302"><ele>922.6</ele><time>2026-04-24T09:58:17Z</time></trkpt><trkpt lat="44.129197379033975" lon="10.250164453635636"><ele>919.0</ele><time>2026-04-24T09:58:18Z</time></trkpt><trkpt lat="44.12926915048728" lon="10.250296700788848"><ele>919.0</ele><time>2026-04-24T09:58:19Z</time></trkpt><trkpt lat="44.129353607462846" lon="10.250428233919987"><ele>919.0</ele><time>2026-04-24T09:58:20Z</time></trkpt><trkpt lat="44.129455920894344" lon="10.250583799039799"><ele>919.0</ele><time>2026-04-24T09:58:21Z</time></trkpt><trkpt lat="44.129547045190705" lon="10.25072631937979"><ele>919.0</ele><time>2026-04-24T09:58:22Z</time></trkpt><trkpt lat="44.12962438574905" lon="10.250883274338591"><ele>918.2</ele><time>2026-04-24T09:58:23Z</time></trkpt><trkpt lat="44.12967600392612" lon="10.251035327018855"><ele>917.4000000000001</ele><time>2026-04-24T09:58:24Z</time></trkpt><trkpt lat="44.129739593102975" lon="10.251169890038094"><ele>916.6</ele><time>2026-04-24T09:58:25Z</time></trkpt><trkpt lat="44.129794281867056" lon="10.251290175326371"><ele>915.8</ele><time>2026-04-24T09:58:26Z</time></trkpt><trkpt lat="44.12984427043145" lon="10.251400220581377"><ele>915.0</ele><time>2026-04-24T09:58:27Z</time></trkpt><trkpt lat="44.12989852695854" lon="10.25151702952221"><ele>915.0</ele><time>2026-04-24T09:58:28Z</time></trkpt><trkpt lat="44.129954093335556" lon="10.251641560473201"><ele>915.0</ele><time>2026-04-24T09:58:29Z</time></trkpt><trkpt lat="44.13000956559897" lon="10.251749088331843"><ele>915.0</ele><time>2026-04-24T09:58:30Z</time></trkpt><trkpt lat="44.130035910272795" lon="10.251844149144304"><ele>915.0</ele><time>2026-04-24T09:58:31Z</time></trkpt><trkpt lat="44.13003433989203" lon="10.251934768583583"><ele>915.0</ele><time>2026-04-24T09:58:32Z</time></trkpt><trkpt lat="44.13002416647906" lon="10.252035974544151"><ele>915.0</ele><time>2026-04-24T09:58:33Z</time></trkpt><trkpt lat="44.12996826542471" lon="10.252167289782792"><ele>923.0</ele><time>2026-04-24T09:58:35Z</time></trkpt><trkpt lat="44.12987518085927" lon="10.25229597796994"><ele>931.0</ele><time>2026-04-24T09:58:36Z</time></trkpt><trkpt lat="44.12980440259062" lon="10.252401548480929"><ele>939.0</ele><time>2026-04-24T09:58:37Z</time></trkpt><trkpt lat="44.12972015206505" lon="10.252507084501417"><ele>947.0</ele><time>2026-04-24T09:58:38Z</time></trkpt><trkpt lat="44.12961976662763" lon="10.252618109434577"><ele>947.0</ele><time>2026-04-24T09:58:39Z</time></trkpt><trkpt lat="44.129518384284566" lon="10.252728967694049"><ele>947.0</ele><time>2026-04-24T09:58:40Z</time></trkpt><trkpt lat="44.12941264235349" lon="10.252839764634421"><ele>947.0</ele><time>2026-04-24T09:58:41Z</time></trkpt><trkpt lat="44.12931776183767" lon="10.252926681457316"><ele>947.0</ele><time>2026-04-24T09:58:42Z</time></trkpt><trkpt lat="44.12922495078945" lon="10.252994664900928"><ele>947.0000000000001</ele><time>2026-04-24T09:58:43Z</time></trkpt><trkpt lat="44.12913692794122" lon="10.253048675077496"><ele>947.0</ele><time>2026-04-24T09:58:44Z</time></trkpt><trkpt lat="44.12905089043697" lon="10.253099263209696"><ele>947.0</ele><time>2026-04-24T09:58:45Z</time></trkpt><trkpt lat="44.12897224515798" lon="10.253163340483683"><ele>947.0</ele><time>2026-04-24T09:58:46Z</time></trkpt><trkpt lat="44.12889940762241" lon="10.253208862552732"><ele>947.0000000000001</ele><time>2026-04-24T09:58:47Z</time></trkpt><trkpt lat="44.12884015027018" lon="10.253268444573152"><ele>947.0</ele><time>2026-04-24T09:58:48Z</time></trkpt><trkpt lat="44.12878603346208" lon="10.25334558755142"><ele>945.8333333333334</ele><time>2026-04-24T09:58:49Z</time></trkpt><trkpt lat="44.12874783802362" lon="10.25343809521622"><ele>944.6666666666667</ele><time>2026-04-24T09:58:50Z</time></trkpt><trkpt lat="44.12873381232084" lon="10.253541555342716"><ele>943.5</ele><time>2026-04-24T09:58:51Z</time></trkpt><trkpt lat="44.128723246128466" lon="10.253646849409552"><ele>942.3333333333333</ele><time>2026-04-24T09:58:52Z</time></trkpt><trkpt lat="44.12871776155768" lon="10.253760179821352"><ele>941.1666666666666</ele><time>2026-04-24T09:58:53Z</time></trkpt><trkpt lat="44.12868140367196" lon="10.253865367077722"><ele>940.0</ele><time>2026-04-24T09:58:54Z</time></trkpt><trkpt lat="44.12864413607431" lon="10.253972589034214"><ele>939.9999999999999</ele><time>2026-04-24T09:58:55Z</time></trkpt><trkpt lat="44.12859988138415" lon="10.254082435824042"><ele>940.0</ele><time>2026-04-24T09:58:56Z</time></trkpt><trkpt lat="44.12855940091914" lon="10.254172874811967"><ele>940.0</ele><time>2026-04-24T09:58:57Z</time></trkpt><trkpt lat="44.128519217806314" lon="10.254252481758916"><ele>940.0</ele><time>2026-04-24T09:58:58Z</time></trkpt><trkpt lat="44.12845880758535" lon="10.254303605927928"><ele>939.9999999999999</ele><time>2026-04-24T09:58:59Z</time></trkpt><trkpt lat="44.12838336597534" lon="10.254344071293229"><ele>940.0</ele><time>2026-04-24T09:59:00Z</time></trkpt><trkpt lat="44.12829495921833" lon="10.254373706830712"><ele>940.9999999999999</ele><time>2026-04-24T09:59:01Z</time></trkpt><trkpt lat="44.12821535153531" lon="10.254437334709912"><ele>942.0</ele><time>2026-04-24T09:59:02Z</time></trkpt><trkpt lat="44.128167771867936" lon="10.254533929451007"><ele>943.0</ele><time>2026-04-24T09:59:03Z</time></trkpt><trkpt lat="44.12812640685467" lon="10.254623125307399"><ele>944.0</ele><time>2026-04-24T09:59:04Z</time></trkpt><trkpt lat="44.12810362142597" lon="10.254724120654458"><ele>944.9999999999999</ele><time>2026-04-24T09:59:05Z</time></trkpt><trkpt lat="44.12805497943672" lon="10.254784404080448"><ele>946.0</ele><time>2026-04-24T09:59:06Z</time></trkpt><trkpt lat="44.128000727403204" lon="10.25484275444389"><ele>946.0</ele><time>2026-04-24T09:59:07Z</time></trkpt><trkpt lat="44.1279236161519" lon="10.254862657467742"><ele>946.0</ele><time>2026-04-24T09:59:08Z</time></trkpt><trkpt lat="44.127846822689094" lon="10.254898394363702"><ele>946.0</ele><time>2026-04-24T09:59:09Z</time></trkpt><trkpt lat="44.12777697472936" lon="10.254947132088557"><ele>946.0</ele><time>2026-04-24T09:59:10Z</time></trkpt><trkpt lat="44.1277281732539" lon="10.25502394651056"><ele>946.0</ele><time>2026-04-24T09:59:11Z</time></trkpt><trkpt lat="44.127685442608" lon="10.25510332977956"><ele>946.0</ele><time>2026-04-24T09:59:12Z</time></trkpt><trkpt lat="44.12766439265618" lon="10.255190836353094"><ele>946.0</ele><time>2026-04-24T09:59:13Z</time></trkpt><trkpt lat="44.12763384810011" lon="10.255283824320735"><ele>946.0</ele><time>2026-04-24T09:59:14Z</time></trkpt><trkpt lat="44.12763198499616" lon="10.255385018822745"><ele>945.9999999999999</ele><time>2026-04-24T09:59:15Z</time></trkpt><trkpt lat="44.127596308698045" lon="10.255540754740931"><ele>945.9999999999999</ele><time>2026-04-24T09:59:17Z</time></trkpt><trkpt lat="44.127544113689915" lon="10.255671894984774"><ele>946.0</ele><time>2026-04-24T09:59:19Z</time></trkpt><trkpt lat="44.127477368464255" lon="10.255793186665953"><ele>946.0</ele><time>2026-04-24T09:59:21Z</time></trkpt><trkpt lat="44.12741421990993" lon="10.255902272434287"><ele>944.0</ele><time>2026-04-24T09:59:23Z</time></trkpt><trkpt lat="44.12734534943702" lon="10.255997547207379"><ele>941.9999999999999</ele><time>2026-04-24T09:59:25Z</time></trkpt><trkpt lat="44.12728873331885" lon="10.256090994669238"><ele>939.9999999999999</ele><time>2026-04-24T09:59:29Z</time></trkpt><trkpt lat="44.127260497825695" lon="10.256212581681682"><ele>938.0</ele><time>2026-04-24T09:59:31Z</time></trkpt><trkpt lat="44.1272438516992" lon="10.25636010304112"><ele>936.0</ele><time>2026-04-24T09:59:33Z</time></trkpt><trkpt lat="44.12723510459972" lon="10.256457205635853"><ele>931.0</ele><time>2026-04-24T09:59:34Z</time></trkpt><trkpt lat="44.12722501556614" lon="10.25656676148065"><ele>925.9999999999999</ele><time>2026-04-24T09:59:35Z</time></trkpt><trkpt lat="44.12721386980624" lon="10.256669206463776"><ele>920.9999999999999</ele><time>2026-04-24T09:59:36Z</time></trkpt><trkpt lat="44.12720518366728" lon="10.256773765007498"><ele>916.0</ele><time>2026-04-24T09:59:37Z</time></trkpt><trkpt lat="44.12721093953725" lon="10.256929420792774"><ele>911.0</ele><time>2026-04-24T09:59:39Z</time></trkpt><trkpt lat="44.12726621211981" lon="10.257099435375395"><ele>911.0000000000001</ele><time>2026-04-24T09:59:41Z</time></trkpt><trkpt lat="44.127291844413946" lon="10.25718086285758"><ele>911.0</ele><time>2026-04-24T09:59:42Z</time></trkpt><trkpt lat="44.127311820000095" lon="10.257278924847471"><ele>911.0</ele><time>2026-04-24T09:59:43Z</time></trkpt><trkpt lat="44.127304367085465" lon="10.25737906211364"><ele>911.0</ele><time>2026-04-24T09:59:44Z</time></trkpt><trkpt lat="44.12730990527559" lon="10.257503589882097"><ele>911.0000000000001</ele><time>2026-04-24T09:59:45Z</time></trkpt><trkpt lat="44.127319608911606" lon="10.257615288885367"><ele>911.0</ele><time>2026-04-24T09:59:46Z</time></trkpt><trkpt lat="44.127340368037636" lon="10.257717398951849"><ele>909.5</ele><time>2026-04-24T09:59:47Z</time></trkpt><trkpt lat="44.12738629933415" lon="10.257872507505112"><ele>908.0</ele><time>2026-04-24T09:59:49Z</time></trkpt><trkpt lat="44.127382809863924" lon="10.258053752936169"><ele>906.5</ele><time>2026-04-24T09:59:51Z</time></trkpt><trkpt lat="44.12740729864082" lon="10.258163018617173"><ele>905.0</ele><time>2026-04-24T09:59:53Z</time></trkpt><trkpt lat="44.12751105885475" lon="10.258250220003484"><ele>905.0000000000001</ele><time>2026-04-24T09:59:54Z</time></trkpt><trkpt lat="44.12757051643077" lon="10.258313743470543"><ele>905.0</ele><time>2026-04-24T09:59:55Z</time></trkpt><trkpt lat="44.12759542392955" lon="10.258435020387338"><ele>905.0</ele><time>2026-04-24T09:59:56Z</time></trkpt><trkpt lat="44.12764526397347" lon="10.258502250875937"><ele>905.0</ele><time>2026-04-24T09:59:57Z</time></trkpt><trkpt lat="44.12770293930431" lon="10.258575259292547"><ele>905.0000000000001</ele><time>2026-04-24T09:59:58Z</time></trkpt><trkpt lat="44.12774493538028" lon="10.258648666907098"><ele>905.0</ele><time>2026-04-24T09:59:59Z</time></trkpt><trkpt lat="44.12778031569426" lon="10.25873333815452"><ele>905.0000000000001</ele><time>2026-04-24T10:00:00Z</time></trkpt><trkpt lat="44.12781602761797" lon="10.258807279526598"><ele>905.0</ele><time>2026-04-24T10:00:01Z</time></trkpt><trkpt lat="44.12786677349935" lon="10.258863919857438"><ele>905.0</ele><time>2026-04-24T10:00:02Z</time></trkpt><trkpt lat="44.12790190126502" lon="10.258950492542487"><ele>905.0</ele><time>2026-04-24T10:00:03Z</time></trkpt><trkpt lat="44.12795598585354" lon="10.259019127636279"><ele>905.0000000000001</ele><time>2026-04-24T10:00:04Z</time></trkpt><trkpt lat="44.12800073098511" lon="10.259091674827932"><ele>905.0</ele><time>2026-04-24T10:00:05Z</time></trkpt><trkpt lat="44.12806513541401" lon="10.259218677746764"><ele>901.3333333333334</ele><time>2026-04-24T10:00:07Z</time></trkpt><trkpt lat="44.128109480598795" lon="10.259309297079215"><ele>897.6666666666667</ele><time>2026-04-24T10:00:09Z</time></trkpt><trkpt lat="44.12807727536369" lon="10.259394695602317"><ele>894.0</ele><time>2026-04-24T10:00:13Z</time></trkpt><trkpt lat="44.12801653502432" lon="10.259341114267663"><ele>890.3333333333333</ele><time>2026-04-24T10:00:14Z</time></trkpt><trkpt lat="44.12797036843817" lon="10.259254665420482"><ele>886.6666666666666</ele><time>2026-04-24T10:00:15Z</time></trkpt><trkpt lat="44.127904856586035" lon="10.259166662107086"><ele>883.0</ele><time>2026-04-24T10:00:16Z</time></trkpt><trkpt lat="44.12782965815065" lon="10.2591010764759"><ele>882.9999999999999</ele><time>2026-04-24T10:00:17Z</time></trkpt><trkpt lat="44.12775367229112" lon="10.259054763652228"><ele>883.0</ele><time>2026-04-24T10:00:18Z</time></trkpt><trkpt lat="44.12768400746264" lon="10.25899685200012"><ele>883.0</ele><time>2026-04-24T10:00:19Z</time></trkpt><trkpt lat="44.127627822119436" lon="10.258935521580645"><ele>883.0</ele><time>2026-04-24T10:00:20Z</time></trkpt><trkpt lat="44.127558393333615" lon="10.258889153792154"><ele>882.9999999999999</ele><time>2026-04-24T10:00:21Z</time></trkpt><trkpt lat="44.12748553064104" lon="10.258852863158205"><ele>883.0</ele><time>2026-04-24T10:00:22Z</time></trkpt><trkpt lat="44.127415179440256" lon="10.258817438528958"><ele>881.2</ele><time>2026-04-24T10:00:23Z</time></trkpt><trkpt lat="44.12731802546563" lon="10.258748760542893"><ele>879.4</ele><time>2026-04-24T10:00:25Z</time></trkpt><trkpt lat="44.12720683060116" lon="10.25877104964167"><ele>877.6000000000001</ele><time>2026-04-24T10:00:27Z</time></trkpt><trkpt lat="44.127152694479555" lon="10.258817520313649"><ele>875.8000000000001</ele><time>2026-04-24T10:00:28Z</time></trkpt><trkpt lat="44.12704615482832" lon="10.258868344092905"><ele>874.0</ele><time>2026-04-24T10:00:30Z</time></trkpt><trkpt lat="44.12692275996714" lon="10.258812272435987"><ele>874.0</ele><time>2026-04-24T10:00:32Z</time></trkpt><trkpt lat="44.126878243343626" lon="10.258726520099865"><ele>874.0000000000001</ele><time>2026-04-24T10:00:33Z</time></trkpt><trkpt lat="44.126863689776954" lon="10.258612655803002"><ele>874.0000000000001</ele><time>2026-04-24T10:00:34Z</time></trkpt><trkpt lat="44.12683360326271" lon="10.258508173469648"><ele>874.0</ele><time>2026-04-24T10:00:35Z</time></trkpt><trkpt lat="44.12680150261995" lon="10.258348928003628"><ele>874.0</ele><time>2026-04-24T10:00:37Z</time></trkpt><trkpt lat="44.12672009764585" lon="10.258146000087132"><ele>876.3333333333333</ele><time>2026-04-24T10:00:40Z</time></trkpt><trkpt lat="44.126635105454945" lon="10.258039124878861"><ele>878.6666666666666</ele><time>2026-04-24T10:00:42Z</time></trkpt><trkpt lat="44.12661482450097" lon="10.25794866063246"><ele>881.0</ele><time>2026-04-24T10:00:43Z</time></trkpt><trkpt lat="44.12661515957097" lon="10.257839965064536"><ele>883.3333333333333</ele><time>2026-04-24T10:00:44Z</time></trkpt><trkpt lat="44.12659437484572" lon="10.257754081674031"><ele>885.6666666666666</ele><time>2026-04-24T10:00:45Z</time></trkpt><trkpt lat="44.1265724560506" lon="10.257654499331196"><ele>888.0</ele><time>2026-04-24T10:00:46Z</time></trkpt><trkpt lat="44.126503959083806" lon="10.257535630131908"><ele>889.3333333333334</ele><time>2026-04-24T10:00:48Z</time></trkpt><trkpt lat="44.12643342673478" lon="10.257518121548552"><ele>890.6666666666667</ele><time>2026-04-24T10:00:49Z</time></trkpt><trkpt lat="44.126358664155525" lon="10.257587431011844"><ele>892.0</ele><time>2026-04-24T10:00:50Z</time></trkpt><trkpt lat="44.126309554790545" lon="10.257686137794954"><ele>893.3333333333334</ele><time>2026-04-24T10:00:51Z</time></trkpt><trkpt lat="44.126255509445706" lon="10.257770919556584"><ele>894.6666666666667</ele><time>2026-04-24T10:00:52Z</time></trkpt><trkpt lat="44.12619375905434" lon="10.257852764917725"><ele>896.0</ele><time>2026-04-24T10:00:53Z</time></trkpt><trkpt lat="44.126146453916455" lon="10.25794930948928"><ele>896.0000000000001</ele><time>2026-04-24T10:00:54Z</time></trkpt><trkpt lat="44.12611590809436" lon="10.258070087933179"><ele>896.0</ele><time>2026-04-24T10:00:55Z</time></trkpt><trkpt lat="44.12608457194042" lon="10.258172613763223"><ele>896.0</ele><time>2026-04-24T10:00:56Z</time></trkpt><trkpt lat="44.12604467969923" lon="10.258255932511508"><ele>896.0</ele><time>2026-04-24T10:00:57Z</time></trkpt><trkpt lat="44.125983842912525" lon="10.258327911963775"><ele>896.0000000000001</ele><time>2026-04-24T10:00:58Z</time></trkpt><trkpt lat="44.125933337872006" lon="10.258404453054554"><ele>896.0</ele><time>2026-04-24T10:00:59Z</time></trkpt><trkpt lat="44.125887659448836" lon="10.258477251705521"><ele>891.6666666666667</ele><time>2026-04-24T10:01:00Z</time></trkpt><trkpt lat="44.12586270378546" lon="10.258581222780927"><ele>887.3333333333334</ele><time>2026-04-24T10:01:01Z</time></trkpt><trkpt lat="44.12586482580981" lon="10.258714956042615"><ele>883.0</ele><time>2026-04-24T10:01:02Z</time></trkpt><trkpt lat="44.125859386344565" lon="10.258805211457178"><ele>878.6666666666667</ele><time>2026-04-24T10:01:03Z</time></trkpt><trkpt lat="44.12585265510588" lon="10.25891689958272"><ele>874.3333333333334</ele><time>2026-04-24T10:01:04Z</time></trkpt><trkpt lat="44.12584384621444" lon="10.259033780186373"><ele>870.0</ele><time>2026-04-24T10:01:05Z</time></trkpt><trkpt lat="44.12583717440575" lon="10.259121168797261"><ele>869.8</ele><time>2026-04-24T10:01:06Z</time></trkpt><trkpt lat="44.125809212255014" lon="10.259276167338937"><ele>869.6</ele><time>2026-04-24T10:01:08Z</time></trkpt><trkpt lat="44.125685957187486" lon="10.259324135688583"><ele>869.4000000000001</ele><time>2026-04-24T10:01:10Z</time></trkpt><trkpt lat="44.12560411585533" lon="10.259387481085037"><ele>869.2</ele><time>2026-04-24T10:01:11Z</time></trkpt><trkpt lat="44.12552480506244" lon="10.259427696488272"><ele>869.0</ele><time>2026-04-24T10:01:12Z</time></trkpt><trkpt lat="44.1254529346224" lon="10.259501676034894"><ele>869.0</ele><time>2026-04-24T10:01:13Z</time></trkpt><trkpt lat="44.12538502221624" lon="10.259576018189216"><ele>869.0000000000001</ele><time>2026-04-24T10:01:14Z</time></trkpt><trkpt lat="44.12533044494153" lon="10.259636573944537"><ele>869.0000000000001</ele><time>2026-04-24T10:01:15Z</time></trkpt><trkpt lat="44.125253263140365" lon="10.25974792197216"><ele>869.0</ele><time>2026-04-24T10:01:17Z</time></trkpt><trkpt lat="44.12528307219783" lon="10.25991896972444"><ele>869.0</ele><time>2026-04-24T10:01:19Z</time></trkpt><trkpt lat="44.12536058485394" lon="10.259965517235567"><ele>864.8333333333334</ele><time>2026-04-24T10:01:20Z</time></trkpt><trkpt lat="44.12545952793924" lon="10.259905858983895"><ele>860.6666666666667</ele><time>2026-04-24T10:01:21Z</time></trkpt><trkpt lat="44.12553714000797" lon="10.25991231297857"><ele>856.5</ele><time>2026-04-24T10:01:22Z</time></trkpt><trkpt lat="44.125610955841985" lon="10.259930451359388"><ele>852.3333333333333</ele><time>2026-04-24T10:01:23Z</time></trkpt><trkpt lat="44.125675712738015" lon="10.25997165013884"><ele>848.1666666666666</ele><time>2026-04-24T10:01:24Z</time></trkpt><trkpt lat="44.125749103298766" lon="10.260006478504817"><ele>844.0</ele><time>2026-04-24T10:01:25Z</time></trkpt><trkpt lat="44.12582349776639" lon="10.260044109367945"><ele>843.0</ele><time>2026-04-24T10:01:26Z</time></trkpt><trkpt lat="44.125890331539495" lon="10.26009268841097"><ele>842.0</ele><time>2026-04-24T10:01:27Z</time></trkpt><trkpt lat="44.125949356518866" lon="10.260162152094962"><ele>841.0</ele><time>2026-04-24T10:01:28Z</time></trkpt><trkpt lat="44.126009860178335" lon="10.260232593780165"><ele>840.0</ele><time>2026-04-24T10:01:29Z</time></trkpt><trkpt lat="44.126068771488974" lon="10.26030378898981"><ele>839.0</ele><time>2026-04-24T10:01:30Z</time></trkpt><trkpt lat="44.126119250031905" lon="10.260365094515182"><ele>838.0</ele><time>2026-04-24T10:01:31Z</time></trkpt><trkpt lat="44.12616893806927" lon="10.260427993515764"><ele>837.0</ele><time>2026-04-24T10:01:32Z</time></trkpt><trkpt lat="44.12620038078117" lon="10.260550816224493"><ele>834.0</ele><time>2026-04-24T10:01:34Z</time></trkpt><trkpt lat="44.12627504146779" lon="10.260659900466171"><ele>831.0</ele><time>2026-04-24T10:01:36Z</time></trkpt><trkpt lat="44.12628200295653" lon="10.26083614460069"><ele>828.0</ele><time>2026-04-24T10:01:38Z</time></trkpt><trkpt lat="44.1262572764825" lon="10.260987451661626"><ele>825.0</ele><time>2026-04-24T10:01:40Z</time></trkpt><trkpt lat="44.1262254895622" lon="10.261083471277377"><ele>822.0</ele><time>2026-04-24T10:01:41Z</time></trkpt><trkpt lat="44.126192283389734" lon="10.261217969560605"><ele>822.0</ele><time>2026-04-24T10:01:42Z</time></trkpt><trkpt lat="44.12613443483428" lon="10.26135634422732"><ele>822.0</ele><time>2026-04-24T10:01:43Z</time></trkpt><trkpt lat="44.126073658940676" lon="10.26149633762153"><ele>822.0</ele><time>2026-04-24T10:01:44Z</time></trkpt><trkpt lat="44.12601491324286" lon="10.261643284677417"><ele>822.0</ele><time>2026-04-24T10:01:45Z</time></trkpt><trkpt lat="44.1259413693651" lon="10.261783180076128"><ele>821.5</ele><time>2026-04-24T10:01:46Z</time></trkpt><trkpt lat="44.12588679728827" lon="10.261947078762576"><ele>821.0</ele><time>2026-04-24T10:01:47Z</time></trkpt><trkpt lat="44.12582390615575" lon="10.262104540125907"><ele>820.5</ele><time>2026-04-24T10:01:48Z</time></trkpt><trkpt lat="44.12575896897627" lon="10.262257299832491"><ele>820.0</ele><time>2026-04-24T10:01:49Z</time></trkpt><trkpt lat="44.12569439550115" lon="10.262414462120473"><ele>814.75</ele><time>2026-04-24T10:01:50Z</time></trkpt><trkpt lat="44.125614100113616" lon="10.262561567357157"><ele>809.5</ele><time>2026-04-24T10:01:51Z</time></trkpt><trkpt lat="44.12555146930232" lon="10.262714702414778"><ele>804.25</ele><time>2026-04-24T10:01:52Z</time></trkpt><trkpt lat="44.125506238706954" lon="10.262871215724859"><ele>799.0</ele><time>2026-04-24T10:01:53Z</time></trkpt><trkpt lat="44.12543767793735" lon="10.262992925484902"><ele>797.75</ele><time>2026-04-24T10:01:54Z</time></trkpt><trkpt lat="44.12538138373924" lon="10.263130566280571"><ele>796.5</ele><time>2026-04-24T10:01:55Z</time></trkpt><trkpt lat="44.125335901986105" lon="10.263277777987751"><ele>795.25</ele><time>2026-04-24T10:01:56Z</time></trkpt><trkpt lat="44.12526937818462" lon="10.263411757798039"><ele>794.0</ele><time>2026-04-24T10:01:57Z</time></trkpt><trkpt lat="44.12519349367414" lon="10.263530793618344"><ele>794.0</ele><time>2026-04-24T10:01:58Z</time></trkpt><trkpt lat="44.12510334519736" lon="10.26365387415234"><ele>794.0</ele><time>2026-04-24T10:01:59Z</time></trkpt><trkpt lat="44.12501682888241" lon="10.263776506706462"><ele>794.0</ele><time>2026-04-24T10:02:00Z</time></trkpt><trkpt lat="44.124927591982456" lon="10.26389074879699"><ele>794.0</ele><time>2026-04-24T10:02:01Z</time></trkpt><trkpt lat="44.12487219013503" lon="10.264022888025623"><ele>790.0</ele><time>2026-04-24T10:02:02Z</time></trkpt><trkpt lat="44.12480289122562" lon="10.264145835610924"><ele>786.0</ele><time>2026-04-24T10:02:03Z</time></trkpt><trkpt lat="44.12473184729587" lon="10.2642916734903"><ele>782.0</ele><time>2026-04-24T10:02:04Z</time></trkpt><trkpt lat="44.124645080302166" lon="10.264420924366217"><ele>778.0</ele><time>2026-04-24T10:02:05Z</time></trkpt><trkpt lat="44.12458841491599" lon="10.264562748573864"><ele>778.0</ele><time>2026-04-24T10:02:06Z</time></trkpt><trkpt lat="44.12452818325996" lon="10.264679018623369"><ele>778.0</ele><time>2026-04-24T10:02:07Z</time></trkpt><trkpt lat="44.12446360331935" lon="10.26479502123195"><ele>778.0</ele><time>2026-04-24T10:02:08Z</time></trkpt><trkpt lat="44.12440535213413" lon="10.264907453952912"><ele>778.0</ele><time>2026-04-24T10:02:09Z</time></trkpt><trkpt lat="44.12435315610809" lon="10.265017184252436"><ele>778.0</ele><time>2026-04-24T10:02:10Z</time></trkpt><trkpt lat="44.1243078455794" lon="10.26513438275393"><ele>777.5999999999999</ele><time>2026-04-24T10:02:11Z</time></trkpt><trkpt lat="44.124284999349484" lon="10.265255506530664"><ele>777.1999999999999</ele><time>2026-04-24T10:02:12Z</time></trkpt><trkpt lat="44.12427699612203" lon="10.265363494129513"><ele>776.8</ele><time>2026-04-24T10:02:13Z</time></trkpt><trkpt lat="44.12428195459508" lon="10.265490415512176"><ele>776.4</ele><time>2026-04-24T10:02:14Z</time></trkpt><trkpt lat="44.124316036415124" lon="10.265628060888123"><ele>776.0</ele><time>2026-04-24T10:02:15Z</time></trkpt><trkpt lat="44.12436466929165" lon="10.265764130558882"><ele>775.1666666666667</ele><time>2026-04-24T10:02:16Z</time></trkpt><trkpt lat="44.12438326254691" lon="10.265900527780284"><ele>774.3333333333334</ele><time>2026-04-24T10:02:17Z</time></trkpt><trkpt lat="44.124406140586935" lon="10.26600584715286"><ele>773.5</ele><time>2026-04-24T10:02:18Z</time></trkpt><trkpt lat="44.12442282307439" lon="10.266093205048932"><ele>772.6666666666667</ele><time>2026-04-24T10:02:19Z</time></trkpt><trkpt lat="44.124440148756904" lon="10.26617984186598"><ele>771.8333333333334</ele><time>2026-04-24T10:02:20Z</time></trkpt><trkpt lat="44.124417590579675" lon="10.26626896490699"><ele>771.0</ele><time>2026-04-24T10:02:21Z</time></trkpt><trkpt lat="44.12436476629354" lon="10.266347819529578"><ele>771.0</ele><time>2026-04-24T10:02:22Z</time></trkpt><trkpt lat="44.124298840166354" lon="10.266398390281434"><ele>771.0</ele><time>2026-04-24T10:02:23Z</time></trkpt><trkpt lat="44.124232071410596" lon="10.266425301087654"><ele>771.0</ele><time>2026-04-24T10:02:24Z</time></trkpt><trkpt lat="44.124144439581485" lon="10.266534113113485"><ele>771.0</ele><time>2026-04-24T10:02:26Z</time></trkpt><trkpt lat="44.124122081196056" lon="10.266711658236243"><ele>771.0</ele><time>2026-04-24T10:02:28Z</time></trkpt><trkpt lat="44.12419232774721" lon="10.266788985805055"><ele>770.6666666666666</ele><time>2026-04-24T10:02:29Z</time></trkpt><trkpt lat="44.124229377282276" lon="10.26687912644248"><ele>770.3333333333333</ele><time>2026-04-24T10:02:30Z</time></trkpt><trkpt lat="44.124264666153486" lon="10.266969034676384"><ele>770.0</ele><time>2026-04-24T10:02:31Z</time></trkpt><trkpt lat="44.12427483068968" lon="10.267063963776758"><ele>769.6666666666666</ele><time>2026-04-24T10:02:32Z</time></trkpt><trkpt lat="44.124271662571246" lon="10.267172120676614"><ele>769.3333333333333</ele><time>2026-04-24T10:02:33Z</time></trkpt><trkpt lat="44.12421448188577" lon="10.267284132483613"><ele>769.0</ele><time>2026-04-24T10:02:34Z</time></trkpt><trkpt lat="44.124184131996344" lon="10.267407734851064"><ele>768.9999999999999</ele><time>2026-04-24T10:02:35Z</time></trkpt><trkpt lat="44.124124849664625" lon="10.26749885123441"><ele>769.0</ele><time>2026-04-24T10:02:36Z</time></trkpt><trkpt lat="44.12407732602324" lon="10.267604012879472"><ele>769.0</ele><time>2026-04-24T10:02:37Z</time></trkpt><trkpt lat="44.12403142798197" lon="10.26770357420176"><ele>769.0</ele><time>2026-04-24T10:02:38Z</time></trkpt><trkpt lat="44.123986806590274" lon="10.26779354294865"><ele>768.9999999999999</ele><time>2026-04-24T10:02:39Z</time></trkpt><trkpt lat="44.12395505655283" lon="10.267889222081797"><ele>769.0</ele><time>2026-04-24T10:02:40Z</time></trkpt><trkpt lat="44.12388763069998" lon="10.267935533497607"><ele>763.4000000000001</ele><time>2026-04-24T10:02:41Z</time></trkpt><trkpt lat="44.12379655487345" lon="10.267951653963678"><ele>757.8</ele><time>2026-04-24T10:02:42Z</time></trkpt><trkpt lat="44.123698863740294" lon="10.26793691775512"><ele>752.2</ele><time>2026-04-24T10:02:43Z</time></trkpt><trkpt lat="44.123598327759915" lon="10.267933378175135"><ele>746.5999999999999</ele><time>2026-04-24T10:02:44Z</time></trkpt><trkpt lat="44.12350426288255" lon="10.267959710707139"><ele>741.0</ele><time>2026-04-24T10:02:45Z</time></trkpt><trkpt lat="44.12340602898163" lon="10.268014561741579"><ele>741.0</ele><time>2026-04-24T10:02:46Z</time></trkpt><trkpt lat="44.123298504296315" lon="10.268054864954122"><ele>741.0</ele><time>2026-04-24T10:02:47Z</time></trkpt><trkpt lat="44.123202489742354" lon="10.268100066131181"><ele>741.0</ele><time>2026-04-24T10:02:48Z</time></trkpt><trkpt lat="44.12310967196646" lon="10.268139448558216"><ele>741.0</ele><time>2026-04-24T10:02:49Z</time></trkpt><trkpt lat="44.12301383950208" lon="10.26818293260506"><ele>741.0</ele><time>2026-04-24T10:02:50Z</time></trkpt><trkpt lat="44.12292572244878" lon="10.268228645916505"><ele>739.1999999999999</ele><time>2026-04-24T10:02:51Z</time></trkpt><trkpt lat="44.12284382026685" lon="10.268271772652746"><ele>737.4</ele><time>2026-04-24T10:02:52Z</time></trkpt><trkpt lat="44.12275851846427" lon="10.268333140101374"><ele>735.6</ele><time>2026-04-24T10:02:53Z</time></trkpt><trkpt lat="44.122645048787845" lon="10.268440912262717"><ele>733.8</ele><time>2026-04-24T10:02:54Z</time></trkpt><trkpt lat="44.12255976761406" lon="10.26856077416088"><ele>732.0</ele><time>2026-04-24T10:02:55Z</time></trkpt><trkpt lat="44.12248788614957" lon="10.268687622168258"><ele>732.0</ele><time>2026-04-24T10:02:56Z</time></trkpt><trkpt lat="44.122404659739615" lon="10.268799600059896"><ele>732.0</ele><time>2026-04-24T10:02:57Z</time></trkpt><trkpt lat="44.12230583001156" lon="10.268911951352015"><ele>732.0</ele><time>2026-04-24T10:02:58Z</time></trkpt><trkpt lat="44.12221255409612" lon="10.269016559201445"><ele>732.0</ele><time>2026-04-24T10:02:59Z</time></trkpt><trkpt lat="44.122116583483916" lon="10.2691066119373"><ele>731.0</ele><time>2026-04-24T10:03:00Z</time></trkpt><trkpt lat="44.12201903111505" lon="10.269180744048937"><ele>730.0</ele><time>2026-04-24T10:03:01Z</time></trkpt><trkpt lat="44.12192677499295" lon="10.2692622318563"><ele>729.0</ele><time>2026-04-24T10:03:02Z</time></trkpt><trkpt lat="44.12183808618834" lon="10.269342320744167"><ele>728.0</ele><time>2026-04-24T10:03:03Z</time></trkpt><trkpt lat="44.12176270013045" lon="10.269441374872056"><ele>727.0</ele><time>2026-04-24T10:03:04Z</time></trkpt><trkpt lat="44.12169558781899" lon="10.269554193882655"><ele>727.0</ele><time>2026-04-24T10:03:05Z</time></trkpt><trkpt lat="44.12161689600181" lon="10.269653165241644"><ele>727.0</ele><time>2026-04-24T10:03:06Z</time></trkpt><trkpt lat="44.12154823274287" lon="10.269760294541744"><ele>727.0</ele><time>2026-04-24T10:03:07Z</time></trkpt><trkpt lat="44.121486055528074" lon="10.269869912663262"><ele>727.0</ele><time>2026-04-24T10:03:08Z</time></trkpt><trkpt lat="44.12143087502347" lon="10.26996709116811"><ele>727.0</ele><time>2026-04-24T10:03:09Z</time></trkpt><trkpt lat="44.12137391908029" lon="10.270051454965442"><ele>725.5714285714286</ele><time>2026-04-24T10:03:10Z</time></trkpt><trkpt lat="44.12130400994307" lon="10.270111056354795"><ele>724.1428571428572</ele><time>2026-04-24T10:03:11Z</time></trkpt><trkpt lat="44.12123695870964" lon="10.270143035546818"><ele>722.7142857142858</ele><time>2026-04-24T10:03:12Z</time></trkpt><trkpt lat="44.121166680167846" lon="10.270116003355785"><ele>721.2857142857142</ele><time>2026-04-24T10:03:13Z</time></trkpt><trkpt lat="44.121106295249305" lon="10.27006778189872"><ele>719.8571428571429</ele><time>2026-04-24T10:03:14Z</time></trkpt><trkpt lat="44.121062547185424" lon="10.269996316206008"><ele>718.4285714285714</ele><time>2026-04-24T10:03:15Z</time></trkpt><trkpt lat="44.121049420452344" lon="10.269903583175006"><ele>717.0</ele><time>2026-04-24T10:03:16Z</time></trkpt><trkpt lat="44.12106580137984" lon="10.269784151402602"><ele>714.2</ele><time>2026-04-24T10:03:17Z</time></trkpt><trkpt lat="44.12112934637156" lon="10.269676989105411"><ele>711.4000000000001</ele><time>2026-04-24T10:03:18Z</time></trkpt><trkpt lat="44.12120923298801" lon="10.2695878051745"><ele>708.5999999999999</ele><time>2026-04-24T10:03:19Z</time></trkpt><trkpt lat="44.12128837238363" lon="10.269483280209053"><ele>705.8</ele><time>2026-04-24T10:03:20Z</time></trkpt><trkpt lat="44.121354276535705" lon="10.269386328595088"><ele>703.0</ele><time>2026-04-24T10:03:21Z</time></trkpt><trkpt lat="44.121411740160596" lon="10.26928724386119"><ele>703.0</ele><time>2026-04-24T10:03:22Z</time></trkpt><trkpt lat="44.12146409241016" lon="10.269202751626988"><ele>703.0</ele><time>2026-04-24T10:03:23Z</time></trkpt><trkpt lat="44.121497528916464" lon="10.269111370217297"><ele>703.0</ele><time>2026-04-24T10:03:24Z</time></trkpt><trkpt lat="44.12149199801686" lon="10.269018988464913"><ele>703.0</ele><time>2026-04-24T10:03:25Z</time></trkpt><trkpt lat="44.12147346209202" lon="10.268921898553346"><ele>703.0</ele><time>2026-04-24T10:03:26Z</time></trkpt><trkpt lat="44.12145153174231" lon="10.268819883449272"><ele>703.0</ele><time>2026-04-24T10:03:27Z</time></trkpt><trkpt lat="44.121417064158315" lon="10.268730574512013"><ele>703.0</ele><time>2026-04-24T10:03:28Z</time></trkpt><trkpt lat="44.12136605637105" lon="10.268659895473526"><ele>701.8333333333334</ele><time>2026-04-24T10:03:29Z</time></trkpt><trkpt lat="44.12130384618395" lon="10.268614902130377"><ele>700.6666666666667</ele><time>2026-04-24T10:03:30Z</time></trkpt><trkpt lat="44.12122789039354" lon="10.268586340671039"><ele>699.5</ele><time>2026-04-24T10:03:31Z</time></trkpt><trkpt lat="44.12115106423334" lon="10.268577871278572"><ele>698.3333333333334</ele><time>2026-04-24T10:03:32Z</time></trkpt><trkpt lat="44.12106733092002" lon="10.2685939134448"><ele>697.1666666666666</ele><time>2026-04-24T10:03:33Z</time></trkpt><trkpt lat="44.120978841773386" lon="10.268617682256435"><ele>696.0</ele><time>2026-04-24T10:03:34Z</time></trkpt><trkpt lat="44.12087647631012" lon="10.26867939351385"><ele>696.0</ele><time>2026-04-24T10:03:35Z</time></trkpt><trkpt lat="44.120775702331464" lon="10.268725866632918"><ele>696.0</ele><time>2026-04-24T10:03:36Z</time></trkpt><trkpt lat="44.12067734221882" lon="10.26876697065196"><ele>696.0</ele><time>2026-04-24T10:03:37Z</time></trkpt><trkpt lat="44.12058874313643" lon="10.26880670907017"><ele>696.0</ele><time>2026-04-24T10:03:38Z</time></trkpt><trkpt lat="44.12049823035903" lon="10.268843531869779"><ele>696.0</ele><time>2026-04-24T10:03:39Z</time></trkpt><trkpt lat="44.120417863587875" lon="10.26888162238159"><ele>694.4</ele><time>2026-04-24T10:03:40Z</time></trkpt><trkpt lat="44.12033478049968" lon="10.268914174081507"><ele>692.8</ele><time>2026-04-24T10:03:41Z</time></trkpt><trkpt lat="44.12024413947142" lon="10.268947037635861"><ele>691.1999999999999</ele><time>2026-04-24T10:03:42Z</time></trkpt><trkpt lat="44.12016433353999" lon="10.268980175393901"><ele>689.5999999999999</ele><time>2026-04-24T10:03:43Z</time></trkpt><trkpt lat="44.120092580576284" lon="10.268999922022475"><ele>688.0</ele><time>2026-04-24T10:03:44Z</time></trkpt><trkpt lat="44.11997273450571" lon="10.269036967567027"><ele>688.0</ele><time>2026-04-24T10:03:46Z</time></trkpt><trkpt lat="44.119900484053666" lon="10.269071137605213"><ele>688.0</ele><time>2026-04-24T10:03:47Z</time></trkpt><trkpt lat="44.1198111183312" lon="10.269109322782286"><ele>688.0</ele><time>2026-04-24T10:03:48Z</time></trkpt><trkpt lat="44.11972362147538" lon="10.269158132280005"><ele>688.0</ele><time>2026-04-24T10:03:49Z</time></trkpt><trkpt lat="44.11964374401127" lon="10.269220601172538"><ele>688.0</ele><time>2026-04-24T10:03:50Z</time></trkpt><trkpt lat="44.11955841819815" lon="10.269307568140546"><ele>686.4</ele><time>2026-04-24T10:03:51Z</time></trkpt><trkpt lat="44.11947488732967" lon="10.269414546237549"><ele>684.8</ele><time>2026-04-24T10:03:52Z</time></trkpt><trkpt lat="44.119395594004764" lon="10.269520380532493"><ele>683.2</ele><time>2026-04-24T10:03:53Z</time></trkpt><trkpt lat="44.11932143874512" lon="10.269620406903167"><ele>681.6</ele><time>2026-04-24T10:03:54Z</time></trkpt><trkpt lat="44.11925870350616" lon="10.269712954001001"><ele>680.0</ele><time>2026-04-24T10:03:55Z</time></trkpt><trkpt lat="44.11920846911117" lon="10.269818111047122"><ele>679.6</ele><time>2026-04-24T10:03:56Z</time></trkpt><trkpt lat="44.119149324694554" lon="10.269945836685906"><ele>679.2</ele><time>2026-04-24T10:03:57Z</time></trkpt><trkpt lat="44.119119073311445" lon="10.270100327350866"><ele>678.8</ele><time>2026-04-24T10:03:58Z</time></trkpt><trkpt lat="44.119073883752684" lon="10.270226160462101"><ele>678.4</ele><time>2026-04-24T10:03:59Z</time></trkpt><trkpt lat="44.11902072002214" lon="10.270353820977911"><ele>678.0</ele><time>2026-04-24T10:04:00Z</time></trkpt><trkpt lat="44.11897286677476" lon="10.270500289336992"><ele>676.8</ele><time>2026-04-24T10:04:01Z</time></trkpt><trkpt lat="44.11893626676313" lon="10.270647657230858"><ele>675.5999999999999</ele><time>2026-04-24T10:04:02Z</time></trkpt><trkpt lat="44.118867425274644" lon="10.270764540371502"><ele>674.4000000000001</ele><time>2026-04-24T10:04:03Z</time></trkpt><trkpt lat="44.1188157757817" lon="10.270878678391348"><ele>673.2</ele><time>2026-04-24T10:04:04Z</time></trkpt><trkpt lat="44.118768367360865" lon="10.270989787453038"><ele>672.0</ele><time>2026-04-24T10:04:05Z</time></trkpt><trkpt lat="44.11873353167605" lon="10.271082782352988"><ele>672.0</ele><time>2026-04-24T10:04:06Z</time></trkpt><trkpt lat="44.118691471819105" lon="10.271256068181494"><ele>672.0</ele><time>2026-04-24T10:04:09Z</time></trkpt><trkpt lat="44.11863418760365" lon="10.271344294699361"><ele>672.0</ele><time>2026-04-24T10:04:11Z</time></trkpt><trkpt lat="44.11860762314526" lon="10.27149385578865"><ele>672.0</ele><time>2026-04-24T10:04:13Z</time></trkpt><trkpt lat="44.11859025423909" lon="10.271603899940793"><ele>672.0</ele><time>2026-04-24T10:04:14Z</time></trkpt><trkpt lat="44.118524756401186" lon="10.271697806471055"><ele>671.0</ele><time>2026-04-24T10:04:15Z</time></trkpt><trkpt lat="44.11845696573437" lon="10.271803317900403"><ele>670.0</ele><time>2026-04-24T10:04:16Z</time></trkpt><trkpt lat="44.11839421326762" lon="10.271925947299682"><ele>669.0</ele><time>2026-04-24T10:04:17Z</time></trkpt><trkpt lat="44.11831362953146" lon="10.272037650798673"><ele>668.0</ele><time>2026-04-24T10:04:18Z</time></trkpt><trkpt lat="44.11823191348526" lon="10.272164087976991"><ele>667.0</ele><time>2026-04-24T10:04:19Z</time></trkpt><trkpt lat="44.118151843811276" lon="10.272287717394976"><ele>664.6</ele><time>2026-04-24T10:04:20Z</time></trkpt><trkpt lat="44.11807506659667" lon="10.272398863901786"><ele>662.2</ele><time>2026-04-24T10:04:21Z</time></trkpt><trkpt lat="44.117999447130146" lon="10.272512341056034"><ele>659.8</ele><time>2026-04-24T10:04:22Z</time></trkpt><trkpt lat="44.117937387173065" lon="10.272637358256931"><ele>657.4</ele><time>2026-04-24T10:04:23Z</time></trkpt><trkpt lat="44.11788858679866" lon="10.272781004172531"><ele>655.0</ele><time>2026-04-24T10:04:24Z</time></trkpt><trkpt lat="44.1178508798834" lon="10.272936014842214"><ele>655.0</ele><time>2026-04-24T10:04:25Z</time></trkpt><trkpt lat="44.11782810941599" lon="10.273092211419002"><ele>655.0</ele><time>2026-04-24T10:04:26Z</time></trkpt><trkpt lat="44.11779225023942" lon="10.273244883776723"><ele>655.0</ele><time>2026-04-24T10:04:27Z</time></trkpt><trkpt lat="44.11774425166036" lon="10.27340751228114"><ele>655.0</ele><time>2026-04-24T10:04:28Z</time></trkpt><trkpt lat="44.11767379800579" lon="10.273542211557876"><ele>655.4</ele><time>2026-04-24T10:04:29Z</time></trkpt><trkpt lat="44.11761296124295" lon="10.273672578787625"><ele>655.8</ele><time>2026-04-24T10:04:30Z</time></trkpt><trkpt lat="44.117572833313446" lon="10.273782109543486"><ele>656.2</ele><time>2026-04-24T10:04:31Z</time></trkpt><trkpt lat="44.11753176279558" lon="10.273895207284026"><ele>656.6</ele><time>2026-04-24T10:04:32Z</time></trkpt><trkpt lat="44.11749383715802" lon="10.274031306661376"><ele>657.0</ele><time>2026-04-24T10:04:33Z</time></trkpt><trkpt lat="44.11749263359522" lon="10.274185507097416"><ele>657.0</ele><time>2026-04-24T10:04:34Z</time></trkpt><trkpt lat="44.11747847017876" lon="10.274334524686275"><ele>657.0</ele><time>2026-04-24T10:04:35Z</time></trkpt><trkpt lat="44.11743869198928" lon="10.274462633435384"><ele>657.0</ele><time>2026-04-24T10:04:36Z</time></trkpt><trkpt lat="44.11741727167284" lon="10.274594233688003"><ele>657.0</ele><time>2026-04-24T10:04:37Z</time></trkpt><trkpt lat="44.11735809048001" lon="10.274712532468314"><ele>657.0</ele><time>2026-04-24T10:04:38Z</time></trkpt><trkpt lat="44.117279102687085" lon="10.27482252852523"><ele>650.5</ele><time>2026-04-24T10:04:39Z</time></trkpt><trkpt lat="44.117189372025614" lon="10.27494887479813"><ele>644.0</ele><time>2026-04-24T10:04:40Z</time></trkpt><trkpt lat="44.11709447570549" lon="10.27508297792589"><ele>637.5</ele><time>2026-04-24T10:04:41Z</time></trkpt><trkpt lat="44.116999348263334" lon="10.275214932400248"><ele>631.0</ele><time>2026-04-24T10:04:42Z</time></trkpt><trkpt lat="44.1168990446678" lon="10.275335087475579"><ele>631.0</ele><time>2026-04-24T10:04:43Z</time></trkpt><trkpt lat="44.116807666101344" lon="10.275469258529139"><ele>631.0</ele><time>2026-04-24T10:04:44Z</time></trkpt><trkpt lat="44.11672110647975" lon="10.275608354807238"><ele>631.0</ele><time>2026-04-24T10:04:45Z</time></trkpt><trkpt lat="44.116634621167805" lon="10.275751274341697"><ele>631.0</ele><time>2026-04-24T10:04:46Z</time></trkpt><trkpt lat="44.116548397821475" lon="10.275895639693431"><ele>626.25</ele><time>2026-04-24T10:04:47Z</time></trkpt><trkpt lat="44.11645455339952" lon="10.276036749153112"><ele>621.5</ele><time>2026-04-24T10:04:48Z</time></trkpt><trkpt lat="44.11636272084743" lon="10.276168224512121"><ele>616.75</ele><time>2026-04-24T10:04:49Z</time></trkpt><trkpt lat="44.11627828847066" lon="10.27630488925921"><ele>612.0</ele><time>2026-04-24T10:04:50Z</time></trkpt><trkpt lat="44.11619275457847" lon="10.276444830747506"><ele>612.0</ele><time>2026-04-24T10:04:51Z</time></trkpt><trkpt lat="44.116111523461775" lon="10.276595721389697"><ele>612.0</ele><time>2026-04-24T10:04:52Z</time></trkpt><trkpt lat="44.116036740599895" lon="10.276756883869838"><ele>612.0</ele><time>2026-04-24T10:04:53Z</time></trkpt><trkpt lat="44.11595539957136" lon="10.27691421263186"><ele>612.0</ele><time>2026-04-24T10:04:54Z</time></trkpt><trkpt lat="44.11587224719018" lon="10.277063356277607"><ele>612.0</ele><time>2026-04-24T10:04:55Z</time></trkpt><trkpt lat="44.115792045020655" lon="10.277220090389385"><ele>612.0</ele><time>2026-04-24T10:04:56Z</time></trkpt><trkpt lat="44.11570919869345" lon="10.277364004954737"><ele>612.0</ele><time>2026-04-24T10:04:57Z</time></trkpt><trkpt lat="44.115624657005604" lon="10.277505918075887"><ele>612.0</ele><time>2026-04-24T10:04:58Z</time></trkpt><trkpt lat="44.11554211289606" lon="10.277647237761386"><ele>608.0</ele><time>2026-04-24T10:04:59Z</time></trkpt><trkpt lat="44.11546083624289" lon="10.27778025910999"><ele>604.0</ele><time>2026-04-24T10:05:00Z</time></trkpt><trkpt lat="44.1153912777577" lon="10.277893355118072"><ele>600.0</ele><time>2026-04-24T10:05:01Z</time></trkpt><trkpt lat="44.11532618107304" lon="10.27799232724546"><ele>596.0</ele><time>2026-04-24T10:05:02Z</time></trkpt><trkpt lat="44.11526507613373" lon="10.278089747341266"><ele>592.0</ele><time>2026-04-24T10:05:03Z</time></trkpt><trkpt lat="44.11521041708585" lon="10.278213533066817"><ele>592.0</ele><time>2026-04-24T10:05:04Z</time></trkpt><trkpt lat="44.11516290605355" lon="10.278351032808734"><ele>592.0</ele><time>2026-04-24T10:05:05Z</time></trkpt><trkpt lat="44.11512836412218" lon="10.2784934060418"><ele>592.0</ele><time>2026-04-24T10:05:06Z</time></trkpt><trkpt lat="44.11508970318041" lon="10.278637582916037"><ele>592.0</ele><time>2026-04-24T10:05:07Z</time></trkpt><trkpt lat="44.11503589789102" lon="10.278774762819321"><ele>592.0</ele><time>2026-04-24T10:05:08Z</time></trkpt><trkpt lat="44.11497371555298" lon="10.278907978377363"><ele>587.5</ele><time>2026-04-24T10:05:09Z</time></trkpt><trkpt lat="44.114899087864515" lon="10.279032329187062"><ele>583.0</ele><time>2026-04-24T10:05:10Z</time></trkpt><trkpt lat="44.11482114608355" lon="10.279151630977331"><ele>578.5</ele><time>2026-04-24T10:05:11Z</time></trkpt><trkpt lat="44.1147485182218" lon="10.279271466126872"><ele>574.0</ele><time>2026-04-24T10:05:12Z</time></trkpt><trkpt lat="44.114666722736175" lon="10.279378157956364"><ele>574.0</ele><time>2026-04-24T10:05:13Z</time></trkpt><trkpt lat="44.11459405139651" lon="10.279487926329878"><ele>574.0</ele><time>2026-04-24T10:05:14Z</time></trkpt><trkpt lat="44.11451183621493" lon="10.279586261505418"><ele>574.0</ele><time>2026-04-24T10:05:15Z</time></trkpt><trkpt lat="44.11442321101287" lon="10.279674700337436"><ele>574.0</ele><time>2026-04-24T10:05:16Z</time></trkpt><trkpt lat="44.11434454449296" lon="10.279747181499586"><ele>574.0</ele><time>2026-04-24T10:05:17Z</time></trkpt><trkpt lat="44.11427836845696" lon="10.279826251138603"><ele>572.8</ele><time>2026-04-24T10:05:18Z</time></trkpt><trkpt lat="44.114186275256024" lon="10.279895493834063"><ele>571.5999999999999</ele><time>2026-04-24T10:05:19Z</time></trkpt><trkpt lat="44.11410459782631" lon="10.279976961848265"><ele>570.4</ele><time>2026-04-24T10:05:20Z</time></trkpt><trkpt lat="44.11401807113712" lon="10.280065210652117"><ele>569.1999999999999</ele><time>2026-04-24T10:05:21Z</time></trkpt><trkpt lat="44.11394945812394" lon="10.280169653517406"><ele>568.0</ele><time>2026-04-24T10:05:22Z</time></trkpt><trkpt lat="44.113894732425756" lon="10.280296386639609"><ele>568.0</ele><time>2026-04-24T10:05:23Z</time></trkpt><trkpt lat="44.113857273726396" lon="10.280451300716551"><ele>568.0</ele><time>2026-04-24T10:05:24Z</time></trkpt><trkpt lat="44.11382251985865" lon="10.280627529599698"><ele>568.0</ele><time>2026-04-24T10:05:25Z</time></trkpt><trkpt lat="44.1137874175263" lon="10.280773209866824"><ele>568.0</ele><time>2026-04-24T10:05:26Z</time></trkpt><trkpt lat="44.1137658154319" lon="10.280868840084198"><ele>568.0</ele><time>2026-04-24T10:05:27Z</time></trkpt><trkpt lat="44.11373235377564" lon="10.280998604748413"><ele>568.0</ele><time>2026-04-24T10:05:29Z</time></trkpt><trkpt lat="44.11369905200313" lon="10.281093326305477"><ele>568.0</ele><time>2026-04-24T10:05:31Z</time></trkpt><trkpt lat="44.11366773026026" lon="10.281195430549507"><ele>568.0</ele><time>2026-04-24T10:05:33Z</time></trkpt><trkpt lat="44.11365902736615" lon="10.281301819108915"><ele>568.0</ele><time>2026-04-24T10:05:34Z</time></trkpt><trkpt lat="44.11363587504984" lon="10.28144225233602"><ele>568.0</ele><time>2026-04-24T10:05:35Z</time></trkpt><trkpt lat="44.11359108926717" lon="10.281631352278183"><ele>568.25</ele><time>2026-04-24T10:05:36Z</time></trkpt><trkpt lat="44.113538474001984" lon="10.28179461886484"><ele>568.5</ele><time>2026-04-24T10:05:37Z</time></trkpt><trkpt lat="44.11349597853467" lon="10.2819884323581"><ele>568.75</ele><time>2026-04-24T10:05:38Z</time></trkpt><trkpt lat="44.11346441090417" lon="10.282204629343509"><ele>569.0</ele><time>2026-04-24T10:05:39Z</time></trkpt><trkpt lat="44.11339963699038" lon="10.282419397553117"><ele>569.6666666666666</ele><time>2026-04-24T10:05:40Z</time></trkpt><trkpt lat="44.11337433336168" lon="10.28264666336921"><ele>570.3333333333334</ele><time>2026-04-24T10:05:41Z</time></trkpt><trkpt lat="44.11332421409155" lon="10.282837130604692"><ele>571.0</ele><time>2026-04-24T10:05:42Z</time></trkpt><trkpt lat="44.11328080879868" lon="10.28302366298007"><ele>572.75</ele><time>2026-04-24T10:05:43Z</time></trkpt><trkpt lat="44.11324071129213" lon="10.283210492729284"><ele>574.5</ele><time>2026-04-24T10:05:44Z</time></trkpt><trkpt lat="44.1132030429153" lon="10.283387340505985"><ele>576.25</ele><time>2026-04-24T10:05:45Z</time></trkpt><trkpt lat="44.113171093437906" lon="10.283560621714914"><ele>578.0</ele><time>2026-04-24T10:05:46Z</time></trkpt><trkpt lat="44.11314805669913" lon="10.283722057601235"><ele>573.0</ele><time>2026-04-24T10:05:47Z</time></trkpt><trkpt lat="44.113057890848545" lon="10.28391516435122"><ele>568.0</ele><time>2026-04-24T10:05:48Z</time></trkpt><trkpt lat="44.11301189152583" lon="10.284067952349776"><ele>563.0</ele><time>2026-04-24T10:05:49Z</time></trkpt><trkpt lat="44.11296370616045" lon="10.28420204246666"><ele>558.0</ele><time>2026-04-24T10:05:50Z</time></trkpt><trkpt lat="44.11291718182232" lon="10.284325626627973"><ele>558.0</ele><time>2026-04-24T10:05:51Z</time></trkpt><trkpt lat="44.11288822938572" lon="10.284467235253803"><ele>558.0</ele><time>2026-04-24T10:05:52Z</time></trkpt><trkpt lat="44.112853431714655" lon="10.28460523834216"><ele>558.0</ele><time>2026-04-24T10:05:53Z</time></trkpt><trkpt lat="44.11284667771652" lon="10.284760497812476"><ele>558.0</ele><time>2026-04-24T10:05:54Z</time></trkpt><trkpt lat="44.112865265366885" lon="10.284921046598235"><ele>558.0</ele><time>2026-04-24T10:05:55Z</time></trkpt><trkpt lat="44.11291501675233" lon="10.28508038351907"><ele>557.75</ele><time>2026-04-24T10:05:56Z</time></trkpt><trkpt lat="44.11298315851271" lon="10.285239940572495"><ele>557.5</ele><time>2026-04-24T10:05:57Z</time></trkpt><trkpt lat="44.11305692993696" lon="10.285373808455804"><ele>557.25</ele><time>2026-04-24T10:05:58Z</time></trkpt><trkpt lat="44.11311077885426" lon="10.285521703576558"><ele>557.0</ele><time>2026-04-24T10:05:59Z</time></trkpt><trkpt lat="44.11312759600874" lon="10.285700652580132"><ele>556.25</ele><time>2026-04-24T10:06:00Z</time></trkpt><trkpt lat="44.113154974074526" lon="10.285872077269858"><ele>555.5</ele><time>2026-04-24T10:06:01Z</time></trkpt><trkpt lat="44.11317717742261" lon="10.286032124357977"><ele>554.75</ele><time>2026-04-24T10:06:02Z</time></trkpt><trkpt lat="44.11319558860531" lon="10.286205786279547"><ele>554.0</ele><time>2026-04-24T10:06:03Z</time></trkpt><trkpt lat="44.11318337823084" lon="10.286363408041852"><ele>553.0</ele><time>2026-04-24T10:06:04Z</time></trkpt><trkpt lat="44.11316888145746" lon="10.286514290488038"><ele>552.0</ele><time>2026-04-24T10:06:05Z</time></trkpt><trkpt lat="44.11315806225288" lon="10.286668636276042"><ele>551.0</ele><time>2026-04-24T10:06:06Z</time></trkpt><trkpt lat="44.113163915766094" lon="10.286836017648767"><ele>550.0</ele><time>2026-04-24T10:06:07Z</time></trkpt><trkpt lat="44.11319405424859" lon="10.287002768569428"><ele>550.0</ele><time>2026-04-24T10:06:08Z</time></trkpt><trkpt lat="44.11320485647449" lon="10.287187479020307"><ele>550.0</ele><time>2026-04-24T10:06:09Z</time></trkpt><trkpt lat="44.11324004245024" lon="10.28738516170101"><ele>550.0</ele><time>2026-04-24T10:06:10Z</time></trkpt><trkpt lat="44.113279068842395" lon="10.287563060521753"><ele>550.0</ele><time>2026-04-24T10:06:11Z</time></trkpt><trkpt lat="44.1133171891094" lon="10.28773266054129"><ele>555.25</ele><time>2026-04-24T10:06:12Z</time></trkpt><trkpt lat="44.11335218157289" lon="10.287907785336685"><ele>560.5</ele><time>2026-04-24T10:06:13Z</time></trkpt><trkpt lat="44.11337056075954" lon="10.288072647658826"><ele>565.75</ele><time>2026-04-24T10:06:14Z</time></trkpt><trkpt lat="44.113383952768764" lon="10.288232584400186"><ele>571.0</ele><time>2026-04-24T10:06:15Z</time></trkpt><trkpt lat="44.11343105941409" lon="10.288390283315605"><ele>571.0</ele><time>2026-04-24T10:06:16Z</time></trkpt><trkpt lat="44.113477504383724" lon="10.288548949897692"><ele>571.0</ele><time>2026-04-24T10:06:17Z</time></trkpt><trkpt lat="44.11350798734731" lon="10.288694977430733"><ele>571.0</ele><time>2026-04-24T10:06:18Z</time></trkpt><trkpt lat="44.11353897627563" lon="10.288826926417354"><ele>571.0</ele><time>2026-04-24T10:06:19Z</time></trkpt><trkpt lat="44.11354941881489" lon="10.288978889952064"><ele>571.0</ele><time>2026-04-24T10:06:20Z</time></trkpt><trkpt lat="44.113555500206516" lon="10.289148266393193"><ele>569.6</ele><time>2026-04-24T10:06:21Z</time></trkpt><trkpt lat="44.1135585115985" lon="10.28930906439641"><ele>568.2</ele><time>2026-04-24T10:06:22Z</time></trkpt><trkpt lat="44.113579138737904" lon="10.289444178354454"><ele>566.8</ele><time>2026-04-24T10:06:23Z</time></trkpt><trkpt lat="44.113576557805175" lon="10.289584127286602"><ele>565.4</ele><time>2026-04-24T10:06:24Z</time></trkpt><trkpt lat="44.113640992849405" lon="10.289724287741661"><ele>564.0</ele><time>2026-04-24T10:06:25Z</time></trkpt><trkpt lat="44.113716226444595" lon="10.289874781728017"><ele>563.25</ele><time>2026-04-24T10:06:26Z</time></trkpt><trkpt lat="44.11378843995149" lon="10.29004957154882"><ele>562.5</ele><time>2026-04-24T10:06:27Z</time></trkpt><trkpt lat="44.11386831669541" lon="10.290217439078202"><ele>561.75</ele><time>2026-04-24T10:06:28Z</time></trkpt><trkpt lat="44.11394789029586" lon="10.290355705203055"><ele>561.0</ele><time>2026-04-24T10:06:29Z</time></trkpt><trkpt lat="44.11401577597603" lon="10.29050229873346"><ele>563.75</ele><time>2026-04-24T10:06:30Z</time></trkpt><trkpt lat="44.11408158704976" lon="10.290633555519317"><ele>566.5</ele><time>2026-04-24T10:06:31Z</time></trkpt><trkpt lat="44.11414749037323" lon="10.290751333357248"><ele>569.25</ele><time>2026-04-24T10:06:32Z</time></trkpt><trkpt lat="44.11423978837078" lon="10.29084991568821"><ele>572.0</ele><time>2026-04-24T10:06:33Z</time></trkpt><trkpt lat="44.11436035390996" lon="10.290922105252411"><ele>572.0</ele><time>2026-04-24T10:06:34Z</time></trkpt><trkpt lat="44.11449176576283" lon="10.290979753836735"><ele>572.0</ele><time>2026-04-24T10:06:35Z</time></trkpt><trkpt lat="44.114609077284406" lon="10.291039429805515"><ele>572.0</ele><time>2026-04-24T10:06:36Z</time></trkpt><trkpt lat="44.11471100465523" lon="10.291117829570535"><ele>572.0</ele><time>2026-04-24T10:06:37Z</time></trkpt><trkpt lat="44.11481749627664" lon="10.291210004690333"><ele>571.8000000000001</ele><time>2026-04-24T10:06:38Z</time></trkpt><trkpt lat="44.11491859540812" lon="10.291295879192718"><ele>571.6</ele><time>2026-04-24T10:06:39Z</time></trkpt><trkpt lat="44.115010844990934" lon="10.291370223188103"><ele>571.4000000000001</ele><time>2026-04-24T10:06:40Z</time></trkpt><trkpt lat="44.11510254770915" lon="10.291436017574847"><ele>571.2</ele><time>2026-04-24T10:06:41Z</time></trkpt><trkpt lat="44.115196868281416" lon="10.29148338894646"><ele>571.0</ele><time>2026-04-24T10:06:42Z</time></trkpt><trkpt lat="44.11529314012277" lon="10.29148916651947"><ele>571.0</ele><time>2026-04-24T10:06:43Z</time></trkpt><trkpt lat="44.115369494511775" lon="10.29148788862336"><ele>571.0</ele><time>2026-04-24T10:06:44Z</time></trkpt><trkpt lat="44.11545129794513" lon="10.29146379278381"><ele>571.0</ele><time>2026-04-24T10:06:45Z</time></trkpt><trkpt lat="44.1155201345783" lon="10.291415762212655"><ele>571.0</ele><time>2026-04-24T10:06:46Z</time></trkpt><trkpt lat="44.11559857422326" lon="10.291399572695303"><ele>571.0</ele><time>2026-04-24T10:06:47Z</time></trkpt><trkpt lat="44.11566452990193" lon="10.291461142934944"><ele>571.0</ele><time>2026-04-24T10:06:48Z</time></trkpt><trkpt lat="44.1157259428844" lon="10.291505467975963"><ele>571.0</ele><time>2026-04-24T10:06:49Z</time></trkpt><trkpt lat="44.115787477146554" lon="10.291556357506211"><ele>571.0</ele><time>2026-04-24T10:06:50Z</time></trkpt><trkpt lat="44.11579129936771" lon="10.291679501915528"><ele>571.0</ele><time>2026-04-24T10:06:51Z</time></trkpt><trkpt lat="44.115776782009604" lon="10.291804081803242"><ele>571.0</ele><time>2026-04-24T10:06:52Z</time></trkpt><trkpt lat="44.11575603813134" lon="10.291942444439275"><ele>571.0</ele><time>2026-04-24T10:06:53Z</time></trkpt><trkpt lat="44.11570607998811" lon="10.292083709565885"><ele>571.0</ele><time>2026-04-24T10:06:54Z</time></trkpt><trkpt lat="44.11566299849149" lon="10.292219021860271"><ele>571.0</ele><time>2026-04-24T10:06:55Z</time></trkpt><trkpt lat="44.1156350214481" lon="10.292341891493766"><ele>571.0</ele><time>2026-04-24T10:06:56Z</time></trkpt><trkpt lat="44.11560263103966" lon="10.292459944513121"><ele>571.0</ele><time>2026-04-24T10:06:57Z</time></trkpt><trkpt lat="44.11559441782253" lon="10.29259261039247"><ele>571.0</ele><time>2026-04-24T10:06:58Z</time></trkpt><trkpt lat="44.11561637666244" lon="10.292739535708135"><ele>573.25</ele><time>2026-04-24T10:06:59Z</time></trkpt><trkpt lat="44.11565565395765" lon="10.292884471290744"><ele>575.5</ele><time>2026-04-24T10:07:00Z</time></trkpt><trkpt lat="44.11571274791855" lon="10.293031527021421"><ele>577.75</ele><time>2026-04-24T10:07:01Z</time></trkpt><trkpt lat="44.115778971899125" lon="10.293188695598664"><ele>580.0</ele><time>2026-04-24T10:07:02Z</time></trkpt><trkpt lat="44.11583223534393" lon="10.293340688126085"><ele>580.0</ele><time>2026-04-24T10:07:03Z</time></trkpt><trkpt lat="44.11589533837267" lon="10.293474376726039"><ele>580.0</ele><time>2026-04-24T10:07:04Z</time></trkpt><trkpt lat="44.115945617803675" lon="10.293602573127837"><ele>580.0</ele><time>2026-04-24T10:07:05Z</time></trkpt><trkpt lat="44.11599544074523" lon="10.2937345209344"><ele>580.0</ele><time>2026-04-24T10:07:06Z</time></trkpt><trkpt lat="44.11604588714785" lon="10.293857806868703"><ele>580.0</ele><time>2026-04-24T10:07:07Z</time></trkpt><trkpt lat="44.11610289735531" lon="10.293946773521224"><ele>578.4</ele><time>2026-04-24T10:07:08Z</time></trkpt><trkpt lat="44.11618037235301" lon="10.294011975240444"><ele>576.8</ele><time>2026-04-24T10:07:09Z</time></trkpt><trkpt lat="44.116275481641736" lon="10.294062926437501"><ele>575.2</ele><time>2026-04-24T10:07:10Z</time></trkpt><trkpt lat="44.116348862337986" lon="10.294157765609944"><ele>573.6</ele><time>2026-04-24T10:07:11Z</time></trkpt><trkpt lat="44.11641347114652" lon="10.29424660523219"><ele>572.0</ele><time>2026-04-24T10:07:12Z</time></trkpt><trkpt lat="44.11645199088494" lon="10.294344020168662"><ele>572.0</ele><time>2026-04-24T10:07:13Z</time></trkpt><trkpt lat="44.11645012063281" lon="10.294473712578858"><ele>572.0</ele><time>2026-04-24T10:07:14Z</time></trkpt><trkpt lat="44.11643490142758" lon="10.294623306328473"><ele>572.0</ele><time>2026-04-24T10:07:15Z</time></trkpt><trkpt lat="44.11641984779505" lon="10.294802246233036"><ele>572.0</ele><time>2026-04-24T10:07:16Z</time></trkpt><trkpt lat="44.116405543463244" lon="10.294985870989796"><ele>569.1666666666666</ele><time>2026-04-24T10:07:17Z</time></trkpt><trkpt lat="44.116394865699185" lon="10.295148403398144"><ele>566.3333333333333</ele><time>2026-04-24T10:07:18Z</time></trkpt><trkpt lat="44.116389825390684" lon="10.29527679697665"><ele>563.5</ele><time>2026-04-24T10:07:19Z</time></trkpt><trkpt lat="44.11639063804709" lon="10.295375315189434"><ele>560.6666666666666</ele><time>2026-04-24T10:07:20Z</time></trkpt><trkpt lat="44.116406051331644" lon="10.295474105706818"><ele>557.8333333333334</ele><time>2026-04-24T10:07:21Z</time></trkpt><trkpt lat="44.116455916181856" lon="10.295583936612278"><ele>555.0</ele><time>2026-04-24T10:07:22Z</time></trkpt><trkpt lat="44.11654437824488" lon="10.295676566660557"><ele>560.5</ele><time>2026-04-24T10:07:23Z</time></trkpt><trkpt lat="44.11665593420758" lon="10.295768959012454"><ele>566.0</ele><time>2026-04-24T10:07:24Z</time></trkpt><trkpt lat="44.11676484921059" lon="10.295877868105881"><ele>571.5</ele><time>2026-04-24T10:07:25Z</time></trkpt><trkpt lat="44.11684447854289" lon="10.296009029841283"><ele>577.0</ele><time>2026-04-24T10:07:26Z</time></trkpt><trkpt lat="44.116914369607805" lon="10.2961351809887"><ele>577.0</ele><time>2026-04-24T10:07:27Z</time></trkpt><trkpt lat="44.116967697328086" lon="10.296272423298833"><ele>577.0</ele><time>2026-04-24T10:07:28Z</time></trkpt><trkpt lat="44.117038755515026" lon="10.29638997335764"><ele>577.0</ele><time>2026-04-24T10:07:29Z</time></trkpt><trkpt lat="44.117097080312526" lon="10.296507792820288"><ele>577.0</ele><time>2026-04-24T10:07:30Z</time></trkpt><trkpt lat="44.11717532029483" lon="10.296602893811237"><ele>577.0</ele><time>2026-04-24T10:07:31Z</time></trkpt><trkpt lat="44.11727040536519" lon="10.296661228239564"><ele>581.2</ele><time>2026-04-24T10:07:32Z</time></trkpt><trkpt lat="44.11736044451358" lon="10.296738791981591"><ele>585.4000000000001</ele><time>2026-04-24T10:07:33Z</time></trkpt><trkpt lat="44.11744216627098" lon="10.29679135473556"><ele>589.5999999999999</ele><time>2026-04-24T10:07:34Z</time></trkpt><trkpt lat="44.11747672306191" lon="10.296909274613975"><ele>593.8</ele><time>2026-04-24T10:07:35Z</time></trkpt><trkpt lat="44.117481575670446" lon="10.297040167972876"><ele>598.0</ele><time>2026-04-24T10:07:36Z</time></trkpt><trkpt lat="44.117473042073904" lon="10.297185917163599"><ele>592.25</ele><time>2026-04-24T10:07:37Z</time></trkpt><trkpt lat="44.117471552011274" lon="10.297342053917445"><ele>586.5</ele><time>2026-04-24T10:07:38Z</time></trkpt><trkpt lat="44.11749300451887" lon="10.297480694760646"><ele>580.75</ele><time>2026-04-24T10:07:39Z</time></trkpt><trkpt lat="44.11753233733984" lon="10.29762831340946"><ele>575.0</ele><time>2026-04-24T10:07:40Z</time></trkpt><trkpt lat="44.11760686708796" lon="10.29778645883969"><ele>575.0</ele><time>2026-04-24T10:07:41Z</time></trkpt><trkpt lat="44.11767827488305" lon="10.297964416259823"><ele>575.0</ele><time>2026-04-24T10:07:42Z</time></trkpt><trkpt lat="44.1177253313947" lon="10.298154189364618"><ele>575.0</ele><time>2026-04-24T10:07:43Z</time></trkpt><trkpt lat="44.11776729633111" lon="10.298309492154678"><ele>575.0</ele><time>2026-04-24T10:07:44Z</time></trkpt><trkpt lat="44.11781911278986" lon="10.298445759905194"><ele>571.6</ele><time>2026-04-24T10:07:45Z</time></trkpt><trkpt lat="44.11785560984592" lon="10.29857912231075"><ele>568.2</ele><time>2026-04-24T10:07:46Z</time></trkpt><trkpt lat="44.117911194761064" lon="10.298687564542389"><ele>564.8</ele><time>2026-04-24T10:07:47Z</time></trkpt><trkpt lat="44.11799092629459" lon="10.29876295433668"><ele>561.4</ele><time>2026-04-24T10:07:48Z</time></trkpt><trkpt lat="44.118100496984354" lon="10.298817131143585"><ele>558.0</ele><time>2026-04-24T10:07:49Z</time></trkpt><trkpt lat="44.11823516311372" lon="10.298866207450219"><ele>562.25</ele><time>2026-04-24T10:07:50Z</time></trkpt><trkpt lat="44.11836885806369" lon="10.298928230441485"><ele>566.5</ele><time>2026-04-24T10:07:51Z</time></trkpt><trkpt lat="44.11847625061171" lon="10.298996827228526"><ele>570.75</ele><time>2026-04-24T10:07:52Z</time></trkpt><trkpt lat="44.11855268701032" lon="10.299111385949718"><ele>575.0</ele><time>2026-04-24T10:07:53Z</time></trkpt><trkpt lat="44.118633912535145" lon="10.299243311482332"><ele>575.0</ele><time>2026-04-24T10:07:54Z</time></trkpt><trkpt lat="44.11872785606996" lon="10.299387215266634"><ele>575.0</ele><time>2026-04-24T10:07:55Z</time></trkpt><trkpt lat="44.118838571656994" lon="10.299496483516608"><ele>575.0</ele><time>2026-04-24T10:07:56Z</time></trkpt><trkpt lat="44.11892247951742" lon="10.299633673534808"><ele>575.0</ele><time>2026-04-24T10:07:57Z</time></trkpt><trkpt lat="44.11900888683822" lon="10.299764319321527"><ele>577.25</ele><time>2026-04-24T10:07:58Z</time></trkpt><trkpt lat="44.11906837144657" lon="10.299921714871868"><ele>579.5</ele><time>2026-04-24T10:07:59Z</time></trkpt><trkpt lat="44.11912543889024" lon="10.300084638507828"><ele>581.75</ele><time>2026-04-24T10:08:00Z</time></trkpt><trkpt lat="44.11917754054899" lon="10.300227930930433"><ele>584.0</ele><time>2026-04-24T10:08:01Z</time></trkpt><trkpt lat="44.11924098150469" lon="10.300344085905234"><ele>584.0</ele><time>2026-04-24T10:08:02Z</time></trkpt><trkpt lat="44.119296811641945" lon="10.300449033304801"><ele>584.0</ele><time>2026-04-24T10:08:03Z</time></trkpt><trkpt lat="44.119382322852395" lon="10.300518788260629"><ele>584.0</ele><time>2026-04-24T10:08:04Z</time></trkpt><trkpt lat="44.11950102933875" lon="10.300540480672481"><ele>584.0</ele><time>2026-04-24T10:08:05Z</time></trkpt><trkpt lat="44.11963116451234" lon="10.300592641693463"><ele>584.0</ele><time>2026-04-24T10:08:06Z</time></trkpt><trkpt lat="44.119749502811054" lon="10.30065054985048"><ele>585.75</ele><time>2026-04-24T10:08:07Z</time></trkpt><trkpt lat="44.119852545339846" lon="10.300730864849237"><ele>587.5</ele><time>2026-04-24T10:08:08Z</time></trkpt><trkpt lat="44.11994215116211" lon="10.300838062452616"><ele>589.25</ele><time>2026-04-24T10:08:09Z</time></trkpt><trkpt lat="44.12002855763169" lon="10.30097544346623"><ele>591.0</ele><time>2026-04-24T10:08:10Z</time></trkpt><trkpt lat="44.12009832274988" lon="10.301117553520246"><ele>591.0</ele><time>2026-04-24T10:08:11Z</time></trkpt><trkpt lat="44.1201486535672" lon="10.301249103371315"><ele>591.0</ele><time>2026-04-24T10:08:12Z</time></trkpt><trkpt lat="44.120196488377466" lon="10.301377802462286"><ele>591.0</ele><time>2026-04-24T10:08:13Z</time></trkpt><trkpt lat="44.12023768690635" lon="10.301488460464494"><ele>591.0</ele><time>2026-04-24T10:08:14Z</time></trkpt><trkpt lat="44.12030481853022" lon="10.30157389161145"><ele>591.0</ele><time>2026-04-24T10:08:15Z</time></trkpt><trkpt lat="44.120379746966535" lon="10.30164858838148"><ele>588.0</ele><time>2026-04-24T10:08:16Z</time></trkpt><trkpt lat="44.120482483579025" lon="10.301689120811723"><ele>585.0</ele><time>2026-04-24T10:08:17Z</time></trkpt><trkpt lat="44.120601893850264" lon="10.301697247049498"><ele>582.0</ele><time>2026-04-24T10:08:18Z</time></trkpt><trkpt lat="44.12073697912641" lon="10.301684162864145"><ele>579.0</ele><time>2026-04-24T10:08:19Z</time></trkpt><trkpt lat="44.12088324572464" lon="10.301677084407533"><ele>579.0</ele><time>2026-04-24T10:08:20Z</time></trkpt><trkpt lat="44.12103173711895" lon="10.301715823990214"><ele>579.0</ele><time>2026-04-24T10:08:21Z</time></trkpt><trkpt lat="44.12115114910155" lon="10.301754621475348"><ele>579.0</ele><time>2026-04-24T10:08:22Z</time></trkpt><trkpt lat="44.121274465877406" lon="10.301767329804225"><ele>579.0</ele><time>2026-04-24T10:08:23Z</time></trkpt><trkpt lat="44.121394902568376" lon="10.301768103362123"><ele>579.0</ele><time>2026-04-24T10:08:24Z</time></trkpt><trkpt lat="44.12151593782002" lon="10.301728473552389"><ele>579.0</ele><time>2026-04-24T10:08:25Z</time></trkpt><trkpt lat="44.12163924729293" lon="10.30176101823312"><ele>579.0</ele><time>2026-04-24T10:08:26Z</time></trkpt><trkpt lat="44.12177740803529" lon="10.301820315668007"><ele>579.0</ele><time>2026-04-24T10:08:27Z</time></trkpt><trkpt lat="44.12188644410353" lon="10.301890282265129"><ele>582.0</ele><time>2026-04-24T10:08:28Z</time></trkpt><trkpt lat="44.121993679811276" lon="10.301951699179792"><ele>585.0</ele><time>2026-04-24T10:08:29Z</time></trkpt><trkpt lat="44.12209224109409" lon="10.30202856700237"><ele>588.0</ele><time>2026-04-24T10:08:30Z</time></trkpt><trkpt lat="44.12219249115556" lon="10.302095285220322"><ele>591.0</ele><time>2026-04-24T10:08:31Z</time></trkpt><trkpt lat="44.12231522847346" lon="10.30209302121348"><ele>593.75</ele><time>2026-04-24T10:08:32Z</time></trkpt><trkpt lat="44.12244770280888" lon="10.302079640454735"><ele>596.5</ele><time>2026-04-24T10:08:33Z</time></trkpt><trkpt lat="44.122594511199644" lon="10.30207873723893"><ele>599.25</ele><time>2026-04-24T10:08:34Z</time></trkpt><trkpt lat="44.12274305403621" lon="10.302072816800278"><ele>602.0</ele><time>2026-04-24T10:08:35Z</time></trkpt><trkpt lat="44.122877574368616" lon="10.30207627116669"><ele>602.0</ele><time>2026-04-24T10:08:36Z</time></trkpt><trkpt lat="44.123002860472845" lon="10.302069182994556"><ele>602.0</ele><time>2026-04-24T10:08:37Z</time></trkpt><trkpt lat="44.12313163574907" lon="10.302106524257747"><ele>602.0</ele><time>2026-04-24T10:08:38Z</time></trkpt><trkpt lat="44.12325187485365" lon="10.302143087935505"><ele>602.0</ele><time>2026-04-24T10:08:39Z</time></trkpt><trkpt lat="44.12336672339392" lon="10.30215807711758"><ele>603.2</ele><time>2026-04-24T10:08:40Z</time></trkpt><trkpt lat="44.12346917283222" lon="10.302191769421745"><ele>604.4000000000001</ele><time>2026-04-24T10:08:41Z</time></trkpt><trkpt lat="44.12357553244167" lon="10.30218264637951"><ele>605.5999999999999</ele><time>2026-04-24T10:08:42Z</time></trkpt><trkpt lat="44.123678680278765" lon="10.302132091269748"><ele>606.8</ele><time>2026-04-24T10:08:43Z</time></trkpt><trkpt lat="44.12376489805013" lon="10.302048731154205"><ele>608.0</ele><time>2026-04-24T10:08:44Z</time></trkpt><trkpt lat="44.12384132307043" lon="10.301949331728842"><ele>608.0</ele><time>2026-04-24T10:08:45Z</time></trkpt><trkpt lat="44.12390122196508" lon="10.301852777895943"><ele>608.0</ele><time>2026-04-24T10:08:46Z</time></trkpt><trkpt lat="44.123984781522246" lon="10.301786864248783"><ele>608.0</ele><time>2026-04-24T10:08:47Z</time></trkpt><trkpt lat="44.1240938620797" lon="10.301798198971404"><ele>608.0</ele><time>2026-04-24T10:08:48Z</time></trkpt><trkpt lat="44.12417935191477" lon="10.301876780071192"><ele>608.0</ele><time>2026-04-24T10:08:49Z</time></trkpt><trkpt lat="44.12427616895702" lon="10.301942574037088"><ele>605.8</ele><time>2026-04-24T10:08:50Z</time></trkpt><trkpt lat="44.12438413900729" lon="10.301967467269689"><ele>603.5999999999999</ele><time>2026-04-24T10:08:51Z</time></trkpt><trkpt lat="44.1244869215675" lon="10.301960590795973"><ele>601.4000000000001</ele><time>2026-04-24T10:08:52Z</time></trkpt><trkpt lat="44.12457861740899" lon="10.301965145791344"><ele>599.2</ele><time>2026-04-24T10:08:53Z</time></trkpt><trkpt lat="44.12465920841484" lon="10.301942649635796"><ele>597.0</ele><time>2026-04-24T10:08:54Z</time></trkpt><trkpt lat="44.124729534882796" lon="10.301869863172112"><ele>597.0</ele><time>2026-04-24T10:08:55Z</time></trkpt><trkpt lat="44.12475857286231" lon="10.301729920118214"><ele>597.0</ele><time>2026-04-24T10:08:56Z</time></trkpt><trkpt lat="44.12481340043862" lon="10.301575118595986"><ele>597.0</ele><time>2026-04-24T10:08:57Z</time></trkpt><trkpt lat="44.124879622469834" lon="10.301413678150647"><ele>597.0</ele><time>2026-04-24T10:08:58Z</time></trkpt><trkpt lat="44.12495166345168" lon="10.301245649457009"><ele>597.75</ele><time>2026-04-24T10:08:59Z</time></trkpt><trkpt lat="44.12500065987119" lon="10.301099785757366"><ele>598.5</ele><time>2026-04-24T10:09:00Z</time></trkpt><trkpt lat="44.12503497854183" lon="10.300921673117351"><ele>599.25</ele><time>2026-04-24T10:09:01Z</time></trkpt><trkpt lat="44.12506143434574" lon="10.300742609023787"><ele>600.0</ele><time>2026-04-24T10:09:02Z</time></trkpt><trkpt lat="44.12508074883793" lon="10.300573638192578"><ele>604.1666666666666</ele><time>2026-04-24T10:09:03Z</time></trkpt><trkpt lat="44.12510965076762" lon="10.300417710186336"><ele>608.3333333333334</ele><time>2026-04-24T10:09:04Z</time></trkpt><trkpt lat="44.125146415360994" lon="10.300280135042007"><ele>612.5</ele><time>2026-04-24T10:09:05Z</time></trkpt><trkpt lat="44.12519150600888" lon="10.300187291924724"><ele>616.6666666666667</ele><time>2026-04-24T10:09:06Z</time></trkpt><trkpt lat="44.125215449465" lon="10.300100489937071"><ele>620.8333333333334</ele><time>2026-04-24T10:09:07Z</time></trkpt><trkpt lat="44.125283354070056" lon="10.300085870001968"><ele>625.0</ele><time>2026-04-24T10:09:08Z</time></trkpt><trkpt lat="44.1253488884739" lon="10.300091991240933"><ele>625.0</ele><time>2026-04-24T10:09:09Z</time></trkpt><trkpt lat="44.12541640302892" lon="10.300128054442865"><ele>625.0</ele><time>2026-04-24T10:09:10Z</time></trkpt><trkpt lat="44.12548784319769" lon="10.300178439885833"><ele>625.0</ele><time>2026-04-24T10:09:11Z</time></trkpt><trkpt lat="44.125576248800556" lon="10.300232889871067"><ele>625.0</ele><time>2026-04-24T10:09:12Z</time></trkpt><trkpt lat="44.125609021601775" lon="10.300353164863177"><ele>625.0</ele><time>2026-04-24T10:09:13Z</time></trkpt><trkpt lat="44.12561587942732" lon="10.300481373759538"><ele>625.0</ele><time>2026-04-24T10:09:14Z</time></trkpt><trkpt lat="44.125630269978984" lon="10.300631667201216"><ele>620.25</ele><time>2026-04-24T10:09:15Z</time></trkpt><trkpt lat="44.125669943632666" lon="10.300800658605544"><ele>615.5</ele><time>2026-04-24T10:09:16Z</time></trkpt><trkpt lat="44.125692261693665" lon="10.300998873725161"><ele>610.75</ele><time>2026-04-24T10:09:17Z</time></trkpt><trkpt lat="44.12573456781013" lon="10.301179463530534"><ele>606.0</ele><time>2026-04-24T10:09:18Z</time></trkpt><trkpt lat="44.12577473479477" lon="10.301352838987144"><ele>601.25</ele><time>2026-04-24T10:09:19Z</time></trkpt><trkpt lat="44.12583636658388" lon="10.301516587127544"><ele>596.5</ele><time>2026-04-24T10:09:20Z</time></trkpt><trkpt lat="44.125873512554364" lon="10.301697767899135"><ele>591.75</ele><time>2026-04-24T10:09:21Z</time></trkpt><trkpt lat="44.125910488535396" lon="10.301888136852863"><ele>587.0</ele><time>2026-04-24T10:09:22Z</time></trkpt><trkpt lat="44.1259397014125" lon="10.30207125756331"><ele>587.0</ele><time>2026-04-24T10:09:23Z</time></trkpt><trkpt lat="44.125950713966446" lon="10.302240794746627"><ele>587.0</ele><time>2026-04-24T10:09:24Z</time></trkpt><trkpt lat="44.12595872326744" lon="10.302399488579205"><ele>587.0</ele><time>2026-04-24T10:09:25Z</time></trkpt><trkpt lat="44.12597036645736" lon="10.302550932978551"><ele>587.0</ele><time>2026-04-24T10:09:26Z</time></trkpt><trkpt lat="44.125979150342516" lon="10.302691519158692"><ele>587.0</ele><time>2026-04-24T10:09:27Z</time></trkpt><trkpt lat="44.126006057339936" lon="10.302802079107108"><ele>583.8000000000001</ele><time>2026-04-24T10:09:28Z</time></trkpt><trkpt lat="44.12606367427201" lon="10.302886234703664"><ele>580.6</ele><time>2026-04-24T10:09:29Z</time></trkpt><trkpt lat="44.12615342417782" lon="10.30291728966695"><ele>577.4000000000001</ele><time>2026-04-24T10:09:30Z</time></trkpt><trkpt lat="44.1262527763092" lon="10.302906614494756"><ele>574.2</ele><time>2026-04-24T10:09:31Z</time></trkpt><trkpt lat="44.12635161011967" lon="10.3028515463902"><ele>571.0</ele><time>2026-04-24T10:09:32Z</time></trkpt><trkpt lat="44.12643662208432" lon="10.30281593516674"><ele>571.0</ele><time>2026-04-24T10:09:33Z</time></trkpt><trkpt lat="44.126525884515424" lon="10.30282986971057"><ele>571.0</ele><time>2026-04-24T10:09:34Z</time></trkpt><trkpt lat="44.12660683694367" lon="10.30291035034379"><ele>571.0</ele><time>2026-04-24T10:09:35Z</time></trkpt><trkpt lat="44.126660794509796" lon="10.303032006533819"><ele>571.0</ele><time>2026-04-24T10:09:36Z</time></trkpt><trkpt lat="44.12664023889311" lon="10.303192309115285"><ele>571.0</ele><time>2026-04-24T10:09:37Z</time></trkpt><trkpt lat="44.12660588833894" lon="10.303345957706561"><ele>572.0</ele><time>2026-04-24T10:09:38Z</time></trkpt><trkpt lat="44.12657561005912" lon="10.303528248108671"><ele>573.0</ele><time>2026-04-24T10:09:39Z</time></trkpt><trkpt lat="44.12657583838292" lon="10.303710029453947"><ele>574.0</ele><time>2026-04-24T10:09:40Z</time></trkpt><trkpt lat="44.12657095027453" lon="10.30385849621809"><ele>575.0</ele><time>2026-04-24T10:09:41Z</time></trkpt><trkpt lat="44.12656699711458" lon="10.303988655398415"><ele>575.0</ele><time>2026-04-24T10:09:42Z</time></trkpt><trkpt lat="44.126582030243114" lon="10.30409489744913"><ele>575.0</ele><time>2026-04-24T10:09:43Z</time></trkpt><trkpt lat="44.12661443282709" lon="10.304203964807215"><ele>575.0</ele><time>2026-04-24T10:09:44Z</time></trkpt><trkpt lat="44.12667705804238" lon="10.304314568550536"><ele>575.0</ele><time>2026-04-24T10:09:45Z</time></trkpt><trkpt lat="44.12672716856724" lon="10.304391980865969"><ele>575.0</ele><time>2026-04-24T10:09:46Z</time></trkpt><trkpt lat="44.12678776772992" lon="10.304471645858822"><ele>575.0</ele><time>2026-04-24T10:09:48Z</time></trkpt><trkpt lat="44.1268804763295" lon="10.304605849644156"><ele>575.0</ele><time>2026-04-24T10:09:50Z</time></trkpt><trkpt lat="44.12694393606695" lon="10.30468473552371"><ele>575.0</ele><time>2026-04-24T10:09:51Z</time></trkpt><trkpt lat="44.127001122182165" lon="10.30475118275787"><ele>575.0</ele><time>2026-04-24T10:09:52Z</time></trkpt><trkpt lat="44.12705645288706" lon="10.304799657332907"><ele>575.0</ele><time>2026-04-24T10:09:53Z</time></trkpt><trkpt lat="44.1271261934078" lon="10.304814558926648"><ele>575.0</ele><time>2026-04-24T10:09:54Z</time></trkpt><trkpt lat="44.12719724457773" lon="10.30480637178374"><ele>575.0</ele><time>2026-04-24T10:09:55Z</time></trkpt><trkpt lat="44.12727917213363" lon="10.304756255122836"><ele>575.0</ele><time>2026-04-24T10:09:56Z</time></trkpt><trkpt lat="44.12736627785721" lon="10.30467320045929"><ele>575.0</ele><time>2026-04-24T10:09:57Z</time></trkpt><trkpt lat="44.127459115061235" lon="10.304585335773758"><ele>575.0</ele><time>2026-04-24T10:09:58Z</time></trkpt><trkpt lat="44.127544387978304" lon="10.30451951952877"><ele>575.0</ele><time>2026-04-24T10:09:59Z</time></trkpt><trkpt lat="44.12763161000124" lon="10.304462514995809"><ele>575.0</ele><time>2026-04-24T10:10:00Z</time></trkpt><trkpt lat="44.12772784367803" lon="10.304441136156061"><ele>583.25</ele><time>2026-04-24T10:10:01Z</time></trkpt><trkpt lat="44.12784372172361" lon="10.304454308027076"><ele>591.5</ele><time>2026-04-24T10:10:02Z</time></trkpt><trkpt lat="44.127968207341304" lon="10.304505343201006"><ele>599.75</ele><time>2026-04-24T10:10:03Z</time></trkpt><trkpt lat="44.128077783291985" lon="10.30458755083546"><ele>608.0</ele><time>2026-04-24T10:10:04Z</time></trkpt><trkpt lat="44.12818314560587" lon="10.304601249327293"><ele>609.1999999999999</ele><time>2026-04-24T10:10:05Z</time></trkpt><trkpt lat="44.12826796463935" lon="10.304613047959899"><ele>610.4</ele><time>2026-04-24T10:10:06Z</time></trkpt><trkpt lat="44.128375565383905" lon="10.304615736352682"><ele>611.5999999999999</ele><time>2026-04-24T10:10:07Z</time></trkpt><trkpt lat="44.128481309483455" lon="10.304589129466011"><ele>612.8</ele><time>2026-04-24T10:10:08Z</time></trkpt><trkpt lat="44.128570716021244" lon="10.304564918221587"><ele>614.0</ele><time>2026-04-24T10:10:09Z</time></trkpt><trkpt lat="44.1286502212483" lon="10.30455199794806"><ele>614.0</ele><time>2026-04-24T10:10:10Z</time></trkpt><trkpt lat="44.128738111079244" lon="10.304574288916111"><ele>614.0</ele><time>2026-04-24T10:10:11Z</time></trkpt><trkpt lat="44.12884164260744" lon="10.304621866080181"><ele>614.0</ele><time>2026-04-24T10:10:12Z</time></trkpt><trkpt lat="44.12892819702388" lon="10.304639872346524"><ele>614.0</ele><time>2026-04-24T10:10:13Z</time></trkpt><trkpt lat="44.12900988788118" lon="10.304588494538029"><ele>614.0</ele><time>2026-04-24T10:10:14Z</time></trkpt><trkpt lat="44.129096494956705" lon="10.30459606423611"><ele>616.4</ele><time>2026-04-24T10:10:15Z</time></trkpt><trkpt lat="44.12918533231658" lon="10.304615622539224"><ele>618.8</ele><time>2026-04-24T10:10:16Z</time></trkpt><trkpt lat="44.1292490479275" lon="10.304716011837058"><ele>621.2</ele><time>2026-04-24T10:10:17Z</time></trkpt><trkpt lat="44.129297482948225" lon="10.304796738036343"><ele>623.6</ele><time>2026-04-24T10:10:18Z</time></trkpt><trkpt lat="44.12935446930693" lon="10.304891182488525"><ele>626.0</ele><time>2026-04-24T10:12:59Z</time></trkpt><trkpt lat="44.12940397023295" lon="10.30503671478943"><ele>615.0</ele><time>2026-04-24T10:13:01Z</time></trkpt><trkpt lat="44.12940235397947" lon="10.305127158033955"><ele>604.0</ele><time>2026-04-24T10:13:02Z</time></trkpt><trkpt lat="44.129392359505694" lon="10.305219093939781"><ele>593.0</ele><time>2026-04-24T10:13:03Z</time></trkpt><trkpt lat="44.129401051448625" lon="10.305308756849197"><ele>582.0</ele><time>2026-04-24T10:13:04Z</time></trkpt><trkpt lat="44.12943766288696" lon="10.305557488164396"><ele>571.0</ele><time>2026-04-24T10:13:06Z</time></trkpt><trkpt lat="44.129501064375326" lon="10.305654565303723"><ele>571.3333333333334</ele><time>2026-04-24T10:13:07Z</time></trkpt><trkpt lat="44.129558454549034" lon="10.305755030376169"><ele>571.6666666666667</ele><time>2026-04-24T10:13:08Z</time></trkpt><trkpt lat="44.12962494396208" lon="10.305818127261071"><ele>572.0</ele><time>2026-04-24T10:13:09Z</time></trkpt><trkpt lat="44.12970614904205" lon="10.305882410467003"><ele>572.3333333333334</ele><time>2026-04-24T10:13:10Z</time></trkpt><trkpt lat="44.12977487758695" lon="10.305854955417603"><ele>572.6666666666666</ele><time>2026-04-24T10:13:11Z</time></trkpt><trkpt lat="44.12984775388312" lon="10.305867996102538"><ele>573.0</ele><time>2026-04-24T10:13:12Z</time></trkpt><trkpt lat="44.129918668291374" lon="10.305892637969633"><ele>573.0</ele><time>2026-04-24T10:13:13Z</time></trkpt><trkpt lat="44.12999492009292" lon="10.305930783700802"><ele>573.0</ele><time>2026-04-24T10:13:14Z</time></trkpt><trkpt lat="44.13008130304729" lon="10.305973539635515"><ele>573.0</ele><time>2026-04-24T10:13:15Z</time></trkpt><trkpt lat="44.13015098389361" lon="10.306091065086656"><ele>573.0</ele><time>2026-04-24T10:13:16Z</time></trkpt><trkpt lat="44.130239425339916" lon="10.306163341217287"><ele>573.0</ele><time>2026-04-24T10:13:17Z</time></trkpt><trkpt lat="44.130282365768586" lon="10.306259210593925"><ele>573.0</ele><time>2026-04-24T10:13:18Z</time></trkpt><trkpt lat="44.13030029400962" lon="10.306370939926213"><ele>573.0</ele><time>2026-04-24T10:13:19Z</time></trkpt><trkpt lat="44.13030079148387" lon="10.306476935885202"><ele>573.0</ele><time>2026-04-24T10:13:20Z</time></trkpt><trkpt lat="44.1302734398709" lon="10.306574184808285"><ele>573.0</ele><time>2026-04-24T10:13:21Z</time></trkpt><trkpt lat="44.13027556081549" lon="10.306665400951703"><ele>573.0</ele><time>2026-04-24T10:13:22Z</time></trkpt><trkpt lat="44.130297286547886" lon="10.306844783518777"><ele>573.0</ele><time>2026-04-24T10:13:24Z</time></trkpt><trkpt lat="44.130350700530016" lon="10.306928278993308"><ele>568.1666666666666</ele><time>2026-04-24T10:13:25Z</time></trkpt><trkpt lat="44.130410344643096" lon="10.306997416803432"><ele>563.3333333333334</ele><time>2026-04-24T10:13:26Z</time></trkpt><trkpt lat="44.13045356018772" lon="10.307071130970971"><ele>558.5</ele><time>2026-04-24T10:13:27Z</time></trkpt><trkpt lat="44.13048272322648" lon="10.307174003695552"><ele>553.6666666666667</ele><time>2026-04-24T10:13:28Z</time></trkpt><trkpt lat="44.13046728695194" lon="10.30728561427255"><ele>548.8333333333334</ele><time>2026-04-24T10:13:29Z</time></trkpt><trkpt lat="44.13045660426369" lon="10.30738762758949"><ele>544.0</ele><time>2026-04-24T10:13:30Z</time></trkpt><trkpt lat="44.13045757685371" lon="10.307494773291152"><ele>546.8333333333334</ele><time>2026-04-24T10:13:31Z</time></trkpt><trkpt lat="44.13048180006194" lon="10.307605685037519"><ele>549.6666666666667</ele><time>2026-04-24T10:13:32Z</time></trkpt><trkpt lat="44.13053701698591" lon="10.307685032655789"><ele>552.5</ele><time>2026-04-24T10:13:33Z</time></trkpt><trkpt lat="44.13059120268018" lon="10.3077602353074"><ele>555.3333333333334</ele><time>2026-04-24T10:13:34Z</time></trkpt><trkpt lat="44.130664524016034" lon="10.307805725478099"><ele>558.1666666666666</ele><time>2026-04-24T10:13:35Z</time></trkpt><trkpt lat="44.13075001564352" lon="10.307816292519787"><ele>561.0</ele><time>2026-04-24T10:13:36Z</time></trkpt><trkpt lat="44.130845538574825" lon="10.307795655299023"><ele>561.0</ele><time>2026-04-24T10:13:37Z</time></trkpt><trkpt lat="44.130950410075585" lon="10.307739763017562"><ele>561.0</ele><time>2026-04-24T10:13:38Z</time></trkpt><trkpt lat="44.131055114693396" lon="10.30767043958211"><ele>561.0</ele><time>2026-04-24T10:13:39Z</time></trkpt><trkpt lat="44.13115176880305" lon="10.307605644776972"><ele>561.0</ele><time>2026-04-24T10:13:40Z</time></trkpt><trkpt lat="44.1312530425063" lon="10.307546129614021"><ele>561.0</ele><time>2026-04-24T10:13:41Z</time></trkpt><trkpt lat="44.13135236206757" lon="10.307467550969614"><ele>561.0</ele><time>2026-04-24T10:13:42Z</time></trkpt><trkpt lat="44.1314536935108" lon="10.30737087823378"><ele>561.0</ele><time>2026-04-24T10:13:43Z</time></trkpt><trkpt lat="44.13154003363575" lon="10.307266173842853"><ele>561.0</ele><time>2026-04-24T10:13:44Z</time></trkpt><trkpt lat="44.13163053648664" lon="10.307162270793958"><ele>561.0</ele><time>2026-04-24T10:13:45Z</time></trkpt><trkpt lat="44.13173070304754" lon="10.307059285457653"><ele>568.25</ele><time>2026-04-24T10:13:46Z</time></trkpt><trkpt lat="44.131841018387895" lon="10.306975972590267"><ele>575.5</ele><time>2026-04-24T10:13:47Z</time></trkpt><trkpt lat="44.13197148504713" lon="10.306916070577389"><ele>582.75</ele><time>2026-04-24T10:13:48Z</time></trkpt><trkpt lat="44.132092625109564" lon="10.306851467577768"><ele>590.0</ele><time>2026-04-24T10:13:49Z</time></trkpt><trkpt lat="44.13220681783011" lon="10.30678902384331"><ele>590.0</ele><time>2026-04-24T10:13:50Z</time></trkpt><trkpt lat="44.13232209968269" lon="10.306725613373784"><ele>590.0</ele><time>2026-04-24T10:13:51Z</time></trkpt><trkpt lat="44.13242468222971" lon="10.306651733703942"><ele>590.0</ele><time>2026-04-24T10:13:52Z</time></trkpt><trkpt lat="44.132517564714576" lon="10.306585477371595"><ele>590.0</ele><time>2026-04-24T10:13:53Z</time></trkpt><trkpt lat="44.13259673510103" lon="10.306508116378462"><ele>590.0</ele><time>2026-04-24T10:13:54Z</time></trkpt><trkpt lat="44.1326681629197" lon="10.306401950394607"><ele>589.75</ele><time>2026-04-24T10:13:55Z</time></trkpt><trkpt lat="44.13271967868167" lon="10.306264371850919"><ele>589.5</ele><time>2026-04-24T10:13:56Z</time></trkpt><trkpt lat="44.132747953059024" lon="10.306099771171514"><ele>589.25</ele><time>2026-04-24T10:13:57Z</time></trkpt><trkpt lat="44.132764356197995" lon="10.305918165074067"><ele>589.0</ele><time>2026-04-24T10:13:58Z</time></trkpt><trkpt lat="44.13276546057522" lon="10.305748646264265"><ele>589.0</ele><time>2026-04-24T10:13:59Z</time></trkpt><trkpt lat="44.132750052983475" lon="10.305589304335966"><ele>589.0</ele><time>2026-04-24T10:14:00Z</time></trkpt><trkpt lat="44.13277865256397" lon="10.305469432874565"><ele>589.0</ele><time>2026-04-24T10:14:02Z</time></trkpt><trkpt lat="44.13282593768397" lon="10.305362052660126"><ele>589.0</ele><time>2026-04-24T10:14:03Z</time></trkpt><trkpt lat="44.1328923424493" lon="10.305262800237236"><ele>589.0</ele><time>2026-04-24T10:14:04Z</time></trkpt><trkpt lat="44.13296197273286" lon="10.305190785488524"><ele>586.0</ele><time>2026-04-24T10:14:05Z</time></trkpt><trkpt lat="44.13303316701434" lon="10.305139276598464"><ele>583.0</ele><time>2026-04-24T10:14:06Z</time></trkpt><trkpt lat="44.13310581496272" lon="10.30510391578433"><ele>580.0</ele><time>2026-04-24T10:14:07Z</time></trkpt><trkpt lat="44.13317203754439" lon="10.305114507638212"><ele>577.0</ele><time>2026-04-24T10:14:08Z</time></trkpt><trkpt lat="44.13319730753721" lon="10.305215345238828"><ele>574.0</ele><time>2026-04-24T10:14:09Z</time></trkpt><trkpt lat="44.13323993434257" lon="10.305291291340838"><ele>571.0</ele><time>2026-04-24T10:14:10Z</time></trkpt><trkpt lat="44.133271971980754" lon="10.305395846633498"><ele>571.0</ele><time>2026-04-24T10:14:11Z</time></trkpt><trkpt lat="44.13326634379656" lon="10.305509670021815"><ele>571.0</ele><time>2026-04-24T10:14:12Z</time></trkpt><trkpt lat="44.133211403979196" lon="10.305595020047871"><ele>571.0</ele><time>2026-04-24T10:14:13Z</time></trkpt><trkpt lat="44.13318738638202" lon="10.305731404893121"><ele>571.0</ele><time>2026-04-24T10:14:14Z</time></trkpt><trkpt lat="44.133182938590586" lon="10.305884829851063"><ele>571.0</ele><time>2026-04-24T10:14:15Z</time></trkpt><trkpt lat="44.133209449912485" lon="10.306043117425162"><ele>568.6</ele><time>2026-04-24T10:14:16Z</time></trkpt><trkpt lat="44.13324344993261" lon="10.306192962541072"><ele>566.2</ele><time>2026-04-24T10:14:17Z</time></trkpt><trkpt lat="44.13329665524767" lon="10.306328970951814"><ele>563.8</ele><time>2026-04-24T10:14:18Z</time></trkpt><trkpt lat="44.13333795469075" lon="10.306456063496332"><ele>561.4</ele><time>2026-04-24T10:14:19Z</time></trkpt><trkpt lat="44.13338648683143" lon="10.306575065184902"><ele>559.0</ele><time>2026-04-24T10:14:20Z</time></trkpt><trkpt lat="44.13339395100097" lon="10.306699582168653"><ele>557.2</ele><time>2026-04-24T10:14:21Z</time></trkpt><trkpt lat="44.133393515254646" lon="10.306819160634394"><ele>555.4</ele><time>2026-04-24T10:14:22Z</time></trkpt><trkpt lat="44.1333641085887" lon="10.306947247613827"><ele>553.6</ele><time>2026-04-24T10:14:23Z</time></trkpt><trkpt lat="44.133308911157684" lon="10.307084600237634"><ele>551.8</ele><time>2026-04-24T10:14:24Z</time></trkpt><trkpt lat="44.133234574386805" lon="10.307210944838134"><ele>550.0</ele><time>2026-04-24T10:14:25Z</time></trkpt><trkpt lat="44.13313975178704" lon="10.307335568013325"><ele>545.0</ele><time>2026-04-24T10:14:26Z</time></trkpt><trkpt lat="44.13303235846592" lon="10.307466209636045"><ele>540.0</ele><time>2026-04-24T10:14:27Z</time></trkpt><trkpt lat="44.132915188287605" lon="10.30760925726402"><ele>535.0</ele><time>2026-04-24T10:14:28Z</time></trkpt><trkpt lat="44.13280445451163" lon="10.307746885502935"><ele>530.0</ele><time>2026-04-24T10:14:29Z</time></trkpt><trkpt lat="44.13270670594181" lon="10.307903001335431"><ele>530.0</ele><time>2026-04-24T10:14:30Z</time></trkpt><trkpt lat="44.132600971893744" lon="10.308032510694362"><ele>530.0</ele><time>2026-04-24T10:14:31Z</time></trkpt><trkpt lat="44.13247941423952" lon="10.308153765650175"><ele>530.0</ele><time>2026-04-24T10:14:32Z</time></trkpt><trkpt lat="44.13236340473974" lon="10.308284745701256"><ele>530.0</ele><time>2026-04-24T10:14:33Z</time></trkpt><trkpt lat="44.13223806655179" lon="10.308401830430027"><ele>525.75</ele><time>2026-04-24T10:14:34Z</time></trkpt><trkpt lat="44.13213337654784" lon="10.308537811761367"><ele>521.5</ele><time>2026-04-24T10:14:35Z</time></trkpt><trkpt lat="44.13201877454997" lon="10.308650279927829"><ele>517.25</ele><time>2026-04-24T10:14:36Z</time></trkpt><trkpt lat="44.13190306603616" lon="10.308765077095094"><ele>513.0</ele><time>2026-04-24T10:14:37Z</time></trkpt><trkpt lat="44.13179628314316" lon="10.308878600062629"><ele>509.5</ele><time>2026-04-24T10:14:38Z</time></trkpt><trkpt lat="44.13168597262303" lon="10.308969749782614"><ele>506.0</ele><time>2026-04-24T10:14:39Z</time></trkpt><trkpt lat="44.1315790444344" lon="10.309060384458274"><ele>502.5</ele><time>2026-04-24T10:14:40Z</time></trkpt><trkpt lat="44.1314822423876" lon="10.309140905630317"><ele>499.0</ele><time>2026-04-24T10:14:41Z</time></trkpt><trkpt lat="44.13139614032519" lon="10.309215902788953"><ele>499.0</ele><time>2026-04-24T10:14:42Z</time></trkpt><trkpt lat="44.13131939807109" lon="10.309297969875502"><ele>499.0</ele><time>2026-04-24T10:14:43Z</time></trkpt><trkpt lat="44.131251521490505" lon="10.309385506072179"><ele>499.0</ele><time>2026-04-24T10:14:44Z</time></trkpt><trkpt lat="44.13121381342934" lon="10.309484798779156"><ele>499.0</ele><time>2026-04-24T10:14:45Z</time></trkpt><trkpt lat="44.13119045856676" lon="10.309601299072808"><ele>499.0</ele><time>2026-04-24T10:14:46Z</time></trkpt><trkpt lat="44.13119948818571" lon="10.309735235261918"><ele>496.0</ele><time>2026-04-24T10:14:47Z</time></trkpt><trkpt lat="44.131245293609126" lon="10.309870522127959"><ele>493.0</ele><time>2026-04-24T10:14:48Z</time></trkpt><trkpt lat="44.13129102344094" lon="10.310012795094861"><ele>490.0</ele><time>2026-04-24T10:14:49Z</time></trkpt><trkpt lat="44.13133410710728" lon="10.310138987347289"><ele>487.0</ele><time>2026-04-24T10:14:50Z</time></trkpt><trkpt lat="44.131387676672574" lon="10.310250606753755"><ele>484.0</ele><time>2026-04-24T10:14:51Z</time></trkpt><trkpt lat="44.13147311542623" lon="10.310347152713256"><ele>488.5</ele><time>2026-04-24T10:14:52Z</time></trkpt><trkpt lat="44.131579972922474" lon="10.310454670911518"><ele>493.0</ele><time>2026-04-24T10:14:53Z</time></trkpt><trkpt lat="44.1316959292466" lon="10.310577013457513"><ele>497.5</ele><time>2026-04-24T10:14:54Z</time></trkpt><trkpt lat="44.13181338317086" lon="10.31073066214092"><ele>502.0</ele><time>2026-04-24T10:14:55Z</time></trkpt><trkpt lat="44.13192921170253" lon="10.31090808005357"><ele>502.0</ele><time>2026-04-24T10:14:56Z</time></trkpt><trkpt lat="44.13203546166912" lon="10.311077406656377"><ele>502.0</ele><time>2026-04-24T10:14:57Z</time></trkpt><trkpt lat="44.13213628305375" lon="10.311236407488144"><ele>502.0</ele><time>2026-04-24T10:14:58Z</time></trkpt><trkpt lat="44.13223871134216" lon="10.311398467758464"><ele>503.33333333333337</ele><time>2026-04-24T10:14:59Z</time></trkpt><trkpt lat="44.132345476794924" lon="10.31156747263453"><ele>504.66666666666663</ele><time>2026-04-24T10:15:00Z</time></trkpt><trkpt lat="44.13244635222273" lon="10.311724288588758"><ele>506.0</ele><time>2026-04-24T10:15:01Z</time></trkpt><trkpt lat="44.132541991769436" lon="10.311874582147503"><ele>506.0</ele><time>2026-04-24T10:15:02Z</time></trkpt><trkpt lat="44.13262479374259" lon="10.312007546856488"><ele>506.0</ele><time>2026-04-24T10:15:03Z</time></trkpt><trkpt lat="44.132698582948784" lon="10.312129228805391"><ele>506.0</ele><time>2026-04-24T10:15:04Z</time></trkpt><trkpt lat="44.13276166223711" lon="10.312233249249605"><ele>506.0</ele><time>2026-04-24T10:15:05Z</time></trkpt><trkpt lat="44.13280823892156" lon="10.31233543786184"><ele>506.0</ele><time>2026-04-24T10:15:06Z</time></trkpt><trkpt lat="44.13284441493129" lon="10.312469181694922"><ele>499.0</ele><time>2026-04-24T10:15:07Z</time></trkpt><trkpt lat="44.132855645431874" lon="10.312633444858584"><ele>492.0</ele><time>2026-04-24T10:15:08Z</time></trkpt><trkpt lat="44.132843827736764" lon="10.312827349618907"><ele>485.0</ele><time>2026-04-24T10:15:09Z</time></trkpt><trkpt lat="44.132837320064915" lon="10.313037104013556"><ele>478.0</ele><time>2026-04-24T10:15:10Z</time></trkpt><trkpt lat="44.13283216594537" lon="10.3132314311082"><ele>476.0</ele><time>2026-04-24T10:15:11Z</time></trkpt><trkpt lat="44.13282763497447" lon="10.313411233244912"><ele>473.99999999999994</ele><time>2026-04-24T10:15:12Z</time></trkpt><trkpt lat="44.13282397602182" lon="10.313579608067721"><ele>471.99999999999994</ele><time>2026-04-24T10:15:13Z</time></trkpt><trkpt lat="44.13283682525477" lon="10.313713140186925"><ele>470.0</ele><time>2026-04-24T10:15:14Z</time></trkpt><trkpt lat="44.132841525175564" lon="10.313840989064845"><ele>468.0</ele><time>2026-04-24T10:15:15Z</time></trkpt><trkpt lat="44.132867610813115" lon="10.313973175381538"><ele>467.0</ele><time>2026-04-24T10:15:16Z</time></trkpt><trkpt lat="44.132921089112756" lon="10.314116936663154"><ele>466.0</ele><time>2026-04-24T10:15:17Z</time></trkpt><trkpt lat="44.133005083517595" lon="10.314263841265827"><ele>465.0</ele><time>2026-04-24T10:15:18Z</time></trkpt><trkpt lat="44.133093041107415" lon="10.314406493854163"><ele>464.0</ele><time>2026-04-24T10:15:19Z</time></trkpt><trkpt lat="44.13315049817183" lon="10.314553441610549"><ele>464.0</ele><time>2026-04-24T10:15:20Z</time></trkpt><trkpt lat="44.133204440199364" lon="10.314677339626797"><ele>464.0</ele><time>2026-04-24T10:15:21Z</time></trkpt><trkpt lat="44.13324357308073" lon="10.314805203745637"><ele>464.0</ele><time>2026-04-24T10:15:22Z</time></trkpt><trkpt lat="44.13325762942086" lon="10.314962224054343"><ele>464.0</ele><time>2026-04-24T10:15:23Z</time></trkpt><trkpt lat="44.13327302114217" lon="10.315139828589418"><ele>464.0</ele><time>2026-04-24T10:15:24Z</time></trkpt><trkpt lat="44.133306271253055" lon="10.315315971334682"><ele>465.0</ele><time>2026-04-24T10:15:25Z</time></trkpt><trkpt lat="44.1333360326951" lon="10.315481863385083"><ele>466.0</ele><time>2026-04-24T10:15:26Z</time></trkpt><trkpt lat="44.13339632873986" lon="10.315646974367965"><ele>467.0</ele><time>2026-04-24T10:15:27Z</time></trkpt><trkpt lat="44.13346856005549" lon="10.315840385593189"><ele>468.0</ele><time>2026-04-24T10:15:28Z</time></trkpt><trkpt lat="44.13355994459299" lon="10.316033718851452"><ele>468.0</ele><time>2026-04-24T10:15:29Z</time></trkpt><trkpt lat="44.133678414758336" lon="10.316215925232186"><ele>468.0</ele><time>2026-04-24T10:15:30Z</time></trkpt><trkpt lat="44.13377140934831" lon="10.316412910082366"><ele>468.0</ele><time>2026-04-24T10:15:31Z</time></trkpt><trkpt lat="44.133860744371056" lon="10.316601963330953"><ele>465.33333333333337</ele><time>2026-04-24T10:15:32Z</time></trkpt><trkpt lat="44.13394863941258" lon="10.316787258112152"><ele>462.6666666666667</ele><time>2026-04-24T10:15:33Z</time></trkpt><trkpt lat="44.134040491486196" lon="10.316961783960217"><ele>460.0</ele><time>2026-04-24T10:15:34Z</time></trkpt><trkpt lat="44.134128673173386" lon="10.317132335016371"><ele>464.0</ele><time>2026-04-24T10:15:35Z</time></trkpt><trkpt lat="44.134194838468666" lon="10.317329119329125"><ele>468.0</ele><time>2026-04-24T10:15:36Z</time></trkpt><trkpt lat="44.13429737973599" lon="10.31750543613335"><ele>472.0</ele><time>2026-04-24T10:15:37Z</time></trkpt><trkpt lat="44.13438532861249" lon="10.317692485117691"><ele>472.0</ele><time>2026-04-24T10:15:38Z</time></trkpt><trkpt lat="44.134469822978645" lon="10.317862265702665"><ele>472.0</ele><time>2026-04-24T10:15:39Z</time></trkpt><trkpt lat="44.13455108187288" lon="10.318029865466702"><ele>472.0</ele><time>2026-04-24T10:15:40Z</time></trkpt><trkpt lat="44.13462341704927" lon="10.318193466939132"><ele>472.0</ele><time>2026-04-24T10:15:41Z</time></trkpt><trkpt lat="44.13468193963791" lon="10.318363135345178"><ele>472.0</ele><time>2026-04-24T10:15:42Z</time></trkpt><trkpt lat="44.134734279231175" lon="10.318538122579413"><ele>472.0</ele><time>2026-04-24T10:15:43Z</time></trkpt><trkpt lat="44.134767959451665" lon="10.318705748123543"><ele>472.0</ele><time>2026-04-24T10:15:44Z</time></trkpt><trkpt lat="44.134794734738826" lon="10.318866598786697"><ele>472.0</ele><time>2026-04-24T10:15:45Z</time></trkpt><trkpt lat="44.1348361387516" lon="10.31902123095208"><ele>472.0</ele><time>2026-04-24T10:15:46Z</time></trkpt><trkpt lat="44.13487280020366" lon="10.319167244607101"><ele>472.0</ele><time>2026-04-24T10:15:47Z</time></trkpt><trkpt lat="44.13493618768874" lon="10.319305329460574"><ele>472.0</ele><time>2026-04-24T10:15:48Z</time></trkpt><trkpt lat="44.1350171501097" lon="10.31942250492745"><ele>472.0</ele><time>2026-04-24T10:15:49Z</time></trkpt><trkpt lat="44.13506881600974" lon="10.319554462035475"><ele>470.25</ele><time>2026-04-24T10:15:50Z</time></trkpt><trkpt lat="44.135114631743484" lon="10.319680482786726"><ele>468.5</ele><time>2026-04-24T10:15:51Z</time></trkpt><trkpt lat="44.13512909938415" lon="10.319814837555338"><ele>466.75</ele><time>2026-04-24T10:15:52Z</time></trkpt><trkpt lat="44.13511348355685" lon="10.319969687744356"><ele>465.0</ele><time>2026-04-24T10:15:53Z</time></trkpt><trkpt lat="44.13509807867595" lon="10.320162429141911"><ele>467.0</ele><time>2026-04-24T10:15:54Z</time></trkpt><trkpt lat="44.135087353347615" lon="10.32037994164216"><ele>469.0</ele><time>2026-04-24T10:15:55Z</time></trkpt><trkpt lat="44.135081984471555" lon="10.32061759483033"><ele>471.0</ele><time>2026-04-24T10:15:56Z</time></trkpt><trkpt lat="44.13508621863899" lon="10.32085083496321"><ele>471.0</ele><time>2026-04-24T10:15:57Z</time></trkpt><trkpt lat="44.13511206425885" lon="10.321069457551227"><ele>471.0</ele><time>2026-04-24T10:15:58Z</time></trkpt><trkpt lat="44.135127406919885" lon="10.321292696953718"><ele>471.0</ele><time>2026-04-24T10:15:59Z</time></trkpt><trkpt lat="44.13514747800304" lon="10.321520976936537"><ele>473.33333333333337</ele><time>2026-04-24T10:16:00Z</time></trkpt><trkpt lat="44.13518077104658" lon="10.321744301346905"><ele>475.6666666666667</ele><time>2026-04-24T10:16:01Z</time></trkpt><trkpt lat="44.13522593806721" lon="10.321941226911559"><ele>478.0</ele><time>2026-04-24T10:16:02Z</time></trkpt><trkpt lat="44.135238199844984" lon="10.32213915607307"><ele>478.75</ele><time>2026-04-24T10:16:03Z</time></trkpt><trkpt lat="44.13528153963628" lon="10.322313177607633"><ele>479.5</ele><time>2026-04-24T10:16:04Z</time></trkpt><trkpt lat="44.13530811627633" lon="10.3224828408252"><ele>480.25</ele><time>2026-04-24T10:16:05Z</time></trkpt><trkpt lat="44.135331366399754" lon="10.322637045719421"><ele>481.0</ele><time>2026-04-24T10:16:06Z</time></trkpt><trkpt lat="44.13532836972164" lon="10.322776409050256"><ele>481.0</ele><time>2026-04-24T10:16:07Z</time></trkpt><trkpt lat="44.13532324391883" lon="10.322907973771661"><ele>481.0</ele><time>2026-04-24T10:16:08Z</time></trkpt><trkpt lat="44.13529161259046" lon="10.323036242126086"><ele>481.0</ele><time>2026-04-24T10:16:09Z</time></trkpt><trkpt lat="44.13524201773154" lon="10.323180762488605"><ele>481.0</ele><time>2026-04-24T10:16:10Z</time></trkpt><trkpt lat="44.13519494516808" lon="10.323348523134568"><ele>481.0</ele><time>2026-04-24T10:16:11Z</time></trkpt><trkpt lat="44.13513800808127" lon="10.323494129106889"><ele>480.4</ele><time>2026-04-24T10:16:12Z</time></trkpt><trkpt lat="44.135098231165934" lon="10.323637165544499"><ele>479.8</ele><time>2026-04-24T10:16:13Z</time></trkpt><trkpt lat="44.135085809165965" lon="10.323785968546535"><ele>479.19999999999993</ele><time>2026-04-24T10:16:14Z</time></trkpt><trkpt lat="44.13509331739695" lon="10.323935659016513"><ele>478.59999999999997</ele><time>2026-04-24T10:16:15Z</time></trkpt><trkpt lat="44.13513685078155" lon="10.324087474721713"><ele>478.0</ele><time>2026-04-24T10:16:16Z</time></trkpt><trkpt lat="44.13520739422892" lon="10.324237573487482"><ele>479.5</ele><time>2026-04-24T10:16:17Z</time></trkpt><trkpt lat="44.13529262001612" lon="10.324402712068476"><ele>481.0</ele><time>2026-04-24T10:16:18Z</time></trkpt><trkpt lat="44.135367429236325" lon="10.324567299964341"><ele>482.5</ele><time>2026-04-24T10:16:19Z</time></trkpt><trkpt lat="44.13542419703968" lon="10.324717762552586"><ele>484.0</ele><time>2026-04-24T10:16:20Z</time></trkpt><trkpt lat="44.135436125179375" lon="10.32489171435221"><ele>486.0</ele><time>2026-04-24T10:16:21Z</time></trkpt><trkpt lat="44.135463123149904" lon="10.32506648832424"><ele>488.0</ele><time>2026-04-24T10:16:22Z</time></trkpt><trkpt lat="44.13550189853764" lon="10.325213124947814"><ele>490.0</ele><time>2026-04-24T10:16:23Z</time></trkpt><trkpt lat="44.13553589222187" lon="10.32534317398277"><ele>492.0</ele><time>2026-04-24T10:16:24Z</time></trkpt><trkpt lat="44.13555433623773" lon="10.325468939185045"><ele>494.0</ele><time>2026-04-24T10:16:25Z</time></trkpt><trkpt lat="44.13557697141077" lon="10.325574434870596"><ele>495.3333333333333</ele><time>2026-04-24T10:16:26Z</time></trkpt><trkpt lat="44.135602852412205" lon="10.32566478929597"><ele>496.66666666666663</ele><time>2026-04-24T10:16:27Z</time></trkpt><trkpt lat="44.1355969356359" lon="10.325758365110271"><ele>498.0</ele><time>2026-04-24T10:16:28Z</time></trkpt><trkpt lat="44.135572993040924" lon="10.325859321425645"><ele>499.33333333333337</ele><time>2026-04-24T10:16:29Z</time></trkpt><trkpt lat="44.13551479528305" lon="10.32596269063609"><ele>500.6666666666667</ele><time>2026-04-24T10:16:30Z</time></trkpt><trkpt lat="44.13541974238131" lon="10.326031548886872"><ele>502.0</ele><time>2026-04-24T10:16:31Z</time></trkpt><trkpt lat="44.13535087304519" lon="10.326128019199784"><ele>502.00000000000006</ele><time>2026-04-24T10:16:32Z</time></trkpt><trkpt lat="44.135291462803856" lon="10.326230287486512"><ele>502.0</ele><time>2026-04-24T10:16:33Z</time></trkpt><trkpt lat="44.13525772128918" lon="10.326353148304056"><ele>502.0</ele><time>2026-04-24T10:16:34Z</time></trkpt><trkpt lat="44.13524175236612" lon="10.326493264767388"><ele>502.0</ele><time>2026-04-24T10:16:35Z</time></trkpt><trkpt lat="44.13523791142996" lon="10.32660059329489"><ele>502.00000000000006</ele><time>2026-04-24T10:16:36Z</time></trkpt><trkpt lat="44.135264832482314" lon="10.32669724002775"><ele>502.0</ele><time>2026-04-24T10:16:37Z</time></trkpt><trkpt lat="44.13530107485146" lon="10.326778573969925"><ele>501.75</ele><time>2026-04-24T10:16:38Z</time></trkpt><trkpt lat="44.13539668356611" lon="10.326816216328451"><ele>501.5</ele><time>2026-04-24T10:16:39Z</time></trkpt><trkpt lat="44.13550685043767" lon="10.326769162196653"><ele>501.25</ele><time>2026-04-24T10:16:40Z</time></trkpt><trkpt lat="44.13562740222833" lon="10.326722167549287"><ele>501.0</ele><time>2026-04-24T10:16:41Z</time></trkpt><trkpt lat="44.13573720456602" lon="10.326705419276667"><ele>493.8</ele><time>2026-04-24T10:16:42Z</time></trkpt><trkpt lat="44.135846530891996" lon="10.326691411971519"><ele>486.6</ele><time>2026-04-24T10:16:43Z</time></trkpt><trkpt lat="44.13594332317576" lon="10.326713437544083"><ele>479.4</ele><time>2026-04-24T10:16:44Z</time></trkpt><trkpt lat="44.136034229138374" lon="10.326747062927243"><ele>472.2</ele><time>2026-04-24T10:16:45Z</time></trkpt><trkpt lat="44.13611097425037" lon="10.32684200547856"><ele>465.0</ele><time>2026-04-24T10:16:46Z</time></trkpt><trkpt lat="44.13614405763152" lon="10.326994513238914"><ele>465.0</ele><time>2026-04-24T10:16:47Z</time></trkpt><trkpt lat="44.136184692695906" lon="10.327159836651767"><ele>465.0</ele><time>2026-04-24T10:16:48Z</time></trkpt><trkpt lat="44.13623930617703" lon="10.327335418838276"><ele>465.0</ele><time>2026-04-24T10:16:49Z</time></trkpt><trkpt lat="44.13628209172732" lon="10.327518692856072"><ele>465.0</ele><time>2026-04-24T10:16:50Z</time></trkpt><trkpt lat="44.13631693690966" lon="10.327665542391099"><ele>468.2</ele><time>2026-04-24T10:16:51Z</time></trkpt><trkpt lat="44.13632990028667" lon="10.32780630914347"><ele>471.4</ele><time>2026-04-24T10:16:52Z</time></trkpt><trkpt lat="44.13634190298058" lon="10.327933095510113"><ele>474.6</ele><time>2026-04-24T10:16:53Z</time></trkpt><trkpt lat="44.13630627961947" lon="10.328063177780418"><ele>477.8</ele><time>2026-04-24T10:16:54Z</time></trkpt><trkpt lat="44.13625661154324" lon="10.328198770152495"><ele>481.0</ele><time>2026-04-24T10:16:55Z</time></trkpt><trkpt lat="44.136186673114565" lon="10.328304409382707"><ele>481.4</ele><time>2026-04-24T10:16:56Z</time></trkpt><trkpt lat="44.136130222915654" lon="10.32839720442483"><ele>481.8</ele><time>2026-04-24T10:16:57Z</time></trkpt><trkpt lat="44.13608791799076" lon="10.328503127308371"><ele>482.19999999999993</ele><time>2026-04-24T10:16:58Z</time></trkpt><trkpt lat="44.136078304314125" lon="10.328614343289454"><ele>482.59999999999997</ele><time>2026-04-24T10:16:59Z</time></trkpt><trkpt lat="44.13608282201423" lon="10.328742571975326"><ele>483.0</ele><time>2026-04-24T10:17:00Z</time></trkpt><trkpt lat="44.1361434290213" lon="10.328895872501622"><ele>481.5</ele><time>2026-04-24T10:17:01Z</time></trkpt><trkpt lat="44.136258181099784" lon="10.329032868136933"><ele>480.0</ele><time>2026-04-24T10:17:02Z</time></trkpt><trkpt lat="44.136359628704945" lon="10.329119486952319"><ele>478.5</ele><time>2026-04-24T10:17:03Z</time></trkpt><trkpt lat="44.1364735788475" lon="10.329246580799788"><ele>477.0</ele><time>2026-04-24T10:17:04Z</time></trkpt><trkpt lat="44.13659440969068" lon="10.329332752056722"><ele>476.5</ele><time>2026-04-24T10:17:05Z</time></trkpt><trkpt lat="44.13668184509857" lon="10.329450663944296"><ele>476.0</ele><time>2026-04-24T10:17:06Z</time></trkpt><trkpt lat="44.136769517944664" lon="10.329575688882857"><ele>475.5</ele><time>2026-04-24T10:17:07Z</time></trkpt><trkpt lat="44.136850044132935" lon="10.329726644182623"><ele>475.0</ele><time>2026-04-24T10:17:08Z</time></trkpt><trkpt lat="44.13688952400633" lon="10.329895295896113"><ele>475.0</ele><time>2026-04-24T10:17:09Z</time></trkpt><trkpt lat="44.13694088493429" lon="10.33004044014586"><ele>475.0</ele><time>2026-04-24T10:17:10Z</time></trkpt><trkpt lat="44.13698534520674" lon="10.330199636840627"><ele>475.0</ele><time>2026-04-24T10:17:11Z</time></trkpt><trkpt lat="44.137024351018866" lon="10.330365642150586"><ele>475.0</ele><time>2026-04-24T10:17:12Z</time></trkpt><trkpt lat="44.13705249287385" lon="10.3305419248675"><ele>479.33333333333337</ele><time>2026-04-24T10:17:13Z</time></trkpt><trkpt lat="44.13705820168821" lon="10.330732302385151"><ele>483.66666666666663</ele><time>2026-04-24T10:17:14Z</time></trkpt><trkpt lat="44.13705700875413" lon="10.330952828341594"><ele>488.0</ele><time>2026-04-24T10:17:15Z</time></trkpt><trkpt lat="44.13705300552538" lon="10.331173123686243"><ele>488.0</ele><time>2026-04-24T10:17:16Z</time></trkpt><trkpt lat="44.137047588121206" lon="10.331356286777845"><ele>488.0</ele><time>2026-04-24T10:17:17Z</time></trkpt><trkpt lat="44.137059824515994" lon="10.331563110881753"><ele>488.0</ele><time>2026-04-24T10:17:18Z</time></trkpt><trkpt lat="44.13710656216955" lon="10.331763618749315"><ele>488.0</ele><time>2026-04-24T10:17:19Z</time></trkpt><trkpt lat="44.137178694730046" lon="10.331970142490821"><ele>493.3333333333333</ele><time>2026-04-24T10:17:20Z</time></trkpt><trkpt lat="44.137269623010496" lon="10.332187434661138"><ele>498.66666666666663</ele><time>2026-04-24T10:17:21Z</time></trkpt><trkpt lat="44.13738987185722" lon="10.332424334023187"><ele>504.0</ele><time>2026-04-24T10:17:22Z</time></trkpt><trkpt lat="44.13750163620812" lon="10.332667074452372"><ele>500.66666666666663</ele><time>2026-04-24T10:17:23Z</time></trkpt><trkpt lat="44.13760433582459" lon="10.332886039262661"><ele>497.3333333333333</ele><time>2026-04-24T10:17:24Z</time></trkpt><trkpt lat="44.137707890211395" lon="10.333083583529746"><ele>494.0</ele><time>2026-04-24T10:17:25Z</time></trkpt><trkpt lat="44.137796594344984" lon="10.333268221116574"><ele>494.0</ele><time>2026-04-24T10:17:26Z</time></trkpt><trkpt lat="44.137872986747055" lon="10.333445896212469"><ele>494.0</ele><time>2026-04-24T10:17:27Z</time></trkpt><trkpt lat="44.137937053208816" lon="10.33361156428734"><ele>494.0</ele><time>2026-04-24T10:17:28Z</time></trkpt><trkpt lat="44.13799259098837" lon="10.33374906583253"><ele>494.0</ele><time>2026-04-24T10:17:29Z</time></trkpt><trkpt lat="44.138030140051036" lon="10.333893506521122"><ele>498.0</ele><time>2026-04-24T10:17:30Z</time></trkpt><trkpt lat="44.13805507595673" lon="10.33405399146149"><ele>502.0</ele><time>2026-04-24T10:17:31Z</time></trkpt><trkpt lat="44.138072883752095" lon="10.3342269924802"><ele>506.0</ele><time>2026-04-24T10:17:32Z</time></trkpt><trkpt lat="44.13808808670019" lon="10.334404404930474"><ele>510.0</ele><time>2026-04-24T10:17:33Z</time></trkpt><trkpt lat="44.13813839504953" lon="10.334555088014856"><ele>510.0</ele><time>2026-04-24T10:17:34Z</time></trkpt><trkpt lat="44.138205222343856" lon="10.33470634102944"><ele>510.0</ele><time>2026-04-24T10:17:35Z</time></trkpt><trkpt lat="44.138310122935906" lon="10.33485486964475"><ele>510.0</ele><time>2026-04-24T10:17:36Z</time></trkpt><trkpt lat="44.13841707607881" lon="10.335028006212566"><ele>510.0</ele><time>2026-04-24T10:17:37Z</time></trkpt><trkpt lat="44.13851530095145" lon="10.33522218526577"><ele>507.25</ele><time>2026-04-24T10:17:38Z</time></trkpt><trkpt lat="44.138587959110815" lon="10.335390552535737"><ele>504.5</ele><time>2026-04-24T10:17:39Z</time></trkpt><trkpt lat="44.13865408981424" lon="10.335561126939263"><ele>501.75</ele><time>2026-04-24T10:17:40Z</time></trkpt><trkpt lat="44.13870984452356" lon="10.335747996005937"><ele>499.0</ele><time>2026-04-24T10:17:41Z</time></trkpt><trkpt lat="44.13875219096096" lon="10.335932416083725"><ele>499.0</ele><time>2026-04-24T10:17:42Z</time></trkpt><trkpt lat="44.138780212446186" lon="10.336105523824955"><ele>499.0</ele><time>2026-04-24T10:17:43Z</time></trkpt><trkpt lat="44.138798526527026" lon="10.336285771515307"><ele>499.0</ele><time>2026-04-24T10:17:44Z</time></trkpt><trkpt lat="44.13880612818823" lon="10.336486805208425"><ele>499.0</ele><time>2026-04-24T10:17:45Z</time></trkpt><trkpt lat="44.13880180658666" lon="10.336702243090391"><ele>500.75</ele><time>2026-04-24T10:17:46Z</time></trkpt><trkpt lat="44.1387934649657" lon="10.336919181029362"><ele>502.5</ele><time>2026-04-24T10:17:47Z</time></trkpt><trkpt lat="44.138783581746715" lon="10.337110545846185"><ele>504.25</ele><time>2026-04-24T10:17:48Z</time></trkpt><trkpt lat="44.138772697747164" lon="10.337308893020133"><ele>506.0</ele><time>2026-04-24T10:17:49Z</time></trkpt><trkpt lat="44.13876127905737" lon="10.337516013741356"><ele>506.0</ele><time>2026-04-24T10:17:50Z</time></trkpt><trkpt lat="44.138747714499935" lon="10.337700689889845"><ele>506.0</ele><time>2026-04-24T10:17:51Z</time></trkpt><trkpt lat="44.138721701427706" lon="10.337863608406687"><ele>506.0</ele><time>2026-04-24T10:17:52Z</time></trkpt><trkpt lat="44.13870538101204" lon="10.338020376685028"><ele>506.0</ele><time>2026-04-24T10:17:53Z</time></trkpt><trkpt lat="44.13866685839555" lon="10.338164153057994"><ele>504.25</ele><time>2026-04-24T10:17:54Z</time></trkpt><trkpt lat="44.138659749075686" lon="10.338332187100423"><ele>502.5</ele><time>2026-04-24T10:17:55Z</time></trkpt><trkpt lat="44.13869595937599" lon="10.338505010827555"><ele>500.75</ele><time>2026-04-24T10:17:56Z</time></trkpt><trkpt lat="44.13877143011968" lon="10.338669024190022"><ele>499.0</ele><time>2026-04-24T10:17:57Z</time></trkpt><trkpt lat="44.138861716272594" lon="10.338841400430669"><ele>502.75</ele><time>2026-04-24T10:17:58Z</time></trkpt><trkpt lat="44.138900913769206" lon="10.339037067380836"><ele>506.5</ele><time>2026-04-24T10:17:59Z</time></trkpt><trkpt lat="44.13894012948415" lon="10.339224267582576"><ele>510.25</ele><time>2026-04-24T10:18:00Z</time></trkpt><trkpt lat="44.13897330928926" lon="10.33938774843934"><ele>514.0</ele><time>2026-04-24T10:18:01Z</time></trkpt><trkpt lat="44.138998864798566" lon="10.33953230850113"><ele>514.0</ele><time>2026-04-24T10:18:02Z</time></trkpt><trkpt lat="44.13901360940697" lon="10.339674260574268"><ele>514.0</ele><time>2026-04-24T10:18:03Z</time></trkpt><trkpt lat="44.139007310423345" lon="10.33982473692204"><ele>514.0</ele><time>2026-04-24T10:18:04Z</time></trkpt><trkpt lat="44.13897854492938" lon="10.339978634425636"><ele>514.0</ele><time>2026-04-24T10:18:05Z</time></trkpt><trkpt lat="44.138935336145536" lon="10.340110502212664"><ele>514.0</ele><time>2026-04-24T10:18:06Z</time></trkpt><trkpt lat="44.13887893443953" lon="10.34022661291256"><ele>513.8</ele><time>2026-04-24T10:18:07Z</time></trkpt><trkpt lat="44.138801002446534" lon="10.340349058771467"><ele>513.5999999999999</ele><time>2026-04-24T10:18:08Z</time></trkpt><trkpt lat="44.13871212314901" lon="10.340470620121911"><ele>513.4</ele><time>2026-04-24T10:18:09Z</time></trkpt><trkpt lat="44.13863481714451" lon="10.340578627497802"><ele>513.1999999999999</ele><time>2026-04-24T10:18:10Z</time></trkpt><trkpt lat="44.13858603184777" lon="10.340695949961544"><ele>513.0</ele><time>2026-04-24T10:18:11Z</time></trkpt><trkpt lat="44.13855239708164" lon="10.34081036362548"><ele>508.0</ele><time>2026-04-24T10:18:12Z</time></trkpt><trkpt lat="44.13855431212352" lon="10.340955191130046"><ele>503.0</ele><time>2026-04-24T10:18:13Z</time></trkpt><trkpt lat="44.138595576976265" lon="10.34110513814795"><ele>498.0</ele><time>2026-04-24T10:18:14Z</time></trkpt><trkpt lat="44.1386661529041" lon="10.341249141816286"><ele>493.0</ele><time>2026-04-24T10:18:15Z</time></trkpt><trkpt lat="44.138757581856126" lon="10.34140449721531"><ele>491.0</ele><time>2026-04-24T10:18:16Z</time></trkpt><trkpt lat="44.13885415372462" lon="10.341591594580873"><ele>489.0</ele><time>2026-04-24T10:18:17Z</time></trkpt><trkpt lat="44.13896259777371" lon="10.341740030854805"><ele>487.0</ele><time>2026-04-24T10:18:18Z</time></trkpt><trkpt lat="44.13904942417568" lon="10.341891032318998"><ele>483.5</ele><time>2026-04-24T10:18:19Z</time></trkpt><trkpt lat="44.139128788390764" lon="10.342032902593218"><ele>480.0</ele><time>2026-04-24T10:18:20Z</time></trkpt><trkpt lat="44.13917805740633" lon="10.342177476892651"><ele>476.5</ele><time>2026-04-24T10:18:21Z</time></trkpt><trkpt lat="44.13921849976103" lon="10.34232434562507"><ele>473.0</ele><time>2026-04-24T10:18:22Z</time></trkpt><trkpt lat="44.13924293293639" lon="10.34247460084046"><ele>473.0</ele><time>2026-04-24T10:18:23Z</time></trkpt><trkpt lat="44.139255439045684" lon="10.342630272569751"><ele>473.0</ele><time>2026-04-24T10:18:24Z</time></trkpt><trkpt lat="44.13924883227883" lon="10.3428000068524"><ele>473.0</ele><time>2026-04-24T10:18:25Z</time></trkpt><trkpt lat="44.13921858332605" lon="10.342978211631063"><ele>473.0</ele><time>2026-04-24T10:18:26Z</time></trkpt><trkpt lat="44.13917285872529" lon="10.343166000423405"><ele>473.0</ele><time>2026-04-24T10:18:27Z</time></trkpt><trkpt lat="44.13912369126194" lon="10.343343709962957"><ele>473.0</ele><time>2026-04-24T10:18:28Z</time></trkpt><trkpt lat="44.13907768396746" lon="10.343510854775758"><ele>473.0</ele><time>2026-04-24T10:18:29Z</time></trkpt><trkpt lat="44.13903571760541" lon="10.343665975252891"><ele>473.0</ele><time>2026-04-24T10:18:30Z</time></trkpt><trkpt lat="44.139003523643915" lon="10.343785252998376"><ele>478.0</ele><time>2026-04-24T10:18:31Z</time></trkpt><trkpt lat="44.13897967600544" lon="10.343875087723289"><ele>482.99999999999994</ele><time>2026-04-24T10:18:32Z</time></trkpt><trkpt lat="44.13897458259556" lon="10.343968855890973"><ele>487.99999999999994</ele><time>2026-04-24T10:18:33Z</time></trkpt><trkpt lat="44.13892942408835" lon="10.344116176030628"><ele>493.0</ele><time>2026-04-24T10:18:35Z</time></trkpt><trkpt lat="44.138938727756205" lon="10.344256807261782"><ele>498.0</ele><time>2026-04-24T10:18:37Z</time></trkpt><trkpt lat="44.138971478208546" lon="10.344420697702727"><ele>499.0</ele><time>2026-04-24T10:18:39Z</time></trkpt><trkpt lat="44.139036725665015" lon="10.344545992944088"><ele>500.0</ele><time>2026-04-24T10:18:40Z</time></trkpt><trkpt lat="44.139126785671884" lon="10.344695841407862"><ele>501.0</ele><time>2026-04-24T10:18:41Z</time></trkpt><trkpt lat="44.13922766794374" lon="10.34486815844471"><ele>502.0</ele><time>2026-04-24T10:18:42Z</time></trkpt><trkpt lat="44.13933506517513" lon="10.345017642442315"><ele>499.0</ele><time>2026-04-24T10:18:43Z</time></trkpt><trkpt lat="44.13941478102081" lon="10.345184345806482"><ele>496.0</ele><time>2026-04-24T10:18:44Z</time></trkpt><trkpt lat="44.13948790729016" lon="10.345327992612471"><ele>493.0</ele><time>2026-04-24T10:18:45Z</time></trkpt><trkpt lat="44.13957119422339" lon="10.345443158357865"><ele>490.0</ele><time>2026-04-24T10:18:46Z</time></trkpt><trkpt lat="44.139645128295584" lon="10.345560059035094"><ele>490.0</ele><time>2026-04-24T10:18:47Z</time></trkpt><trkpt lat="44.13975204529473" lon="10.34566002915262"><ele>490.0</ele><time>2026-04-24T10:18:48Z</time></trkpt><trkpt lat="44.13988781494222" lon="10.345750208682073"><ele>490.0</ele><time>2026-04-24T10:18:49Z</time></trkpt><trkpt lat="44.14003806445942" lon="10.345843039589733"><ele>490.0</ele><time>2026-04-24T10:18:50Z</time></trkpt><trkpt lat="44.140183389711865" lon="10.345902827803389"><ele>487.75</ele><time>2026-04-24T10:18:51Z</time></trkpt><trkpt lat="44.14030692229152" lon="10.34597202606747"><ele>485.5</ele><time>2026-04-24T10:18:52Z</time></trkpt><trkpt lat="44.14041032974701" lon="10.346063315699752"><ele>483.25</ele><time>2026-04-24T10:18:53Z</time></trkpt><trkpt lat="44.14051155967045" lon="10.346133731724004"><ele>481.0</ele><time>2026-04-24T10:18:54Z</time></trkpt><trkpt lat="44.140596239715464" lon="10.346210817048405"><ele>481.0</ele><time>2026-04-24T10:18:55Z</time></trkpt><trkpt lat="44.14066658216332" lon="10.346316432707276"><ele>481.0</ele><time>2026-04-24T10:18:56Z</time></trkpt><trkpt lat="44.14073888392931" lon="10.346455946201191"><ele>481.0</ele><time>2026-04-24T10:18:57Z</time></trkpt><trkpt lat="44.140801757769275" lon="10.3466093998382"><ele>481.0</ele><time>2026-04-24T10:18:58Z</time></trkpt><trkpt lat="44.14086762669542" lon="10.346790378460875"><ele>479.0</ele><time>2026-04-24T10:18:59Z</time></trkpt><trkpt lat="44.14093604079512" lon="10.346984893971033"><ele>477.0</ele><time>2026-04-24T10:19:00Z</time></trkpt><trkpt lat="44.14100029896128" lon="10.347166933281907"><ele>475.0</ele><time>2026-04-24T10:19:01Z</time></trkpt><trkpt lat="44.14106207452421" lon="10.347334549748565"><ele>473.0</ele><time>2026-04-24T10:19:02Z</time></trkpt><trkpt lat="44.14112585414444" lon="10.347501049231672"><ele>478.0</ele><time>2026-04-24T10:19:03Z</time></trkpt><trkpt lat="44.14119997979717" lon="10.347643803241098"><ele>483.0</ele><time>2026-04-24T10:19:04Z</time></trkpt><trkpt lat="44.14126054187599" lon="10.347782120232253"><ele>488.0</ele><time>2026-04-24T10:19:05Z</time></trkpt><trkpt lat="44.14133311004195" lon="10.347926399872517"><ele>493.0</ele><time>2026-04-24T10:19:06Z</time></trkpt><trkpt lat="44.14143255013491" lon="10.348063040240744"><ele>489.0</ele><time>2026-04-24T10:19:07Z</time></trkpt><trkpt lat="44.14154258370571" lon="10.348210884876764"><ele>485.0</ele><time>2026-04-24T10:19:08Z</time></trkpt><trkpt lat="44.141658252286256" lon="10.348373372047263"><ele>481.0</ele><time>2026-04-24T10:19:09Z</time></trkpt><trkpt lat="44.141778300094785" lon="10.348540129236229"><ele>481.0</ele><time>2026-04-24T10:19:10Z</time></trkpt><trkpt lat="44.14188415793421" lon="10.348703018550621"><ele>481.0</ele><time>2026-04-24T10:19:11Z</time></trkpt><trkpt lat="44.141982358532566" lon="10.348848337916069"><ele>481.0</ele><time>2026-04-24T10:19:12Z</time></trkpt><trkpt lat="44.14207480999978" lon="10.348987528129904"><ele>481.0</ele><time>2026-04-24T10:19:13Z</time></trkpt><trkpt lat="44.14216610299032" lon="10.349112870739804"><ele>478.75</ele><time>2026-04-24T10:19:14Z</time></trkpt><trkpt lat="44.14225704023684" lon="10.349223453919082"><ele>476.5</ele><time>2026-04-24T10:19:15Z</time></trkpt><trkpt lat="44.1423756760012" lon="10.349313993549908"><ele>474.25</ele><time>2026-04-24T10:19:16Z</time></trkpt><trkpt lat="44.142506057880304" lon="10.349388732569343"><ele>472.0</ele><time>2026-04-24T10:19:17Z</time></trkpt><trkpt lat="44.142628108677286" lon="10.34943359353432"><ele>472.0</ele><time>2026-04-24T10:19:18Z</time></trkpt><trkpt lat="44.142742724941556" lon="10.349477279810381"><ele>472.0</ele><time>2026-04-24T10:19:19Z</time></trkpt><trkpt lat="44.14286005818653" lon="10.349546283203914"><ele>472.0</ele><time>2026-04-24T10:19:20Z</time></trkpt><trkpt lat="44.14298377631446" lon="10.349641322742782"><ele>472.0</ele><time>2026-04-24T10:19:21Z</time></trkpt><trkpt lat="44.14311094834688" lon="10.34976174705341"><ele>471.75</ele><time>2026-04-24T10:19:22Z</time></trkpt><trkpt lat="44.14323708964237" lon="10.349878111420155"><ele>471.5</ele><time>2026-04-24T10:19:23Z</time></trkpt><trkpt lat="44.14334737396657" lon="10.349976172544038"><ele>471.25</ele><time>2026-04-24T10:19:24Z</time></trkpt><trkpt lat="44.14344526352692" lon="10.350061621436222"><ele>471.0</ele><time>2026-04-24T10:19:25Z</time></trkpt><trkpt lat="44.14353619704317" lon="10.350135480178984"><ele>471.0</ele><time>2026-04-24T10:19:26Z</time></trkpt><trkpt lat="44.143614661247945" lon="10.350227240087666"><ele>471.0</ele><time>2026-04-24T10:19:27Z</time></trkpt><trkpt lat="44.14376648873259" lon="10.350478693392114"><ele>471.0</ele><time>2026-04-24T10:19:29Z</time></trkpt><trkpt lat="44.143845213792645" lon="10.3506498840057"><ele>467.75</ele><time>2026-04-24T10:19:30Z</time></trkpt><trkpt lat="44.14392677433293" lon="10.350824402127392"><ele>464.5</ele><time>2026-04-24T10:19:31Z</time></trkpt><trkpt lat="44.144015531013544" lon="10.350972472621521"><ele>461.25</ele><time>2026-04-24T10:19:32Z</time></trkpt><trkpt lat="44.14408703753431" lon="10.35113557937525"><ele>458.0</ele><time>2026-04-24T10:19:33Z</time></trkpt><trkpt lat="44.144151401855964" lon="10.351282282835077"><ele>464.0</ele><time>2026-04-24T10:19:34Z</time></trkpt><trkpt lat="44.14424917464787" lon="10.351412558807253"><ele>470.0</ele><time>2026-04-24T10:19:35Z</time></trkpt><trkpt lat="44.14436435010501" lon="10.351534160941025"><ele>476.0</ele><time>2026-04-24T10:19:36Z</time></trkpt><trkpt lat="44.14447416645363" lon="10.351655280257194"><ele>482.0</ele><time>2026-04-24T10:19:37Z</time></trkpt><trkpt lat="44.144563358613716" lon="10.351767317883795"><ele>482.0</ele><time>2026-04-24T10:19:38Z</time></trkpt><trkpt lat="44.14463120086028" lon="10.351900878066049"><ele>482.0</ele><time>2026-04-24T10:19:39Z</time></trkpt><trkpt lat="44.14470443574875" lon="10.352039869698352"><ele>482.0</ele><time>2026-04-24T10:19:40Z</time></trkpt><trkpt lat="44.14476597162049" lon="10.352184775469462"><ele>482.0</ele><time>2026-04-24T10:19:41Z</time></trkpt><trkpt lat="44.14483949930009" lon="10.352308549760652"><ele>476.75</ele><time>2026-04-24T10:19:42Z</time></trkpt><trkpt lat="44.14490880950707" lon="10.352432324212675"><ele>471.5</ele><time>2026-04-24T10:19:43Z</time></trkpt><trkpt lat="44.14499983354528" lon="10.35254215717209"><ele>466.25</ele><time>2026-04-24T10:19:44Z</time></trkpt><trkpt lat="44.14511585864148" lon="10.3526152664877"><ele>461.0</ele><time>2026-04-24T10:19:45Z</time></trkpt><trkpt lat="44.14524267278029" lon="10.352696502377551"><ele>461.0</ele><time>2026-04-24T10:19:46Z</time></trkpt><trkpt lat="44.145372710395804" lon="10.352788570312882"><ele>461.0</ele><time>2026-04-24T10:19:47Z</time></trkpt><trkpt lat="44.14549753327281" lon="10.352875937621521"><ele>461.0</ele><time>2026-04-24T10:19:48Z</time></trkpt><trkpt lat="44.14560729431138" lon="10.352953749112112"><ele>461.0</ele><time>2026-04-24T10:19:49Z</time></trkpt><trkpt lat="44.14570868214523" lon="10.35302010420749"><ele>461.3333333333333</ele><time>2026-04-24T10:19:50Z</time></trkpt><trkpt lat="44.14579868583403" lon="10.3530721635183"><ele>461.66666666666663</ele><time>2026-04-24T10:19:51Z</time></trkpt><trkpt lat="44.14587259673997" lon="10.35309416863219"><ele>462.0</ele><time>2026-04-24T10:19:52Z</time></trkpt><trkpt lat="44.14598078748186" lon="10.353129862796473"><ele>462.33333333333337</ele><time>2026-04-24T10:19:54Z</time></trkpt><trkpt lat="44.145922064867584" lon="10.353175534702599"><ele>462.6666666666667</ele><time>2026-04-24T10:19:59Z</time></trkpt><trkpt lat="44.145853638728546" lon="10.353154544199795"><ele>463.0</ele><time>2026-04-24T10:20:00Z</time></trkpt><trkpt lat="44.14574582910658" lon="10.353140049012623"><ele>462.5</ele><time>2026-04-24T10:20:01Z</time></trkpt><trkpt lat="44.145635066835865" lon="10.353080078809498"><ele>462.0</ele><time>2026-04-24T10:20:02Z</time></trkpt><trkpt lat="44.14550684716277" lon="10.353001366786232"><ele>461.5</ele><time>2026-04-24T10:20:03Z</time></trkpt><trkpt lat="44.14539096145439" lon="10.352931982945547"><ele>461.0</ele><time>2026-04-24T10:20:04Z</time></trkpt><trkpt lat="44.14526209061624" lon="10.352870033088827"><ele>461.0</ele><time>2026-04-24T10:20:05Z</time></trkpt><trkpt lat="44.14513829604048" lon="10.352777805713986"><ele>461.0</ele><time>2026-04-24T10:20:06Z</time></trkpt><trkpt lat="44.14500560116305" lon="10.352707978820881"><ele>461.0</ele><time>2026-04-24T10:20:07Z</time></trkpt><trkpt lat="44.14487215194385" lon="10.352624381543421"><ele>461.0</ele><time>2026-04-24T10:20:08Z</time></trkpt><trkpt lat="44.1447772570768" lon="10.352500714997088"><ele>468.0</ele><time>2026-04-24T10:20:09Z</time></trkpt><trkpt lat="44.14467778030429" lon="10.352349395488588"><ele>475.0</ele><time>2026-04-24T10:20:10Z</time></trkpt><trkpt lat="44.14455968582258" lon="10.352194507146374"><ele>482.0</ele><time>2026-04-24T10:20:11Z</time></trkpt><trkpt lat="44.14443892960756" lon="10.35201922733177"><ele>482.0</ele><time>2026-04-24T10:20:12Z</time></trkpt><trkpt lat="44.144308421801036" lon="10.351839957704005"><ele>482.0</ele><time>2026-04-24T10:20:13Z</time></trkpt><trkpt lat="44.14417122531149" lon="10.351683324684364"><ele>482.0</ele><time>2026-04-24T10:20:14Z</time></trkpt><trkpt lat="44.14405414094312" lon="10.351532124868973"><ele>489.66666666666663</ele><time>2026-04-24T10:20:15Z</time></trkpt><trkpt lat="44.14395327000176" lon="10.351353883439515"><ele>497.33333333333337</ele><time>2026-04-24T10:20:16Z</time></trkpt><trkpt lat="44.1438559263215" lon="10.351169357530038"><ele>505.0</ele><time>2026-04-24T10:20:17Z</time></trkpt><trkpt lat="44.14376017550482" lon="10.35098278970093"><ele>505.0</ele><time>2026-04-24T10:20:18Z</time></trkpt><trkpt lat="44.14368484052324" lon="10.350822819535026"><ele>505.0</ele><time>2026-04-24T10:20:19Z</time></trkpt><trkpt lat="44.14360360116534" lon="10.35067676291237"><ele>505.0</ele><time>2026-04-24T10:20:20Z</time></trkpt><trkpt lat="44.14351014922803" lon="10.350544812872732"><ele>505.0</ele><time>2026-04-24T10:20:21Z</time></trkpt><trkpt lat="44.14341111114382" lon="10.350440315990705"><ele>504.75</ele><time>2026-04-24T10:20:22Z</time></trkpt><trkpt lat="44.14329082522823" lon="10.35036087600231"><ele>504.5</ele><time>2026-04-24T10:20:23Z</time></trkpt><trkpt lat="44.143157625837695" lon="10.350289511558255"><ele>504.25</ele><time>2026-04-24T10:20:24Z</time></trkpt><trkpt lat="44.14301736709451" lon="10.350223232875333"><ele>504.0</ele><time>2026-04-24T10:20:25Z</time></trkpt><trkpt lat="44.14287379209754" lon="10.350153472736443"><ele>504.0</ele><time>2026-04-24T10:20:26Z</time></trkpt><trkpt lat="44.14274148572169" lon="10.350104915743321"><ele>504.0</ele><time>2026-04-24T10:20:27Z</time></trkpt><trkpt lat="44.1425916347152" lon="10.350076568821354"><ele>504.0</ele><time>2026-04-24T10:20:28Z</time></trkpt><trkpt lat="44.14244229459115" lon="10.350041587849606"><ele>504.0</ele><time>2026-04-24T10:20:29Z</time></trkpt><trkpt lat="44.14230361222158" lon="10.35001359379078"><ele>504.5</ele><time>2026-04-24T10:20:30Z</time></trkpt><trkpt lat="44.14218542380497" lon="10.34997003280483"><ele>505.0</ele><time>2026-04-24T10:20:31Z</time></trkpt><trkpt lat="44.14207791176105" lon="10.349869367726486"><ele>505.5</ele><time>2026-04-24T10:20:32Z</time></trkpt><trkpt lat="44.14197152736517" lon="10.349741310634778"><ele>506.0</ele><time>2026-04-24T10:20:33Z</time></trkpt><trkpt lat="44.14185023239009" lon="10.349594773916634"><ele>506.0</ele><time>2026-04-24T10:20:34Z</time></trkpt><trkpt lat="44.14171791884485" lon="10.349444348500894"><ele>506.0</ele><time>2026-04-24T10:20:35Z</time></trkpt><trkpt lat="44.141592521357374" lon="10.349271425868553"><ele>506.0</ele><time>2026-04-24T10:20:36Z</time></trkpt><trkpt lat="44.141518949858764" lon="10.349085785753294"><ele>510.3333333333333</ele><time>2026-04-24T10:20:37Z</time></trkpt><trkpt lat="44.14142807100799" lon="10.348911926713175"><ele>514.6666666666666</ele><time>2026-04-24T10:20:38Z</time></trkpt><trkpt lat="44.14134179096915" lon="10.348709495771853"><ele>519.0</ele><time>2026-04-24T10:20:39Z</time></trkpt><trkpt lat="44.141226600080316" lon="10.348547930471069"><ele>519.0</ele><time>2026-04-24T10:20:40Z</time></trkpt><trkpt lat="44.14109301045165" lon="10.348378718086728"><ele>519.0</ele><time>2026-04-24T10:20:41Z</time></trkpt><trkpt lat="44.14098173913092" lon="10.348231617432644"><ele>519.0</ele><time>2026-04-24T10:20:42Z</time></trkpt><trkpt lat="44.1408774857494" lon="10.348104202826914"><ele>519.25</ele><time>2026-04-24T10:20:43Z</time></trkpt><trkpt lat="44.140783857387156" lon="10.347990384408874"><ele>519.5</ele><time>2026-04-24T10:20:44Z</time></trkpt><trkpt lat="44.140679685847374" lon="10.347887488744684"><ele>519.75</ele><time>2026-04-24T10:20:45Z</time></trkpt><trkpt lat="44.1405561685118" lon="10.34779190753645"><ele>520.0</ele><time>2026-04-24T10:20:46Z</time></trkpt><trkpt lat="44.14041962409044" lon="10.347691389783224"><ele>520.0</ele><time>2026-04-24T10:20:47Z</time></trkpt><trkpt lat="44.140276566202694" lon="10.347603618290368"><ele>520.0</ele><time>2026-04-24T10:20:48Z</time></trkpt><trkpt lat="44.140112422823876" lon="10.347537463695401"><ele>520.0</ele><time>2026-04-24T10:20:49Z</time></trkpt><trkpt lat="44.13992519396846" lon="10.34748127051013"><ele>526.0</ele><time>2026-04-24T10:20:50Z</time></trkpt><trkpt lat="44.13974512954027" lon="10.347414526008587"><ele>532.0</ele><time>2026-04-24T10:20:51Z</time></trkpt><trkpt lat="44.13959393333086" lon="10.347344326192783"><ele>538.0</ele><time>2026-04-24T10:20:52Z</time></trkpt><trkpt lat="44.13944616228049" lon="10.347299521052088"><ele>538.0</ele><time>2026-04-24T10:20:53Z</time></trkpt><trkpt lat="44.139306715702155" lon="10.347252432504709"><ele>538.0</ele><time>2026-04-24T10:20:54Z</time></trkpt><trkpt lat="44.13916034896667" lon="10.347202630398858"><ele>538.0</ele><time>2026-04-24T10:20:55Z</time></trkpt><trkpt lat="44.139017852632094" lon="10.34716187127143"><ele>538.0</ele><time>2026-04-24T10:20:56Z</time></trkpt><trkpt lat="44.1388659143935" lon="10.347115048963394"><ele>534.25</ele><time>2026-04-24T10:20:57Z</time></trkpt><trkpt lat="44.13871011025948" lon="10.347076239121598"><ele>530.5</ele><time>2026-04-24T10:20:58Z</time></trkpt><trkpt lat="44.138578944170234" lon="10.347039994551867"><ele>526.75</ele><time>2026-04-24T10:20:59Z</time></trkpt><trkpt lat="44.13845650032378" lon="10.347001911084428"><ele>523.0</ele><time>2026-04-24T10:21:00Z</time></trkpt><trkpt lat="44.13831957863581" lon="10.34696862516973"><ele>531.3333333333334</ele><time>2026-04-24T10:21:01Z</time></trkpt><trkpt lat="44.13816833489909" lon="10.346928196345472"><ele>539.6666666666666</ele><time>2026-04-24T10:21:02Z</time></trkpt><trkpt lat="44.13801378833426" lon="10.346860511466797"><ele>548.0</ele><time>2026-04-24T10:21:03Z</time></trkpt><trkpt lat="44.137855273411034" lon="10.34677137737959"><ele>548.0</ele><time>2026-04-24T10:21:04Z</time></trkpt><trkpt lat="44.13769390955695" lon="10.34667578529765"><ele>548.0</ele><time>2026-04-24T10:21:05Z</time></trkpt><trkpt lat="44.13752807760766" lon="10.346601243770436"><ele>548.0</ele><time>2026-04-24T10:21:06Z</time></trkpt><trkpt lat="44.13737506951713" lon="10.346547269757588"><ele>548.25</ele><time>2026-04-24T10:21:07Z</time></trkpt><trkpt lat="44.13724291465536" lon="10.346488659474726"><ele>548.5</ele><time>2026-04-24T10:21:08Z</time></trkpt><trkpt lat="44.13711517503482" lon="10.346432934802655"><ele>548.75</ele><time>2026-04-24T10:21:09Z</time></trkpt><trkpt lat="44.1369968839397" lon="10.346395870276048"><ele>549.0</ele><time>2026-04-24T10:21:10Z</time></trkpt><trkpt lat="44.136889523608694" lon="10.346353154565318"><ele>549.0</ele><time>2026-04-24T10:21:11Z</time></trkpt><trkpt lat="44.136787093534124" lon="10.346276756394266"><ele>549.0</ele><time>2026-04-24T10:21:12Z</time></trkpt><trkpt lat="44.13670225482686" lon="10.34616402012835"><ele>549.0</ele><time>2026-04-24T10:21:13Z</time></trkpt><trkpt lat="44.13664013947744" lon="10.346020140326088"><ele>549.0</ele><time>2026-04-24T10:21:14Z</time></trkpt><trkpt lat="44.13659689359955" lon="10.345851745969211"><ele>549.0</ele><time>2026-04-24T10:21:15Z</time></trkpt><trkpt lat="44.13658112200359" lon="10.34568159360851"><ele>549.0</ele><time>2026-04-24T10:21:16Z</time></trkpt><trkpt lat="44.136598009218865" lon="10.345521093737018"><ele>549.0</ele><time>2026-04-24T10:21:17Z</time></trkpt><trkpt lat="44.13662514144504" lon="10.345357750820181"><ele>549.0</ele><time>2026-04-24T10:21:18Z</time></trkpt><trkpt lat="44.136654368286514" lon="10.345233914455456"><ele>547.6</ele><time>2026-04-24T10:21:19Z</time></trkpt><trkpt lat="44.136664473845784" lon="10.345125049377117"><ele>546.2</ele><time>2026-04-24T10:21:20Z</time></trkpt><trkpt lat="44.1366339689417" lon="10.345024186461343"><ele>544.8000000000001</ele><time>2026-04-24T10:21:21Z</time></trkpt><trkpt lat="44.13656463157553" lon="10.344940108758891"><ele>543.4</ele><time>2026-04-24T10:21:22Z</time></trkpt><trkpt lat="44.136468403293804" lon="10.34490324779039"><ele>542.0</ele><time>2026-04-24T10:21:23Z</time></trkpt><trkpt lat="44.13636522056764" lon="10.34493051724685"><ele>546.0</ele><time>2026-04-24T10:21:24Z</time></trkpt><trkpt lat="44.136277366409985" lon="10.345012459511986"><ele>550.0</ele><time>2026-04-24T10:21:25Z</time></trkpt><trkpt lat="44.13620449479778" lon="10.345145451750666"><ele>554.0</ele><time>2026-04-24T10:21:26Z</time></trkpt><trkpt lat="44.13612000326221" lon="10.34530046149431"><ele>558.0</ele><time>2026-04-24T10:21:27Z</time></trkpt><trkpt lat="44.13604201915135" lon="10.345401809333408"><ele>558.0</ele><time>2026-04-24T10:21:28Z</time></trkpt><trkpt lat="44.13595715662733" lon="10.345461016298357"><ele>558.0</ele><time>2026-04-24T10:21:29Z</time></trkpt><trkpt lat="44.13586371266909" lon="10.345472518568664"><ele>558.0</ele><time>2026-04-24T10:21:30Z</time></trkpt><trkpt lat="44.13577765062714" lon="10.345436580152837"><ele>558.0</ele><time>2026-04-24T10:21:31Z</time></trkpt><trkpt lat="44.135710847193245" lon="10.345343048466031"><ele>558.0</ele><time>2026-04-24T10:21:32Z</time></trkpt><trkpt lat="44.135651547047075" lon="10.345213996223228"><ele>567.0</ele><time>2026-04-24T10:21:33Z</time></trkpt><trkpt lat="44.135594559276946" lon="10.345048148838316"><ele>576.0</ele><time>2026-04-24T10:21:34Z</time></trkpt><trkpt lat="44.13552817246188" lon="10.344875435794131"><ele>585.0</ele><time>2026-04-24T10:21:35Z</time></trkpt><trkpt lat="44.135481284576535" lon="10.344728216178014"><ele>594.0</ele><time>2026-04-24T10:21:36Z</time></trkpt><trkpt lat="44.135467302728834" lon="10.344573708863418"><ele>594.0</ele><time>2026-04-24T10:21:37Z</time></trkpt><trkpt lat="44.13548632490773" lon="10.344399452606437"><ele>594.0</ele><time>2026-04-24T10:21:38Z</time></trkpt><trkpt lat="44.13552997421974" lon="10.344200401965907"><ele>594.0</ele><time>2026-04-24T10:21:39Z</time></trkpt><trkpt lat="44.13558526364801" lon="10.343977572623096"><ele>594.0</ele><time>2026-04-24T10:21:40Z</time></trkpt><trkpt lat="44.1356362661197" lon="10.343729803026616"><ele>594.0</ele><time>2026-04-24T10:21:41Z</time></trkpt><trkpt lat="44.13568782549949" lon="10.343469898072854"><ele>594.0</ele><time>2026-04-24T10:21:42Z</time></trkpt><trkpt lat="44.135741531708085" lon="10.34324617139948"><ele>594.0</ele><time>2026-04-24T10:21:43Z</time></trkpt><trkpt lat="44.13578241863547" lon="10.343042063577071"><ele>588.5</ele><time>2026-04-24T10:21:44Z</time></trkpt><trkpt lat="44.1358233263763" lon="10.342856351039153"><ele>583.0</ele><time>2026-04-24T10:21:45Z</time></trkpt><trkpt lat="44.13586176518284" lon="10.342697659575647"><ele>577.5</ele><time>2026-04-24T10:21:46Z</time></trkpt><trkpt lat="44.13589504622313" lon="10.342555794927355"><ele>572.0</ele><time>2026-04-24T10:21:47Z</time></trkpt><trkpt lat="44.135919840525595" lon="10.342443624850226"><ele>572.0</ele><time>2026-04-24T10:21:48Z</time></trkpt><trkpt lat="44.135919609460416" lon="10.342354548075695"><ele>572.0</ele><time>2026-04-24T10:21:49Z</time></trkpt><trkpt lat="44.135858438971844" lon="10.342225763181146"><ele>572.0</ele><time>2026-04-24T10:21:51Z</time></trkpt><trkpt lat="44.1357613264352" lon="10.342207395949572"><ele>572.0</ele><time>2026-04-24T10:21:52Z</time></trkpt><trkpt lat="44.13567972308653" lon="10.3422542124023"><ele>572.0</ele><time>2026-04-24T10:21:53Z</time></trkpt><trkpt lat="44.135625077234316" lon="10.34237075126409"><ele>578.75</ele><time>2026-04-24T10:21:54Z</time></trkpt><trkpt lat="44.13560203618194" lon="10.34251776769993"><ele>585.5</ele><time>2026-04-24T10:21:55Z</time></trkpt><trkpt lat="44.135590779683795" lon="10.342675166002918"><ele>592.25</ele><time>2026-04-24T10:21:56Z</time></trkpt><trkpt lat="44.13554234126083" lon="10.342829008699638"><ele>599.0</ele><time>2026-04-24T10:21:57Z</time></trkpt><trkpt lat="44.13546707203338" lon="10.342964227218353"><ele>597.75</ele><time>2026-04-24T10:21:58Z</time></trkpt><trkpt lat="44.13538340069514" lon="10.343085947195092"><ele>596.5</ele><time>2026-04-24T10:21:59Z</time></trkpt><trkpt lat="44.13528842466431" lon="10.343216370991618"><ele>595.25</ele><time>2026-04-24T10:22:00Z</time></trkpt><trkpt lat="44.13519488539381" lon="10.343358169608594"><ele>594.0</ele><time>2026-04-24T10:22:01Z</time></trkpt><trkpt lat="44.13513189482238" lon="10.3435406110029"><ele>594.0</ele><time>2026-04-24T10:22:02Z</time></trkpt><trkpt lat="44.13508525787586" lon="10.343745062424727"><ele>594.0</ele><time>2026-04-24T10:22:03Z</time></trkpt><trkpt lat="44.13507474596272" lon="10.343956555272499"><ele>594.0</ele><time>2026-04-24T10:22:04Z</time></trkpt><trkpt lat="44.13505209383345" lon="10.344182759711671"><ele>594.0</ele><time>2026-04-24T10:22:05Z</time></trkpt><trkpt lat="44.13504904960692" lon="10.344413233744186"><ele>594.0</ele><time>2026-04-24T10:22:06Z</time></trkpt><trkpt lat="44.135055418959766" lon="10.34462032891528"><ele>594.0</ele><time>2026-04-24T10:22:07Z</time></trkpt><trkpt lat="44.13508811119753" lon="10.344811088262512"><ele>594.25</ele><time>2026-04-24T10:22:08Z</time></trkpt><trkpt lat="44.13511262799645" lon="10.345007311642355"><ele>594.5</ele><time>2026-04-24T10:22:09Z</time></trkpt><trkpt lat="44.135120041187704" lon="10.345210956589217"><ele>594.75</ele><time>2026-04-24T10:22:10Z</time></trkpt><trkpt lat="44.135117069198444" lon="10.345429622780177"><ele>595.0</ele><time>2026-04-24T10:22:11Z</time></trkpt><trkpt lat="44.13511335211112" lon="10.345645335782182"><ele>595.5</ele><time>2026-04-24T10:22:12Z</time></trkpt><trkpt lat="44.13513408780561" lon="10.345876307958656"><ele>596.0</ele><time>2026-04-24T10:22:13Z</time></trkpt><trkpt lat="44.135162030164786" lon="10.346058741066312"><ele>596.5</ele><time>2026-04-24T10:22:14Z</time></trkpt><trkpt lat="44.13519165337417" lon="10.346223217235568"><ele>597.0</ele><time>2026-04-24T10:22:15Z</time></trkpt><trkpt lat="44.13522098337211" lon="10.346367285330253"><ele>598.0</ele><time>2026-04-24T10:22:16Z</time></trkpt><trkpt lat="44.135246172272964" lon="10.34649101256737"><ele>599.0</ele><time>2026-04-24T10:22:17Z</time></trkpt><trkpt lat="44.13526321277605" lon="10.34660933924115"><ele>600.0</ele><time>2026-04-24T10:22:18Z</time></trkpt><trkpt lat="44.135273959481815" lon="10.346713051375835"><ele>601.0</ele><time>2026-04-24T10:22:19Z</time></trkpt><trkpt lat="44.13526345913297" lon="10.34680139442864"><ele>602.0</ele><time>2026-04-24T10:22:20Z</time></trkpt><trkpt lat="44.13522695017015" lon="10.346886161231346"><ele>603.0</ele><time>2026-04-24T10:22:21Z</time></trkpt><trkpt lat="44.1351609147013" lon="10.346971792906054"><ele>603.0</ele><time>2026-04-24T10:22:22Z</time></trkpt><trkpt lat="44.13507368056767" lon="10.34702144476913"><ele>603.0</ele><time>2026-04-24T10:22:23Z</time></trkpt><trkpt lat="44.13496705967349" lon="10.347019264003892"><ele>603.0</ele><time>2026-04-24T10:22:24Z</time></trkpt><trkpt lat="44.13484360007455" lon="10.346977406006497"><ele>603.0</ele><time>2026-04-24T10:22:25Z</time></trkpt><trkpt lat="44.13469010582108" lon="10.346953558315214"><ele>606.0</ele><time>2026-04-24T10:22:26Z</time></trkpt><trkpt lat="44.134562225695085" lon="10.346915418121858"><ele>609.0</ele><time>2026-04-24T10:22:27Z</time></trkpt><trkpt lat="44.13445999215145" lon="10.346881379478502"><ele>612.0</ele><time>2026-04-24T10:22:28Z</time></trkpt><trkpt lat="44.13436606360732" lon="10.346817962236733"><ele>615.0</ele><time>2026-04-24T10:22:29Z</time></trkpt><trkpt lat="44.13429017712824" lon="10.346697755356079"><ele>615.0</ele><time>2026-04-24T10:22:30Z</time></trkpt><trkpt lat="44.13424133055917" lon="10.346535711905426"><ele>615.0</ele><time>2026-04-24T10:22:31Z</time></trkpt><trkpt lat="44.13423205644183" lon="10.346345494663634"><ele>615.0</ele><time>2026-04-24T10:22:32Z</time></trkpt><trkpt lat="44.134268933013445" lon="10.346188551993867"><ele>615.0</ele><time>2026-04-24T10:22:33Z</time></trkpt><trkpt lat="44.134336387230974" lon="10.346009001918455"><ele>614.25</ele><time>2026-04-24T10:22:34Z</time></trkpt><trkpt lat="44.134409412871" lon="10.345825724389595"><ele>613.5</ele><time>2026-04-24T10:22:35Z</time></trkpt><trkpt lat="44.13447534631147" lon="10.345638587298973"><ele>612.75</ele><time>2026-04-24T10:22:36Z</time></trkpt><trkpt lat="44.13453759735843" lon="10.345460833057137"><ele>612.0</ele><time>2026-04-24T10:22:37Z</time></trkpt><trkpt lat="44.134591865398164" lon="10.345307664398112"><ele>614.25</ele><time>2026-04-24T10:22:38Z</time></trkpt><trkpt lat="44.134641653678486" lon="10.345145444874841"><ele>616.5</ele><time>2026-04-24T10:22:39Z</time></trkpt><trkpt lat="44.134663025399455" lon="10.344978712641261"><ele>618.75</ele><time>2026-04-24T10:22:40Z</time></trkpt><trkpt lat="44.134638607914304" lon="10.344819516106181"><ele>621.0</ele><time>2026-04-24T10:22:41Z</time></trkpt><trkpt lat="44.134585261034324" lon="10.344634315587758"><ele>623.0</ele><time>2026-04-24T10:22:42Z</time></trkpt><trkpt lat="44.13451934906999" lon="10.34442521986129"><ele>625.0</ele><time>2026-04-24T10:22:43Z</time></trkpt><trkpt lat="44.13444665151467" lon="10.344189755179368"><ele>627.0</ele><time>2026-04-24T10:22:44Z</time></trkpt><trkpt lat="44.134389630489665" lon="10.343934967640763"><ele>626.6666666666666</ele><time>2026-04-24T10:22:45Z</time></trkpt><trkpt lat="44.1343259669042" lon="10.343694337313265"><ele>626.3333333333333</ele><time>2026-04-24T10:22:46Z</time></trkpt><trkpt lat="44.13427342536907" lon="10.34348234642675"><ele>626.0</ele><time>2026-04-24T10:22:47Z</time></trkpt><trkpt lat="44.134236605954555" lon="10.343297991100336"><ele>626.0</ele><time>2026-04-24T10:22:48Z</time></trkpt><trkpt lat="44.134203055561194" lon="10.343094976370821"><ele>626.0</ele><time>2026-04-24T10:22:49Z</time></trkpt><trkpt lat="44.13420066005543" lon="10.34289405803084"><ele>626.0</ele><time>2026-04-24T10:22:50Z</time></trkpt><trkpt lat="44.13421770678933" lon="10.34270134003207"><ele>626.0</ele><time>2026-04-24T10:22:51Z</time></trkpt><trkpt lat="44.134253846464446" lon="10.342501526830842"><ele>629.0</ele><time>2026-04-24T10:22:52Z</time></trkpt><trkpt lat="44.13431020701002" lon="10.342303591960679"><ele>632.0</ele><time>2026-04-24T10:22:53Z</time></trkpt><trkpt lat="44.13438816173293" lon="10.34211234780886"><ele>635.0</ele><time>2026-04-24T10:22:54Z</time></trkpt><trkpt lat="44.13449072524749" lon="10.341933298255203"><ele>631.25</ele><time>2026-04-24T10:22:55Z</time></trkpt><trkpt lat="44.13460809609991" lon="10.341780315471476"><ele>627.5</ele><time>2026-04-24T10:22:56Z</time></trkpt><trkpt lat="44.13471876341686" lon="10.341646218235232"><ele>623.75</ele><time>2026-04-24T10:22:57Z</time></trkpt><trkpt lat="44.13482089639821" lon="10.341530719632074"><ele>620.0</ele><time>2026-04-24T10:22:58Z</time></trkpt><trkpt lat="44.13492609103497" lon="10.34140082590877"><ele>627.6666666666666</ele><time>2026-04-24T10:22:59Z</time></trkpt><trkpt lat="44.135025048941614" lon="10.341248335036314"><ele>635.3333333333334</ele><time>2026-04-24T10:23:00Z</time></trkpt><trkpt lat="44.135110689065826" lon="10.341057079652844"><ele>643.0</ele><time>2026-04-24T10:23:01Z</time></trkpt><trkpt lat="44.13520869970941" lon="10.340852174720865"><ele>643.0</ele><time>2026-04-24T10:23:02Z</time></trkpt><trkpt lat="44.135292097488005" lon="10.34065173125159"><ele>643.0</ele><time>2026-04-24T10:23:03Z</time></trkpt><trkpt lat="44.13536428039032" lon="10.340472713042814"><ele>643.0</ele><time>2026-04-24T10:23:04Z</time></trkpt><trkpt lat="44.13542896680604" lon="10.340276091584759"><ele>648.0</ele><time>2026-04-24T10:23:05Z</time></trkpt><trkpt lat="44.1354972805117" lon="10.340085134171561"><ele>653.0</ele><time>2026-04-24T10:23:06Z</time></trkpt><trkpt lat="44.135546413980535" lon="10.339874759673048"><ele>658.0</ele><time>2026-04-24T10:23:07Z</time></trkpt><trkpt lat="44.135580829587646" lon="10.339677133129175"><ele>659.0</ele><time>2026-04-24T10:23:08Z</time></trkpt><trkpt lat="44.135618520497545" lon="10.33946424940243"><ele>660.0</ele><time>2026-04-24T10:23:09Z</time></trkpt><trkpt lat="44.13562022248219" lon="10.33924374683633"><ele>661.0</ele><time>2026-04-24T10:23:10Z</time></trkpt><trkpt lat="44.13558134889448" lon="10.339032398214105"><ele>660.0</ele><time>2026-04-24T10:23:11Z</time></trkpt><trkpt lat="44.13555112095977" lon="10.338813842309795"><ele>659.0</ele><time>2026-04-24T10:23:12Z</time></trkpt><trkpt lat="44.13547590741373" lon="10.3386150996538"><ele>658.0</ele><time>2026-04-24T10:23:13Z</time></trkpt><trkpt lat="44.135399660093974" lon="10.338421216535668"><ele>658.0</ele><time>2026-04-24T10:23:14Z</time></trkpt><trkpt lat="44.13530011667352" lon="10.338225251551446"><ele>658.0</ele><time>2026-04-24T10:23:15Z</time></trkpt><trkpt lat="44.13520397041903" lon="10.338045189056354"><ele>658.0</ele><time>2026-04-24T10:23:16Z</time></trkpt><trkpt lat="44.13512328769442" lon="10.33789026274502"><ele>656.1666666666667</ele><time>2026-04-24T10:23:17Z</time></trkpt><trkpt lat="44.13505744814892" lon="10.337757008764477"><ele>654.3333333333334</ele><time>2026-04-24T10:23:18Z</time></trkpt><trkpt lat="44.13501072774113" lon="10.337657197962573"><ele>652.5</ele><time>2026-04-24T10:23:19Z</time></trkpt><trkpt lat="44.13496502504807" lon="10.337579768959664"><ele>650.6666666666666</ele><time>2026-04-24T10:23:20Z</time></trkpt><trkpt lat="44.13490078872044" lon="10.337541076498578"><ele>648.8333333333333</ele><time>2026-04-24T10:23:21Z</time></trkpt><trkpt lat="44.13484005787493" lon="10.337574876809235"><ele>647.0</ele><time>2026-04-24T10:23:22Z</time></trkpt><trkpt lat="44.13479194794982" lon="10.33765518034668"><ele>647.0</ele><time>2026-04-24T10:23:23Z</time></trkpt><trkpt lat="44.13479685652309" lon="10.337758351186404"><ele>647.0</ele><time>2026-04-24T10:23:24Z</time></trkpt><trkpt lat="44.13485070423339" lon="10.337850754129981"><ele>647.0</ele><time>2026-04-24T10:23:25Z</time></trkpt><trkpt lat="44.13493503709411" lon="10.337951347606625"><ele>647.0</ele><time>2026-04-24T10:23:26Z</time></trkpt><trkpt lat="44.13503092165926" lon="10.33807634381324"><ele>647.0</ele><time>2026-04-24T10:23:27Z</time></trkpt><trkpt lat="44.13511221020621" lon="10.338231724422675"><ele>649.75</ele><time>2026-04-24T10:23:28Z</time></trkpt><trkpt lat="44.13517640516373" lon="10.338388423923645"><ele>652.5</ele><time>2026-04-24T10:23:29Z</time></trkpt><trkpt lat="44.135216677672304" lon="10.338549508963359"><ele>655.25</ele><time>2026-04-24T10:23:30Z</time></trkpt><trkpt lat="44.1352121524385" lon="10.338726727356008"><ele>658.0</ele><time>2026-04-24T10:23:31Z</time></trkpt><trkpt lat="44.13520985420128" lon="10.338884922525843"><ele>658.75</ele><time>2026-04-24T10:23:32Z</time></trkpt><trkpt lat="44.13519917766902" lon="10.339051978905603"><ele>659.5</ele><time>2026-04-24T10:23:33Z</time></trkpt><trkpt lat="44.1351393811965" lon="10.339201412841437"><ele>660.25</ele><time>2026-04-24T10:23:34Z</time></trkpt><trkpt lat="44.13507009935301" lon="10.339334397861718"><ele>661.0</ele><time>2026-04-24T10:23:35Z</time></trkpt><trkpt lat="44.134973756453896" lon="10.339488383050378"><ele>664.25</ele><time>2026-04-24T10:23:36Z</time></trkpt><trkpt lat="44.13486512557328" lon="10.339656149113969"><ele>667.5</ele><time>2026-04-24T10:23:37Z</time></trkpt><trkpt lat="44.13477611995911" lon="10.339792569911433"><ele>670.75</ele><time>2026-04-24T10:23:38Z</time></trkpt><trkpt lat="44.13469772038323" lon="10.339915484994782"><ele>674.0</ele><time>2026-04-24T10:23:39Z</time></trkpt><trkpt lat="44.13463722946013" lon="10.340014347764532"><ele>674.0</ele><time>2026-04-24T10:23:40Z</time></trkpt><trkpt lat="44.134537631364175" lon="10.340099493628898"><ele>674.0</ele><time>2026-04-24T10:23:42Z</time></trkpt><trkpt lat="44.134444746612445" lon="10.340006179194564"><ele>674.0</ele><time>2026-04-24T10:23:44Z</time></trkpt><trkpt lat="44.134422129736954" lon="10.339909418485846"><ele>674.0</ele><time>2026-04-24T10:23:45Z</time></trkpt><trkpt lat="44.13448227913948" lon="10.339807686325491"><ele>674.0</ele><time>2026-04-24T10:23:46Z</time></trkpt><trkpt lat="44.1345528947229" lon="10.339759987463896"><ele>676.25</ele><time>2026-04-24T10:23:47Z</time></trkpt><trkpt lat="44.13463869704757" lon="10.339671841778976"><ele>678.5</ele><time>2026-04-24T10:23:48Z</time></trkpt><trkpt lat="44.134734965937504" lon="10.339555773241457"><ele>680.75</ele><time>2026-04-24T10:23:49Z</time></trkpt><trkpt lat="44.13482152459764" lon="10.339424430404307"><ele>683.0</ele><time>2026-04-24T10:23:50Z</time></trkpt><trkpt lat="44.13488652707546" lon="10.339296393268773"><ele>683.0</ele><time>2026-04-24T10:23:51Z</time></trkpt><trkpt lat="44.13485239541903" lon="10.339130517453825"><ele>683.0</ele><time>2026-04-24T10:23:52Z</time></trkpt><trkpt lat="44.13481109746299" lon="10.33897992561034"><ele>683.0</ele><time>2026-04-24T10:23:53Z</time></trkpt><trkpt lat="44.13472200822919" lon="10.338817806490871"><ele>683.0</ele><time>2026-04-24T10:23:54Z</time></trkpt><trkpt lat="44.13463411041789" lon="10.338614450817657"><ele>683.6666666666666</ele><time>2026-04-24T10:23:55Z</time></trkpt><trkpt lat="44.13451870259971" lon="10.338427358046147"><ele>684.3333333333334</ele><time>2026-04-24T10:23:56Z</time></trkpt><trkpt lat="44.13441066001566" lon="10.338210541408257"><ele>685.0</ele><time>2026-04-24T10:23:57Z</time></trkpt><trkpt lat="44.1343450195928" lon="10.33796213235567"><ele>682.6666666666667</ele><time>2026-04-24T10:23:58Z</time></trkpt><trkpt lat="44.134277717911424" lon="10.337721405702776"><ele>680.3333333333334</ele><time>2026-04-24T10:23:59Z</time></trkpt><trkpt lat="44.13421270493138" lon="10.337516458054424"><ele>678.0</ele><time>2026-04-24T10:24:00Z</time></trkpt><trkpt lat="44.1341240344091" lon="10.337308145000906"><ele>687.75</ele><time>2026-04-24T10:24:01Z</time></trkpt><trkpt lat="44.13402182426353" lon="10.337122400979911"><ele>697.5</ele><time>2026-04-24T10:24:02Z</time></trkpt><trkpt lat="44.13392350745323" lon="10.33697321773922"><ele>707.25</ele><time>2026-04-24T10:24:03Z</time></trkpt><trkpt lat="44.13385022544203" lon="10.336820485710726"><ele>717.0</ele><time>2026-04-24T10:24:04Z</time></trkpt><trkpt lat="44.133802621547446" lon="10.336663652740128"><ele>717.0</ele><time>2026-04-24T10:24:05Z</time></trkpt><trkpt lat="44.13380344555083" lon="10.336480924088564"><ele>717.0</ele><time>2026-04-24T10:24:06Z</time></trkpt><trkpt lat="44.1338096839218" lon="10.336298931606928"><ele>717.0</ele><time>2026-04-24T10:24:07Z</time></trkpt><trkpt lat="44.13384214004362" lon="10.33610584731186"><ele>717.0</ele><time>2026-04-24T10:24:08Z</time></trkpt><trkpt lat="44.133884439326714" lon="10.335858094475412"><ele>714.75</ele><time>2026-04-24T10:24:09Z</time></trkpt><trkpt lat="44.133909569933486" lon="10.33565296925837"><ele>712.5</ele><time>2026-04-24T10:24:10Z</time></trkpt><trkpt lat="44.13394658076619" lon="10.335476692876025"><ele>710.25</ele><time>2026-04-24T10:24:11Z</time></trkpt><trkpt lat="44.133971952250484" lon="10.335344643072464"><ele>708.0</ele><time>2026-04-24T10:24:12Z</time></trkpt><trkpt lat="44.13396313874007" lon="10.335217076310197"><ele>703.0</ele><time>2026-04-24T10:24:13Z</time></trkpt><trkpt lat="44.133926011475694" lon="10.335076465617869"><ele>698.0</ele><time>2026-04-24T10:24:14Z</time></trkpt><trkpt lat="44.13385548221776" lon="10.334955472203525"><ele>693.0</ele><time>2026-04-24T10:24:15Z</time></trkpt><trkpt lat="44.13375159257844" lon="10.334871620844083"><ele>688.0</ele><time>2026-04-24T10:24:16Z</time></trkpt><trkpt lat="44.13363426841392" lon="10.334829756951358"><ele>688.0</ele><time>2026-04-24T10:24:17Z</time></trkpt><trkpt lat="44.13351992406751" lon="10.334842264035055"><ele>688.0</ele><time>2026-04-24T10:24:18Z</time></trkpt><trkpt lat="44.13339972320459" lon="10.334915730670343"><ele>688.0</ele><time>2026-04-24T10:24:19Z</time></trkpt><trkpt lat="44.13326377339973" lon="10.335028897032636"><ele>688.0</ele><time>2026-04-24T10:24:20Z</time></trkpt><trkpt lat="44.13311715610011" lon="10.335145256546198"><ele>690.0</ele><time>2026-04-24T10:24:21Z</time></trkpt><trkpt lat="44.13297716886216" lon="10.335243231903139"><ele>692.0</ele><time>2026-04-24T10:24:22Z</time></trkpt><trkpt lat="44.132864265012245" lon="10.33531952999396"><ele>694.0</ele><time>2026-04-24T10:24:23Z</time></trkpt><trkpt lat="44.13276131780884" lon="10.335353994900444"><ele>696.0</ele><time>2026-04-24T10:24:24Z</time></trkpt><trkpt lat="44.13266020861655" lon="10.33533242707163"><ele>696.0</ele><time>2026-04-24T10:24:25Z</time></trkpt><trkpt lat="44.13258237897149" lon="10.335245535949952"><ele>696.0</ele><time>2026-04-24T10:24:26Z</time></trkpt><trkpt lat="44.13255085172155" lon="10.335091265528375"><ele>696.0</ele><time>2026-04-24T10:24:27Z</time></trkpt><trkpt lat="44.1325213001409" lon="10.334950157410875"><ele>696.0</ele><time>2026-04-24T10:24:28Z</time></trkpt><trkpt lat="44.13249607909115" lon="10.334851701578085"><ele>696.0</ele><time>2026-04-24T10:24:29Z</time></trkpt><trkpt lat="44.132452752094586" lon="10.334784598338944"><ele>697.8</ele><time>2026-04-24T10:24:30Z</time></trkpt><trkpt lat="44.13237314592416" lon="10.334749225049345"><ele>699.5999999999999</ele><time>2026-04-24T10:24:31Z</time></trkpt><trkpt lat="44.132285954946575" lon="10.334768851129448"><ele>701.4</ele><time>2026-04-24T10:24:32Z</time></trkpt><trkpt lat="44.13220421703704" lon="10.334852714396146"><ele>703.2</ele><time>2026-04-24T10:24:33Z</time></trkpt><trkpt lat="44.13217159488664" lon="10.33499149395656"><ele>705.0</ele><time>2026-04-24T10:24:34Z</time></trkpt><trkpt lat="44.13218406718866" lon="10.33516829048924"><ele>705.0</ele><time>2026-04-24T10:24:35Z</time></trkpt><trkpt lat="44.132222374907045" lon="10.335370006856257"><ele>705.0</ele><time>2026-04-24T10:24:36Z</time></trkpt><trkpt lat="44.132250756146064" lon="10.335579663969378"><ele>705.0</ele><time>2026-04-24T10:24:37Z</time></trkpt><trkpt lat="44.1322671488306" lon="10.33573120001098"><ele>705.0</ele><time>2026-04-24T10:24:38Z</time></trkpt><trkpt lat="44.13230530940751" lon="10.335852044071336"><ele>707.0</ele><time>2026-04-24T10:24:39Z</time></trkpt><trkpt lat="44.13237420364612" lon="10.335945088762035"><ele>709.0</ele><time>2026-04-24T10:24:40Z</time></trkpt><trkpt lat="44.13248406547868" lon="10.335994022955928"><ele>711.0</ele><time>2026-04-24T10:24:41Z</time></trkpt><trkpt lat="44.132607663010326" lon="10.335996957903426"><ele>713.0</ele><time>2026-04-24T10:24:42Z</time></trkpt><trkpt lat="44.12415925953997" lon="10.332670897780334"><ele>741.75</ele><time>2026-04-24T10:26:26Z</time></trkpt><trkpt lat="44.124004104657914" lon="10.332599481082111"><ele>770.5</ele><time>2026-04-24T10:26:27Z</time></trkpt><trkpt lat="44.12386908989173" lon="10.332527961795487"><ele>799.25</ele><time>2026-04-24T10:26:28Z</time></trkpt><trkpt lat="44.12373581154558" lon="10.332463597825964"><ele>828.0</ele><time>2026-04-24T10:26:29Z</time></trkpt><trkpt lat="44.12358399006209" lon="10.332435511786592"><ele>828.0</ele><time>2026-04-24T10:26:30Z</time></trkpt><trkpt lat="44.12342836300566" lon="10.332440802518377"><ele>828.0</ele><time>2026-04-24T10:26:31Z</time></trkpt><trkpt lat="44.12328811957038" lon="10.33242458377138"><ele>828.0</ele><time>2026-04-24T10:26:32Z</time></trkpt><trkpt lat="44.12315137174188" lon="10.33244048561645"><ele>828.0</ele><time>2026-04-24T10:26:33Z</time></trkpt><trkpt lat="44.1230321811043" lon="10.33242740358191"><ele>831.2</ele><time>2026-04-24T10:26:34Z</time></trkpt><trkpt lat="44.12293758064922" lon="10.332421440266515"><ele>834.4</ele><time>2026-04-24T10:26:35Z</time></trkpt><trkpt lat="44.12285863401025" lon="10.332396520497104"><ele>837.6</ele><time>2026-04-24T10:26:36Z</time></trkpt><trkpt lat="44.122777337825006" lon="10.332355545837284"><ele>840.8000000000001</ele><time>2026-04-24T10:26:37Z</time></trkpt><trkpt lat="44.12270908241155" lon="10.332271933745428"><ele>844.0</ele><time>2026-04-24T10:26:38Z</time></trkpt><trkpt lat="44.122658563486" lon="10.332006793702043"><ele>847.75</ele><time>2026-04-24T10:26:40Z</time></trkpt><trkpt lat="44.12268748934708" lon="10.331869892730648"><ele>851.5</ele><time>2026-04-24T10:26:41Z</time></trkpt><trkpt lat="44.12278665796296" lon="10.33181658223853"><ele>855.25</ele><time>2026-04-24T10:26:42Z</time></trkpt><trkpt lat="44.122889270268445" lon="10.331723926920853"><ele>859.0</ele><time>2026-04-24T10:26:43Z</time></trkpt><trkpt lat="44.122992385430955" lon="10.331609098504876"><ele>859.0</ele><time>2026-04-24T10:26:44Z</time></trkpt><trkpt lat="44.12308908730356" lon="10.331496582055378"><ele>859.0</ele><time>2026-04-24T10:26:45Z</time></trkpt><trkpt lat="44.12318159060782" lon="10.331373952527333"><ele>859.0</ele><time>2026-04-24T10:26:46Z</time></trkpt><trkpt lat="44.12326829134652" lon="10.331266268181132"><ele>859.0</ele><time>2026-04-24T10:26:47Z</time></trkpt><trkpt lat="44.12336229739743" lon="10.33115870184661"><ele>856.5</ele><time>2026-04-24T10:26:48Z</time></trkpt><trkpt lat="44.123475938071856" lon="10.331084696785613"><ele>854.0</ele><time>2026-04-24T10:26:49Z</time></trkpt><trkpt lat="44.12359831857637" lon="10.331034558870526"><ele>851.5</ele><time>2026-04-24T10:26:50Z</time></trkpt><trkpt lat="44.12371164532301" lon="10.331013301318704"><ele>849.0</ele><time>2026-04-24T10:26:51Z</time></trkpt><trkpt lat="44.123818755602024" lon="10.330965261119356"><ele>849.0</ele><time>2026-04-24T10:26:52Z</time></trkpt><trkpt lat="44.123923025061316" lon="10.330888100609371"><ele>849.0</ele><time>2026-04-24T10:26:53Z</time></trkpt><trkpt lat="44.12401502807609" lon="10.330821208112091"><ele>849.0</ele><time>2026-04-24T10:26:54Z</time></trkpt><trkpt lat="44.12412410203666" lon="10.330795783853198"><ele>849.0</ele><time>2026-04-24T10:26:55Z</time></trkpt><trkpt lat="44.1242608105869" lon="10.330837057360538"><ele>845.75</ele><time>2026-04-24T10:26:56Z</time></trkpt><trkpt lat="44.124407648894255" lon="10.330807572852029"><ele>842.5</ele><time>2026-04-24T10:26:57Z</time></trkpt><trkpt lat="44.12449725858264" lon="10.330799764727356"><ele>839.25</ele><time>2026-04-24T10:26:58Z</time></trkpt><trkpt lat="44.124615165221094" lon="10.33076907530139"><ele>836.0</ele><time>2026-04-24T10:26:59Z</time></trkpt><trkpt lat="44.12486694400085" lon="10.330723528873849"><ele>836.0</ele><time>2026-04-24T10:27:01Z</time></trkpt><trkpt lat="44.12498613732829" lon="10.330725238866545"><ele>836.0</ele><time>2026-04-24T10:27:02Z</time></trkpt><trkpt lat="44.12510867835713" lon="10.330730493462674"><ele>836.0</ele><time>2026-04-24T10:27:03Z</time></trkpt><trkpt lat="44.12523237880572" lon="10.330723269476053"><ele>836.0</ele><time>2026-04-24T10:27:04Z</time></trkpt><trkpt lat="44.12534090276395" lon="10.330703086078971"><ele>836.0000000000001</ele><time>2026-04-24T10:27:05Z</time></trkpt><trkpt lat="44.125443788243025" lon="10.330675994114817"><ele>836.0</ele><time>2026-04-24T10:27:06Z</time></trkpt><trkpt lat="44.12552758288507" lon="10.330647702140855"><ele>836.0</ele><time>2026-04-24T10:27:07Z</time></trkpt><trkpt lat="44.12559645214171" lon="10.33061701587797"><ele>836.0</ele><time>2026-04-24T10:27:08Z</time></trkpt><trkpt lat="44.125648788713285" lon="10.330549043695704"><ele>836.0000000000001</ele><time>2026-04-24T10:27:09Z</time></trkpt><trkpt lat="44.12565115847114" lon="10.330447035122566"><ele>836.0</ele><time>2026-04-24T10:27:10Z</time></trkpt><trkpt lat="44.125601630177165" lon="10.33034882910914"><ele>837.0</ele><time>2026-04-24T10:27:11Z</time></trkpt><trkpt lat="44.12552230226508" lon="10.330276528908893"><ele>838.0</ele><time>2026-04-24T10:27:12Z</time></trkpt><trkpt lat="44.12540968997147" lon="10.33020799331991"><ele>839.0</ele><time>2026-04-24T10:27:13Z</time></trkpt><trkpt lat="44.125295763076736" lon="10.330165463447566"><ele>840.0</ele><time>2026-04-24T10:27:14Z</time></trkpt><trkpt lat="44.125188421642825" lon="10.330124310626562"><ele>841.0</ele><time>2026-04-24T10:27:15Z</time></trkpt><trkpt lat="44.12506482634682" lon="10.330094201985565"><ele>841.0</ele><time>2026-04-24T10:27:16Z</time></trkpt><trkpt lat="44.12494023140106" lon="10.33006706306199"><ele>841.0</ele><time>2026-04-24T10:27:17Z</time></trkpt><trkpt lat="44.12480194478458" lon="10.330071520436041"><ele>841.0</ele><time>2026-04-24T10:27:18Z</time></trkpt><trkpt lat="44.12463172286528" lon="10.330075654951248"><ele>841.0</ele><time>2026-04-24T10:27:19Z</time></trkpt><trkpt lat="44.124448109541156" lon="10.330105340990478"><ele>848.5</ele><time>2026-04-24T10:27:20Z</time></trkpt><trkpt lat="44.12403222942996" lon="10.330178411880999"><ele>856.0</ele><time>2026-04-24T10:27:22Z</time></trkpt><trkpt lat="44.12383046351514" lon="10.330205382405955"><ele>856.0</ele><time>2026-04-24T10:27:23Z</time></trkpt><trkpt lat="44.123624528804775" lon="10.330249481691387"><ele>856.0</ele><time>2026-04-24T10:27:24Z</time></trkpt><trkpt lat="44.123439101617286" lon="10.330270808697193"><ele>856.0</ele><time>2026-04-24T10:27:25Z</time></trkpt><trkpt lat="44.12327988534" lon="10.330288330119869"><ele>862.0</ele><time>2026-04-24T10:27:26Z</time></trkpt><trkpt lat="44.12310609219281" lon="10.330296758346194"><ele>868.0</ele><time>2026-04-24T10:27:27Z</time></trkpt><trkpt lat="44.12293101460847" lon="10.3302789469081"><ele>874.0</ele><time>2026-04-24T10:27:28Z</time></trkpt><trkpt lat="44.122755056800614" lon="10.330236596651138"><ele>874.0</ele><time>2026-04-24T10:27:29Z</time></trkpt><trkpt lat="44.122594007462624" lon="10.330171535003773"><ele>874.0</ele><time>2026-04-24T10:27:30Z</time></trkpt><trkpt lat="44.122462219774" lon="10.330088655312977"><ele>874.0</ele><time>2026-04-24T10:27:31Z</time></trkpt><trkpt lat="44.12234373355139" lon="10.330000545210128"><ele>874.0</ele><time>2026-04-24T10:27:32Z</time></trkpt><trkpt lat="44.12225608443522" lon="10.329929630568428"><ele>901.0</ele><time>2026-04-24T10:27:33Z</time></trkpt><trkpt lat="44.12218646715233" lon="10.329875708136738"><ele>901.0</ele><time>2026-04-24T10:27:34Z</time></trkpt><trkpt lat="44.12215082550078" lon="10.329798993603198"><ele>901.0</ele><time>2026-04-24T10:27:35Z</time></trkpt><trkpt lat="44.12210303103458" lon="10.329700814183393"><ele>898.0</ele><time>2026-04-24T10:27:37Z</time></trkpt><trkpt lat="44.122000348340194" lon="10.329738484712218"><ele>901.0</ele><time>2026-04-24T10:27:38Z</time></trkpt><trkpt lat="44.121967917732704" lon="10.329640763114115"><ele>898.0</ele><time>2026-04-24T10:27:41Z</time></trkpt></trkseg><trkseg><trkpt lat="44.12202450206154" lon="10.329545726715235"><ele>897.9999999999999</ele><time>2026-04-24T10:48:29Z</time></trkpt><trkpt lat="44.1220713019291" lon="10.329470333289729"><ele>898.0</ele><time>2026-04-24T10:48:32Z</time></trkpt><trkpt lat="44.1220605008321" lon="10.329312012076405"><ele>898.0</ele><time>2026-04-24T10:48:34Z</time></trkpt><trkpt lat="44.12205810929929" lon="10.329202038398348"><ele>898.0</ele><time>2026-04-24T10:48:35Z</time></trkpt><trkpt lat="44.122061929820504" lon="10.329102094339394"><ele>897.9999999999999</ele><time>2026-04-24T10:48:36Z</time></trkpt><trkpt lat="44.122076884719114" lon="10.328989798970426"><ele>898.0</ele><time>2026-04-24T10:48:37Z</time></trkpt><trkpt lat="44.12209804553331" lon="10.328866861407322"><ele>897.0</ele><time>2026-04-24T10:48:38Z</time></trkpt><trkpt lat="44.122115872689875" lon="10.328735990734174"><ele>896.0</ele><time>2026-04-24T10:48:39Z</time></trkpt><trkpt lat="44.12213347752352" lon="10.328599282947762"><ele>895.0</ele><time>2026-04-24T10:48:40Z</time></trkpt><trkpt lat="44.122146347332155" lon="10.32845810348414"><ele>894.0</ele><time>2026-04-24T10:48:41Z</time></trkpt><trkpt lat="44.122148169923065" lon="10.328324967768236"><ele>893.0</ele><time>2026-04-24T10:48:42Z</time></trkpt><trkpt lat="44.1221373231293" lon="10.328208484161943"><ele>893.0</ele><time>2026-04-24T10:48:43Z</time></trkpt><trkpt lat="44.12212715429066" lon="10.328077591792669"><ele>893.0</ele><time>2026-04-24T10:48:44Z</time></trkpt><trkpt lat="44.122104584892504" lon="10.32793398206089"><ele>893.0</ele><time>2026-04-24T10:48:45Z</time></trkpt><trkpt lat="44.12206789144996" lon="10.32778732462647"><ele>893.0</ele><time>2026-04-24T10:48:46Z</time></trkpt><trkpt lat="44.12201905559338" lon="10.327640870998819"><ele>893.0</ele><time>2026-04-24T10:48:47Z</time></trkpt><trkpt lat="44.12196413947664" lon="10.327506867459485"><ele>892.2</ele><time>2026-04-24T10:48:48Z</time></trkpt><trkpt lat="44.12190317503904" lon="10.327378001053582"><ele>891.4</ele><time>2026-04-24T10:48:49Z</time></trkpt><trkpt lat="44.12182694811223" lon="10.327262536090444"><ele>890.6000000000001</ele><time>2026-04-24T10:48:50Z</time></trkpt><trkpt lat="44.12174426854795" lon="10.327159172718394"><ele>889.8000000000001</ele><time>2026-04-24T10:48:51Z</time></trkpt><trkpt lat="44.121655740952335" lon="10.32706347028078"><ele>889.0</ele><time>2026-04-24T10:48:52Z</time></trkpt><trkpt lat="44.12155920835719" lon="10.326982508808243"><ele>889.0</ele><time>2026-04-24T10:48:53Z</time></trkpt><trkpt lat="44.12145109110961" lon="10.326910302956978"><ele>889.0</ele><time>2026-04-24T10:48:54Z</time></trkpt><trkpt lat="44.12133922577957" lon="10.326838235382077"><ele>889.0</ele><time>2026-04-24T10:48:55Z</time></trkpt><trkpt lat="44.12122939727555" lon="10.326757444286958"><ele>889.0</ele><time>2026-04-24T10:48:56Z</time></trkpt><trkpt lat="44.12111863846363" lon="10.326675461498198"><ele>889.0</ele><time>2026-04-24T10:48:57Z</time></trkpt><trkpt lat="44.12101433671611" lon="10.326609101832782"><ele>889.0000000000001</ele><time>2026-04-24T10:48:58Z</time></trkpt><trkpt lat="44.12092784498797" lon="10.326549610367561"><ele>889.0000000000001</ele><time>2026-04-24T10:48:59Z</time></trkpt><trkpt lat="44.120861457212435" lon="10.326448081077332"><ele>889.0</ele><time>2026-04-24T10:49:00Z</time></trkpt><trkpt lat="44.12077865080257" lon="10.326375397580572"><ele>889.0</ele><time>2026-04-24T10:49:01Z</time></trkpt><trkpt lat="44.12071595747201" lon="10.326272813612553"><ele>889.8333333333333</ele><time>2026-04-24T10:49:02Z</time></trkpt><trkpt lat="44.12066899785313" lon="10.326162342580329"><ele>890.6666666666666</ele><time>2026-04-24T10:49:03Z</time></trkpt><trkpt lat="44.120606415711535" lon="10.326073877252547"><ele>891.5</ele><time>2026-04-24T10:49:04Z</time></trkpt><trkpt lat="44.12056545980869" lon="10.32597889300807"><ele>892.3333333333333</ele><time>2026-04-24T10:49:05Z</time></trkpt><trkpt lat="44.12053647549618" lon="10.325870415569383"><ele>893.1666666666666</ele><time>2026-04-24T10:49:06Z</time></trkpt><trkpt lat="44.120521387790205" lon="10.325765144879632"><ele>894.0</ele><time>2026-04-24T10:49:07Z</time></trkpt><trkpt lat="44.12051624978836" lon="10.325659277623055"><ele>892.6</ele><time>2026-04-24T10:49:08Z</time></trkpt><trkpt lat="44.12050768898976" lon="10.325494174039807"><ele>891.2</ele><time>2026-04-24T10:49:10Z</time></trkpt><trkpt lat="44.12048558391693" lon="10.32536302889228"><ele>889.8000000000001</ele><time>2026-04-24T10:49:12Z</time></trkpt><trkpt lat="44.12037650805857" lon="10.325336836037028"><ele>888.4000000000001</ele><time>2026-04-24T10:49:15Z</time></trkpt><trkpt lat="44.120294901684375" lon="10.32546251312179"><ele>887.0</ele><time>2026-04-24T10:49:17Z</time></trkpt><trkpt lat="44.120253042522855" lon="10.325549766080687"><ele>888.4000000000001</ele><time>2026-04-24T10:49:18Z</time></trkpt><trkpt lat="44.120206415966614" lon="10.325648370609965"><ele>889.8000000000001</ele><time>2026-04-24T10:49:19Z</time></trkpt><trkpt lat="44.12015026863133" lon="10.325762626343685"><ele>891.2</ele><time>2026-04-24T10:49:20Z</time></trkpt><trkpt lat="44.1200960079465" lon="10.325911009910518"><ele>892.6</ele><time>2026-04-24T10:49:21Z</time></trkpt><trkpt lat="44.12002813685124" lon="10.326070989918886"><ele>894.0</ele><time>2026-04-24T10:49:22Z</time></trkpt><trkpt lat="44.11996764273605" lon="10.326220108404865"><ele>894.0</ele><time>2026-04-24T10:49:23Z</time></trkpt><trkpt lat="44.119916899192035" lon="10.326342499194341"><ele>894.0000000000001</ele><time>2026-04-24T10:49:24Z</time></trkpt><trkpt lat="44.119851777740145" lon="10.32642384293065"><ele>894.0000000000001</ele><time>2026-04-24T10:49:25Z</time></trkpt><trkpt lat="44.119791605897454" lon="10.326538448374732"><ele>894.0</ele><time>2026-04-24T10:49:26Z</time></trkpt><trkpt lat="44.11969999548768" lon="10.326632449541686"><ele>894.0</ele><time>2026-04-24T10:49:27Z</time></trkpt><trkpt lat="44.11959490927136" lon="10.326743601198991"><ele>892.0</ele><time>2026-04-24T10:49:28Z</time></trkpt><trkpt lat="44.11948376118771" lon="10.326872413218618"><ele>890.0</ele><time>2026-04-24T10:49:29Z</time></trkpt><trkpt lat="44.11936635523502" lon="10.32701508617017"><ele>888.0</ele><time>2026-04-24T10:49:30Z</time></trkpt><trkpt lat="44.11922106078787" lon="10.327153616937718"><ele>889.0</ele><time>2026-04-24T10:49:31Z</time></trkpt><trkpt lat="44.119077934353186" lon="10.327320746776468"><ele>890.0</ele><time>2026-04-24T10:49:32Z</time></trkpt><trkpt lat="44.11893867062204" lon="10.327510666112593"><ele>891.0</ele><time>2026-04-24T10:49:33Z</time></trkpt><trkpt lat="44.118777048922276" lon="10.327669621650749"><ele>891.0</ele><time>2026-04-24T10:49:34Z</time></trkpt><trkpt lat="44.11864720039619" lon="10.327847295305382"><ele>891.0</ele><time>2026-04-24T10:49:35Z</time></trkpt><trkpt lat="44.11850534657872" lon="10.328000837918706"><ele>891.0</ele><time>2026-04-24T10:49:36Z</time></trkpt><trkpt lat="44.118355412763734" lon="10.328157483740442"><ele>893.6666666666667</ele><time>2026-04-24T10:49:37Z</time></trkpt><trkpt lat="44.11822241727104" lon="10.328337098775275"><ele>896.3333333333334</ele><time>2026-04-24T10:49:38Z</time></trkpt><trkpt lat="44.11808069794112" lon="10.328497462559925"><ele>899.0</ele><time>2026-04-24T10:49:39Z</time></trkpt><trkpt lat="44.117949519884405" lon="10.328644435190137"><ele>899.0</ele><time>2026-04-24T10:49:40Z</time></trkpt><trkpt lat="44.117819746465955" lon="10.328785696645983"><ele>899.0</ele><time>2026-04-24T10:49:41Z</time></trkpt><trkpt lat="44.11769096085172" lon="10.328936092038138"><ele>899.0</ele><time>2026-04-24T10:49:42Z</time></trkpt><trkpt lat="44.11754846918138" lon="10.32905080262341"><ele>902.0</ele><time>2026-04-24T10:49:43Z</time></trkpt><trkpt lat="44.117400831226824" lon="10.329163075529785"><ele>905.0</ele><time>2026-04-24T10:49:44Z</time></trkpt><trkpt lat="44.1172524941523" lon="10.329294548643537"><ele>908.0</ele><time>2026-04-24T10:49:45Z</time></trkpt><trkpt lat="44.117092362069194" lon="10.329413489566162"><ele>908.0</ele><time>2026-04-24T10:49:46Z</time></trkpt><trkpt lat="44.11693273160274" lon="10.32953375617674"><ele>908.0</ele><time>2026-04-24T10:49:47Z</time></trkpt><trkpt lat="44.11679027899139" lon="10.329640081742772"><ele>908.0</ele><time>2026-04-24T10:49:48Z</time></trkpt><trkpt lat="44.11666937016422" lon="10.329726891415854"><ele>909.3333333333334</ele><time>2026-04-24T10:49:49Z</time></trkpt><trkpt lat="44.11656334299621" lon="10.32980997490379"><ele>910.6666666666667</ele><time>2026-04-24T10:49:50Z</time></trkpt><trkpt lat="44.116484584017414" lon="10.329866855786658"><ele>912.0</ele><time>2026-04-24T10:49:51Z</time></trkpt><trkpt lat="44.11642103486138" lon="10.329929300444505"><ele>913.3333333333333</ele><time>2026-04-24T10:49:52Z</time></trkpt><trkpt lat="44.116381505890125" lon="10.330016261680392"><ele>914.6666666666666</ele><time>2026-04-24T10:49:53Z</time></trkpt><trkpt lat="44.11636570693533" lon="10.330130673103298"><ele>916.0</ele><time>2026-04-24T10:49:54Z</time></trkpt><trkpt lat="44.11639061935753" lon="10.33025310994318"><ele>915.9999999999999</ele><time>2026-04-24T10:49:55Z</time></trkpt><trkpt lat="44.11644291406589" lon="10.33038226039851"><ele>916.0</ele><time>2026-04-24T10:49:56Z</time></trkpt><trkpt lat="44.11646830633403" lon="10.330477674970014"><ele>916.0</ele><time>2026-04-24T10:49:57Z</time></trkpt><trkpt lat="44.11644761674989" lon="10.330569144501546"><ele>916.0</ele><time>2026-04-24T10:49:58Z</time></trkpt><trkpt lat="44.116389306920965" lon="10.33061346418174"><ele>915.9999999999999</ele><time>2026-04-24T10:49:59Z</time></trkpt><trkpt lat="44.11631806718577" lon="10.33056833269951"><ele>916.0</ele><time>2026-04-24T10:50:00Z</time></trkpt><trkpt lat="44.11626707104967" lon="10.330506881708166"><ele>916.0</ele><time>2026-04-24T10:50:01Z</time></trkpt><trkpt lat="44.11619392281528" lon="10.330423364004302"><ele>916.0</ele><time>2026-04-24T10:50:02Z</time></trkpt><trkpt lat="44.11610544090693" lon="10.330331762630346"><ele>916.0</ele><time>2026-04-24T10:50:03Z</time></trkpt><trkpt lat="44.115980953326485" lon="10.33027657683716"><ele>916.0</ele><time>2026-04-24T10:50:04Z</time></trkpt><trkpt lat="44.11585227612202" lon="10.330236104045563"><ele>916.0</ele><time>2026-04-24T10:50:05Z</time></trkpt><trkpt lat="44.11574610691258" lon="10.330193349830184"><ele>915.9999999999999</ele><time>2026-04-24T10:50:06Z</time></trkpt><trkpt lat="44.11565262800836" lon="10.330154172226004"><ele>915.9999999999999</ele><time>2026-04-24T10:50:07Z</time></trkpt><trkpt lat="44.11556661384654" lon="10.33014341345458"><ele>916.0</ele><time>2026-04-24T10:50:08Z</time></trkpt><trkpt lat="44.115495631281064" lon="10.330169015451148"><ele>916.0</ele><time>2026-04-24T10:50:09Z</time></trkpt><trkpt lat="44.115422909891755" lon="10.330234159490052"><ele>916.8</ele><time>2026-04-24T10:50:10Z</time></trkpt><trkpt lat="44.11533916383633" lon="10.330299992241356"><ele>917.5999999999999</ele><time>2026-04-24T10:50:11Z</time></trkpt><trkpt lat="44.115244427480945" lon="10.330388665537468"><ele>918.4</ele><time>2026-04-24T10:50:12Z</time></trkpt><trkpt lat="44.11518404568611" lon="10.330500979797439"><ele>919.2</ele><time>2026-04-24T10:50:13Z</time></trkpt><trkpt lat="44.11513811197184" lon="10.330604647174987"><ele>920.0</ele><time>2026-04-24T10:50:14Z</time></trkpt><trkpt lat="44.115075340047994" lon="10.330688136444493"><ele>921.6</ele><time>2026-04-24T10:50:15Z</time></trkpt><trkpt lat="44.115028165895" lon="10.330758298269703"><ele>923.2</ele><time>2026-04-24T10:50:16Z</time></trkpt><trkpt lat="44.114942060944244" lon="10.330832230011696"><ele>924.8</ele><time>2026-04-24T10:50:18Z</time></trkpt><trkpt lat="44.11487320379855" lon="10.33070901724034"><ele>926.4</ele><time>2026-04-24T10:50:20Z</time></trkpt><trkpt lat="44.114855138204994" lon="10.33059617365264"><ele>928.0</ele><time>2026-04-24T10:50:21Z</time></trkpt><trkpt lat="44.114847921368636" lon="10.330446677076647"><ele>929.75</ele><time>2026-04-24T10:50:22Z</time></trkpt><trkpt lat="44.11482719705732" lon="10.330292798697768"><ele>931.5</ele><time>2026-04-24T10:50:23Z</time></trkpt><trkpt lat="44.11477554665504" lon="10.330132914589207"><ele>933.25</ele><time>2026-04-24T10:50:24Z</time></trkpt><trkpt lat="44.114700897005655" lon="10.329977305898955"><ele>935.0</ele><time>2026-04-24T10:50:25Z</time></trkpt><trkpt lat="44.11463445176318" lon="10.329858868144154"><ele>935.0</ele><time>2026-04-24T10:50:26Z</time></trkpt><trkpt lat="44.11458366761089" lon="10.329758173024375"><ele>935.0</ele><time>2026-04-24T10:50:27Z</time></trkpt><trkpt lat="44.114526305692245" lon="10.329659255054803"><ele>935.0</ele><time>2026-04-24T10:50:28Z</time></trkpt><trkpt lat="44.1144383668506" lon="10.329584139053203"><ele>935.0</ele><time>2026-04-24T10:50:29Z</time></trkpt><trkpt lat="44.114319741039715" lon="10.329534927071073"><ele>935.0</ele><time>2026-04-24T10:50:30Z</time></trkpt><trkpt lat="44.11419593188503" lon="10.329468555984338"><ele>935.75</ele><time>2026-04-24T10:50:31Z</time></trkpt><trkpt lat="44.1140649185034" lon="10.329377881643108"><ele>936.5</ele><time>2026-04-24T10:50:32Z</time></trkpt><trkpt lat="44.11395863668638" lon="10.32925003468148"><ele>937.25</ele><time>2026-04-24T10:50:33Z</time></trkpt><trkpt lat="44.113855712921946" lon="10.32912513032064"><ele>938.0</ele><time>2026-04-24T10:50:34Z</time></trkpt><trkpt lat="44.11374636100272" lon="10.329008203318136"><ele>938.0</ele><time>2026-04-24T10:50:35Z</time></trkpt><trkpt lat="44.113654940342606" lon="10.328896556642324"><ele>938.0</ele><time>2026-04-24T10:50:36Z</time></trkpt><trkpt lat="44.11357656948872" lon="10.328796486663435"><ele>938.0</ele><time>2026-04-24T10:50:37Z</time></trkpt><trkpt lat="44.11350908371855" lon="10.328702769243774"><ele>938.0</ele><time>2026-04-24T10:50:38Z</time></trkpt><trkpt lat="44.11344669489972" lon="10.328642066855027"><ele>938.0</ele><time>2026-04-24T10:50:39Z</time></trkpt><trkpt lat="44.11336752085419" lon="10.328622839417626"><ele>937.0</ele><time>2026-04-24T10:50:40Z</time></trkpt><trkpt lat="44.11327396122773" lon="10.328645995427005"><ele>936.0</ele><time>2026-04-24T10:50:41Z</time></trkpt><trkpt lat="44.11317269374394" lon="10.328715436404869"><ele>935.0</ele><time>2026-04-24T10:50:42Z</time></trkpt><trkpt lat="44.11305490159042" lon="10.328755258065167"><ele>934.0</ele><time>2026-04-24T10:50:43Z</time></trkpt><trkpt lat="44.11294000474875" lon="10.328695335352633"><ele>934.0</ele><time>2026-04-24T10:50:44Z</time></trkpt><trkpt lat="44.11281069879171" lon="10.328646839586936"><ele>934.0</ele><time>2026-04-24T10:50:45Z</time></trkpt><trkpt lat="44.11267477122566" lon="10.328630604434943"><ele>934.0</ele><time>2026-04-24T10:50:46Z</time></trkpt><trkpt lat="44.11251910266874" lon="10.32860479295865"><ele>934.0</ele><time>2026-04-24T10:50:47Z</time></trkpt><trkpt lat="44.11235351061907" lon="10.32860479296076"><ele>933.8000000000001</ele><time>2026-04-24T10:50:48Z</time></trkpt><trkpt lat="44.11221651104163" lon="10.3286081074286"><ele>933.6000000000001</ele><time>2026-04-24T10:50:49Z</time></trkpt><trkpt lat="44.112104136786186" lon="10.32861243930566"><ele>933.4</ele><time>2026-04-24T10:50:50Z</time></trkpt><trkpt lat="44.11200780391544" lon="10.328644428637686"><ele>933.2</ele><time>2026-04-24T10:50:51Z</time></trkpt><trkpt lat="44.11192864171724" lon="10.328671427292765"><ele>933.0</ele><time>2026-04-24T10:50:52Z</time></trkpt><trkpt lat="44.11186053487708" lon="10.328727934437158"><ele>933.0</ele><time>2026-04-24T10:50:53Z</time></trkpt><trkpt lat="44.11181878630905" lon="10.328833010735108"><ele>933.0</ele><time>2026-04-24T10:50:54Z</time></trkpt><trkpt lat="44.11184606705693" lon="10.328971129517564"><ele>933.0</ele><time>2026-04-24T10:50:55Z</time></trkpt><trkpt lat="44.1119167570562" lon="10.329065442906487"><ele>933.0</ele><time>2026-04-24T10:50:56Z</time></trkpt><trkpt lat="44.112029857338676" lon="10.329075590364083"><ele>933.0</ele><time>2026-04-24T10:50:57Z</time></trkpt><trkpt lat="44.11212258512245" lon="10.329065280823832"><ele>935.8</ele><time>2026-04-24T10:50:58Z</time></trkpt><trkpt lat="44.11222634529943" lon="10.329033421521252"><ele>938.5999999999999</ele><time>2026-04-24T10:50:59Z</time></trkpt><trkpt lat="44.11233244154768" lon="10.32901841749117"><ele>941.4000000000001</ele><time>2026-04-24T10:51:00Z</time></trkpt><trkpt lat="44.1124341480035" lon="10.329027343227994"><ele>944.2</ele><time>2026-04-24T10:51:01Z</time></trkpt><trkpt lat="44.11250607948104" lon="10.32906362468311"><ele>947.0</ele><time>2026-04-24T10:51:02Z</time></trkpt><trkpt lat="44.11255930531311" lon="10.329168466791732"><ele>947.0</ele><time>2026-04-24T10:51:03Z</time></trkpt><trkpt lat="44.11259142389711" lon="10.329283175896727"><ele>947.0</ele><time>2026-04-24T10:51:04Z</time></trkpt><trkpt lat="44.11260822413338" lon="10.329411157667016"><ele>947.0</ele><time>2026-04-24T10:51:05Z</time></trkpt><trkpt lat="44.11263280200482" lon="10.329578295384389"><ele>947.0</ele><time>2026-04-24T10:51:06Z</time></trkpt><trkpt lat="44.11269977414945" lon="10.32973397562133"><ele>947.0</ele><time>2026-04-24T10:51:07Z</time></trkpt><trkpt lat="44.112788449380794" lon="10.329885474029355"><ele>950.5</ele><time>2026-04-24T10:51:08Z</time></trkpt><trkpt lat="44.11287704205977" lon="10.33005921217746"><ele>954.0</ele><time>2026-04-24T10:51:09Z</time></trkpt><trkpt lat="44.11298045666281" lon="10.330191373075989"><ele>957.5</ele><time>2026-04-24T10:51:10Z</time></trkpt><trkpt lat="44.113066173357446" lon="10.330370648652924"><ele>961.0</ele><time>2026-04-24T10:51:11Z</time></trkpt><trkpt lat="44.11316248680573" lon="10.33054384534201"><ele>961.25</ele><time>2026-04-24T10:51:12Z</time></trkpt><trkpt lat="44.11325025701013" lon="10.330686417865406"><ele>961.5</ele><time>2026-04-24T10:51:13Z</time></trkpt><trkpt lat="44.11332454691037" lon="10.330807093078116"><ele>961.75</ele><time>2026-04-24T10:51:14Z</time></trkpt><trkpt lat="44.11340900308562" lon="10.330918400975483"><ele>962.0</ele><time>2026-04-24T10:51:15Z</time></trkpt><trkpt lat="44.11348027911782" lon="10.331060979675181"><ele>962.0000000000001</ele><time>2026-04-24T10:51:16Z</time></trkpt><trkpt lat="44.11354728850988" lon="10.331170702617136"><ele>962.0</ele><time>2026-04-24T10:51:17Z</time></trkpt><trkpt lat="44.11360478664153" lon="10.331268528590613"><ele>962.0</ele><time>2026-04-24T10:51:18Z</time></trkpt><trkpt lat="44.11363893407171" lon="10.33135167863278"><ele>962.0</ele><time>2026-04-24T10:51:19Z</time></trkpt><trkpt lat="44.113658848686626" lon="10.331442778646249"><ele>962.0000000000001</ele><time>2026-04-24T10:51:20Z</time></trkpt><trkpt lat="44.11363255676" lon="10.331532094018394"><ele>962.0</ele><time>2026-04-24T10:51:21Z</time></trkpt><trkpt lat="44.11358880162433" lon="10.331603821937568"><ele>963.2</ele><time>2026-04-24T10:51:22Z</time></trkpt><trkpt lat="44.11350709859236" lon="10.331633068700532"><ele>964.4000000000001</ele><time>2026-04-24T10:51:23Z</time></trkpt><trkpt lat="44.11341339025679" lon="10.331609129853417"><ele>965.5999999999999</ele><time>2026-04-24T10:51:24Z</time></trkpt><trkpt lat="44.113321086853276" lon="10.331517419871991"><ele>966.8</ele><time>2026-04-24T10:51:25Z</time></trkpt><trkpt lat="44.11320010529009" lon="10.331457291685481"><ele>968.0</ele><time>2026-04-24T10:51:26Z</time></trkpt><trkpt lat="44.113077630843186" lon="10.331376102737028"><ele>968.0</ele><time>2026-04-24T10:51:27Z</time></trkpt><trkpt lat="44.112971942634616" lon="10.33131731798516"><ele>968.0</ele><time>2026-04-24T10:51:28Z</time></trkpt><trkpt lat="44.112884988783186" lon="10.331265020442562"><ele>968.0</ele><time>2026-04-24T10:51:29Z</time></trkpt><trkpt lat="44.11279806219922" lon="10.331252708031542"><ele>968.0</ele><time>2026-04-24T10:51:30Z</time></trkpt><trkpt lat="44.112696896913896" lon="10.33129033494534"><ele>968.0</ele><time>2026-04-24T10:51:31Z</time></trkpt><trkpt lat="44.11257968680449" lon="10.331367179682994"><ele>970.75</ele><time>2026-04-24T10:51:32Z</time></trkpt><trkpt lat="44.112451059731214" lon="10.331465468765245"><ele>973.5</ele><time>2026-04-24T10:51:33Z</time></trkpt><trkpt lat="44.11231009568352" lon="10.331526294639067"><ele>976.25</ele><time>2026-04-24T10:51:34Z</time></trkpt><trkpt lat="44.11218139531557" lon="10.331592822076583"><ele>979.0</ele><time>2026-04-24T10:51:35Z</time></trkpt><trkpt lat="44.11205458249088" lon="10.331635663896323"><ele>980.0</ele><time>2026-04-24T10:51:36Z</time></trkpt><trkpt lat="44.11191720000901" lon="10.331615853915796"><ele>981.0</ele><time>2026-04-24T10:51:37Z</time></trkpt><trkpt lat="44.111776455818536" lon="10.33157992399867"><ele>982.0</ele><time>2026-04-24T10:51:38Z</time></trkpt><trkpt lat="44.11166236328708" lon="10.331534220095678"><ele>983.0</ele><time>2026-04-24T10:51:39Z</time></trkpt><trkpt lat="44.11157431989756" lon="10.33146589763539"><ele>980.8</ele><time>2026-04-24T10:51:40Z</time></trkpt><trkpt lat="44.111504577876126" lon="10.331372271942199"><ele>978.5999999999999</ele><time>2026-04-24T10:51:41Z</time></trkpt><trkpt lat="44.11142442989898" lon="10.331282151076673"><ele>976.4000000000001</ele><time>2026-04-24T10:51:42Z</time></trkpt><trkpt lat="44.11133651613163" lon="10.331252337529506"><ele>974.2</ele><time>2026-04-24T10:51:43Z</time></trkpt><trkpt lat="44.11124957118908" lon="10.331254076976906"><ele>972.0</ele><time>2026-04-24T10:51:44Z</time></trkpt><trkpt lat="44.11115306249397" lon="10.331265377656308"><ele>972.0</ele><time>2026-04-24T10:51:45Z</time></trkpt><trkpt lat="44.111069845687126" lon="10.331386691833215"><ele>972.0</ele><time>2026-04-24T10:51:46Z</time></trkpt><trkpt lat="44.110989824525475" lon="10.331509598227742"><ele>972.0</ele><time>2026-04-24T10:51:47Z</time></trkpt><trkpt lat="44.11094237298212" lon="10.331649748931035"><ele>972.0</ele><time>2026-04-24T10:51:48Z</time></trkpt><trkpt lat="44.11093314719088" lon="10.331801868898308"><ele>975.0</ele><time>2026-04-24T10:51:49Z</time></trkpt><trkpt lat="44.11089406379874" lon="10.331940294001503"><ele>978.0</ele><time>2026-04-24T10:51:50Z</time></trkpt><trkpt lat="44.110824376774005" lon="10.332053124143332"><ele>981.0</ele><time>2026-04-24T10:51:51Z</time></trkpt><trkpt lat="44.110736561546766" lon="10.332125224302537"><ele>984.0</ele><time>2026-04-24T10:51:52Z</time></trkpt><trkpt lat="44.11062853001346" lon="10.33218443262019"><ele>987.0</ele><time>2026-04-24T10:51:53Z</time></trkpt><trkpt lat="44.1105046168415" lon="10.332219929037114"><ele>988.75</ele><time>2026-04-24T10:51:54Z</time></trkpt><trkpt lat="44.11036505032029" lon="10.332260794958021"><ele>990.5</ele><time>2026-04-24T10:51:55Z</time></trkpt><trkpt lat="44.1102180197523" lon="10.332310222344857"><ele>992.25</ele><time>2026-04-24T10:51:56Z</time></trkpt><trkpt lat="44.110071395956695" lon="10.332371660544243"><ele>994.0</ele><time>2026-04-24T10:51:57Z</time></trkpt><trkpt lat="44.109928878455754" lon="10.3324866878004"><ele>992.0</ele><time>2026-04-24T10:51:58Z</time></trkpt><trkpt lat="44.10977769350348" lon="10.332595135433735"><ele>990.0</ele><time>2026-04-24T10:51:59Z</time></trkpt><trkpt lat="44.109648347778545" lon="10.332701480606685"><ele>988.0</ele><time>2026-04-24T10:52:00Z</time></trkpt><trkpt lat="44.10950038519095" lon="10.332806871470188"><ele>988.0</ele><time>2026-04-24T10:52:01Z</time></trkpt><trkpt lat="44.10934105854173" lon="10.332896033602866"><ele>988.0</ele><time>2026-04-24T10:52:02Z</time></trkpt><trkpt lat="44.109171306561656" lon="10.332966768199212"><ele>988.0</ele><time>2026-04-24T10:52:03Z</time></trkpt><trkpt lat="44.10901180876727" lon="10.33303102629954"><ele>992.6666666666666</ele><time>2026-04-24T10:52:04Z</time></trkpt><trkpt lat="44.10884969968669" lon="10.333097270570743"><ele>997.3333333333333</ele><time>2026-04-24T10:52:05Z</time></trkpt><trkpt lat="44.10868836492958" lon="10.333165620710744"><ele>1002.0</ele><time>2026-04-24T10:52:06Z</time></trkpt><trkpt lat="44.10854143044339" lon="10.333243527832666"><ele>1002.0</ele><time>2026-04-24T10:52:08Z</time></trkpt><trkpt lat="44.10844787480468" lon="10.33326583217381"><ele>1002.0</ele><time>2026-04-24T10:52:09Z</time></trkpt><trkpt lat="44.108357014756" lon="10.333299364697865"><ele>1002.0</ele><time>2026-04-24T10:52:10Z</time></trkpt><trkpt lat="44.108254317409695" lon="10.333330896981572"><ele>1002.0</ele><time>2026-04-24T10:52:11Z</time></trkpt><trkpt lat="44.10814579324995" lon="10.333344124709638"><ele>1002.0</ele><time>2026-04-24T10:52:12Z</time></trkpt><trkpt lat="44.108035686192274" lon="10.33332529924251"><ele>1003.5</ele><time>2026-04-24T10:52:13Z</time></trkpt><trkpt lat="44.10791276217302" lon="10.33329021430317"><ele>1005.0</ele><time>2026-04-24T10:52:14Z</time></trkpt><trkpt lat="44.10777457282752" lon="10.33325335457212"><ele>1006.5</ele><time>2026-04-24T10:52:15Z</time></trkpt><trkpt lat="44.10763138239573" lon="10.333216409609378"><ele>1008.0</ele><time>2026-04-24T10:52:16Z</time></trkpt><trkpt lat="44.10749631265818" lon="10.333180823097793"><ele>1006.25</ele><time>2026-04-24T10:52:17Z</time></trkpt><trkpt lat="44.10737128728649" lon="10.333159661567807"><ele>1004.5</ele><time>2026-04-24T10:52:18Z</time></trkpt><trkpt lat="44.10726268630469" lon="10.333074681318063"><ele>1002.75</ele><time>2026-04-24T10:52:19Z</time></trkpt><trkpt lat="44.10716223014631" lon="10.332990120734964"><ele>1001.0</ele><time>2026-04-24T10:52:20Z</time></trkpt><trkpt lat="44.10706533412669" lon="10.332935394297854"><ele>1001.0</ele><time>2026-04-24T10:52:21Z</time></trkpt><trkpt lat="44.106993427292565" lon="10.332859372831422"><ele>1000.9999999999999</ele><time>2026-04-24T10:52:22Z</time></trkpt><trkpt lat="44.10691580792019" lon="10.332819210034883"><ele>1000.9999999999999</ele><time>2026-04-24T10:52:23Z</time></trkpt><trkpt lat="44.10681661698511" lon="10.332842718057051"><ele>1001.0</ele><time>2026-04-24T10:52:24Z</time></trkpt><trkpt lat="44.106705445025085" lon="10.332897134131617"><ele>1001.0</ele><time>2026-04-24T10:52:25Z</time></trkpt><trkpt lat="44.10658316732581" lon="10.332948260044633"><ele>1001.4</ele><time>2026-04-24T10:52:26Z</time></trkpt><trkpt lat="44.10645192923472" lon="10.332937088482412"><ele>1001.8</ele><time>2026-04-24T10:52:27Z</time></trkpt><trkpt lat="44.106332154852055" lon="10.332915209886949"><ele>1002.1999999999999</ele><time>2026-04-24T10:52:28Z</time></trkpt><trkpt lat="44.10623832332658" lon="10.332905700004114"><ele>1002.5999999999999</ele><time>2026-04-24T10:52:29Z</time></trkpt><trkpt lat="44.10614435427835" lon="10.33290680867187"><ele>1003.0</ele><time>2026-04-24T10:52:30Z</time></trkpt><trkpt lat="44.10605378787743" lon="10.33296662796741"><ele>1006.5</ele><time>2026-04-24T10:52:31Z</time></trkpt><trkpt lat="44.10596610363626" lon="10.33307177377615"><ele>1010.0</ele><time>2026-04-24T10:52:32Z</time></trkpt><trkpt lat="44.105881159520756" lon="10.333196580292995"><ele>1013.5</ele><time>2026-04-24T10:52:33Z</time></trkpt><trkpt lat="44.10578271657081" lon="10.333298142266683"><ele>1017.0</ele><time>2026-04-24T10:52:34Z</time></trkpt><trkpt lat="44.10567305455026" lon="10.333375510500066"><ele>1019.5</ele><time>2026-04-24T10:52:35Z</time></trkpt><trkpt lat="44.105552160212454" lon="10.333439865921966"><ele>1022.0</ele><time>2026-04-24T10:52:36Z</time></trkpt><trkpt lat="44.10544431734189" lon="10.333477724007873"><ele>1024.5</ele><time>2026-04-24T10:52:37Z</time></trkpt><trkpt lat="44.10532938338073" lon="10.333496832037566"><ele>1027.0</ele><time>2026-04-24T10:52:38Z</time></trkpt><trkpt lat="44.105218775408396" lon="10.333494827321768"><ele>1027.0</ele><time>2026-04-24T10:52:39Z</time></trkpt><trkpt lat="44.10513213783911" lon="10.333450085451606"><ele>1027.0</ele><time>2026-04-24T10:52:40Z</time></trkpt><trkpt lat="44.10504739492727" lon="10.333389053686293"><ele>1027.0</ele><time>2026-04-24T10:52:41Z</time></trkpt><trkpt lat="44.10499069661718" lon="10.333247986697929"><ele>1027.0</ele><time>2026-04-24T10:52:42Z</time></trkpt><trkpt lat="44.104915194407894" lon="10.333130494827412"><ele>1027.0</ele><time>2026-04-24T10:52:43Z</time></trkpt><trkpt lat="44.104844060931676" lon="10.333037506878227"><ele>1025.75</ele><time>2026-04-24T10:52:44Z</time></trkpt><trkpt lat="44.10474428436931" lon="10.332984064811274"><ele>1024.5</ele><time>2026-04-24T10:52:45Z</time></trkpt><trkpt lat="44.10462038132301" lon="10.332967189784647"><ele>1023.25</ele><time>2026-04-24T10:52:46Z</time></trkpt><trkpt lat="44.10450360333112" lon="10.33293005008772"><ele>1022.0</ele><time>2026-04-24T10:52:47Z</time></trkpt><trkpt lat="44.10440193089319" lon="10.332897304765728"><ele>1022.0</ele><time>2026-04-24T10:52:48Z</time></trkpt><trkpt lat="44.10431721398862" lon="10.332867421299714"><ele>1022.0</ele><time>2026-04-24T10:52:49Z</time></trkpt><trkpt lat="44.10423243653421" lon="10.332891975406199"><ele>1022.0</ele><time>2026-04-24T10:52:50Z</time></trkpt><trkpt lat="44.104159887122535" lon="10.33298722106124"><ele>1022.0</ele><time>2026-04-24T10:52:51Z</time></trkpt><trkpt lat="44.104097625969324" lon="10.333129558760715"><ele>1022.0</ele><time>2026-04-24T10:52:52Z</time></trkpt><trkpt lat="44.10403224790389" lon="10.33328393300793"><ele>1025.0</ele><time>2026-04-24T10:52:53Z</time></trkpt><trkpt lat="44.10394593903459" lon="10.333436761570189"><ele>1028.0</ele><time>2026-04-24T10:52:54Z</time></trkpt><trkpt lat="44.10385461516549" lon="10.333576314980803"><ele>1031.0</ele><time>2026-04-24T10:52:55Z</time></trkpt><trkpt lat="44.10378506825384" lon="10.333685935726086"><ele>1034.0</ele><time>2026-04-24T10:52:56Z</time></trkpt><trkpt lat="44.103714125002455" lon="10.333765044939542"><ele>1034.0</ele><time>2026-04-24T10:52:57Z</time></trkpt><trkpt lat="44.10363014238546" lon="10.333827817237998"><ele>1034.0</ele><time>2026-04-24T10:52:58Z</time></trkpt><trkpt lat="44.10352647529899" lon="10.33379930519911"><ele>1034.0</ele><time>2026-04-24T10:52:59Z</time></trkpt><trkpt lat="44.10343327818454" lon="10.333739747512208"><ele>1034.0</ele><time>2026-04-24T10:53:00Z</time></trkpt><trkpt lat="44.10333013344123" lon="10.333677030379263"><ele>1034.0</ele><time>2026-04-24T10:53:01Z</time></trkpt><trkpt lat="44.10322174410819" lon="10.333590180172662"><ele>1038.25</ele><time>2026-04-24T10:53:02Z</time></trkpt><trkpt lat="44.10309837792227" lon="10.333516254821351"><ele>1042.5</ele><time>2026-04-24T10:53:03Z</time></trkpt><trkpt lat="44.102987975546114" lon="10.333433109644574"><ele>1046.75</ele><time>2026-04-24T10:53:04Z</time></trkpt><trkpt lat="44.10289330007964" lon="10.33331503000674"><ele>1051.0</ele><time>2026-04-24T10:53:05Z</time></trkpt><trkpt lat="44.10283549564777" lon="10.333145781012544"><ele>1050.3999999999999</ele><time>2026-04-24T10:53:06Z</time></trkpt><trkpt lat="44.10278317556654" lon="10.332999744120244"><ele>1049.8</ele><time>2026-04-24T10:53:07Z</time></trkpt><trkpt lat="44.102801187810606" lon="10.332837184418656"><ele>1049.1999999999998</ele><time>2026-04-24T10:53:08Z</time></trkpt><trkpt lat="44.10279350791813" lon="10.332684910872455"><ele>1048.6</ele><time>2026-04-24T10:53:09Z</time></trkpt><trkpt lat="44.102789889775714" lon="10.332554582906749"><ele>1048.0</ele><time>2026-04-24T10:53:10Z</time></trkpt><trkpt lat="44.10274037924493" lon="10.332461968271826"><ele>1048.0</ele><time>2026-04-24T10:53:11Z</time></trkpt><trkpt lat="44.102652618565294" lon="10.33239900068761"><ele>1048.0</ele><time>2026-04-24T10:53:12Z</time></trkpt><trkpt lat="44.10254830262638" lon="10.332373775644454"><ele>1048.0</ele><time>2026-04-24T10:53:13Z</time></trkpt><trkpt lat="44.10243405680068" lon="10.332304184087185"><ele>1048.0</ele><time>2026-04-24T10:53:14Z</time></trkpt><trkpt lat="44.102350943794484" lon="10.332185927268222"><ele>1048.0</ele><time>2026-04-24T10:53:15Z</time></trkpt><trkpt lat="44.10229717416968" lon="10.3320432742853"><ele>1052.2</ele><time>2026-04-24T10:53:16Z</time></trkpt><trkpt lat="44.102259795631944" lon="10.331900235631723"><ele>1056.4</ele><time>2026-04-24T10:53:17Z</time></trkpt><trkpt lat="44.102225920031906" lon="10.33177994340249"><ele>1060.6000000000001</ele><time>2026-04-24T10:53:18Z</time></trkpt><trkpt lat="44.10216718609071" lon="10.331661665863802"><ele>1064.8</ele><time>2026-04-24T10:53:19Z</time></trkpt><trkpt lat="44.10210270098227" lon="10.331548216138259"><ele>1069.0</ele><time>2026-04-24T10:53:20Z</time></trkpt><trkpt lat="44.102075961002136" lon="10.331398417729341"><ele>1067.75</ele><time>2026-04-24T10:53:21Z</time></trkpt><trkpt lat="44.10202589896942" lon="10.331045519282089"><ele>1066.5</ele><time>2026-04-24T10:53:23Z</time></trkpt><trkpt lat="44.10201444747563" lon="10.330906823883097"><ele>1065.25</ele><time>2026-04-24T10:53:24Z</time></trkpt><trkpt lat="44.10200365831086" lon="10.33078261531456"><ele>1064.0</ele><time>2026-04-24T10:53:25Z</time></trkpt><trkpt lat="44.10198845559542" lon="10.330650146903885"><ele>1062.4</ele><time>2026-04-24T10:53:26Z</time></trkpt><trkpt lat="44.101955750541464" lon="10.33051373141004"><ele>1060.8000000000002</ele><time>2026-04-24T10:53:27Z</time></trkpt><trkpt lat="44.10193702782255" lon="10.33036910396222"><ele>1059.1999999999998</ele><time>2026-04-24T10:53:28Z</time></trkpt><trkpt lat="44.10185372926263" lon="10.33026359930935"><ele>1057.6</ele><time>2026-04-24T10:53:29Z</time></trkpt><trkpt lat="44.10179973232743" lon="10.330163118921432"><ele>1056.0</ele><time>2026-04-24T10:53:30Z</time></trkpt><trkpt lat="44.10172862081363" lon="10.330074746697866"><ele>1056.0</ele><time>2026-04-24T10:53:31Z</time></trkpt><trkpt lat="44.10164786002279" lon="10.329993672481343"><ele>1056.0</ele><time>2026-04-24T10:53:32Z</time></trkpt><trkpt lat="44.10156989076823" lon="10.329932465915459"><ele>1056.0</ele><time>2026-04-24T10:53:33Z</time></trkpt><trkpt lat="44.10147949742418" lon="10.329881510889056"><ele>1056.0</ele><time>2026-04-24T10:53:34Z</time></trkpt><trkpt lat="44.10140741617515" lon="10.329814642239894"><ele>1056.0</ele><time>2026-04-24T10:53:35Z</time></trkpt><trkpt lat="44.10134901182365" lon="10.329775690204984"><ele>1056.0</ele><time>2026-04-24T10:53:36Z</time></trkpt><trkpt lat="44.10122638680122" lon="10.329680477355218"><ele>1054.6</ele><time>2026-04-24T10:53:38Z</time></trkpt><trkpt lat="44.10114499349685" lon="10.329604352399539"><ele>1053.1999999999998</ele><time>2026-04-24T10:53:39Z</time></trkpt><trkpt lat="44.10107621319057" lon="10.32949761028501"><ele>1051.8000000000002</ele><time>2026-04-24T10:53:40Z</time></trkpt><trkpt lat="44.10101637880525" lon="10.329389145345008"><ele>1050.4</ele><time>2026-04-24T10:53:41Z</time></trkpt><trkpt lat="44.100949580211875" lon="10.329313799598205"><ele>1049.0</ele><time>2026-04-24T10:53:42Z</time></trkpt><trkpt lat="44.1008976974248" lon="10.329225381577908"><ele>1049.0</ele><time>2026-04-24T10:53:43Z</time></trkpt><trkpt lat="44.10084527061993" lon="10.329132915714139"><ele>1049.0</ele><time>2026-04-24T10:53:44Z</time></trkpt><trkpt lat="44.10078533584635" lon="10.329059574605266"><ele>1049.0</ele><time>2026-04-24T10:53:45Z</time></trkpt><trkpt lat="44.10071090107036" lon="10.329003701974782"><ele>1049.0</ele><time>2026-04-24T10:53:46Z</time></trkpt><trkpt lat="44.100647679982785" lon="10.32893405135483"><ele>1049.0</ele><time>2026-04-24T10:53:47Z</time></trkpt><trkpt lat="44.100579291229536" lon="10.328868865775855"><ele>1049.0</ele><time>2026-04-24T10:53:48Z</time></trkpt><trkpt lat="44.100507930541404" lon="10.328802485134222"><ele>1047.3333333333335</ele><time>2026-04-24T10:53:49Z</time></trkpt><trkpt lat="44.100460231176754" lon="10.328711367207532"><ele>1045.6666666666667</ele><time>2026-04-24T10:53:50Z</time></trkpt><trkpt lat="44.10040085074856" lon="10.328646964976937"><ele>1044.0</ele><time>2026-04-24T10:53:51Z</time></trkpt><trkpt lat="44.10032062875428" lon="10.328623450088465"><ele>1042.3333333333333</ele><time>2026-04-24T10:53:52Z</time></trkpt><trkpt lat="44.100236066060695" lon="10.328577335253833"><ele>1040.6666666666665</ele><time>2026-04-24T10:53:53Z</time></trkpt><trkpt lat="44.10015417968726" lon="10.328545644807747"><ele>1039.0</ele><time>2026-04-24T10:53:54Z</time></trkpt><trkpt lat="44.10008739184152" lon="10.328510153907649"><ele>1039.0</ele><time>2026-04-24T10:53:55Z</time></trkpt><trkpt lat="44.10005010255603" lon="10.328435908337344"><ele>1039.0</ele><time>2026-04-24T10:53:56Z</time></trkpt><trkpt lat="44.10000729946707" lon="10.3283356236121"><ele>1039.0</ele><time>2026-04-24T10:53:57Z</time></trkpt><trkpt lat="44.09993611628353" lon="10.32824643546331"><ele>1039.0</ele><time>2026-04-24T10:53:58Z</time></trkpt><trkpt lat="44.099835919137746" lon="10.32820003444992"><ele>1039.0</ele><time>2026-04-24T10:53:59Z</time></trkpt><trkpt lat="44.099717408144976" lon="10.328178981946078"><ele>1038.0</ele><time>2026-04-24T10:54:00Z</time></trkpt><trkpt lat="44.09961362109844" lon="10.328164497743703"><ele>1037.0</ele><time>2026-04-24T10:54:01Z</time></trkpt><trkpt lat="44.09951607587151" lon="10.328156224915992"><ele>1036.0</ele><time>2026-04-24T10:54:02Z</time></trkpt><trkpt lat="44.09943084221659" lon="10.328141688551987"><ele>1035.0</ele><time>2026-04-24T10:54:03Z</time></trkpt><trkpt lat="44.09936414383184" lon="10.328107464067392"><ele>1034.0</ele><time>2026-04-24T10:54:04Z</time></trkpt><trkpt lat="44.099293780016595" lon="10.328063920858098"><ele>1033.0</ele><time>2026-04-24T10:54:05Z</time></trkpt><trkpt lat="44.09924038275761" lon="10.3279335244338"><ele>1033.0</ele><time>2026-04-24T10:54:06Z</time></trkpt><trkpt lat="44.09915820219514" lon="10.327806970575601"><ele>1033.0</ele><time>2026-04-24T10:54:07Z</time></trkpt><trkpt lat="44.09907738418354" lon="10.327674832213395"><ele>1033.0</ele><time>2026-04-24T10:54:08Z</time></trkpt><trkpt lat="44.09899318936879" lon="10.327572722161676"><ele>1033.0</ele><time>2026-04-24T10:54:09Z</time></trkpt><trkpt lat="44.09893388527024" lon="10.327467705044922"><ele>1035.6</ele><time>2026-04-24T10:54:10Z</time></trkpt><trkpt lat="44.0988726700919" lon="10.327363423750558"><ele>1038.1999999999998</ele><time>2026-04-24T10:54:11Z</time></trkpt><trkpt lat="44.098844719121146" lon="10.327255179622712"><ele>1040.8</ele><time>2026-04-24T10:54:12Z</time></trkpt><trkpt lat="44.09880384854353" lon="10.32716808266643"><ele>1043.3999999999999</ele><time>2026-04-24T10:54:13Z</time></trkpt><trkpt lat="44.09870133454894" lon="10.32707488344054"><ele>1046.0</ele><time>2026-04-24T10:54:15Z</time></trkpt><trkpt lat="44.09860146001839" lon="10.327111428148974"><ele>1046.0</ele><time>2026-04-24T10:54:16Z</time></trkpt><trkpt lat="44.09848957713948" lon="10.327167190191082"><ele>1046.0</ele><time>2026-04-24T10:54:17Z</time></trkpt><trkpt lat="44.09836143841458" lon="10.327203389955365"><ele>1046.0</ele><time>2026-04-24T10:54:18Z</time></trkpt><trkpt lat="44.09823669164926" lon="10.327229724891508"><ele>1046.0</ele><time>2026-04-24T10:54:19Z</time></trkpt><trkpt lat="44.09812890701684" lon="10.327240354644545"><ele>1042.0</ele><time>2026-04-24T10:54:20Z</time></trkpt><trkpt lat="44.098030398963324" lon="10.327240528491194"><ele>1038.0</ele><time>2026-04-24T10:54:21Z</time></trkpt><trkpt lat="44.09793567404404" lon="10.327224386752091"><ele>1034.0</ele><time>2026-04-24T10:54:22Z</time></trkpt><trkpt lat="44.09783453390417" lon="10.32717607800519"><ele>1030.0</ele><time>2026-04-24T10:54:23Z</time></trkpt><trkpt lat="44.09772104874295" lon="10.327125404405908"><ele>1026.0</ele><time>2026-04-24T10:54:24Z</time></trkpt><trkpt lat="44.097614677009574" lon="10.327076384901781"><ele>1026.0</ele><time>2026-04-24T10:54:25Z</time></trkpt><trkpt lat="44.0975074586871" lon="10.327031707624327"><ele>1026.0</ele><time>2026-04-24T10:54:26Z</time></trkpt><trkpt lat="44.09739454159799" lon="10.327025354036415"><ele>1026.0</ele><time>2026-04-24T10:54:27Z</time></trkpt><trkpt lat="44.09729336659188" lon="10.326999803726913"><ele>1026.0</ele><time>2026-04-24T10:54:28Z</time></trkpt><trkpt lat="44.097190457912994" lon="10.327000597979678"><ele>1026.0</ele><time>2026-04-24T10:54:29Z</time></trkpt><trkpt lat="44.09709283578713" lon="10.326981771937655"><ele>1020.0</ele><time>2026-04-24T10:54:30Z</time></trkpt><trkpt lat="44.09701789322339" lon="10.326914124146038"><ele>1013.9999999999999</ele><time>2026-04-24T10:54:31Z</time></trkpt><trkpt lat="44.09691227300342" lon="10.326837781630763"><ele>1007.9999999999999</ele><time>2026-04-24T10:54:32Z</time></trkpt><trkpt lat="44.09680532499532" lon="10.326756726499221"><ele>1002.0</ele><time>2026-04-24T10:54:33Z</time></trkpt><trkpt lat="44.09670404943585" lon="10.326679837140063"><ele>996.0</ele><time>2026-04-24T10:54:34Z</time></trkpt><trkpt lat="44.09660363872281" lon="10.32662544574564"><ele>990.0</ele><time>2026-04-24T10:54:35Z</time></trkpt><trkpt lat="44.09649540400588" lon="10.326554667934474"><ele>983.9999999999999</ele><time>2026-04-24T10:54:36Z</time></trkpt><trkpt lat="44.0963908311398" lon="10.326469055906676"><ele>977.9999999999999</ele><time>2026-04-24T10:54:37Z</time></trkpt><trkpt lat="44.0963059619529" lon="10.326378007416258"><ele>972.0</ele><time>2026-04-24T10:54:38Z</time></trkpt><trkpt lat="44.096253342641845" lon="10.326265404828217"><ele>966.0</ele><time>2026-04-24T10:54:39Z</time></trkpt><trkpt lat="44.09618843698012" lon="10.326145562040706"><ele>966.0</ele><time>2026-04-24T10:54:40Z</time></trkpt><trkpt lat="44.09614749406842" lon="10.32599259159375"><ele>966.0</ele><time>2026-04-24T10:54:41Z</time></trkpt><trkpt lat="44.09612917624734" lon="10.325857925243291"><ele>966.0</ele><time>2026-04-24T10:54:42Z</time></trkpt><trkpt lat="44.09611203520875" lon="10.325732305712064"><ele>966.0</ele><time>2026-04-24T10:54:43Z</time></trkpt><trkpt lat="44.096018117281936" lon="10.325531520269488"><ele>968.8</ele><time>2026-04-24T10:54:44Z</time></trkpt><trkpt lat="44.095974944494124" lon="10.325391736730607"><ele>971.5999999999999</ele><time>2026-04-24T10:54:45Z</time></trkpt><trkpt lat="44.09591941480212" lon="10.325270825276117"><ele>974.4</ele><time>2026-04-24T10:54:46Z</time></trkpt><trkpt lat="44.09585160428808" lon="10.325170384154278"><ele>977.2</ele><time>2026-04-24T10:54:47Z</time></trkpt><trkpt lat="44.095810258896755" lon="10.325050797724224"><ele>980.0</ele><time>2026-04-24T10:54:48Z</time></trkpt><trkpt lat="44.09576909597005" lon="10.324916825454208"><ele>980.2</ele><time>2026-04-24T10:54:49Z</time></trkpt><trkpt lat="44.09573358319206" lon="10.324767272316349"><ele>980.4</ele><time>2026-04-24T10:54:50Z</time></trkpt><trkpt lat="44.095705410453164" lon="10.324622112222947"><ele>980.5999999999999</ele><time>2026-04-24T10:54:51Z</time></trkpt><trkpt lat="44.09568197130973" lon="10.324481161832939"><ele>980.8</ele><time>2026-04-24T10:54:52Z</time></trkpt><trkpt lat="44.095667292042855" lon="10.324339072520322"><ele>981.0</ele><time>2026-04-24T10:54:53Z</time></trkpt><trkpt lat="44.09565922289295" lon="10.324200940996793"><ele>981.0</ele><time>2026-04-24T10:54:54Z</time></trkpt><trkpt lat="44.09564284610946" lon="10.324070044637299"><ele>981.0</ele><time>2026-04-24T10:54:55Z</time></trkpt><trkpt lat="44.09565407191971" lon="10.323968541042658"><ele>981.0</ele><time>2026-04-24T10:54:56Z</time></trkpt><trkpt lat="44.09564665441982" lon="10.323875120877222"><ele>981.0</ele><time>2026-04-24T10:54:57Z</time></trkpt><trkpt lat="44.09559626561941" lon="10.323815485767044"><ele>981.0</ele><time>2026-04-24T10:54:58Z</time></trkpt><trkpt lat="44.095516480059025" lon="10.323810241744097"><ele>981.0</ele><time>2026-04-24T10:54:59Z</time></trkpt><trkpt lat="44.09542537066469" lon="10.32386329407388"><ele>981.0</ele><time>2026-04-24T10:55:00Z</time></trkpt><trkpt lat="44.09531501890345" lon="10.323920464341905"><ele>981.0</ele><time>2026-04-24T10:55:01Z</time></trkpt><trkpt lat="44.095217301122865" lon="10.324019507379736"><ele>981.0</ele><time>2026-04-24T10:55:02Z</time></trkpt><trkpt lat="44.095131329739296" lon="10.324165609921678"><ele>981.0</ele><time>2026-04-24T10:55:03Z</time></trkpt><trkpt lat="44.09505708367969" lon="10.3242278846737"><ele>981.0</ele><time>2026-04-24T10:55:04Z</time></trkpt><trkpt lat="44.0949780333194" lon="10.324275383280307"><ele>980.9999999999999</ele><time>2026-04-24T10:55:05Z</time></trkpt><trkpt lat="44.09487789543703" lon="10.324230102849896"><ele>980.9999999999999</ele><time>2026-04-24T10:55:06Z</time></trkpt><trkpt lat="44.09475478901408" lon="10.324212807186932"><ele>981.0</ele><time>2026-04-24T10:55:07Z</time></trkpt><trkpt lat="44.09463278032506" lon="10.324222328547927"><ele>981.0</ele><time>2026-04-24T10:55:08Z</time></trkpt><trkpt lat="44.09452161296412" lon="10.324353395621936"><ele>982.8333333333334</ele><time>2026-04-24T10:55:09Z</time></trkpt><trkpt lat="44.09441279502464" lon="10.324389890720779"><ele>984.6666666666667</ele><time>2026-04-24T10:55:10Z</time></trkpt><trkpt lat="44.0943270872466" lon="10.324417710618176"><ele>986.5</ele><time>2026-04-24T10:55:11Z</time></trkpt><trkpt lat="44.09425848835709" lon="10.324406600659488"><ele>988.3333333333334</ele><time>2026-04-24T10:55:12Z</time></trkpt><trkpt lat="44.094181027457" lon="10.32430952062986"><ele>990.1666666666667</ele><time>2026-04-24T10:55:13Z</time></trkpt><trkpt lat="44.09411008114223" lon="10.324290296432263"><ele>992.0</ele><time>2026-04-24T10:55:14Z</time></trkpt><trkpt lat="44.09402925415672" lon="10.324279466374364"><ele>993.75</ele><time>2026-04-24T10:55:15Z</time></trkpt><trkpt lat="44.09396745557964" lon="10.324337819223397"><ele>995.5</ele><time>2026-04-24T10:55:16Z</time></trkpt><trkpt lat="44.09387804332186" lon="10.324442736238497"><ele>997.25</ele><time>2026-04-24T10:55:17Z</time></trkpt><trkpt lat="44.09377747666114" lon="10.324580668612008"><ele>999.0</ele><time>2026-04-24T10:55:18Z</time></trkpt><trkpt lat="44.09369590116652" lon="10.32470210948558"><ele>994.5</ele><time>2026-04-24T10:55:19Z</time></trkpt><trkpt lat="44.093629848210995" lon="10.324820568654475"><ele>990.0</ele><time>2026-04-24T10:55:20Z</time></trkpt><trkpt lat="44.09357772833515" lon="10.324930025553165"><ele>985.5</ele><time>2026-04-24T10:55:21Z</time></trkpt><trkpt lat="44.093534603612106" lon="10.325008738766122"><ele>981.0</ele><time>2026-04-24T10:55:22Z</time></trkpt><trkpt lat="44.093481526429315" lon="10.325067629497772"><ele>976.5</ele><time>2026-04-24T10:55:23Z</time></trkpt><trkpt lat="44.09341002833092" lon="10.325115356166124"><ele>972.0</ele><time>2026-04-24T10:55:24Z</time></trkpt><trkpt lat="44.09330394560576" lon="10.325076626793516"><ele>972.8</ele><time>2026-04-24T10:55:25Z</time></trkpt><trkpt lat="44.09320205454587" lon="10.325079094754773"><ele>973.6</ele><time>2026-04-24T10:55:26Z</time></trkpt><trkpt lat="44.09310741907302" lon="10.325070120946652"><ele>974.3999999999999</ele><time>2026-04-24T10:55:27Z</time></trkpt><trkpt lat="44.093010606436295" lon="10.325069785007532"><ele>975.1999999999999</ele><time>2026-04-24T10:55:28Z</time></trkpt><trkpt lat="44.092906561302506" lon="10.32510803955328"><ele>976.0</ele><time>2026-04-24T10:55:29Z</time></trkpt><trkpt lat="44.09282613940996" lon="10.325231368813293"><ele>976.0</ele><time>2026-04-24T10:55:30Z</time></trkpt><trkpt lat="44.09273077038499" lon="10.325313592283766"><ele>975.9999999999999</ele><time>2026-04-24T10:55:31Z</time></trkpt><trkpt lat="44.092647852189245" lon="10.325356294381901"><ele>975.9999999999999</ele><time>2026-04-24T10:55:32Z</time></trkpt><trkpt lat="44.09255020601062" lon="10.325337982790092"><ele>976.0</ele><time>2026-04-24T10:55:33Z</time></trkpt><trkpt lat="44.092454486848695" lon="10.32528585434608"><ele>976.0</ele><time>2026-04-24T10:55:34Z</time></trkpt><trkpt lat="44.092353748749254" lon="10.325237501615097"><ele>975.0</ele><time>2026-04-24T10:55:35Z</time></trkpt><trkpt lat="44.092230331725005" lon="10.325196464891548"><ele>974.0</ele><time>2026-04-24T10:55:36Z</time></trkpt><trkpt lat="44.092078935545246" lon="10.325201836249546"><ele>973.0</ele><time>2026-04-24T10:55:37Z</time></trkpt><trkpt lat="44.09196004755909" lon="10.32519698633074"><ele>972.0</ele><time>2026-04-24T10:55:38Z</time></trkpt><trkpt lat="44.09185929891316" lon="10.325162414008625"><ele>972.0</ele><time>2026-04-24T10:55:39Z</time></trkpt><trkpt lat="44.09176212357119" lon="10.325139457636476"><ele>972.0</ele><time>2026-04-24T10:55:40Z</time></trkpt><trkpt lat="44.09165766463589" lon="10.325113304336554"><ele>972.0</ele><time>2026-04-24T10:55:41Z</time></trkpt><trkpt lat="44.091546879567865" lon="10.325140447125616"><ele>972.0</ele><time>2026-04-24T10:55:42Z</time></trkpt><trkpt lat="44.09144200090301" lon="10.325128201262222"><ele>972.0</ele><time>2026-04-24T10:55:43Z</time></trkpt><trkpt lat="44.09134799149417" lon="10.325113163219203"><ele>968.6666666666666</ele><time>2026-04-24T10:55:44Z</time></trkpt><trkpt lat="44.09126619013168" lon="10.325054427247611"><ele>965.3333333333333</ele><time>2026-04-24T10:55:45Z</time></trkpt><trkpt lat="44.09119386011326" lon="10.324988843621414"><ele>962.0</ele><time>2026-04-24T10:55:46Z</time></trkpt><trkpt lat="44.09111720015076" lon="10.324923750672127"><ele>958.6666666666666</ele><time>2026-04-24T10:55:47Z</time></trkpt><trkpt lat="44.09105093550398" lon="10.324869763859503"><ele>955.3333333333333</ele><time>2026-04-24T10:55:48Z</time></trkpt><trkpt lat="44.09097617082035" lon="10.324811116949926"><ele>952.0</ele><time>2026-04-24T10:55:49Z</time></trkpt><trkpt lat="44.09089637494005" lon="10.324753563988748"><ele>952.0</ele><time>2026-04-24T10:55:50Z</time></trkpt><trkpt lat="44.09079075211476" lon="10.324804660292669"><ele>952.0</ele><time>2026-04-24T10:55:51Z</time></trkpt><trkpt lat="44.090708100574645" lon="10.32480754251352"><ele>952.0</ele><time>2026-04-24T10:55:52Z</time></trkpt><trkpt lat="44.09064295485049" lon="10.324796696256334"><ele>952.0</ele><time>2026-04-24T10:55:53Z</time></trkpt><trkpt lat="44.09052621502283" lon="10.324678422459233"><ele>952.0</ele><time>2026-04-24T10:55:55Z</time></trkpt><trkpt lat="44.090455264288224" lon="10.324555379386862"><ele>948.2</ele><time>2026-04-24T10:55:56Z</time></trkpt><trkpt lat="44.090391311558605" lon="10.324418648614223"><ele>944.4000000000001</ele><time>2026-04-24T10:55:57Z</time></trkpt><trkpt lat="44.09033169579566" lon="10.324296200408746"><ele>940.5999999999999</ele><time>2026-04-24T10:55:58Z</time></trkpt><trkpt lat="44.090311257061835" lon="10.324159559765247"><ele>936.8</ele><time>2026-04-24T10:55:59Z</time></trkpt><trkpt lat="44.09032830563342" lon="10.324023577230708"><ele>933.0</ele><time>2026-04-24T10:56:00Z</time></trkpt><trkpt lat="44.090349638924806" lon="10.323891990499163"><ele>933.0</ele><time>2026-04-24T10:56:01Z</time></trkpt><trkpt lat="44.09041790171655" lon="10.323760940831333"><ele>933.0</ele><time>2026-04-24T10:56:02Z</time></trkpt><trkpt lat="44.09045853267166" lon="10.323641052450899"><ele>933.0</ele><time>2026-04-24T10:56:03Z</time></trkpt><trkpt lat="44.09050083233258" lon="10.323517105732229"><ele>933.0</ele><time>2026-04-24T10:56:04Z</time></trkpt><trkpt lat="44.09050932239053" lon="10.323360256359084"><ele>933.0</ele><time>2026-04-24T10:56:05Z</time></trkpt><trkpt lat="44.09050407930959" lon="10.323172943734775"><ele>935.75</ele><time>2026-04-24T10:56:06Z</time></trkpt><trkpt lat="44.09052229407769" lon="10.322999694123537"><ele>938.5</ele><time>2026-04-24T10:56:07Z</time></trkpt><trkpt lat="44.09053700061559" lon="10.322829043603688"><ele>941.25</ele><time>2026-04-24T10:56:08Z</time></trkpt><trkpt lat="44.09054634062148" lon="10.322656150533268"><ele>944.0</ele><time>2026-04-24T10:56:09Z</time></trkpt><trkpt lat="44.09053806656923" lon="10.322490649629774"><ele>944.0</ele><time>2026-04-24T10:56:10Z</time></trkpt><trkpt lat="44.09051935536932" lon="10.322331254087668"><ele>944.0000000000001</ele><time>2026-04-24T10:56:11Z</time></trkpt><trkpt lat="44.09051447552078" lon="10.322178733630995"><ele>944.0000000000001</ele><time>2026-04-24T10:56:12Z</time></trkpt><trkpt lat="44.09052184584602" lon="10.322047325103798"><ele>944.0</ele><time>2026-04-24T10:56:13Z</time></trkpt><trkpt lat="44.090511998015785" lon="10.321927034004958"><ele>944.0</ele><time>2026-04-24T10:56:14Z</time></trkpt><trkpt lat="44.09052544789438" lon="10.321802446786672"><ele>949.8000000000001</ele><time>2026-04-24T10:56:15Z</time></trkpt><trkpt lat="44.09050839820187" lon="10.321701990300078"><ele>955.6000000000001</ele><time>2026-04-24T10:56:16Z</time></trkpt><trkpt lat="44.090487284628146" lon="10.32160952143615"><ele>961.4</ele><time>2026-04-24T10:56:17Z</time></trkpt><trkpt lat="44.09037909847819" lon="10.321558068313635"><ele>967.2</ele><time>2026-04-24T10:56:18Z</time></trkpt><trkpt lat="44.090266270821445" lon="10.321643911274693"><ele>973.0</ele><time>2026-04-24T10:56:19Z</time></trkpt><trkpt lat="44.090192860927054" lon="10.321745257298579"><ele>973.0</ele><time>2026-04-24T10:56:20Z</time></trkpt><trkpt lat="44.09013594740286" lon="10.321883662612528"><ele>973.0</ele><time>2026-04-24T10:56:21Z</time></trkpt><trkpt lat="44.090059716748996" lon="10.322022541514663"><ele>973.0</ele><time>2026-04-24T10:56:22Z</time></trkpt><trkpt lat="44.08997865288552" lon="10.322135613016544"><ele>973.0</ele><time>2026-04-24T10:56:23Z</time></trkpt><trkpt lat="44.08992571069038" lon="10.322246531735434"><ele>972.0</ele><time>2026-04-24T10:56:24Z</time></trkpt><trkpt lat="44.08985590949068" lon="10.322351995531516"><ele>971.0</ele><time>2026-04-24T10:56:25Z</time></trkpt><trkpt lat="44.08978368790612" lon="10.322462581959012"><ele>970.0</ele><time>2026-04-24T10:56:26Z</time></trkpt><trkpt lat="44.08969777966909" lon="10.322586606434436"><ele>969.0</ele><time>2026-04-24T10:56:27Z</time></trkpt><trkpt lat="44.089580183604" lon="10.322676663606416"><ele>969.0</ele><time>2026-04-24T10:56:28Z</time></trkpt><trkpt lat="44.08947296073365" lon="10.322753863136224"><ele>969.0</ele><time>2026-04-24T10:56:29Z</time></trkpt><trkpt lat="44.089365254045035" lon="10.322803023059674"><ele>969.0</ele><time>2026-04-24T10:56:30Z</time></trkpt><trkpt lat="44.08924067690853" lon="10.322825101166684"><ele>969.0</ele><time>2026-04-24T10:56:31Z</time></trkpt><trkpt lat="44.08911669077744" lon="10.32287460336204"><ele>971.6</ele><time>2026-04-24T10:56:32Z</time></trkpt><trkpt lat="44.08899997535325" lon="10.32286922674199"><ele>974.2</ele><time>2026-04-24T10:56:33Z</time></trkpt><trkpt lat="44.08889399558975" lon="10.32292627351153"><ele>976.8000000000001</ele><time>2026-04-24T10:56:34Z</time></trkpt><trkpt lat="44.088798122586155" lon="10.322969175275347"><ele>979.4000000000001</ele><time>2026-04-24T10:56:35Z</time></trkpt><trkpt lat="44.088710506858774" lon="10.323044027218367"><ele>982.0</ele><time>2026-04-24T10:56:36Z</time></trkpt><trkpt lat="44.088610396352585" lon="10.323072957759777"><ele>974.0</ele><time>2026-04-24T10:56:37Z</time></trkpt><trkpt lat="44.08849555109325" lon="10.323114700909404"><ele>966.0</ele><time>2026-04-24T10:56:38Z</time></trkpt><trkpt lat="44.08837775702283" lon="10.323135911839023"><ele>958.0</ele><time>2026-04-24T10:56:39Z</time></trkpt><trkpt lat="44.08826979831807" lon="10.323153975304313"><ele>950.0</ele><time>2026-04-24T10:56:40Z</time></trkpt><trkpt lat="44.08817463282565" lon="10.323178183937767"><ele>942.0</ele><time>2026-04-24T10:56:41Z</time></trkpt><trkpt lat="44.08808749864848" lon="10.323227313593893"><ele>942.0</ele><time>2026-04-24T10:56:42Z</time></trkpt><trkpt lat="44.088010238185575" lon="10.32327388953679"><ele>942.0</ele><time>2026-04-24T10:56:43Z</time></trkpt><trkpt lat="44.08792870571559" lon="10.323299658315094"><ele>942.0</ele><time>2026-04-24T10:56:44Z</time></trkpt><trkpt lat="44.087828050692714" lon="10.323311073541213"><ele>942.0</ele><time>2026-04-24T10:56:45Z</time></trkpt><trkpt lat="44.087716573994435" lon="10.323313061576876"><ele>942.0</ele><time>2026-04-24T10:56:46Z</time></trkpt><trkpt lat="44.08762019531667" lon="10.323338032025024"><ele>942.0</ele><time>2026-04-24T10:56:47Z</time></trkpt><trkpt lat="44.08752924357553" lon="10.32339236600168"><ele>942.0</ele><time>2026-04-24T10:56:48Z</time></trkpt><trkpt lat="44.087438562653674" lon="10.323448812391128"><ele>942.0</ele><time>2026-04-24T10:56:49Z</time></trkpt><trkpt lat="44.0873584268417" lon="10.32352790911797"><ele>942.0</ele><time>2026-04-24T10:56:50Z</time></trkpt><trkpt lat="44.08727497211726" lon="10.323573364995427"><ele>942.0</ele><time>2026-04-24T10:56:51Z</time></trkpt><trkpt lat="44.08719140602857" lon="10.32360630701724"><ele>939.8</ele><time>2026-04-24T10:56:52Z</time></trkpt><trkpt lat="44.08710548166378" lon="10.323622738851258"><ele>937.6</ele><time>2026-04-24T10:56:53Z</time></trkpt><trkpt lat="44.087009731485765" lon="10.323571203094504"><ele>935.3999999999999</ele><time>2026-04-24T10:56:54Z</time></trkpt><trkpt lat="44.08691930984698" lon="10.323533079170558"><ele>933.1999999999999</ele><time>2026-04-24T10:56:55Z</time></trkpt><trkpt lat="44.086842912151546" lon="10.32348019635528"><ele>931.0</ele><time>2026-04-24T10:56:56Z</time></trkpt><trkpt lat="44.086770130252575" lon="10.323410454406329"><ele>931.0</ele><time>2026-04-24T10:56:57Z</time></trkpt><trkpt lat="44.086720381142925" lon="10.3233046709858"><ele>930.9999999999999</ele><time>2026-04-24T10:56:58Z</time></trkpt><trkpt lat="44.086707143931875" lon="10.3231674177098"><ele>930.9999999999999</ele><time>2026-04-24T10:56:59Z</time></trkpt><trkpt lat="44.08668153980126" lon="10.323047646084136"><ele>931.0</ele><time>2026-04-24T10:57:00Z</time></trkpt><trkpt lat="44.08666598202469" lon="10.322921080229005"><ele>931.0</ele><time>2026-04-24T10:57:01Z</time></trkpt><trkpt lat="44.08662554982" lon="10.322815701322234"><ele>929.4</ele><time>2026-04-24T10:57:02Z</time></trkpt><trkpt lat="44.08658202290343" lon="10.322745786347484"><ele>927.8</ele><time>2026-04-24T10:57:03Z</time></trkpt><trkpt lat="44.086511963579675" lon="10.322685173954092"><ele>926.1999999999999</ele><time>2026-04-24T10:57:04Z</time></trkpt><trkpt lat="44.086415454788984" lon="10.322703155473764"><ele>924.5999999999999</ele><time>2026-04-24T10:57:05Z</time></trkpt><trkpt lat="44.0863073207662" lon="10.322761607109648"><ele>923.0</ele><time>2026-04-24T10:57:06Z</time></trkpt><trkpt lat="44.08619699570951" lon="10.322771313259867"><ele>923.0000000000001</ele><time>2026-04-24T10:57:07Z</time></trkpt><trkpt lat="44.08608828461913" lon="10.322754830033174"><ele>923.0</ele><time>2026-04-24T10:57:08Z</time></trkpt><trkpt lat="44.08599817053406" lon="10.322730594279975"><ele>923.0</ele><time>2026-04-24T10:57:09Z</time></trkpt><trkpt lat="44.08593573890273" lon="10.322665224618609"><ele>923.0</ele><time>2026-04-24T10:57:10Z</time></trkpt><trkpt lat="44.085863649069914" lon="10.322601847269905"><ele>923.0000000000001</ele><time>2026-04-24T10:57:11Z</time></trkpt><trkpt lat="44.085802206018265" lon="10.322532064873785"><ele>923.0</ele><time>2026-04-24T10:57:12Z</time></trkpt><trkpt lat="44.08573758864723" lon="10.32243787484125"><ele>918.5</ele><time>2026-04-24T10:57:13Z</time></trkpt><trkpt lat="44.08565473438291" lon="10.322310042686901"><ele>914.0</ele><time>2026-04-24T10:57:14Z</time></trkpt><trkpt lat="44.08556856851766" lon="10.32219596982264"><ele>909.5</ele><time>2026-04-24T10:57:15Z</time></trkpt><trkpt lat="44.08548633952336" lon="10.322087260726487"><ele>905.0</ele><time>2026-04-24T10:57:16Z</time></trkpt><trkpt lat="44.0854035782773" lon="10.321978363154276"><ele>905.0</ele><time>2026-04-24T10:57:17Z</time></trkpt><trkpt lat="44.08533678136302" lon="10.321877127580983"><ele>905.0</ele><time>2026-04-24T10:57:18Z</time></trkpt><trkpt lat="44.085289361386714" lon="10.321765377840451"><ele>905.0</ele><time>2026-04-24T10:57:19Z</time></trkpt><trkpt lat="44.085251868038576" lon="10.321621552009251"><ele>905.0</ele><time>2026-04-24T10:57:20Z</time></trkpt><trkpt lat="44.08517759111809" lon="10.32148712928512"><ele>905.0</ele><time>2026-04-24T10:57:21Z</time></trkpt><trkpt lat="44.08509914506241" lon="10.321342844085208"><ele>906.0</ele><time>2026-04-24T10:57:22Z</time></trkpt><trkpt lat="44.085022855763164" lon="10.321203183470518"><ele>907.0</ele><time>2026-04-24T10:57:23Z</time></trkpt><trkpt lat="44.08492702595645" lon="10.321094706998199"><ele>908.0</ele><time>2026-04-24T10:57:24Z</time></trkpt><trkpt lat="44.08484606042373" lon="10.320981073481336"><ele>909.0</ele><time>2026-04-24T10:57:25Z</time></trkpt><trkpt lat="44.08478843346747" lon="10.320837929083462"><ele>909.0</ele><time>2026-04-24T10:57:26Z</time></trkpt><trkpt lat="44.08474410120418" lon="10.320690173338221"><ele>909.0000000000001</ele><time>2026-04-24T10:57:27Z</time></trkpt><trkpt lat="44.08471913005918" lon="10.320565592550798"><ele>909.0000000000001</ele><time>2026-04-24T10:57:28Z</time></trkpt><trkpt lat="44.08470613500299" lon="10.32043066830852"><ele>909.0</ele><time>2026-04-24T10:57:29Z</time></trkpt><trkpt lat="44.08472865941649" lon="10.320281415789772"><ele>909.0</ele><time>2026-04-24T10:57:30Z</time></trkpt><trkpt lat="44.08472551974098" lon="10.320145515413536"><ele>912.0</ele><time>2026-04-24T10:57:31Z</time></trkpt><trkpt lat="44.08469134070104" lon="10.319977139961145"><ele>915.0</ele><time>2026-04-24T10:57:32Z</time></trkpt><trkpt lat="44.0846444082961" lon="10.319809643183259"><ele>918.0</ele><time>2026-04-24T10:57:33Z</time></trkpt><trkpt lat="44.084582508499096" lon="10.319681192385634"><ele>921.0</ele><time>2026-04-24T10:57:34Z</time></trkpt><trkpt lat="44.08453616800594" lon="10.319533981110684"><ele>922.6666666666666</ele><time>2026-04-24T10:57:35Z</time></trkpt><trkpt lat="44.084486897084744" lon="10.31941822971244"><ele>924.3333333333333</ele><time>2026-04-24T10:57:36Z</time></trkpt><trkpt lat="44.084427712183256" lon="10.31933089202142"><ele>926.0</ele><time>2026-04-24T10:57:37Z</time></trkpt><trkpt lat="44.08435289788325" lon="10.319281732980443"><ele>927.6666666666666</ele><time>2026-04-24T10:57:38Z</time></trkpt><trkpt lat="44.08426633473945" lon="10.319280519585716"><ele>929.3333333333333</ele><time>2026-04-24T10:57:39Z</time></trkpt><trkpt lat="44.084197030572696" lon="10.319339710530503"><ele>931.0</ele><time>2026-04-24T10:57:40Z</time></trkpt><trkpt lat="44.08413915079227" lon="10.319435735939841"><ele>931.0</ele><time>2026-04-24T10:57:41Z</time></trkpt><trkpt lat="44.08410241022462" lon="10.319557914049623"><ele>931.0</ele><time>2026-04-24T10:57:42Z</time></trkpt><trkpt lat="44.084109951793174" lon="10.319712040816656"><ele>931.0</ele><time>2026-04-24T10:57:43Z</time></trkpt><trkpt lat="44.08411239380806" lon="10.319883727442894"><ele>931.0</ele><time>2026-04-24T10:57:44Z</time></trkpt><trkpt lat="44.08406827199334" lon="10.320063241148906"><ele>936.75</ele><time>2026-04-24T10:57:45Z</time></trkpt><trkpt lat="44.08404070654168" lon="10.32022286640233"><ele>942.5</ele><time>2026-04-24T10:57:46Z</time></trkpt><trkpt lat="44.08402377738727" lon="10.320387893871066"><ele>948.25</ele><time>2026-04-24T10:57:47Z</time></trkpt><trkpt lat="44.08397367544662" lon="10.320550157185108"><ele>954.0</ele><time>2026-04-24T10:57:48Z</time></trkpt><trkpt lat="44.08393063833017" lon="10.320730088303648"><ele>954.0</ele><time>2026-04-24T10:57:49Z</time></trkpt><trkpt lat="44.08389314718544" lon="10.320897420616115"><ele>954.0000000000001</ele><time>2026-04-24T10:57:50Z</time></trkpt><trkpt lat="44.083862441610194" lon="10.32103952702113"><ele>954.0000000000001</ele><time>2026-04-24T10:57:51Z</time></trkpt><trkpt lat="44.08383403991661" lon="10.321177708136185"><ele>954.0</ele><time>2026-04-24T10:57:52Z</time></trkpt><trkpt lat="44.08381506395707" lon="10.321315100704895"><ele>954.0</ele><time>2026-04-24T10:57:53Z</time></trkpt><trkpt lat="44.08379500807542" lon="10.321455874736364"><ele>952.5</ele><time>2026-04-24T10:57:54Z</time></trkpt><trkpt lat="44.08382513978199" lon="10.32163949582112"><ele>951.0</ele><time>2026-04-24T10:57:55Z</time></trkpt><trkpt lat="44.0838287779347" lon="10.321829716803485"><ele>949.5</ele><time>2026-04-24T10:57:56Z</time></trkpt><trkpt lat="44.0838508521096" lon="10.32201617651095"><ele>948.0</ele><time>2026-04-24T10:57:57Z</time></trkpt><trkpt lat="44.08386999980878" lon="10.32217583731474"><ele>947.4</ele><time>2026-04-24T10:57:58Z</time></trkpt><trkpt lat="44.08388987272076" lon="10.322335123624837"><ele>946.8</ele><time>2026-04-24T10:57:59Z</time></trkpt><trkpt lat="44.08390714481186" lon="10.322484749384788"><ele>946.2</ele><time>2026-04-24T10:58:00Z</time></trkpt><trkpt lat="44.08393508776745" lon="10.322621820308408"><ele>945.6</ele><time>2026-04-24T10:58:01Z</time></trkpt><trkpt lat="44.08394923124222" lon="10.322766516485292"><ele>945.0</ele><time>2026-04-24T10:58:02Z</time></trkpt><trkpt lat="44.08393962748583" lon="10.322893058028356"><ele>945.0</ele><time>2026-04-24T10:58:03Z</time></trkpt><trkpt lat="44.08394005274666" lon="10.323004495212432"><ele>945.0</ele><time>2026-04-24T10:58:04Z</time></trkpt><trkpt lat="44.08390610870756" lon="10.323109393501241"><ele>945.0</ele><time>2026-04-24T10:58:05Z</time></trkpt><trkpt lat="44.083857673214304" lon="10.323193069047587"><ele>945.0</ele><time>2026-04-24T10:58:06Z</time></trkpt><trkpt lat="44.08377820401537" lon="10.323292655871633"><ele>945.0</ele><time>2026-04-24T10:58:07Z</time></trkpt><trkpt lat="44.08370112492081" lon="10.323379043555711"><ele>945.0</ele><time>2026-04-24T10:58:08Z</time></trkpt><trkpt lat="44.08363136331675" lon="10.32345703319805"><ele>941.6</ele><time>2026-04-24T10:58:09Z</time></trkpt><trkpt lat="44.083597112149164" lon="10.323595805853117"><ele>938.2</ele><time>2026-04-24T10:58:10Z</time></trkpt><trkpt lat="44.08357012194789" lon="10.32374175045667"><ele>934.8</ele><time>2026-04-24T10:58:11Z</time></trkpt><trkpt lat="44.08355430691048" lon="10.323879394327886"><ele>931.4</ele><time>2026-04-24T10:58:12Z</time></trkpt><trkpt lat="44.083540405542145" lon="10.324003134694392"><ele>928.0</ele><time>2026-04-24T10:58:13Z</time></trkpt><trkpt lat="44.083528371155886" lon="10.324131202910435"><ele>924.0</ele><time>2026-04-24T10:58:14Z</time></trkpt><trkpt lat="44.08350953209653" lon="10.32426689783662"><ele>920.0</ele><time>2026-04-24T10:58:15Z</time></trkpt><trkpt lat="44.08348729783375" lon="10.32438436094402"><ele>916.0</ele><time>2026-04-24T10:58:16Z</time></trkpt><trkpt lat="44.08344494024124" lon="10.324499149846408"><ele>912.0</ele><time>2026-04-24T10:58:17Z</time></trkpt><trkpt lat="44.08338966078156" lon="10.324581742276152"><ele>908.0</ele><time>2026-04-24T10:58:18Z</time></trkpt><trkpt lat="44.083317844444146" lon="10.324678161251532"><ele>905.8</ele><time>2026-04-24T10:58:19Z</time></trkpt><trkpt lat="44.08320133799765" lon="10.324719627315655"><ele>903.5999999999999</ele><time>2026-04-24T10:58:20Z</time></trkpt><trkpt lat="44.08309915601957" lon="10.324759372350554"><ele>901.4000000000001</ele><time>2026-04-24T10:58:21Z</time></trkpt><trkpt lat="44.08300212543654" lon="10.324782546608358"><ele>899.2</ele><time>2026-04-24T10:58:22Z</time></trkpt><trkpt lat="44.08289111181214" lon="10.324782716061705"><ele>897.0</ele><time>2026-04-24T10:58:23Z</time></trkpt><trkpt lat="44.082763810985625" lon="10.324775221064684"><ele>897.0</ele><time>2026-04-24T10:58:24Z</time></trkpt><trkpt lat="44.08263277071687" lon="10.324773139307236"><ele>897.0</ele><time>2026-04-24T10:58:25Z</time></trkpt><trkpt lat="44.082519651865354" lon="10.32477810764664"><ele>897.0</ele><time>2026-04-24T10:58:26Z</time></trkpt><trkpt lat="44.08241596952822" lon="10.324782031217342"><ele>897.0</ele><time>2026-04-24T10:58:27Z</time></trkpt><trkpt lat="44.08233475708726" lon="10.324784851189627"><ele>897.0</ele><time>2026-04-24T10:58:28Z</time></trkpt><trkpt lat="44.08226427963491" lon="10.324810496958822"><ele>905.4000000000001</ele><time>2026-04-24T10:58:29Z</time></trkpt><trkpt lat="44.08221370292174" lon="10.324900294705117"><ele>913.8000000000001</ele><time>2026-04-24T10:58:30Z</time></trkpt><trkpt lat="44.082182721762216" lon="10.325008210713035"><ele>922.2</ele><time>2026-04-24T10:58:31Z</time></trkpt><trkpt lat="44.082194184973375" lon="10.325148860042214"><ele>930.6</ele><time>2026-04-24T10:58:32Z</time></trkpt><trkpt lat="44.08225842624463" lon="10.32527217978924"><ele>939.0</ele><time>2026-04-24T10:58:33Z</time></trkpt><trkpt lat="44.082327734541245" lon="10.325402491555113"><ele>939.0</ele><time>2026-04-24T10:58:34Z</time></trkpt><trkpt lat="44.08239162453517" lon="10.32554865158342"><ele>939.0</ele><time>2026-04-24T10:58:35Z</time></trkpt><trkpt lat="44.08245533581608" lon="10.325719967216777"><ele>939.0</ele><time>2026-04-24T10:58:36Z</time></trkpt><trkpt lat="44.08250640925268" lon="10.325868118091508"><ele>939.0</ele><time>2026-04-24T10:58:37Z</time></trkpt><trkpt lat="44.08255180702813" lon="10.326003395650721"><ele>933.8333333333334</ele><time>2026-04-24T10:58:38Z</time></trkpt><trkpt lat="44.08258592621267" lon="10.326115881302034"><ele>928.6666666666667</ele><time>2026-04-24T10:58:39Z</time></trkpt><trkpt lat="44.0826130212154" lon="10.326224623441734"><ele>923.5</ele><time>2026-04-24T10:58:40Z</time></trkpt><trkpt lat="44.08262899765133" lon="10.326337788445892"><ele>918.3333333333334</ele><time>2026-04-24T10:58:41Z</time></trkpt><trkpt lat="44.08263555273722" lon="10.32644577166445"><ele>913.1666666666667</ele><time>2026-04-24T10:58:42Z</time></trkpt><trkpt lat="44.08262261320174" lon="10.326551930508316"><ele>908.0</ele><time>2026-04-24T10:58:43Z</time></trkpt><trkpt lat="44.082555552900835" lon="10.326627534869607"><ele>908.0</ele><time>2026-04-24T10:58:44Z</time></trkpt><trkpt lat="44.082526523543" lon="10.326732274127739"><ele>908.0</ele><time>2026-04-24T10:58:45Z</time></trkpt><trkpt lat="44.08252309165785" lon="10.326856357986843"><ele>908.0</ele><time>2026-04-24T10:58:46Z</time></trkpt><trkpt lat="44.08257417357229" lon="10.326975139198657"><ele>908.0</ele><time>2026-04-24T10:58:47Z</time></trkpt><trkpt lat="44.082689115328705" lon="10.327035640184379"><ele>908.0</ele><time>2026-04-24T10:58:48Z</time></trkpt><trkpt lat="44.08279507824473" lon="10.327074907974726"><ele>908.0</ele><time>2026-04-24T10:58:49Z</time></trkpt><trkpt lat="44.082910272294285" lon="10.327123769856168"><ele>908.0</ele><time>2026-04-24T10:58:50Z</time></trkpt><trkpt lat="44.08303742577648" lon="10.327183385337266"><ele>908.0</ele><time>2026-04-24T10:58:51Z</time></trkpt><trkpt lat="44.08313992880951" lon="10.327245669980309"><ele>908.0</ele><time>2026-04-24T10:58:52Z</time></trkpt><trkpt lat="44.08323244179218" lon="10.327317379409015"><ele>905.75</ele><time>2026-04-24T10:58:53Z</time></trkpt><trkpt lat="44.083323844459066" lon="10.3274143077045"><ele>903.5</ele><time>2026-04-24T10:58:54Z</time></trkpt><trkpt lat="44.08342829614181" lon="10.327540998150305"><ele>901.25</ele><time>2026-04-24T10:58:55Z</time></trkpt><trkpt lat="44.08353983840653" lon="10.327678347869352"><ele>899.0</ele><time>2026-04-24T10:58:56Z</time></trkpt><trkpt lat="44.08363920950284" lon="10.327790891410212"><ele>899.0</ele><time>2026-04-24T10:58:57Z</time></trkpt><trkpt lat="44.08373490549731" lon="10.327891375896867"><ele>899.0000000000001</ele><time>2026-04-24T10:58:58Z</time></trkpt><trkpt lat="44.08382321706153" lon="10.327984690575203"><ele>899.0000000000001</ele><time>2026-04-24T10:58:59Z</time></trkpt><trkpt lat="44.083905595914196" lon="10.328075275436884"><ele>899.0</ele><time>2026-04-24T10:59:00Z</time></trkpt><trkpt lat="44.083980905033926" lon="10.328167068572087"><ele>899.0</ele><time>2026-04-24T10:59:01Z</time></trkpt><trkpt lat="44.08404737969477" lon="10.328277281734909"><ele>898.6</ele><time>2026-04-24T10:59:02Z</time></trkpt><trkpt lat="44.08409451624598" lon="10.328414673614194"><ele>898.2</ele><time>2026-04-24T10:59:03Z</time></trkpt><trkpt lat="44.084126044414916" lon="10.328570639829552"><ele>897.8000000000001</ele><time>2026-04-24T10:59:04Z</time></trkpt><trkpt lat="44.08414406730141" lon="10.328726323543053"><ele>897.4000000000001</ele><time>2026-04-24T10:59:05Z</time></trkpt><trkpt lat="44.08415774914741" lon="10.328857113881432"><ele>897.0</ele><time>2026-04-24T10:59:06Z</time></trkpt><trkpt lat="44.08416859507394" lon="10.32896214827683"><ele>897.0</ele><time>2026-04-24T10:59:07Z</time></trkpt><trkpt lat="44.08419312663687" lon="10.329094736855044"><ele>897.0</ele><time>2026-04-24T10:59:09Z</time></trkpt><trkpt lat="44.084210339385855" lon="10.329217817129802"><ele>897.0</ele><time>2026-04-24T10:59:11Z</time></trkpt><trkpt lat="44.0841395034411" lon="10.32933106594763"><ele>897.0</ele><time>2026-04-24T10:59:13Z</time></trkpt><trkpt lat="44.08400410635281" lon="10.329381467851489"><ele>897.0</ele><time>2026-04-24T10:59:15Z</time></trkpt><trkpt lat="44.083890774732296" lon="10.329384530254039"><ele>897.4000000000001</ele><time>2026-04-24T10:59:16Z</time></trkpt><trkpt lat="44.08376703324244" lon="10.32939164792233"><ele>897.8000000000001</ele><time>2026-04-24T10:59:17Z</time></trkpt><trkpt lat="44.08366985490135" lon="10.329442913507718"><ele>898.2</ele><time>2026-04-24T10:59:18Z</time></trkpt><trkpt lat="44.08360400335436" lon="10.329561491344089"><ele>898.6</ele><time>2026-04-24T10:59:19Z</time></trkpt><trkpt lat="44.08354304933786" lon="10.329686485677527"><ele>899.0</ele><time>2026-04-24T10:59:20Z</time></trkpt><trkpt lat="44.083449940040246" lon="10.329733395204554"><ele>899.0000000000001</ele><time>2026-04-24T10:59:21Z</time></trkpt><trkpt lat="44.083387506957884" lon="10.329809648044826"><ele>899.0</ele><time>2026-04-24T10:59:22Z</time></trkpt><trkpt lat="44.083324249045916" lon="10.329888996731924"><ele>899.0</ele><time>2026-04-24T10:59:23Z</time></trkpt><trkpt lat="44.08326934395566" lon="10.329976502751895"><ele>899.0</ele><time>2026-04-24T10:59:24Z</time></trkpt><trkpt lat="44.08321491545243" lon="10.330032839834521"><ele>899.0000000000001</ele><time>2026-04-24T10:59:25Z</time></trkpt><trkpt lat="44.08317685311191" lon="10.33012096176155"><ele>899.0</ele><time>2026-04-24T10:59:26Z</time></trkpt><trkpt lat="44.083170233315556" lon="10.330243191824582"><ele>899.0</ele><time>2026-04-24T10:59:27Z</time></trkpt><trkpt lat="44.08327285237925" lon="10.330393198763868"><ele>899.0</ele><time>2026-04-24T10:59:28Z</time></trkpt><trkpt lat="44.083367293361135" lon="10.330502478532154"><ele>899.0</ele><time>2026-04-24T10:59:29Z</time></trkpt><trkpt lat="44.08346451464394" lon="10.330592584953852"><ele>899.0</ele><time>2026-04-24T10:59:30Z</time></trkpt><trkpt lat="44.08354616220315" lon="10.330676861198283"><ele>897.5</ele><time>2026-04-24T10:59:31Z</time></trkpt><trkpt lat="44.083611548412144" lon="10.330768675038085"><ele>896.0</ele><time>2026-04-24T10:59:32Z</time></trkpt><trkpt lat="44.083658995357474" lon="10.330920965500667"><ele>894.5</ele><time>2026-04-24T10:59:34Z</time></trkpt><trkpt lat="44.083594169796704" lon="10.331090690136417"><ele>893.0</ele><time>2026-04-24T10:59:36Z</time></trkpt><trkpt lat="44.08350472375462" lon="10.331203994507856"><ele>893.0</ele><time>2026-04-24T10:59:37Z</time></trkpt><trkpt lat="44.08339597604308" lon="10.331348845315846"><ele>893.0</ele><time>2026-04-24T10:59:38Z</time></trkpt><trkpt lat="44.083308229715065" lon="10.331498476063903"><ele>893.0</ele><time>2026-04-24T10:59:39Z</time></trkpt><trkpt lat="44.08321839487311" lon="10.33162371419036"><ele>893.0</ele><time>2026-04-24T10:59:40Z</time></trkpt><trkpt lat="44.0831318184163" lon="10.331752955429334"><ele>893.75</ele><time>2026-04-24T10:59:41Z</time></trkpt><trkpt lat="44.0830371866986" lon="10.331859863007693"><ele>894.5</ele><time>2026-04-24T10:59:42Z</time></trkpt><trkpt lat="44.082954192981525" lon="10.331981044336938"><ele>895.25</ele><time>2026-04-24T10:59:43Z</time></trkpt><trkpt lat="44.08286788543319" lon="10.332103710404692"><ele>896.0</ele><time>2026-04-24T10:59:44Z</time></trkpt><trkpt lat="44.08278657186374" lon="10.332205724663114"><ele>894.0</ele><time>2026-04-24T10:59:45Z</time></trkpt><trkpt lat="44.082712809518256" lon="10.332316272372502"><ele>891.9999999999999</ele><time>2026-04-24T10:59:46Z</time></trkpt><trkpt lat="44.082644309583095" lon="10.332398108577237"><ele>889.9999999999999</ele><time>2026-04-24T10:59:47Z</time></trkpt><trkpt lat="44.0825902234756" lon="10.332475141389095"><ele>888.0</ele><time>2026-04-24T10:59:48Z</time></trkpt><trkpt lat="44.08251187494514" lon="10.332546008061856"><ele>886.0</ele><time>2026-04-24T10:59:49Z</time></trkpt><trkpt lat="44.082419039438534" lon="10.332549348739867"><ele>885.9999999999999</ele><time>2026-04-24T10:59:50Z</time></trkpt><trkpt lat="44.082312711175724" lon="10.332583523179178"><ele>886.0</ele><time>2026-04-24T10:59:51Z</time></trkpt><trkpt lat="44.082221756438436" lon="10.332577079446812"><ele>886.0</ele><time>2026-04-24T10:59:52Z</time></trkpt><trkpt lat="44.08214792574757" lon="10.332580151208939"><ele>886.0</ele><time>2026-04-24T10:59:53Z</time></trkpt><trkpt lat="44.082075953175476" lon="10.332611804153927"><ele>885.9999999999999</ele><time>2026-04-24T10:59:54Z</time></trkpt><trkpt lat="44.08200863265056" lon="10.332683290068115"><ele>886.0</ele><time>2026-04-24T10:59:55Z</time></trkpt><trkpt lat="44.08195590261888" lon="10.332835673211179"><ele>885.9999999999999</ele><time>2026-04-24T10:59:56Z</time></trkpt><trkpt lat="44.08194006313691" lon="10.332979098172155"><ele>886.0</ele><time>2026-04-24T10:59:57Z</time></trkpt><trkpt lat="44.08192696740223" lon="10.333103812460804"><ele>886.0</ele><time>2026-04-24T10:59:58Z</time></trkpt><trkpt lat="44.081907765760825" lon="10.333210690842154"><ele>886.0</ele><time>2026-04-24T10:59:59Z</time></trkpt><trkpt lat="44.08186300043196" lon="10.333309637731448"><ele>885.9999999999999</ele><time>2026-04-24T11:00:00Z</time></trkpt><trkpt lat="44.081789987718636" lon="10.333382580326129"><ele>886.0</ele><time>2026-04-24T11:00:01Z</time></trkpt><trkpt lat="44.0816942399819" lon="10.333442425978209"><ele>886.5</ele><time>2026-04-24T11:00:02Z</time></trkpt><trkpt lat="44.081577953199854" lon="10.333497766151869"><ele>887.0</ele><time>2026-04-24T11:00:03Z</time></trkpt><trkpt lat="44.08145023766114" lon="10.33354041545897"><ele>887.5</ele><time>2026-04-24T11:00:04Z</time></trkpt><trkpt lat="44.08131927118535" lon="10.333594486505877"><ele>888.0</ele><time>2026-04-24T11:00:05Z</time></trkpt><trkpt lat="44.081187530486915" lon="10.333685211864857"><ele>888.0</ele><time>2026-04-24T11:00:06Z</time></trkpt><trkpt lat="44.08106238222864" lon="10.333784628401336"><ele>888.0</ele><time>2026-04-24T11:00:07Z</time></trkpt><trkpt lat="44.080932252182166" lon="10.333880275769705"><ele>888.0</ele><time>2026-04-24T11:00:08Z</time></trkpt><trkpt lat="44.0807893265352" lon="10.333931263203404"><ele>888.0</ele><time>2026-04-24T11:00:09Z</time></trkpt><trkpt lat="44.08066116580616" lon="10.333998109101906"><ele>879.0</ele><time>2026-04-24T11:00:10Z</time></trkpt><trkpt lat="44.08054443833658" lon="10.334082789998908"><ele>870.0</ele><time>2026-04-24T11:00:11Z</time></trkpt><trkpt lat="44.08041319368082" lon="10.334128313647726"><ele>861.0</ele><time>2026-04-24T11:00:12Z</time></trkpt><trkpt lat="44.080294807150416" lon="10.334194109313026"><ele>852.0</ele><time>2026-04-24T11:00:13Z</time></trkpt><trkpt lat="44.080188225966324" lon="10.334278120005296"><ele>852.0</ele><time>2026-04-24T11:00:14Z</time></trkpt><trkpt lat="44.08008465003495" lon="10.33432872932293"><ele>852.0</ele><time>2026-04-24T11:00:15Z</time></trkpt><trkpt lat="44.07996962914173" lon="10.334347119992682"><ele>852.0</ele><time>2026-04-24T11:00:16Z</time></trkpt><trkpt lat="44.079841480370845" lon="10.334333231656906"><ele>852.0</ele><time>2026-04-24T11:00:17Z</time></trkpt><trkpt lat="44.07971319820049" lon="10.334360745316532"><ele>854.25</ele><time>2026-04-24T11:00:18Z</time></trkpt><trkpt lat="44.07959369678999" lon="10.334346855978694"><ele>856.5</ele><time>2026-04-24T11:00:19Z</time></trkpt><trkpt lat="44.079470451955224" lon="10.334346758137235"><ele>858.75</ele><time>2026-04-24T11:00:20Z</time></trkpt><trkpt lat="44.079357314465994" lon="10.334371225208093"><ele>861.0</ele><time>2026-04-24T11:00:21Z</time></trkpt><trkpt lat="44.07923843015553" lon="10.33443005735792"><ele>861.0</ele><time>2026-04-24T11:00:22Z</time></trkpt><trkpt lat="44.07913329650632" lon="10.334504733405783"><ele>860.9999999999999</ele><time>2026-04-24T11:00:23Z</time></trkpt><trkpt lat="44.07904114757456" lon="10.334573056836504"><ele>860.9999999999999</ele><time>2026-04-24T11:00:24Z</time></trkpt><trkpt lat="44.07893966109237" lon="10.334611177907874"><ele>861.0</ele><time>2026-04-24T11:00:25Z</time></trkpt><trkpt lat="44.078835357371645" lon="10.334603831949266"><ele>861.0</ele><time>2026-04-24T11:00:26Z</time></trkpt><trkpt lat="44.078725813901116" lon="10.33459011905079"><ele>861.75</ele><time>2026-04-24T11:00:27Z</time></trkpt><trkpt lat="44.078610851270156" lon="10.334593300378158"><ele>862.5</ele><time>2026-04-24T11:00:28Z</time></trkpt><trkpt lat="44.07850243626389" lon="10.334627727937196"><ele>863.25</ele><time>2026-04-24T11:00:29Z</time></trkpt><trkpt lat="44.07839769207792" lon="10.334692265273723"><ele>864.0</ele><time>2026-04-24T11:00:30Z</time></trkpt><trkpt lat="44.07827963169305" lon="10.334766354708018"><ele>861.0</ele><time>2026-04-24T11:00:31Z</time></trkpt><trkpt lat="44.07817962177899" lon="10.334854227248188"><ele>858.0000000000001</ele><time>2026-04-24T11:00:32Z</time></trkpt><trkpt lat="44.07809621473416" lon="10.334955350734026"><ele>855.0</ele><time>2026-04-24T11:00:33Z</time></trkpt><trkpt lat="44.07801882841524" lon="10.335033811701136"><ele>852.0</ele><time>2026-04-24T11:00:34Z</time></trkpt><trkpt lat="44.077930978411935" lon="10.335125343028412"><ele>849.0</ele><time>2026-04-24T11:00:35Z</time></trkpt><trkpt lat="44.077836718296176" lon="10.335211427859358"><ele>849.0</ele><time>2026-04-24T11:00:36Z</time></trkpt><trkpt lat="44.07774399839327" lon="10.33530502280065"><ele>849.0</ele><time>2026-04-24T11:00:37Z</time></trkpt><trkpt lat="44.07763624133002" lon="10.335325282899785"><ele>849.0</ele><time>2026-04-24T11:00:38Z</time></trkpt><trkpt lat="44.077513897986464" lon="10.33535041559168"><ele>849.0</ele><time>2026-04-24T11:00:39Z</time></trkpt><trkpt lat="44.07741252697964" lon="10.335401115028471"><ele>846.4000000000001</ele><time>2026-04-24T11:00:40Z</time></trkpt><trkpt lat="44.07731450327189" lon="10.33546169719235"><ele>843.8</ele><time>2026-04-24T11:00:41Z</time></trkpt><trkpt lat="44.07721890701925" lon="10.33552274540199"><ele>841.2</ele><time>2026-04-24T11:00:42Z</time></trkpt><trkpt lat="44.077138887340666" lon="10.335577199354743"><ele>838.5999999999999</ele><time>2026-04-24T11:00:43Z</time></trkpt><trkpt lat="44.07706269385635" lon="10.33561381814884"><ele>836.0</ele><time>2026-04-24T11:00:44Z</time></trkpt><trkpt lat="44.07698885615653" lon="10.335603444953204"><ele>836.0</ele><time>2026-04-24T11:00:45Z</time></trkpt><trkpt lat="44.0769071146472" lon="10.335566391045344"><ele>836.0</ele><time>2026-04-24T11:00:46Z</time></trkpt><trkpt lat="44.076817898854195" lon="10.335506684398029"><ele>836.0</ele><time>2026-04-24T11:00:47Z</time></trkpt><trkpt lat="44.07671640057915" lon="10.335428741106375"><ele>836.0</ele><time>2026-04-24T11:00:48Z</time></trkpt><trkpt lat="44.07662402684259" lon="10.335363255776652"><ele>836.0</ele><time>2026-04-24T11:00:49Z</time></trkpt><trkpt lat="44.07652956761006" lon="10.335297556436311"><ele>829.4</ele><time>2026-04-24T11:00:50Z</time></trkpt><trkpt lat="44.07643887575424" lon="10.335240798251625"><ele>822.8</ele><time>2026-04-24T11:00:51Z</time></trkpt><trkpt lat="44.07634310011385" lon="10.335202545206064"><ele>816.1999999999999</ele><time>2026-04-24T11:00:52Z</time></trkpt><trkpt lat="44.076248286538615" lon="10.335185047271837"><ele>809.5999999999999</ele><time>2026-04-24T11:00:53Z</time></trkpt><trkpt lat="44.07616545200453" lon="10.33516810868417"><ele>803.0</ele><time>2026-04-24T11:00:54Z</time></trkpt><trkpt lat="44.076081507000616" lon="10.335144714224365"><ele>803.0000000000001</ele><time>2026-04-24T11:00:55Z</time></trkpt><trkpt lat="44.076007919889406" lon="10.335110571712088"><ele>803.0</ele><time>2026-04-24T11:00:56Z</time></trkpt><trkpt lat="44.0759511188518" lon="10.33503601846196"><ele>803.0</ele><time>2026-04-24T11:00:57Z</time></trkpt><trkpt lat="44.07593956074697" lon="10.334923559504931"><ele>803.0</ele><time>2026-04-24T11:00:58Z</time></trkpt><trkpt lat="44.07594545045435" lon="10.334810567820288"><ele>803.0000000000001</ele><time>2026-04-24T11:00:59Z</time></trkpt><trkpt lat="44.07595104750184" lon="10.334649278241297"><ele>803.0</ele><time>2026-04-24T11:01:00Z</time></trkpt><trkpt lat="44.07594925867473" lon="10.334473218112246"><ele>803.75</ele><time>2026-04-24T11:01:01Z</time></trkpt><trkpt lat="44.07591227063522" lon="10.334298263479837"><ele>804.5</ele><time>2026-04-24T11:01:02Z</time></trkpt><trkpt lat="44.07589095835925" lon="10.33413553046218"><ele>805.25</ele><time>2026-04-24T11:01:03Z</time></trkpt><trkpt lat="44.07589297455769" lon="10.333970527293364"><ele>806.0</ele><time>2026-04-24T11:01:04Z</time></trkpt><trkpt lat="44.075893165151996" lon="10.333815035823823"><ele>806.0</ele><time>2026-04-24T11:01:05Z</time></trkpt><trkpt lat="44.07588876588045" lon="10.333664389482012"><ele>806.0</ele><time>2026-04-24T11:01:06Z</time></trkpt><trkpt lat="44.07588170394304" lon="10.333517763704329"><ele>806.0</ele><time>2026-04-24T11:01:07Z</time></trkpt><trkpt lat="44.07587967159409" lon="10.333376489859441"><ele>806.0</ele><time>2026-04-24T11:01:08Z</time></trkpt><trkpt lat="44.07585021770057" lon="10.333238423749162"><ele>806.0</ele><time>2026-04-24T11:01:09Z</time></trkpt><trkpt lat="44.07579437684675" lon="10.333098901364265"><ele>793.0</ele><time>2026-04-24T11:01:10Z</time></trkpt><trkpt lat="44.07572627541542" lon="10.332984928829465"><ele>780.0</ele><time>2026-04-24T11:01:11Z</time></trkpt><trkpt lat="44.07567079392235" lon="10.33287033012467"><ele>767.0</ele><time>2026-04-24T11:01:12Z</time></trkpt><trkpt lat="44.07562734011563" lon="10.332745131358031"><ele>754.0</ele><time>2026-04-24T11:01:13Z</time></trkpt><trkpt lat="44.07560469053412" lon="10.332611853133232"><ele>741.0</ele><time>2026-04-24T11:01:14Z</time></trkpt><trkpt lat="44.07559054141307" lon="10.332456252892428"><ele>741.0</ele><time>2026-04-24T11:01:15Z</time></trkpt><trkpt lat="44.07558418299848" lon="10.33227087618823"><ele>741.0</ele><time>2026-04-24T11:01:16Z</time></trkpt><trkpt lat="44.0755867193277" lon="10.332105425320426"><ele>741.0</ele><time>2026-04-24T11:01:17Z</time></trkpt><trkpt lat="44.07559198481055" lon="10.331948221822513"><ele>741.0</ele><time>2026-04-24T11:01:18Z</time></trkpt><trkpt lat="44.075577883835614" lon="10.331798146074393"><ele>744.3333333333334</ele><time>2026-04-24T11:01:19Z</time></trkpt><trkpt lat="44.07555970331542" lon="10.331646170584676"><ele>747.6666666666666</ele><time>2026-04-24T11:01:20Z</time></trkpt><trkpt lat="44.075562308646184" lon="10.331527321012528"><ele>751.0</ele><time>2026-04-24T11:01:21Z</time></trkpt><trkpt lat="44.07558523921822" lon="10.33140753964916"><ele>754.3333333333333</ele><time>2026-04-24T11:01:22Z</time></trkpt><trkpt lat="44.075602223606595" lon="10.331301357119965"><ele>757.6666666666666</ele><time>2026-04-24T11:01:23Z</time></trkpt><trkpt lat="44.07560304042373" lon="10.331201211122973"><ele>761.0</ele><time>2026-04-24T11:01:24Z</time></trkpt><trkpt lat="44.07557195311322" lon="10.331084511995915"><ele>766.5</ele><time>2026-04-24T11:01:25Z</time></trkpt><trkpt lat="44.07551144564002" lon="10.3309669085009"><ele>772.0</ele><time>2026-04-24T11:01:26Z</time></trkpt><trkpt lat="44.07541457080424" lon="10.330855879482764"><ele>777.5</ele><time>2026-04-24T11:01:27Z</time></trkpt><trkpt lat="44.07532248922841" lon="10.33074935489562"><ele>783.0</ele><time>2026-04-24T11:01:28Z</time></trkpt><trkpt lat="44.075230847263185" lon="10.330655472118996"><ele>783.0</ele><time>2026-04-24T11:01:29Z</time></trkpt><trkpt lat="44.075145170206625" lon="10.330575238622336"><ele>783.0</ele><time>2026-04-24T11:01:30Z</time></trkpt><trkpt lat="44.07507379178728" lon="10.33048444841926"><ele>783.0</ele><time>2026-04-24T11:01:31Z</time></trkpt><trkpt lat="44.07502428908658" lon="10.330373503866433"><ele>783.0</ele><time>2026-04-24T11:01:32Z</time></trkpt><trkpt lat="44.074971236190734" lon="10.33029901908607"><ele>783.0</ele><time>2026-04-24T11:01:33Z</time></trkpt><trkpt lat="44.07488651623098" lon="10.330167743800185"><ele>791.2</ele><time>2026-04-24T11:01:35Z</time></trkpt><trkpt lat="44.07482227848373" lon="10.330131107923991"><ele>799.4</ele><time>2026-04-24T11:01:36Z</time></trkpt><trkpt lat="44.074739663465756" lon="10.330182406295778"><ele>807.6</ele><time>2026-04-24T11:01:37Z</time></trkpt><trkpt lat="44.0746687481022" lon="10.330311584285468"><ele>815.8000000000001</ele><time>2026-04-24T11:01:38Z</time></trkpt><trkpt lat="44.07459623455115" lon="10.330436847648224"><ele>824.0</ele><time>2026-04-24T11:01:39Z</time></trkpt><trkpt lat="44.07450024345395" lon="10.33055704582391"><ele>814.0</ele><time>2026-04-24T11:01:40Z</time></trkpt><trkpt lat="44.07440152329664" lon="10.330690919891286"><ele>804.0</ele><time>2026-04-24T11:01:41Z</time></trkpt><trkpt lat="44.07430553643943" lon="10.330784365317523"><ele>794.0</ele><time>2026-04-24T11:01:42Z</time></trkpt><trkpt lat="44.0742248057005" lon="10.330881279282751"><ele>784.0</ele><time>2026-04-24T11:01:43Z</time></trkpt><trkpt lat="44.07414946240795" lon="10.33096384005773"><ele>782.4000000000001</ele><time>2026-04-24T11:01:44Z</time></trkpt><trkpt lat="44.07406323827366" lon="10.330984921938843"><ele>780.8</ele><time>2026-04-24T11:01:45Z</time></trkpt><trkpt lat="44.07398180303355" lon="10.330926509011887"><ele>779.2</ele><time>2026-04-24T11:01:46Z</time></trkpt><trkpt lat="44.07388998391926" lon="10.330892248747848"><ele>777.5999999999999</ele><time>2026-04-24T11:01:47Z</time></trkpt><trkpt lat="44.073782256041135" lon="10.330818599963326"><ele>776.0</ele><time>2026-04-24T11:01:48Z</time></trkpt><trkpt lat="44.07367940780512" lon="10.330771779217741"><ele>776.0</ele><time>2026-04-24T11:01:49Z</time></trkpt><trkpt lat="44.073586070381516" lon="10.330721938805361"><ele>776.0</ele><time>2026-04-24T11:01:50Z</time></trkpt><trkpt lat="44.07347283616614" lon="10.33077981091879"><ele>776.0</ele><time>2026-04-24T11:01:51Z</time></trkpt><trkpt lat="44.0733556742605" lon="10.330814266833084"><ele>776.0</ele><time>2026-04-24T11:01:52Z</time></trkpt><trkpt lat="44.07324952070207" lon="10.3308529454892"><ele>769.5000000000001</ele><time>2026-04-24T11:01:53Z</time></trkpt><trkpt lat="44.07316096799467" lon="10.330912077950273"><ele>763.0</ele><time>2026-04-24T11:01:54Z</time></trkpt><trkpt lat="44.073083285146424" lon="10.330919848945191"><ele>756.5</ele><time>2026-04-24T11:01:55Z</time></trkpt><trkpt lat="44.07301621537822" lon="10.330938746744764"><ele>750.0</ele><time>2026-04-24T11:01:56Z</time></trkpt><trkpt lat="44.072949441849595" lon="10.330955958790438"><ele>743.5</ele><time>2026-04-24T11:01:57Z</time></trkpt><trkpt lat="44.072889267323326" lon="10.33089180476413"><ele>737.0</ele><time>2026-04-24T11:01:58Z</time></trkpt><trkpt lat="44.07285420555884" lon="10.330768470038405"><ele>737.0</ele><time>2026-04-24T11:01:59Z</time></trkpt><trkpt lat="44.07281779447895" lon="10.330633852362634"><ele>737.0</ele><time>2026-04-24T11:02:00Z</time></trkpt><trkpt lat="44.0727527987198" lon="10.330488309253058"><ele>737.0</ele><time>2026-04-24T11:02:01Z</time></trkpt><trkpt lat="44.07270034659803" lon="10.330357047123643"><ele>737.0</ele><time>2026-04-24T11:02:02Z</time></trkpt><trkpt lat="44.07264889514666" lon="10.330236704199093"><ele>737.0</ele><time>2026-04-24T11:02:03Z</time></trkpt><trkpt lat="44.07261870727022" lon="10.330110336970035"><ele>741.0</ele><time>2026-04-24T11:02:04Z</time></trkpt><trkpt lat="44.072612158411715" lon="10.32998036498167"><ele>745.0</ele><time>2026-04-24T11:02:05Z</time></trkpt><trkpt lat="44.07263303225226" lon="10.329865916419834"><ele>749.0</ele><time>2026-04-24T11:02:06Z</time></trkpt><trkpt lat="44.072699048207056" lon="10.329784429919169"><ele>753.0</ele><time>2026-04-24T11:02:07Z</time></trkpt><trkpt lat="44.07275002214797" lon="10.329690133388517"><ele>757.0</ele><time>2026-04-24T11:02:08Z</time></trkpt><trkpt lat="44.072824996445576" lon="10.329604862265843"><ele>761.0</ele><time>2026-04-24T11:02:09Z</time></trkpt><trkpt lat="44.072871922457594" lon="10.329496728725328"><ele>766.5999999999999</ele><time>2026-04-24T11:02:10Z</time></trkpt><trkpt lat="44.07288731117937" lon="10.329369346753262"><ele>772.2</ele><time>2026-04-24T11:02:11Z</time></trkpt><trkpt lat="44.07285696458839" lon="10.32925250033352"><ele>777.8</ele><time>2026-04-24T11:02:12Z</time></trkpt><trkpt lat="44.072811191245506" lon="10.329151980242242"><ele>783.4000000000001</ele><time>2026-04-24T11:02:13Z</time></trkpt><trkpt lat="44.072711731919064" lon="10.329091005917368"><ele>789.0</ele><time>2026-04-24T11:02:14Z</time></trkpt><trkpt lat="44.07261608558997" lon="10.329027237671118"><ele>789.0</ele><time>2026-04-24T11:02:15Z</time></trkpt><trkpt lat="44.07251655682102" lon="10.329000000494787"><ele>789.0</ele><time>2026-04-24T11:02:16Z</time></trkpt><trkpt lat="44.072414268747984" lon="10.328998226347583"><ele>789.0</ele><time>2026-04-24T11:02:17Z</time></trkpt><trkpt lat="44.072323358768244" lon="10.328972397379587"><ele>789.0</ele><time>2026-04-24T11:02:18Z</time></trkpt><trkpt lat="44.07226095428942" lon="10.328914704933336"><ele>789.0</ele><time>2026-04-24T11:02:19Z</time></trkpt><trkpt lat="44.07221105548281" lon="10.328818173824946"><ele>776.6</ele><time>2026-04-24T11:02:20Z</time></trkpt><trkpt lat="44.072188845835534" lon="10.328708165832726"><ele>764.2</ele><time>2026-04-24T11:02:21Z</time></trkpt><trkpt lat="44.072173783702695" lon="10.328588397451334"><ele>751.8000000000001</ele><time>2026-04-24T11:02:22Z</time></trkpt><trkpt lat="44.072182814060014" lon="10.32847123899499"><ele>739.4000000000001</ele><time>2026-04-24T11:02:23Z</time></trkpt><trkpt lat="44.07221488614558" lon="10.32835231316053"><ele>727.0</ele><time>2026-04-24T11:02:24Z</time></trkpt><trkpt lat="44.07226786579424" lon="10.328206403549345"><ele>719.5</ele><time>2026-04-24T11:02:25Z</time></trkpt><trkpt lat="44.07233164410354" lon="10.328038209351782"><ele>712.0</ele><time>2026-04-24T11:02:26Z</time></trkpt><trkpt lat="44.07239533320901" lon="10.327879677961533"><ele>704.5</ele><time>2026-04-24T11:02:27Z</time></trkpt><trkpt lat="44.07244002797548" lon="10.327724316688332"><ele>697.0</ele><time>2026-04-24T11:02:28Z</time></trkpt><trkpt lat="44.07245313734637" lon="10.327563165347279"><ele>697.0</ele><time>2026-04-24T11:02:29Z</time></trkpt><trkpt lat="44.072433252013745" lon="10.327406765442587"><ele>697.0</ele><time>2026-04-24T11:02:30Z</time></trkpt><trkpt lat="44.07240090422861" lon="10.327252091607932"><ele>697.0</ele><time>2026-04-24T11:02:31Z</time></trkpt><trkpt lat="44.07242935445427" lon="10.327111592129988"><ele>697.0</ele><time>2026-04-24T11:02:32Z</time></trkpt><trkpt lat="44.07246932713424" lon="10.32696837855612"><ele>697.0</ele><time>2026-04-24T11:02:33Z</time></trkpt><trkpt lat="44.07249506161712" lon="10.32680351117696"><ele>703.4000000000001</ele><time>2026-04-24T11:02:34Z</time></trkpt><trkpt lat="44.07250537689274" lon="10.326628979824653"><ele>709.8000000000001</ele><time>2026-04-24T11:02:35Z</time></trkpt><trkpt lat="44.07250580583808" lon="10.326472475183044"><ele>716.2</ele><time>2026-04-24T11:02:36Z</time></trkpt><trkpt lat="44.07249890375614" lon="10.326338534517614"><ele>722.6</ele><time>2026-04-24T11:02:37Z</time></trkpt><trkpt lat="44.072463737735475" lon="10.326213398059702"><ele>729.0</ele><time>2026-04-24T11:02:38Z</time></trkpt><trkpt lat="44.07239017133307" lon="10.326105284930668"><ele>729.0</ele><time>2026-04-24T11:02:39Z</time></trkpt><trkpt lat="44.07229714407378" lon="10.326024982254681"><ele>729.0</ele><time>2026-04-24T11:02:40Z</time></trkpt><trkpt lat="44.07220236590264" lon="10.32592624230344"><ele>729.0</ele><time>2026-04-24T11:02:41Z</time></trkpt><trkpt lat="44.072164097557675" lon="10.325786663317128"><ele>729.0</ele><time>2026-04-24T11:02:42Z</time></trkpt><trkpt lat="44.07211327279097" lon="10.325640697489076"><ele>731.2</ele><time>2026-04-24T11:02:43Z</time></trkpt><trkpt lat="44.07208595931753" lon="10.325480077962446"><ele>733.4000000000001</ele><time>2026-04-24T11:02:44Z</time></trkpt><trkpt lat="44.07208258471443" lon="10.325330024369903"><ele>735.6</ele><time>2026-04-24T11:02:45Z</time></trkpt><trkpt lat="44.072135715061385" lon="10.325196524686222"><ele>737.8</ele><time>2026-04-24T11:02:46Z</time></trkpt><trkpt lat="44.072160931818544" lon="10.3250427111098"><ele>740.0</ele><time>2026-04-24T11:02:47Z</time></trkpt><trkpt lat="44.07217382909778" lon="10.324896447573053"><ele>740.0</ele><time>2026-04-24T11:02:48Z</time></trkpt><trkpt lat="44.072132815122835" lon="10.324748102241397"><ele>740.0</ele><time>2026-04-24T11:02:49Z</time></trkpt><trkpt lat="44.0720631988725" lon="10.324593411831108"><ele>740.0</ele><time>2026-04-24T11:02:50Z</time></trkpt><trkpt lat="44.07202330744968" lon="10.324405142151052"><ele>740.0</ele><time>2026-04-24T11:02:51Z</time></trkpt><trkpt lat="44.07195880101077" lon="10.324220710976126"><ele>740.0</ele><time>2026-04-24T11:02:52Z</time></trkpt><trkpt lat="44.071896186856925" lon="10.324033343242546"><ele>740.0</ele><time>2026-04-24T11:02:53Z</time></trkpt><trkpt lat="44.071820589883096" lon="10.323861963947584"><ele>740.0</ele><time>2026-04-24T11:02:54Z</time></trkpt><trkpt lat="44.07174927112018" lon="10.323726882043468"><ele>740.0</ele><time>2026-04-24T11:02:55Z</time></trkpt><trkpt lat="44.07168213780572" lon="10.323616790336414"><ele>740.0</ele><time>2026-04-24T11:02:56Z</time></trkpt><trkpt lat="44.071649662996535" lon="10.323499259874946"><ele>740.0</ele><time>2026-04-24T11:02:57Z</time></trkpt><trkpt lat="44.07164507488633" lon="10.323366922930031"><ele>740.0</ele><time>2026-04-24T11:02:58Z</time></trkpt><trkpt lat="44.07168069980046" lon="10.323261216684491"><ele>740.0</ele><time>2026-04-24T11:02:59Z</time></trkpt><trkpt lat="44.07174665247572" lon="10.32317008631121"><ele>740.0</ele><time>2026-04-24T11:03:00Z</time></trkpt><trkpt lat="44.071845629278535" lon="10.32314022311421"><ele>740.8</ele><time>2026-04-24T11:03:01Z</time></trkpt><trkpt lat="44.07194220630352" lon="10.3230977006158"><ele>741.6</ele><time>2026-04-24T11:03:02Z</time></trkpt><trkpt lat="44.07205097108116" lon="10.323101716833632"><ele>742.4000000000001</ele><time>2026-04-24T11:03:03Z</time></trkpt><trkpt lat="44.07214574415401" lon="10.3230700260879"><ele>743.2</ele><time>2026-04-24T11:03:04Z</time></trkpt><trkpt lat="44.07221559301861" lon="10.32302666966082"><ele>744.0</ele><time>2026-04-24T11:03:05Z</time></trkpt><trkpt lat="44.07225151077112" lon="10.322856018674111"><ele>744.0</ele><time>2026-04-24T11:03:06Z</time></trkpt><trkpt lat="44.07228893710068" lon="10.322678338562111"><ele>744.0</ele><time>2026-04-24T11:03:07Z</time></trkpt><trkpt lat="44.07231365894895" lon="10.322474097274984"><ele>744.0</ele><time>2026-04-24T11:03:08Z</time></trkpt><trkpt lat="44.0723483031087" lon="10.32225210883676"><ele>744.0</ele><time>2026-04-24T11:03:09Z</time></trkpt><trkpt lat="44.072390546351215" lon="10.322031069433084"><ele>746.75</ele><time>2026-04-24T11:03:10Z</time></trkpt><trkpt lat="44.072425786687994" lon="10.321833297390693"><ele>749.5</ele><time>2026-04-24T11:03:11Z</time></trkpt><trkpt lat="44.07245911701221" lon="10.321642527386963"><ele>752.25</ele><time>2026-04-24T11:03:12Z</time></trkpt><trkpt lat="44.07247634698464" lon="10.32143844158523"><ele>755.0</ele><time>2026-04-24T11:03:13Z</time></trkpt><trkpt lat="44.07247575470088" lon="10.321220422378087"><ele>755.25</ele><time>2026-04-24T11:03:14Z</time></trkpt><trkpt lat="44.072469167971285" lon="10.321022539818719"><ele>755.5</ele><time>2026-04-24T11:03:15Z</time></trkpt><trkpt lat="44.07245628693619" lon="10.32083722977925"><ele>755.75</ele><time>2026-04-24T11:03:16Z</time></trkpt><trkpt lat="44.0724291621514" lon="10.32065259955453"><ele>756.0</ele><time>2026-04-24T11:03:17Z</time></trkpt><trkpt lat="44.072401148153254" lon="10.320463736173364"><ele>757.25</ele><time>2026-04-24T11:03:18Z</time></trkpt><trkpt lat="44.072390585499974" lon="10.320277263760502"><ele>758.5</ele><time>2026-04-24T11:03:19Z</time></trkpt><trkpt lat="44.072386088212816" lon="10.320105181143465"><ele>759.75</ele><time>2026-04-24T11:03:20Z</time></trkpt><trkpt lat="44.07239560087935" lon="10.319940788514227"><ele>761.0</ele><time>2026-04-24T11:03:21Z</time></trkpt><trkpt lat="44.07240341423109" lon="10.319766782390289"><ele>767.5</ele><time>2026-04-24T11:03:22Z</time></trkpt><trkpt lat="44.07239071766832" lon="10.319586241002918"><ele>774.0</ele><time>2026-04-24T11:03:23Z</time></trkpt><trkpt lat="44.07236910386979" lon="10.319426565727937"><ele>780.5</ele><time>2026-04-24T11:03:24Z</time></trkpt><trkpt lat="44.07235564108915" lon="10.31928134263404"><ele>787.0</ele><time>2026-04-24T11:03:25Z</time></trkpt><trkpt lat="44.072348517588004" lon="10.319143360290566"><ele>787.0</ele><time>2026-04-24T11:03:26Z</time></trkpt><trkpt lat="44.07231792440648" lon="10.319012008847979"><ele>787.0</ele><time>2026-04-24T11:03:27Z</time></trkpt><trkpt lat="44.072253684539874" lon="10.318886122751096"><ele>787.0</ele><time>2026-04-24T11:03:28Z</time></trkpt><trkpt lat="44.07215856753656" lon="10.318783925172058"><ele>787.0</ele><time>2026-04-24T11:03:29Z</time></trkpt><trkpt lat="44.07203597850509" lon="10.318709947634614"><ele>790.8</ele><time>2026-04-24T11:03:30Z</time></trkpt><trkpt lat="44.07193484348468" lon="10.318629378188522"><ele>794.6</ele><time>2026-04-24T11:03:31Z</time></trkpt><trkpt lat="44.07185474833672" lon="10.318555747190526"><ele>798.4</ele><time>2026-04-24T11:03:32Z</time></trkpt><trkpt lat="44.07177720144396" lon="10.318521045961019"><ele>802.1999999999999</ele><time>2026-04-24T11:03:33Z</time></trkpt><trkpt lat="44.07168522416982" lon="10.318543732437023"><ele>806.0</ele><time>2026-04-24T11:03:34Z</time></trkpt><trkpt lat="44.07159841985338" lon="10.318620155400039"><ele>806.0</ele><time>2026-04-24T11:03:35Z</time></trkpt><trkpt lat="44.07150762073099" lon="10.318699876757035"><ele>806.0</ele><time>2026-04-24T11:03:36Z</time></trkpt><trkpt lat="44.07140551725566" lon="10.318716919722261"><ele>806.0</ele><time>2026-04-24T11:03:37Z</time></trkpt><trkpt lat="44.071284849133114" lon="10.318703946409558"><ele>806.0</ele><time>2026-04-24T11:03:38Z</time></trkpt><trkpt lat="44.07116484433099" lon="10.318685009807258"><ele>806.0000000000001</ele><time>2026-04-24T11:03:39Z</time></trkpt><trkpt lat="44.07106782952314" lon="10.31865380086523"><ele>806.0</ele><time>2026-04-24T11:03:40Z</time></trkpt><trkpt lat="44.070999747964954" lon="10.318586091765441"><ele>806.0</ele><time>2026-04-24T11:03:41Z</time></trkpt><trkpt lat="44.07094294956931" lon="10.3185216955452"><ele>806.0</ele><time>2026-04-24T11:03:42Z</time></trkpt><trkpt lat="44.070884308448235" lon="10.318435908651882"><ele>806.0000000000001</ele><time>2026-04-24T11:03:43Z</time></trkpt><trkpt lat="44.07083622214219" lon="10.318311565399297"><ele>806.0</ele><time>2026-04-24T11:03:44Z</time></trkpt><trkpt lat="44.07078519759499" lon="10.31819607601973"><ele>802.5999999999999</ele><time>2026-04-24T11:03:45Z</time></trkpt><trkpt lat="44.070741062479165" lon="10.318107084770148"><ele>799.2</ele><time>2026-04-24T11:03:46Z</time></trkpt><trkpt lat="44.07064371252849" lon="10.318027217058978"><ele>795.8</ele><time>2026-04-24T11:03:48Z</time></trkpt><trkpt lat="44.070571875528714" lon="10.31793695386565"><ele>792.4000000000001</ele><time>2026-04-24T11:03:49Z</time></trkpt><trkpt lat="44.07051147050724" lon="10.317830480002186"><ele>789.0</ele><time>2026-04-24T11:03:50Z</time></trkpt><trkpt lat="44.0704358029179" lon="10.317715922870935"><ele>789.0</ele><time>2026-04-24T11:03:51Z</time></trkpt><trkpt lat="44.07037854066068" lon="10.317599885491171"><ele>789.0</ele><time>2026-04-24T11:03:52Z</time></trkpt><trkpt lat="44.0703419944818" lon="10.31747161347288"><ele>789.0</ele><time>2026-04-24T11:03:53Z</time></trkpt><trkpt lat="44.070327075469585" lon="10.31734875827177"><ele>789.0</ele><time>2026-04-24T11:03:54Z</time></trkpt><trkpt lat="44.07031326016126" lon="10.317256505432482"><ele>789.0</ele><time>2026-04-24T11:03:55Z</time></trkpt><trkpt lat="44.07029864554555" lon="10.317164110818075"><ele>789.0</ele><time>2026-04-24T11:03:56Z</time></trkpt><trkpt lat="44.07025654592286" lon="10.317094943011325"><ele>789.8000000000001</ele><time>2026-04-24T11:03:57Z</time></trkpt><trkpt lat="44.07018835075612" lon="10.31706376071828"><ele>790.6</ele><time>2026-04-24T11:03:58Z</time></trkpt><trkpt lat="44.07009593356201" lon="10.317089243756088"><ele>791.4</ele><time>2026-04-24T11:03:59Z</time></trkpt><trkpt lat="44.06999753267314" lon="10.317133483520868"><ele>792.2</ele><time>2026-04-24T11:04:00Z</time></trkpt><trkpt lat="44.069901197808456" lon="10.31718292651447"><ele>793.0</ele><time>2026-04-24T11:04:01Z</time></trkpt><trkpt lat="44.06979712595035" lon="10.317228056585808"><ele>788.4</ele><time>2026-04-24T11:04:02Z</time></trkpt><trkpt lat="44.06969448576459" lon="10.317249433578727"><ele>783.8</ele><time>2026-04-24T11:04:03Z</time></trkpt><trkpt lat="44.06959036433712" lon="10.317248349316534"><ele>779.2</ele><time>2026-04-24T11:04:04Z</time></trkpt><trkpt lat="44.069500573887005" lon="10.317244919630243"><ele>774.6</ele><time>2026-04-24T11:04:05Z</time></trkpt><trkpt lat="44.06941066401253" lon="10.31725188910717"><ele>770.0</ele><time>2026-04-24T11:04:06Z</time></trkpt><trkpt lat="44.06933518522391" lon="10.317268578794351"><ele>770.0000000000001</ele><time>2026-04-24T11:04:07Z</time></trkpt><trkpt lat="44.06925269300503" lon="10.31727611874306"><ele>770.0</ele><time>2026-04-24T11:04:08Z</time></trkpt><trkpt lat="44.06917743856624" lon="10.317285259155417"><ele>770.0</ele><time>2026-04-24T11:04:09Z</time></trkpt><trkpt lat="44.06909687184097" lon="10.317286224126054"><ele>770.0</ele><time>2026-04-24T11:04:10Z</time></trkpt><trkpt lat="44.06902366290654" lon="10.317261901348468"><ele>770.0000000000001</ele><time>2026-04-24T11:04:11Z</time></trkpt><trkpt lat="44.068946227290645" lon="10.317217575744651"><ele>770.0</ele><time>2026-04-24T11:04:12Z</time></trkpt><trkpt lat="44.068892432358496" lon="10.317151651607261"><ele>765.3333333333334</ele><time>2026-04-24T11:04:13Z</time></trkpt><trkpt lat="44.06885686752809" lon="10.317068840623643"><ele>760.6666666666667</ele><time>2026-04-24T11:04:14Z</time></trkpt><trkpt lat="44.06884809857469" lon="10.316974265017652"><ele>756.0</ele><time>2026-04-24T11:04:15Z</time></trkpt><trkpt lat="44.06886271538453" lon="10.31685839016228"><ele>751.3333333333334</ele><time>2026-04-24T11:04:16Z</time></trkpt><trkpt lat="44.06890061971613" lon="10.316741614922766"><ele>746.6666666666667</ele><time>2026-04-24T11:04:17Z</time></trkpt><trkpt lat="44.068960594912014" lon="10.316618390795155"><ele>742.0</ele><time>2026-04-24T11:04:18Z</time></trkpt><trkpt lat="44.06901409776593" lon="10.316491344411496"><ele>738.0</ele><time>2026-04-24T11:04:19Z</time></trkpt><trkpt lat="44.06906011189835" lon="10.31635705797782"><ele>734.0</ele><time>2026-04-24T11:04:20Z</time></trkpt><trkpt lat="44.06910357331472" lon="10.316193810948011"><ele>730.0</ele><time>2026-04-24T11:04:21Z</time></trkpt><trkpt lat="44.06912049911933" lon="10.316071584432818"><ele>726.0</ele><time>2026-04-24T11:04:22Z</time></trkpt><trkpt lat="44.069126840702125" lon="10.315904201674545"><ele>722.0</ele><time>2026-04-24T11:04:23Z</time></trkpt><trkpt lat="44.06911045180548" lon="10.315747687286434"><ele>722.0</ele><time>2026-04-24T11:04:24Z</time></trkpt><trkpt lat="44.069106096308616" lon="10.315586161425069"><ele>722.0</ele><time>2026-04-24T11:04:25Z</time></trkpt><trkpt lat="44.06912047092111" lon="10.315418895973885"><ele>722.0</ele><time>2026-04-24T11:04:26Z</time></trkpt><trkpt lat="44.06913169677234" lon="10.315248046334647"><ele>722.0</ele><time>2026-04-24T11:04:27Z</time></trkpt><trkpt lat="44.06914132718417" lon="10.315075883100475"><ele>732.75</ele><time>2026-04-24T11:04:28Z</time></trkpt><trkpt lat="44.069150990777615" lon="10.31490074951025"><ele>743.5</ele><time>2026-04-24T11:04:29Z</time></trkpt><trkpt lat="44.06915343659237" lon="10.314718361836325"><ele>754.25</ele><time>2026-04-24T11:04:30Z</time></trkpt><trkpt lat="44.06914119827597" lon="10.314543976898921"><ele>765.0</ele><time>2026-04-24T11:04:31Z</time></trkpt><trkpt lat="44.069133672137276" lon="10.31435585554908"><ele>765.0</ele><time>2026-04-24T11:04:32Z</time></trkpt><trkpt lat="44.06914047632482" lon="10.314182142371475"><ele>765.0</ele><time>2026-04-24T11:04:33Z</time></trkpt><trkpt lat="44.069192202270216" lon="10.314050536246027"><ele>765.0</ele><time>2026-04-24T11:04:36Z</time></trkpt><trkpt lat="44.0692530649505" lon="10.313977069564036"><ele>765.0</ele><time>2026-04-24T11:04:37Z</time></trkpt><trkpt lat="44.06931637758549" lon="10.313959399511115"><ele>765.0</ele><time>2026-04-24T11:04:38Z</time></trkpt><trkpt lat="44.06941170500318" lon="10.313971247669329"><ele>765.0</ele><time>2026-04-24T11:04:39Z</time></trkpt><trkpt lat="44.069507289015526" lon="10.31403009250858"><ele>765.0</ele><time>2026-04-24T11:04:40Z</time></trkpt><trkpt lat="44.069596640326054" lon="10.31410099467654"><ele>765.0</ele><time>2026-04-24T11:04:41Z</time></trkpt><trkpt lat="44.069698407127355" lon="10.314128332568947"><ele>765.0</ele><time>2026-04-24T11:04:42Z</time></trkpt><trkpt lat="44.069800511896354" lon="10.314106383970495"><ele>765.0</ele><time>2026-04-24T11:04:43Z</time></trkpt><trkpt lat="44.06988852594002" lon="10.314026572418427"><ele>767.6</ele><time>2026-04-24T11:04:44Z</time></trkpt><trkpt lat="44.0699767063429" lon="10.313948193330482"><ele>770.2</ele><time>2026-04-24T11:04:45Z</time></trkpt><trkpt lat="44.07007949362782" lon="10.313913523903137"><ele>772.8</ele><time>2026-04-24T11:04:46Z</time></trkpt><trkpt lat="44.070184360966685" lon="10.313917449496612"><ele>775.4</ele><time>2026-04-24T11:04:47Z</time></trkpt><trkpt lat="44.070275936620256" lon="10.31388321057776"><ele>778.0</ele><time>2026-04-24T11:04:48Z</time></trkpt><trkpt lat="44.07034842426928" lon="10.313793271892216"><ele>770.4999999999999</ele><time>2026-04-24T11:04:49Z</time></trkpt><trkpt lat="44.07040013808224" lon="10.313674730278509"><ele>763.0</ele><time>2026-04-24T11:04:50Z</time></trkpt><trkpt lat="44.07047504219595" lon="10.3135806231381"><ele>755.5</ele><time>2026-04-24T11:04:51Z</time></trkpt><trkpt lat="44.07055491068745" lon="10.313530872393812"><ele>748.0</ele><time>2026-04-24T11:04:52Z</time></trkpt><trkpt lat="44.070615935331524" lon="10.313489400018618"><ele>740.5</ele><time>2026-04-24T11:04:53Z</time></trkpt><trkpt lat="44.07065156758057" lon="10.313387827820598"><ele>733.0</ele><time>2026-04-24T11:04:54Z</time></trkpt><trkpt lat="44.07066880864248" lon="10.313252154809152"><ele>733.0</ele><time>2026-04-24T11:04:55Z</time></trkpt><trkpt lat="44.070688179915166" lon="10.313105872986423"><ele>733.0</ele><time>2026-04-24T11:04:56Z</time></trkpt><trkpt lat="44.07073213384401" lon="10.312985504371163"><ele>733.0</ele><time>2026-04-24T11:04:57Z</time></trkpt><trkpt lat="44.070801767750396" lon="10.312901312307174"><ele>733.0</ele><time>2026-04-24T11:04:58Z</time></trkpt><trkpt lat="44.07087305548704" lon="10.312842985925933"><ele>733.0</ele><time>2026-04-24T11:04:59Z</time></trkpt><trkpt lat="44.070912468428936" lon="10.312746477810862"><ele>729.4</ele><time>2026-04-24T11:05:00Z</time></trkpt><trkpt lat="44.07090641368158" lon="10.312638863485136"><ele>725.8</ele><time>2026-04-24T11:05:01Z</time></trkpt><trkpt lat="44.070870999807646" lon="10.31251595162911"><ele>722.2</ele><time>2026-04-24T11:05:02Z</time></trkpt><trkpt lat="44.07081466705061" lon="10.312427384080607"><ele>718.6</ele><time>2026-04-24T11:05:03Z</time></trkpt><trkpt lat="44.070735750824355" lon="10.312377900052608"><ele>715.0</ele><time>2026-04-24T11:05:04Z</time></trkpt><trkpt lat="44.070626219604684" lon="10.31236610568649"><ele>715.0</ele><time>2026-04-24T11:05:05Z</time></trkpt><trkpt lat="44.070510839449696" lon="10.312375918563955"><ele>715.0</ele><time>2026-04-24T11:05:06Z</time></trkpt><trkpt lat="44.07039359192568" lon="10.312332507852412"><ele>715.0</ele><time>2026-04-24T11:05:07Z</time></trkpt><trkpt lat="44.07027868307072" lon="10.31224651938782"><ele>715.0</ele><time>2026-04-24T11:05:08Z</time></trkpt><trkpt lat="44.07017640633026" lon="10.3121167082125"><ele>719.0</ele><time>2026-04-24T11:05:09Z</time></trkpt><trkpt lat="44.070083322714375" lon="10.311988683600106"><ele>723.0</ele><time>2026-04-24T11:05:10Z</time></trkpt><trkpt lat="44.069999364327316" lon="10.311866730867212"><ele>727.0</ele><time>2026-04-24T11:05:11Z</time></trkpt><trkpt lat="44.06992907832454" lon="10.311719988660885"><ele>731.0</ele><time>2026-04-24T11:05:12Z</time></trkpt><trkpt lat="44.06986531344244" lon="10.31156328392534"><ele>721.25</ele><time>2026-04-24T11:05:13Z</time></trkpt><trkpt lat="44.06982206660829" lon="10.311382239516956"><ele>711.5</ele><time>2026-04-24T11:05:14Z</time></trkpt><trkpt lat="44.06979237793895" lon="10.311209785795292"><ele>701.75</ele><time>2026-04-24T11:05:15Z</time></trkpt><trkpt lat="44.069771937285346" lon="10.31105260590716"><ele>692.0</ele><time>2026-04-24T11:05:16Z</time></trkpt><trkpt lat="44.06977846330669" lon="10.3109289504054"><ele>692.0</ele><time>2026-04-24T11:05:17Z</time></trkpt><trkpt lat="44.06981762689018" lon="10.31081475045163"><ele>692.0</ele><time>2026-04-24T11:05:18Z</time></trkpt><trkpt lat="44.06988320428573" lon="10.310704219085697"><ele>692.0</ele><time>2026-04-24T11:05:19Z</time></trkpt><trkpt lat="44.06997527788978" lon="10.310611614004046"><ele>692.0</ele><time>2026-04-24T11:05:20Z</time></trkpt><trkpt lat="44.07008515809926" lon="10.310537343286615"><ele>692.0</ele><time>2026-04-24T11:05:21Z</time></trkpt><trkpt lat="44.07019023162997" lon="10.310506716321571"><ele>698.0</ele><time>2026-04-24T11:05:22Z</time></trkpt><trkpt lat="44.0702762036567" lon="10.310479424172437"><ele>704.0</ele><time>2026-04-24T11:05:23Z</time></trkpt><trkpt lat="44.07033581629841" lon="10.310398206532268"><ele>710.0</ele><time>2026-04-24T11:05:24Z</time></trkpt><trkpt lat="44.070371347832555" lon="10.310307502289353"><ele>716.0</ele><time>2026-04-24T11:05:25Z</time></trkpt><trkpt lat="44.0703752626675" lon="10.310184898174334"><ele>722.0</ele><time>2026-04-24T11:05:26Z</time></trkpt><trkpt lat="44.07035111281139" lon="10.310039750816856"><ele>728.0</ele><time>2026-04-24T11:05:27Z</time></trkpt><trkpt lat="44.07029364981555" lon="10.309918731198259"><ele>728.0</ele><time>2026-04-24T11:05:28Z</time></trkpt><trkpt lat="44.070208101913764" lon="10.309810263209615"><ele>728.0</ele><time>2026-04-24T11:05:29Z</time></trkpt><trkpt lat="44.07009881597448" lon="10.309743028460275"><ele>728.0</ele><time>2026-04-24T11:05:30Z</time></trkpt><trkpt lat="44.0699638780517" lon="10.309696387871229"><ele>728.0</ele><time>2026-04-24T11:05:31Z</time></trkpt><trkpt lat="44.069807109980395" lon="10.30965012914037"><ele>731.0</ele><time>2026-04-24T11:05:32Z</time></trkpt><trkpt lat="44.0696534503533" lon="10.309603839528478"><ele>734.0</ele><time>2026-04-24T11:05:33Z</time></trkpt><trkpt lat="44.06951106109802" lon="10.309552726577028"><ele>737.0</ele><time>2026-04-24T11:05:34Z</time></trkpt><trkpt lat="44.069365805442125" lon="10.309508689289833"><ele>737.0</ele><time>2026-04-24T11:05:35Z</time></trkpt><trkpt lat="44.0692160492571" lon="10.309462812557998"><ele>737.0</ele><time>2026-04-24T11:05:36Z</time></trkpt><trkpt lat="44.069072727989855" lon="10.309408013151193"><ele>737.0</ele><time>2026-04-24T11:05:37Z</time></trkpt><trkpt lat="44.06894057824797" lon="10.309366245176433"><ele>737.0</ele><time>2026-04-24T11:05:38Z</time></trkpt><trkpt lat="44.06881616671446" lon="10.309311122029065"><ele>730.2</ele><time>2026-04-24T11:05:39Z</time></trkpt><trkpt lat="44.068700762614085" lon="10.309241405419145"><ele>723.4000000000001</ele><time>2026-04-24T11:05:40Z</time></trkpt><trkpt lat="44.06859156980441" lon="10.309175453000327"><ele>716.5999999999999</ele><time>2026-04-24T11:05:41Z</time></trkpt><trkpt lat="44.06851134268877" lon="10.309113803849794"><ele>709.8</ele><time>2026-04-24T11:05:42Z</time></trkpt><trkpt lat="44.068456698338174" lon="10.309037684301858"><ele>703.0</ele><time>2026-04-24T11:05:43Z</time></trkpt><trkpt lat="44.0684168383141" lon="10.308923167345261"><ele>705.5</ele><time>2026-04-24T11:05:44Z</time></trkpt><trkpt lat="44.06840138310342" lon="10.308783082396372"><ele>708.0</ele><time>2026-04-24T11:05:45Z</time></trkpt><trkpt lat="44.068399432799076" lon="10.308620602135893"><ele>710.5</ele><time>2026-04-24T11:05:46Z</time></trkpt><trkpt lat="44.06838535151705" lon="10.308452006455648"><ele>713.0</ele><time>2026-04-24T11:05:47Z</time></trkpt><trkpt lat="44.068376369709156" lon="10.308300633377977"><ele>713.0</ele><time>2026-04-24T11:05:48Z</time></trkpt><trkpt lat="44.06837098719209" lon="10.308158816301775"><ele>713.0</ele><time>2026-04-24T11:05:49Z</time></trkpt><trkpt lat="44.06835938840475" lon="10.30804694154646"><ele>713.0</ele><time>2026-04-24T11:05:50Z</time></trkpt><trkpt lat="44.06832138448641" lon="10.307936248191602"><ele>713.0</ele><time>2026-04-24T11:05:51Z</time></trkpt><trkpt lat="44.06825013059577" lon="10.30784902542166"><ele>713.0</ele><time>2026-04-24T11:05:52Z</time></trkpt><trkpt lat="44.06814526172777" lon="10.307782047881831"><ele>711.25</ele><time>2026-04-24T11:05:53Z</time></trkpt><trkpt lat="44.06802941201106" lon="10.307729369078501"><ele>709.5</ele><time>2026-04-24T11:05:54Z</time></trkpt><trkpt lat="44.067901515699944" lon="10.307662247478172"><ele>707.75</ele><time>2026-04-24T11:05:55Z</time></trkpt><trkpt lat="44.067768743732096" lon="10.307575472130965"><ele>706.0</ele><time>2026-04-24T11:05:56Z</time></trkpt><trkpt lat="44.06764353677181" lon="10.307506049395258"><ele>706.0</ele><time>2026-04-24T11:05:57Z</time></trkpt><trkpt lat="44.06750600793159" lon="10.307444676629702"><ele>706.0</ele><time>2026-04-24T11:05:58Z</time></trkpt><trkpt lat="44.06737189478556" lon="10.307398228458174"><ele>706.0</ele><time>2026-04-24T11:05:59Z</time></trkpt><trkpt lat="44.06724689821433" lon="10.307365480915026"><ele>706.0</ele><time>2026-04-24T11:06:00Z</time></trkpt><trkpt lat="44.067142080918394" lon="10.307327458680078"><ele>706.1999999999999</ele><time>2026-04-24T11:06:01Z</time></trkpt><trkpt lat="44.06704915665867" lon="10.30730394765735"><ele>706.4</ele><time>2026-04-24T11:06:02Z</time></trkpt><trkpt lat="44.0669556362984" lon="10.307316308890202"><ele>706.6</ele><time>2026-04-24T11:06:03Z</time></trkpt><trkpt lat="44.06686132121174" lon="10.307369879396823"><ele>706.8</ele><time>2026-04-24T11:06:04Z</time></trkpt><trkpt lat="44.06676762744784" lon="10.307474663139711"><ele>707.0</ele><time>2026-04-24T11:06:05Z</time></trkpt><trkpt lat="44.06667622606884" lon="10.307591234757224"><ele>707.8</ele><time>2026-04-24T11:06:06Z</time></trkpt><trkpt lat="44.06658810386289" lon="10.307695309109391"><ele>708.6</ele><time>2026-04-24T11:06:07Z</time></trkpt><trkpt lat="44.06649871640715" lon="10.307785105659597"><ele>709.4</ele><time>2026-04-24T11:06:08Z</time></trkpt><trkpt lat="44.066408578211195" lon="10.307847093969738"><ele>710.1999999999999</ele><time>2026-04-24T11:06:09Z</time></trkpt><trkpt lat="44.06630939094348" lon="10.30787557292036"><ele>711.0</ele><time>2026-04-24T11:06:10Z</time></trkpt><trkpt lat="44.066202389901676" lon="10.307869989437247"><ele>711.0</ele><time>2026-04-24T11:06:11Z</time></trkpt><trkpt lat="44.06608532677397" lon="10.30783045266576"><ele>711.0</ele><time>2026-04-24T11:06:12Z</time></trkpt><trkpt lat="44.06596204550632" lon="10.307761224165427"><ele>711.0</ele><time>2026-04-24T11:06:13Z</time></trkpt><trkpt lat="44.065826062084504" lon="10.307712859386845"><ele>711.0</ele><time>2026-04-24T11:06:14Z</time></trkpt><trkpt lat="44.065702573036866" lon="10.307687628468313"><ele>712.75</ele><time>2026-04-24T11:06:15Z</time></trkpt><trkpt lat="44.06559165304496" lon="10.307671826701174"><ele>714.5</ele><time>2026-04-24T11:06:16Z</time></trkpt><trkpt lat="44.0654771255973" lon="10.30767391426614"><ele>716.25</ele><time>2026-04-24T11:06:17Z</time></trkpt><trkpt lat="44.065350542495146" lon="10.307711361042264"><ele>718.0</ele><time>2026-04-24T11:06:18Z</time></trkpt><trkpt lat="44.06521415443801" lon="10.307767311232029"><ele>718.0</ele><time>2026-04-24T11:06:19Z</time></trkpt><trkpt lat="44.065079785129086" lon="10.307839546481107"><ele>718.0</ele><time>2026-04-24T11:06:20Z</time></trkpt><trkpt lat="44.06495986656291" lon="10.307889016367033"><ele>718.0</ele><time>2026-04-24T11:06:21Z</time></trkpt><trkpt lat="44.06483720013282" lon="10.307951741228116"><ele>718.0</ele><time>2026-04-24T11:06:22Z</time></trkpt><trkpt lat="44.06472465319955" lon="10.308003034272064"><ele>717.5999999999999</ele><time>2026-04-24T11:06:23Z</time></trkpt><trkpt lat="44.064632111304604" lon="10.308036238033079"><ele>717.1999999999999</ele><time>2026-04-24T11:06:24Z</time></trkpt><trkpt lat="44.06456045407384" lon="10.308067415205024"><ele>716.8</ele><time>2026-04-24T11:06:25Z</time></trkpt><trkpt lat="44.064490427207666" lon="10.308109120376209"><ele>716.4</ele><time>2026-04-24T11:06:26Z</time></trkpt><trkpt lat="44.064432757019595" lon="10.308258836494119"><ele>716.0</ele><time>2026-04-24T11:06:28Z</time></trkpt><trkpt lat="44.06446916238517" lon="10.308366028515442"><ele>709.4</ele><time>2026-04-24T11:06:29Z</time></trkpt><trkpt lat="44.06452551843742" lon="10.308436580129523"><ele>702.8</ele><time>2026-04-24T11:06:30Z</time></trkpt><trkpt lat="44.06461160088669" lon="10.30844790050906"><ele>696.1999999999999</ele><time>2026-04-24T11:06:31Z</time></trkpt><trkpt lat="44.0647073390537" lon="10.30839659006305"><ele>689.5999999999999</ele><time>2026-04-24T11:06:32Z</time></trkpt><trkpt lat="44.06482574829754" lon="10.308317143695557"><ele>683.0</ele><time>2026-04-24T11:06:33Z</time></trkpt><trkpt lat="44.064952725956516" lon="10.30825532692566"><ele>683.0</ele><time>2026-04-24T11:06:34Z</time></trkpt><trkpt lat="44.06507020388612" lon="10.30820397378027"><ele>683.0</ele><time>2026-04-24T11:06:35Z</time></trkpt><trkpt lat="44.06518231562809" lon="10.30815740166117"><ele>683.0</ele><time>2026-04-24T11:06:36Z</time></trkpt><trkpt lat="44.0652908677567" lon="10.308115223366759"><ele>683.0</ele><time>2026-04-24T11:06:37Z</time></trkpt><trkpt lat="44.06539019486683" lon="10.308065161381224"><ele>682.3333333333333</ele><time>2026-04-24T11:06:38Z</time></trkpt><trkpt lat="44.065473318696476" lon="10.308020022663552"><ele>681.6666666666666</ele><time>2026-04-24T11:06:39Z</time></trkpt><trkpt lat="44.06556509761311" lon="10.307991432041865"><ele>681.0</ele><time>2026-04-24T11:06:40Z</time></trkpt><trkpt lat="44.06564058196037" lon="10.307987674963773"><ele>680.3333333333334</ele><time>2026-04-24T11:06:41Z</time></trkpt><trkpt lat="44.06571475248161" lon="10.308036029126153"><ele>679.6666666666667</ele><time>2026-04-24T11:06:42Z</time></trkpt><trkpt lat="44.06581415403741" lon="10.308092200508522"><ele>679.0</ele><time>2026-04-24T11:06:43Z</time></trkpt><trkpt lat="44.06588888374964" lon="10.308127154907433"><ele>679.0</ele><time>2026-04-24T11:06:44Z</time></trkpt><trkpt lat="44.065947041098774" lon="10.308169113218327"><ele>679.0</ele><time>2026-04-24T11:06:45Z</time></trkpt><trkpt lat="44.065995330645535" lon="10.308238442942024"><ele>679.0</ele><time>2026-04-24T11:06:46Z</time></trkpt><trkpt lat="44.06602437362624" lon="10.308322817354949"><ele>679.0</ele><time>2026-04-24T11:06:47Z</time></trkpt><trkpt lat="44.066016079312696" lon="10.308413558393433"><ele>679.0</ele><time>2026-04-24T11:06:48Z</time></trkpt><trkpt lat="44.06589994391533" lon="10.308516845577824"><ele>679.0</ele><time>2026-04-24T11:06:50Z</time></trkpt><trkpt lat="44.06580329390584" lon="10.308517151213005"><ele>680.0</ele><time>2026-04-24T11:06:51Z</time></trkpt><trkpt lat="44.06568335491877" lon="10.308434854134024"><ele>681.0</ele><time>2026-04-24T11:06:52Z</time></trkpt><trkpt lat="44.06557280319057" lon="10.308380870250065"><ele>682.0</ele><time>2026-04-24T11:06:53Z</time></trkpt><trkpt lat="44.06547329483884" lon="10.308338913685988"><ele>683.0</ele><time>2026-04-24T11:06:54Z</time></trkpt><trkpt lat="44.06537644055256" lon="10.308316734806523"><ele>683.0</ele><time>2026-04-24T11:06:55Z</time></trkpt><trkpt lat="44.06528568434154" lon="10.308341216618643"><ele>683.0</ele><time>2026-04-24T11:06:56Z</time></trkpt><trkpt lat="44.065193344855516" lon="10.30840264862948"><ele>683.0</ele><time>2026-04-24T11:06:57Z</time></trkpt><trkpt lat="44.06509912721145" lon="10.30849662490552"><ele>683.0</ele><time>2026-04-24T11:06:58Z</time></trkpt><trkpt lat="44.065019744097036" lon="10.308583048771066"><ele>683.0</ele><time>2026-04-24T11:06:59Z</time></trkpt><trkpt lat="44.06492765198967" lon="10.30867118569841"><ele>683.0</ele><time>2026-04-24T11:07:00Z</time></trkpt><trkpt lat="44.06483442401002" lon="10.308754422738453"><ele>683.0</ele><time>2026-04-24T11:07:01Z</time></trkpt><trkpt lat="44.06475591237118" lon="10.308828290701056"><ele>683.0</ele><time>2026-04-24T11:07:02Z</time></trkpt><trkpt lat="44.06467997019105" lon="10.308909814680577"><ele>683.0</ele><time>2026-04-24T11:07:03Z</time></trkpt><trkpt lat="44.06459767147374" lon="10.308961100088155"><ele>683.0</ele><time>2026-04-24T11:07:04Z</time></trkpt><trkpt lat="44.06451086909145" lon="10.308996920077643"><ele>683.0</ele><time>2026-04-24T11:07:05Z</time></trkpt><trkpt lat="44.064402990488055" lon="10.308977478093261"><ele>683.0</ele><time>2026-04-24T11:07:06Z</time></trkpt><trkpt lat="44.06430753413287" lon="10.308922113002799"><ele>683.0</ele><time>2026-04-24T11:07:07Z</time></trkpt><trkpt lat="44.06423731109028" lon="10.308818125654778"><ele>683.0</ele><time>2026-04-24T11:07:08Z</time></trkpt><trkpt lat="44.064176705742106" lon="10.308704530875136"><ele>683.0</ele><time>2026-04-24T11:07:09Z</time></trkpt><trkpt lat="44.06411129943255" lon="10.308594255338662"><ele>678.4</ele><time>2026-04-24T11:07:10Z</time></trkpt><trkpt lat="44.06403969292706" lon="10.308525596705753"><ele>673.8</ele><time>2026-04-24T11:07:11Z</time></trkpt><trkpt lat="44.063932566512314" lon="10.308507857978174"><ele>669.2</ele><time>2026-04-24T11:07:12Z</time></trkpt><trkpt lat="44.063825532301856" lon="10.308519439773313"><ele>664.6</ele><time>2026-04-24T11:07:13Z</time></trkpt><trkpt lat="44.06371991415605" lon="10.308559493472723"><ele>660.0</ele><time>2026-04-24T11:07:14Z</time></trkpt><trkpt lat="44.0636133852232" lon="10.308565506045866"><ele>660.0</ele><time>2026-04-24T11:07:15Z</time></trkpt><trkpt lat="44.0635198842162" lon="10.308569205031864"><ele>660.0</ele><time>2026-04-24T11:07:16Z</time></trkpt><trkpt lat="44.06344277178227" lon="10.308545095000174"><ele>660.0</ele><time>2026-04-24T11:07:17Z</time></trkpt><trkpt lat="44.063371965264615" lon="10.308478830052556"><ele>660.0</ele><time>2026-04-24T11:07:18Z</time></trkpt><trkpt lat="44.06330751224494" lon="10.308383809552346"><ele>660.0</ele><time>2026-04-24T11:07:19Z</time></trkpt><trkpt lat="44.06325546906761" lon="10.308285463202651"><ele>660.0</ele><time>2026-04-24T11:07:20Z</time></trkpt><trkpt lat="44.063181786903066" lon="10.308213288677502"><ele>654.8</ele><time>2026-04-24T11:07:21Z</time></trkpt><trkpt lat="44.06305938682857" lon="10.30820493359969"><ele>649.6</ele><time>2026-04-24T11:07:22Z</time></trkpt><trkpt lat="44.06295115813037" lon="10.308218861390264"><ele>644.4</ele><time>2026-04-24T11:07:23Z</time></trkpt><trkpt lat="44.06285336586001" lon="10.308233987565808"><ele>639.2</ele><time>2026-04-24T11:07:24Z</time></trkpt><trkpt lat="44.06276136325152" lon="10.308218581117709"><ele>634.0</ele><time>2026-04-24T11:07:25Z</time></trkpt><trkpt lat="44.06264046455617" lon="10.308198796820397"><ele>634.0</ele><time>2026-04-24T11:07:26Z</time></trkpt><trkpt lat="44.06252532663123" lon="10.308134484063466"><ele>634.0</ele><time>2026-04-24T11:07:27Z</time></trkpt><trkpt lat="44.062404087701154" lon="10.308034442152579"><ele>634.0</ele><time>2026-04-24T11:07:28Z</time></trkpt><trkpt lat="44.06229634300901" lon="10.307922013218842"><ele>634.0</ele><time>2026-04-24T11:07:29Z</time></trkpt><trkpt lat="44.06219171921976" lon="10.307822039106384"><ele>633.25</ele><time>2026-04-24T11:07:30Z</time></trkpt><trkpt lat="44.0620849181886" lon="10.30772970190668"><ele>632.5</ele><time>2026-04-24T11:07:31Z</time></trkpt><trkpt lat="44.06198620257251" lon="10.307647331325104"><ele>631.75</ele><time>2026-04-24T11:07:32Z</time></trkpt><trkpt lat="44.061885790013505" lon="10.307558030977725"><ele>631.0</ele><time>2026-04-24T11:07:33Z</time></trkpt><trkpt lat="44.06178892186719" lon="10.307450393674419"><ele>631.0</ele><time>2026-04-24T11:07:34Z</time></trkpt><trkpt lat="44.061690925137235" lon="10.307329239689471"><ele>631.0</ele><time>2026-04-24T11:07:35Z</time></trkpt><trkpt lat="44.06150632464285" lon="10.307056613598824"><ele>631.0</ele><time>2026-04-24T11:07:37Z</time></trkpt><trkpt lat="44.06155523338857" lon="10.306951933064028"><ele>621.5</ele><time>2026-04-24T11:07:38Z</time></trkpt><trkpt lat="44.061526704530046" lon="10.306774247118865"><ele>612.0</ele><time>2026-04-24T11:07:39Z</time></trkpt><trkpt lat="44.06150230648352" lon="10.306563729451724"><ele>602.5</ele><time>2026-04-24T11:07:40Z</time></trkpt><trkpt lat="44.061475716844136" lon="10.306363878142243"><ele>593.0</ele><time>2026-04-24T11:07:41Z</time></trkpt><trkpt lat="44.06144855166905" lon="10.306180672974866"><ele>593.0</ele><time>2026-04-24T11:07:42Z</time></trkpt><trkpt lat="44.06142155828625" lon="10.305998185157137"><ele>593.0</ele><time>2026-04-24T11:07:43Z</time></trkpt><trkpt lat="44.061391127430504" lon="10.305826793231953"><ele>593.0</ele><time>2026-04-24T11:07:44Z</time></trkpt><trkpt lat="44.061359302594006" lon="10.305665607695424"><ele>593.0</ele><time>2026-04-24T11:07:45Z</time></trkpt><trkpt lat="44.061332863839674" lon="10.305508785414514"><ele>594.75</ele><time>2026-04-24T11:07:46Z</time></trkpt><trkpt lat="44.061302398901326" lon="10.30535139092488"><ele>596.5</ele><time>2026-04-24T11:07:47Z</time></trkpt><trkpt lat="44.061264657413716" lon="10.305180277089578"><ele>598.25</ele><time>2026-04-24T11:07:48Z</time></trkpt><trkpt lat="44.06121764519898" lon="10.305005605567843"><ele>600.0</ele><time>2026-04-24T11:07:49Z</time></trkpt><trkpt lat="44.061158744665946" lon="10.304857631744657"><ele>602.6</ele><time>2026-04-24T11:07:50Z</time></trkpt><trkpt lat="44.06111661543687" lon="10.304713009211211"><ele>605.2</ele><time>2026-04-24T11:07:51Z</time></trkpt><trkpt lat="44.06108224763242" lon="10.304568910418222"><ele>607.8</ele><time>2026-04-24T11:07:52Z</time></trkpt><trkpt lat="44.061057764755326" lon="10.304426398068882"><ele>610.4</ele><time>2026-04-24T11:07:53Z</time></trkpt><trkpt lat="44.06104567571665" lon="10.304271512642371"><ele>613.0</ele><time>2026-04-24T11:07:54Z</time></trkpt><trkpt lat="44.06106392011722" lon="10.304112157919162"><ele>613.0</ele><time>2026-04-24T11:07:55Z</time></trkpt><trkpt lat="44.061062389709726" lon="10.303961132152747"><ele>613.0</ele><time>2026-04-24T11:07:56Z</time></trkpt><trkpt lat="44.06106033669904" lon="10.303811857851958"><ele>613.0</ele><time>2026-04-24T11:07:57Z</time></trkpt><trkpt lat="44.06104979709819" lon="10.30366347524759"><ele>613.0</ele><time>2026-04-24T11:07:58Z</time></trkpt><trkpt lat="44.06103038123322" lon="10.303526349453323"><ele>613.0</ele><time>2026-04-24T11:07:59Z</time></trkpt><trkpt lat="44.0610157845997" lon="10.303414247278265"><ele>616.75</ele><time>2026-04-24T11:08:00Z</time></trkpt><trkpt lat="44.060949029756266" lon="10.303216014786317"><ele>620.5</ele><time>2026-04-24T11:08:02Z</time></trkpt><trkpt lat="44.06087792403477" lon="10.303133506501936"><ele>624.25</ele><time>2026-04-24T11:08:04Z</time></trkpt><trkpt lat="44.06081975639318" lon="10.303221822070945"><ele>628.0</ele><time>2026-04-24T11:08:07Z</time></trkpt><trkpt lat="44.060845997990334" lon="10.303416609142962"><ele>628.0</ele><time>2026-04-24T11:08:09Z</time></trkpt><trkpt lat="44.060886201188254" lon="10.303553246616474"><ele>628.0</ele><time>2026-04-24T11:08:10Z</time></trkpt><trkpt lat="44.06092076333031" lon="10.30370296652242"><ele>628.0</ele><time>2026-04-24T11:08:11Z</time></trkpt><trkpt lat="44.0609546546862" lon="10.303862417034438"><ele>628.0</ele><time>2026-04-24T11:08:12Z</time></trkpt><trkpt lat="44.060973121715435" lon="10.304008270645458"><ele>628.0</ele><time>2026-04-24T11:08:13Z</time></trkpt><trkpt lat="44.06096788959364" lon="10.304152658976912"><ele>625.0</ele><time>2026-04-24T11:08:14Z</time></trkpt><trkpt lat="44.06092889220512" lon="10.304299886637986"><ele>622.0</ele><time>2026-04-24T11:08:15Z</time></trkpt><trkpt lat="44.060864667640566" lon="10.30441979879313"><ele>619.0</ele><time>2026-04-24T11:08:16Z</time></trkpt><trkpt lat="44.06081772085876" lon="10.30453295246996"><ele>616.0</ele><time>2026-04-24T11:08:17Z</time></trkpt><trkpt lat="44.060803103456536" lon="10.30465952609888"><ele>613.0</ele><time>2026-04-24T11:08:18Z</time></trkpt><trkpt lat="44.06083493441266" lon="10.304794992032939"><ele>609.75</ele><time>2026-04-24T11:08:19Z</time></trkpt><trkpt lat="44.06091046740352" lon="10.304952429490044"><ele>606.5</ele><time>2026-04-24T11:08:20Z</time></trkpt><trkpt lat="44.06099738463136" lon="10.305119745951242"><ele>603.25</ele><time>2026-04-24T11:08:21Z</time></trkpt><trkpt lat="44.06105714853477" lon="10.305296608355492"><ele>600.0</ele><time>2026-04-24T11:08:22Z</time></trkpt><trkpt lat="44.06108756610708" lon="10.305468834546918"><ele>598.25</ele><time>2026-04-24T11:08:23Z</time></trkpt><trkpt lat="44.0611172354845" lon="10.305623347750576"><ele>596.5</ele><time>2026-04-24T11:08:24Z</time></trkpt><trkpt lat="44.06114211345864" lon="10.305769655633936"><ele>594.75</ele><time>2026-04-24T11:08:25Z</time></trkpt><trkpt lat="44.0611378745448" lon="10.305927243306924"><ele>593.0</ele><time>2026-04-24T11:08:26Z</time></trkpt><trkpt lat="44.06110688493115" lon="10.306097092686715"><ele>593.0</ele><time>2026-04-24T11:08:27Z</time></trkpt><trkpt lat="44.06106131176795" lon="10.306249530240763"><ele>593.0</ele><time>2026-04-24T11:08:28Z</time></trkpt><trkpt lat="44.06101278466364" lon="10.306375410426229"><ele>593.0</ele><time>2026-04-24T11:08:29Z</time></trkpt><trkpt lat="44.06098096649277" lon="10.306502310182672"><ele>593.0</ele><time>2026-04-24T11:08:30Z</time></trkpt><trkpt lat="44.06097528125179" lon="10.30666689040946"><ele>593.0</ele><time>2026-04-24T11:08:31Z</time></trkpt><trkpt lat="44.061011689252766" lon="10.306858447829772"><ele>592.0</ele><time>2026-04-24T11:08:32Z</time></trkpt><trkpt lat="44.06102342103983" lon="10.307047100081125"><ele>591.0</ele><time>2026-04-24T11:08:33Z</time></trkpt><trkpt lat="44.06102806298091" lon="10.307228400963425"><ele>590.0</ele><time>2026-04-24T11:08:34Z</time></trkpt><trkpt lat="44.061052438426174" lon="10.307405726525953"><ele>589.0</ele><time>2026-04-24T11:08:35Z</time></trkpt><trkpt lat="44.061088786838276" lon="10.30757198439581"><ele>588.0</ele><time>2026-04-24T11:08:36Z</time></trkpt><trkpt lat="44.06112294482038" lon="10.307725485475997"><ele>587.0</ele><time>2026-04-24T11:08:37Z</time></trkpt><trkpt lat="44.06115409807243" lon="10.307886463386023"><ele>586.0</ele><time>2026-04-24T11:08:38Z</time></trkpt><trkpt lat="44.06114957946377" lon="10.308035883905758"><ele>585.0</ele><time>2026-04-24T11:08:39Z</time></trkpt><trkpt lat="44.0611566765802" lon="10.308187050566094"><ele>583.2</ele><time>2026-04-24T11:08:40Z</time></trkpt><trkpt lat="44.06118734518524" lon="10.308335105823604"><ele>581.4</ele><time>2026-04-24T11:08:41Z</time></trkpt><trkpt lat="44.061221831458596" lon="10.308463059876024"><ele>579.6</ele><time>2026-04-24T11:08:42Z</time></trkpt><trkpt lat="44.061265418040605" lon="10.30856848800503"><ele>577.8</ele><time>2026-04-24T11:08:43Z</time></trkpt><trkpt lat="44.06133284046454" lon="10.308638441962454"><ele>576.0</ele><time>2026-04-24T11:08:44Z</time></trkpt><trkpt lat="44.06143495522885" lon="10.308670113505237"><ele>576.0</ele><time>2026-04-24T11:08:45Z</time></trkpt><trkpt lat="44.06154458314093" lon="10.308647627452592"><ele>576.0</ele><time>2026-04-24T11:08:46Z</time></trkpt><trkpt lat="44.06166976512905" lon="10.308623130141388"><ele>576.0</ele><time>2026-04-24T11:08:47Z</time></trkpt><trkpt lat="44.061773721069386" lon="10.308668729559452"><ele>576.0</ele><time>2026-04-24T11:08:48Z</time></trkpt><trkpt lat="44.06186573507153" lon="10.308802418359372"><ele>575.0</ele><time>2026-04-24T11:08:49Z</time></trkpt><trkpt lat="44.061955128367835" lon="10.30895371618323"><ele>574.0</ele><time>2026-04-24T11:08:50Z</time></trkpt><trkpt lat="44.06204826891556" lon="10.309089557193692"><ele>573.0</ele><time>2026-04-24T11:08:51Z</time></trkpt><trkpt lat="44.06215849553456" lon="10.309206933256352"><ele>572.0</ele><time>2026-04-24T11:08:52Z</time></trkpt><trkpt lat="44.062265544003886" lon="10.309322975733505"><ele>572.0</ele><time>2026-04-24T11:08:53Z</time></trkpt><trkpt lat="44.06236097100324" lon="10.309425837594787"><ele>572.0</ele><time>2026-04-24T11:08:54Z</time></trkpt><trkpt lat="44.06244856740414" lon="10.309524178179943"><ele>572.0</ele><time>2026-04-24T11:08:55Z</time></trkpt><trkpt lat="44.06253483001739" lon="10.309617512301667"><ele>572.0</ele><time>2026-04-24T11:08:56Z</time></trkpt><trkpt lat="44.06263588037191" lon="10.309690260542009"><ele>572.2</ele><time>2026-04-24T11:08:57Z</time></trkpt><trkpt lat="44.0627492013431" lon="10.30970731967601"><ele>572.4000000000001</ele><time>2026-04-24T11:08:58Z</time></trkpt><trkpt lat="44.062850631452875" lon="10.309704812597458"><ele>572.5999999999999</ele><time>2026-04-24T11:08:59Z</time></trkpt><trkpt lat="44.06296028265134" lon="10.309754124020387"><ele>572.8</ele><time>2026-04-24T11:09:00Z</time></trkpt><trkpt lat="44.06303806572205" lon="10.309878022264797"><ele>573.0</ele><time>2026-04-24T11:09:01Z</time></trkpt><trkpt lat="44.063111865362515" lon="10.310006047999462"><ele>573.0</ele><time>2026-04-24T11:09:02Z</time></trkpt><trkpt lat="44.06320360414558" lon="10.31009489884637"><ele>573.0</ele><time>2026-04-24T11:09:03Z</time></trkpt><trkpt lat="44.0633227696993" lon="10.310154168600421"><ele>573.0</ele><time>2026-04-24T11:09:04Z</time></trkpt><trkpt lat="44.06345566170208" lon="10.310222567871714"><ele>573.0</ele><time>2026-04-24T11:09:05Z</time></trkpt><trkpt lat="44.0635860377168" lon="10.310343979407131"><ele>570.0</ele><time>2026-04-24T11:09:06Z</time></trkpt><trkpt lat="44.06369708070611" lon="10.310491234243676"><ele>567.0</ele><time>2026-04-24T11:09:07Z</time></trkpt><trkpt lat="44.06379913675707" lon="10.310601267258253"><ele>564.0</ele><time>2026-04-24T11:09:08Z</time></trkpt><trkpt lat="44.06390302088451" lon="10.31070007018312"><ele>561.0</ele><time>2026-04-24T11:09:09Z</time></trkpt><trkpt lat="44.063983204203744" lon="10.310802409209366"><ele>561.0</ele><time>2026-04-24T11:09:10Z</time></trkpt><trkpt lat="44.06404688131221" lon="10.310924752811594"><ele>561.0</ele><time>2026-04-24T11:09:11Z</time></trkpt><trkpt lat="44.0640969707791" lon="10.311082604182326"><ele>561.0</ele><time>2026-04-24T11:09:12Z</time></trkpt><trkpt lat="44.06414800843416" lon="10.311246540355533"><ele>561.0</ele><time>2026-04-24T11:09:13Z</time></trkpt><trkpt lat="44.06422506371876" lon="10.311404657605317"><ele>561.0</ele><time>2026-04-24T11:09:14Z</time></trkpt><trkpt lat="44.06428977019333" lon="10.311543513115575"><ele>561.0</ele><time>2026-04-24T11:09:15Z</time></trkpt><trkpt lat="44.06435231055542" lon="10.311674707316142"><ele>561.0</ele><time>2026-04-24T11:09:16Z</time></trkpt><trkpt lat="44.06440522521703" lon="10.311794305829503"><ele>561.0</ele><time>2026-04-24T11:09:17Z</time></trkpt><trkpt lat="44.06444811967038" lon="10.311880238656622"><ele>561.0</ele><time>2026-04-24T11:09:18Z</time></trkpt><trkpt lat="44.06450353195485" lon="10.311941872971346"><ele>561.0</ele><time>2026-04-24T11:09:19Z</time></trkpt><trkpt lat="44.064576409111254" lon="10.311977502858632"><ele>561.0</ele><time>2026-04-24T11:09:20Z</time></trkpt><trkpt lat="44.06466997362274" lon="10.311984560070357"><ele>561.0</ele><time>2026-04-24T11:09:21Z</time></trkpt><trkpt lat="44.06477965396345" lon="10.311988699583956"><ele>561.0</ele><time>2026-04-24T11:09:22Z</time></trkpt><trkpt lat="44.06487015124934" lon="10.311997556083531"><ele>561.0</ele><time>2026-04-24T11:09:23Z</time></trkpt><trkpt lat="44.06495738768151" lon="10.311975072046298"><ele>566.0</ele><time>2026-04-24T11:09:24Z</time></trkpt><trkpt lat="44.065043207692604" lon="10.311899191164196"><ele>571.0</ele><time>2026-04-24T11:09:25Z</time></trkpt><trkpt lat="44.06513685699581" lon="10.311789507390188"><ele>576.0</ele><time>2026-04-24T11:09:26Z</time></trkpt><trkpt lat="44.06523586115119" lon="10.311696838384796"><ele>581.0</ele><time>2026-04-24T11:09:27Z</time></trkpt><trkpt lat="44.06534086754153" lon="10.311630948793834"><ele>581.0</ele><time>2026-04-24T11:09:28Z</time></trkpt><trkpt lat="44.06546410131415" lon="10.311571120137405"><ele>581.0</ele><time>2026-04-24T11:09:29Z</time></trkpt><trkpt lat="44.065591060785266" lon="10.311538174593277"><ele>581.0</ele><time>2026-04-24T11:09:30Z</time></trkpt><trkpt lat="44.06570654823617" lon="10.311507854886276"><ele>581.0</ele><time>2026-04-24T11:09:31Z</time></trkpt><trkpt lat="44.06580106609689" lon="10.31145443796711"><ele>585.2</ele><time>2026-04-24T11:09:32Z</time></trkpt><trkpt lat="44.06587731237668" lon="10.311383766739512"><ele>589.4000000000001</ele><time>2026-04-24T11:09:33Z</time></trkpt><trkpt lat="44.06595411300851" lon="10.311272463062394"><ele>593.6</ele><time>2026-04-24T11:09:34Z</time></trkpt><trkpt lat="44.06603408412439" lon="10.311205819915905"><ele>597.8000000000001</ele><time>2026-04-24T11:09:35Z</time></trkpt><trkpt lat="44.066119379201574" lon="10.311166756860088"><ele>602.0</ele><time>2026-04-24T11:09:36Z</time></trkpt><trkpt lat="44.066215656632586" lon="10.311174610825592"><ele>602.0</ele><time>2026-04-24T11:09:37Z</time></trkpt><trkpt lat="44.0663192999276" lon="10.311223895621886"><ele>602.0</ele><time>2026-04-24T11:09:38Z</time></trkpt><trkpt lat="44.06640481193675" lon="10.311295978544164"><ele>602.0</ele><time>2026-04-24T11:09:39Z</time></trkpt><trkpt lat="44.066458865074424" lon="10.311383618827994"><ele>602.0</ele><time>2026-04-24T11:09:40Z</time></trkpt><trkpt lat="44.06649360640572" lon="10.311498367766928"><ele>602.0</ele><time>2026-04-24T11:09:41Z</time></trkpt><trkpt lat="44.06650503016102" lon="10.311642584246092"><ele>594.75</ele><time>2026-04-24T11:09:42Z</time></trkpt><trkpt lat="44.06648333918562" lon="10.311809153117018"><ele>587.5</ele><time>2026-04-24T11:09:43Z</time></trkpt><trkpt lat="44.06643267787161" lon="10.311979580750444"><ele>580.25</ele><time>2026-04-24T11:09:44Z</time></trkpt><trkpt lat="44.06635196763794" lon="10.312151096050309"><ele>573.0</ele><time>2026-04-24T11:09:45Z</time></trkpt><trkpt lat="44.066272779942345" lon="10.312322439434546"><ele>570.75</ele><time>2026-04-24T11:09:46Z</time></trkpt><trkpt lat="44.06619494992511" lon="10.312479971755886"><ele>568.5</ele><time>2026-04-24T11:09:47Z</time></trkpt><trkpt lat="44.066120508848826" lon="10.31263517451791"><ele>566.25</ele><time>2026-04-24T11:09:48Z</time></trkpt><trkpt lat="44.0660611204364" lon="10.312781286895344"><ele>564.0</ele><time>2026-04-24T11:09:49Z</time></trkpt><trkpt lat="44.06600160774829" lon="10.312922888565229"><ele>564.0</ele><time>2026-04-24T11:09:50Z</time></trkpt><trkpt lat="44.06596166446146" lon="10.313070173076742"><ele>564.0</ele><time>2026-04-24T11:09:51Z</time></trkpt><trkpt lat="44.06593951578003" lon="10.31322247835276"><ele>564.0</ele><time>2026-04-24T11:09:52Z</time></trkpt><trkpt lat="44.0659246388067" lon="10.313370068601058"><ele>564.0</ele><time>2026-04-24T11:09:53Z</time></trkpt><trkpt lat="44.06591715288502" lon="10.313492439174546"><ele>564.0</ele><time>2026-04-24T11:09:54Z</time></trkpt><trkpt lat="44.06593088598205" lon="10.313607960916496"><ele>563.2</ele><time>2026-04-24T11:09:55Z</time></trkpt><trkpt lat="44.06599315533529" lon="10.313701415983308"><ele>562.4</ele><time>2026-04-24T11:09:56Z</time></trkpt><trkpt lat="44.066088158454335" lon="10.31377084050224"><ele>561.6</ele><time>2026-04-24T11:09:57Z</time></trkpt><trkpt lat="44.06619639062701" lon="10.313831449552211"><ele>560.8</ele><time>2026-04-24T11:09:58Z</time></trkpt><trkpt lat="44.06627709500819" lon="10.31392096550321"><ele>560.0</ele><time>2026-04-24T11:09:59Z</time></trkpt><trkpt lat="44.06632496228753" lon="10.314054154489327"><ele>556.8</ele><time>2026-04-24T11:10:00Z</time></trkpt><trkpt lat="44.066339122712634" lon="10.314198170572373"><ele>553.6</ele><time>2026-04-24T11:10:01Z</time></trkpt><trkpt lat="44.06631440916057" lon="10.314331361265848"><ele>550.4</ele><time>2026-04-24T11:10:02Z</time></trkpt><trkpt lat="44.066280400049024" lon="10.314470472324523"><ele>547.2</ele><time>2026-04-24T11:10:03Z</time></trkpt><trkpt lat="44.06628561512283" lon="10.314626336201705"><ele>544.0</ele><time>2026-04-24T11:10:04Z</time></trkpt><trkpt lat="44.066327262090965" lon="10.314795435723523"><ele>541.6</ele><time>2026-04-24T11:10:05Z</time></trkpt><trkpt lat="44.066373341820665" lon="10.314943329364413"><ele>539.2</ele><time>2026-04-24T11:10:06Z</time></trkpt><trkpt lat="44.066423120526764" lon="10.315077845363716"><ele>536.8000000000001</ele><time>2026-04-24T11:10:07Z</time></trkpt><trkpt lat="44.066447852767126" lon="10.31519326804192"><ele>534.4</ele><time>2026-04-24T11:10:08Z</time></trkpt><trkpt lat="44.06644630294616" lon="10.315324106909697"><ele>532.0</ele><time>2026-04-24T11:10:09Z</time></trkpt><trkpt lat="44.066393803777046" lon="10.31547033086536"><ele>531.75</ele><time>2026-04-24T11:10:10Z</time></trkpt><trkpt lat="44.06630362746183" lon="10.315603781382002"><ele>531.5</ele><time>2026-04-24T11:10:11Z</time></trkpt><trkpt lat="44.06621767399829" lon="10.315754487831365"><ele>531.25</ele><time>2026-04-24T11:10:12Z</time></trkpt><trkpt lat="44.066162433023514" lon="10.315911847243633"><ele>531.0</ele><time>2026-04-24T11:10:13Z</time></trkpt><trkpt lat="44.06608822943901" lon="10.316061273994483"><ele>531.0</ele><time>2026-04-24T11:10:14Z</time></trkpt><trkpt lat="44.06598754116997" lon="10.316197822279664"><ele>531.0</ele><time>2026-04-24T11:10:15Z</time></trkpt><trkpt lat="44.065869374132525" lon="10.316325176425153"><ele>531.0</ele><time>2026-04-24T11:10:16Z</time></trkpt><trkpt lat="44.065750368528526" lon="10.316428537013596"><ele>531.0</ele><time>2026-04-24T11:10:17Z</time></trkpt><trkpt lat="44.06564644938125" lon="10.316543184272223"><ele>530.25</ele><time>2026-04-24T11:10:18Z</time></trkpt><trkpt lat="44.06554928597093" lon="10.316650978760084"><ele>529.5</ele><time>2026-04-24T11:10:19Z</time></trkpt><trkpt lat="44.06546880803487" lon="10.31675874144519"><ele>528.75</ele><time>2026-04-24T11:10:20Z</time></trkpt><trkpt lat="44.06541012143627" lon="10.316892500283926"><ele>528.0</ele><time>2026-04-24T11:10:21Z</time></trkpt><trkpt lat="44.06537315094085" lon="10.317048032169637"><ele>528.0</ele><time>2026-04-24T11:10:22Z</time></trkpt><trkpt lat="44.06534936319062" lon="10.317211155994675"><ele>528.0</ele><time>2026-04-24T11:10:23Z</time></trkpt><trkpt lat="44.06535274735195" lon="10.317369427810345"><ele>528.0</ele><time>2026-04-24T11:10:24Z</time></trkpt><trkpt lat="44.06536393498585" lon="10.317520280924342"><ele>528.0</ele><time>2026-04-24T11:10:25Z</time></trkpt><trkpt lat="44.065371563685126" lon="10.31766263211749"><ele>528.0</ele><time>2026-04-24T11:10:26Z</time></trkpt><trkpt lat="44.06536344287586" lon="10.317846232158875"><ele>528.5</ele><time>2026-04-24T11:10:27Z</time></trkpt><trkpt lat="44.06533288917675" lon="10.318029675005072"><ele>529.0</ele><time>2026-04-24T11:10:28Z</time></trkpt><trkpt lat="44.06529131054729" lon="10.318180131775627"><ele>529.5</ele><time>2026-04-24T11:10:29Z</time></trkpt><trkpt lat="44.065228110012576" lon="10.318315121734617"><ele>530.0</ele><time>2026-04-24T11:10:30Z</time></trkpt><trkpt lat="44.06515950971581" lon="10.318430415929788"><ele>530.5</ele><time>2026-04-24T11:10:31Z</time></trkpt><trkpt lat="44.065113979636656" lon="10.318553270593334"><ele>531.0</ele><time>2026-04-24T11:10:32Z</time></trkpt><trkpt lat="44.06510519144518" lon="10.318695796711834"><ele>531.5</ele><time>2026-04-24T11:10:33Z</time></trkpt><trkpt lat="44.065115770248006" lon="10.31886191372072"><ele>532.0</ele><time>2026-04-24T11:10:34Z</time></trkpt><trkpt lat="44.065121993453516" lon="10.319050536295576"><ele>532.75</ele><time>2026-04-24T11:10:35Z</time></trkpt><trkpt lat="44.06513482570962" lon="10.319257855941267"><ele>533.5</ele><time>2026-04-24T11:10:36Z</time></trkpt><trkpt lat="44.065137328502296" lon="10.319471838863194"><ele>534.25</ele><time>2026-04-24T11:10:37Z</time></trkpt><trkpt lat="44.06513427825959" lon="10.319673208686009"><ele>535.0</ele><time>2026-04-24T11:10:38Z</time></trkpt><trkpt lat="44.06515081636326" lon="10.319875591877611"><ele>535.0</ele><time>2026-04-24T11:10:39Z</time></trkpt><trkpt lat="44.065165179759646" lon="10.320064265192322"><ele>535.0</ele><time>2026-04-24T11:10:40Z</time></trkpt><trkpt lat="44.06519941776076" lon="10.32023685240353"><ele>535.0</ele><time>2026-04-24T11:10:41Z</time></trkpt><trkpt lat="44.0652518999371" lon="10.320393397148635"><ele>535.0</ele><time>2026-04-24T11:10:42Z</time></trkpt><trkpt lat="44.06528513677967" lon="10.320568710964888"><ele>533.2</ele><time>2026-04-24T11:10:43Z</time></trkpt><trkpt lat="44.06529921257306" lon="10.32073795612252"><ele>531.4</ele><time>2026-04-24T11:10:44Z</time></trkpt><trkpt lat="44.06529008108165" lon="10.320894940219992"><ele>529.6</ele><time>2026-04-24T11:10:45Z</time></trkpt><trkpt lat="44.065279138289135" lon="10.321031054086738"><ele>527.8</ele><time>2026-04-24T11:10:46Z</time></trkpt><trkpt lat="44.06529511239834" lon="10.321163347538349"><ele>526.0</ele><time>2026-04-24T11:10:47Z</time></trkpt><trkpt lat="44.06533942845585" lon="10.321281722631614"><ele>526.0</ele><time>2026-04-24T11:10:48Z</time></trkpt><trkpt lat="44.06539864635743" lon="10.321398417673427"><ele>526.0</ele><time>2026-04-24T11:10:49Z</time></trkpt><trkpt lat="44.065467065839194" lon="10.321523698607901"><ele>526.0</ele><time>2026-04-24T11:10:50Z</time></trkpt><trkpt lat="44.06553398656564" lon="10.321636904200453"><ele>526.0</ele><time>2026-04-24T11:10:51Z</time></trkpt><trkpt lat="44.06564124662118" lon="10.321752197595018"><ele>524.5</ele><time>2026-04-24T11:10:52Z</time></trkpt><trkpt lat="44.065760239367144" lon="10.32185809501838"><ele>523.0</ele><time>2026-04-24T11:10:53Z</time></trkpt><trkpt lat="44.065841944786065" lon="10.3220212302877"><ele>521.5</ele><time>2026-04-24T11:10:54Z</time></trkpt><trkpt lat="44.06591307033621" lon="10.322162691447287"><ele>520.0</ele><time>2026-04-24T11:10:55Z</time></trkpt><trkpt lat="44.065923995079466" lon="10.322309613502878"><ele>520.0</ele><time>2026-04-24T11:10:56Z</time></trkpt><trkpt lat="44.06589315693039" lon="10.322463459902302"><ele>520.0</ele><time>2026-04-24T11:10:57Z</time></trkpt><trkpt lat="44.06589110534583" lon="10.322592142095068"><ele>520.0</ele><time>2026-04-24T11:10:58Z</time></trkpt><trkpt lat="44.06592853939187" lon="10.322711924377428"><ele>520.0</ele><time>2026-04-24T11:10:59Z</time></trkpt><trkpt lat="44.065993990672396" lon="10.322859587810193"><ele>520.0</ele><time>2026-04-24T11:11:00Z</time></trkpt><trkpt lat="44.066054325550056" lon="10.322997805752772"><ele>521.25</ele><time>2026-04-24T11:11:01Z</time></trkpt><trkpt lat="44.066112814328164" lon="10.323137809675536"><ele>522.5</ele><time>2026-04-24T11:11:02Z</time></trkpt><trkpt lat="44.06620026820091" lon="10.323246112573724"><ele>523.75</ele><time>2026-04-24T11:11:03Z</time></trkpt><trkpt lat="44.06631307801072" lon="10.323340063496953"><ele>525.0</ele><time>2026-04-24T11:11:04Z</time></trkpt><trkpt lat="44.06644094772078" lon="10.323414267817236"><ele>525.0</ele><time>2026-04-24T11:11:05Z</time></trkpt><trkpt lat="44.06657259940701" lon="10.323490502616085"><ele>525.0</ele><time>2026-04-24T11:11:06Z</time></trkpt><trkpt lat="44.06667585417498" lon="10.323554303360872"><ele>525.0</ele><time>2026-04-24T11:11:07Z</time></trkpt><trkpt lat="44.06681626741643" lon="10.323584413467097"><ele>525.0</ele><time>2026-04-24T11:11:08Z</time></trkpt><trkpt lat="44.066944225781" lon="10.323592807367218"><ele>525.75</ele><time>2026-04-24T11:11:09Z</time></trkpt><trkpt lat="44.06708890606634" lon="10.323577669343152"><ele>526.5</ele><time>2026-04-24T11:11:10Z</time></trkpt><trkpt lat="44.06722041339213" lon="10.32355656814871"><ele>527.25</ele><time>2026-04-24T11:11:11Z</time></trkpt><trkpt lat="44.067344561932195" lon="10.323553866518296"><ele>528.0</ele><time>2026-04-24T11:11:12Z</time></trkpt><trkpt lat="44.067492509543456" lon="10.323536387091746"><ele>528.0</ele><time>2026-04-24T11:11:13Z</time></trkpt><trkpt lat="44.06759261827089" lon="10.323516841856435"><ele>528.0</ele><time>2026-04-24T11:11:14Z</time></trkpt><trkpt lat="44.06769415061753" lon="10.323489946240697"><ele>528.0</ele><time>2026-04-24T11:11:15Z</time></trkpt><trkpt lat="44.06779666883569" lon="10.323481536568424"><ele>528.0</ele><time>2026-04-24T11:11:16Z</time></trkpt><trkpt lat="44.06789919336448" lon="10.323498679875373"><ele>528.0</ele><time>2026-04-24T11:11:17Z</time></trkpt><trkpt lat="44.06798655089239" lon="10.323544618458243"><ele>528.0</ele><time>2026-04-24T11:11:18Z</time></trkpt><trkpt lat="44.06806051140998" lon="10.323644377118685"><ele>528.0</ele><time>2026-04-24T11:11:19Z</time></trkpt><trkpt lat="44.06812624780827" lon="10.323788589813388"><ele>528.0</ele><time>2026-04-24T11:11:20Z</time></trkpt><trkpt lat="44.06819808292442" lon="10.323956818465845"><ele>528.0</ele><time>2026-04-24T11:11:21Z</time></trkpt><trkpt lat="44.06828876265405" lon="10.324112949188509"><ele>521.5</ele><time>2026-04-24T11:11:22Z</time></trkpt><trkpt lat="44.06836648913112" lon="10.324251468414845"><ele>515.0</ele><time>2026-04-24T11:11:23Z</time></trkpt><trkpt lat="44.06843618020703" lon="10.324385428258209"><ele>508.5</ele><time>2026-04-24T11:11:24Z</time></trkpt><trkpt lat="44.06852369258967" lon="10.324493101977273"><ele>502.0</ele><time>2026-04-24T11:11:25Z</time></trkpt><trkpt lat="44.06860511130438" lon="10.324602126286962"><ele>498.0</ele><time>2026-04-24T11:11:26Z</time></trkpt><trkpt lat="44.06864592003904" lon="10.324772652303217"><ele>494.0</ele><time>2026-04-24T11:11:27Z</time></trkpt><trkpt lat="44.068704749782505" lon="10.324926423653258"><ele>490.0</ele><time>2026-04-24T11:11:28Z</time></trkpt><trkpt lat="44.06875385645219" lon="10.32507782334575"><ele>486.0</ele><time>2026-04-24T11:11:29Z</time></trkpt><trkpt lat="44.06879036990173" lon="10.325218854894594"><ele>486.0</ele><time>2026-04-24T11:11:30Z</time></trkpt><trkpt lat="44.06880308965992" lon="10.325351222212854"><ele>486.0</ele><time>2026-04-24T11:11:31Z</time></trkpt><trkpt lat="44.06878530544023" lon="10.325481219417012"><ele>486.0</ele><time>2026-04-24T11:11:32Z</time></trkpt><trkpt lat="44.068766247494835" lon="10.325628081411702"><ele>486.0</ele><time>2026-04-24T11:11:33Z</time></trkpt><trkpt lat="44.06874180535461" lon="10.325769017069097"><ele>486.0</ele><time>2026-04-24T11:11:34Z</time></trkpt><trkpt lat="44.06874740390007" lon="10.325917471570962"><ele>486.75</ele><time>2026-04-24T11:11:35Z</time></trkpt><trkpt lat="44.06875033511782" lon="10.326071259225401"><ele>487.5</ele><time>2026-04-24T11:11:36Z</time></trkpt><trkpt lat="44.068787437978884" lon="10.326240252990932"><ele>488.25</ele><time>2026-04-24T11:11:37Z</time></trkpt><trkpt lat="44.06884050598366" lon="10.32641327195857"><ele>489.0</ele><time>2026-04-24T11:11:38Z</time></trkpt><trkpt lat="44.06890551045759" lon="10.326570453074504"><ele>489.0</ele><time>2026-04-24T11:11:39Z</time></trkpt><trkpt lat="44.06894645698948" lon="10.326748795645326"><ele>489.0</ele><time>2026-04-24T11:11:40Z</time></trkpt><trkpt lat="44.068997803647896" lon="10.326907106263674"><ele>489.0</ele><time>2026-04-24T11:11:41Z</time></trkpt><trkpt lat="44.06903946084449" lon="10.327058563904597"><ele>489.0</ele><time>2026-04-24T11:11:42Z</time></trkpt><trkpt lat="44.06907187582765" lon="10.327191170501997"><ele>488.2</ele><time>2026-04-24T11:11:43Z</time></trkpt><trkpt lat="44.06907806830149" lon="10.327313274392177"><ele>487.4</ele><time>2026-04-24T11:11:44Z</time></trkpt><trkpt lat="44.0690778516016" lon="10.327439939924723"><ele>486.6</ele><time>2026-04-24T11:11:45Z</time></trkpt><trkpt lat="44.06906501960606" lon="10.327571941470042"><ele>485.8</ele><time>2026-04-24T11:11:46Z</time></trkpt><trkpt lat="44.06903560325956" lon="10.32771512247772"><ele>485.0</ele><time>2026-04-24T11:11:47Z</time></trkpt><trkpt lat="44.06899652045939" lon="10.327846432384632"><ele>485.0</ele><time>2026-04-24T11:11:48Z</time></trkpt><trkpt lat="44.06894559415549" lon="10.327958851642828"><ele>485.0</ele><time>2026-04-24T11:11:49Z</time></trkpt><trkpt lat="44.06887427073164" lon="10.328057936898926"><ele>485.0</ele><time>2026-04-24T11:11:50Z</time></trkpt><trkpt lat="44.06878931606952" lon="10.328144334925797"><ele>485.0</ele><time>2026-04-24T11:11:51Z</time></trkpt><trkpt lat="44.06869002719771" lon="10.328226833841915"><ele>485.0</ele><time>2026-04-24T11:11:52Z</time></trkpt><trkpt lat="44.06858070277886" lon="10.328297182732205"><ele>487.0</ele><time>2026-04-24T11:11:53Z</time></trkpt><trkpt lat="44.06847727756105" lon="10.328346776080059"><ele>489.0</ele><time>2026-04-24T11:11:54Z</time></trkpt><trkpt lat="44.06837407142413" lon="10.328374059990114"><ele>491.0</ele><time>2026-04-24T11:11:55Z</time></trkpt><trkpt lat="44.06827551576345" lon="10.32835216990663"><ele>493.0</ele><time>2026-04-24T11:11:56Z</time></trkpt><trkpt lat="44.068158820883234" lon="10.328332314809462"><ele>495.0</ele><time>2026-04-24T11:11:57Z</time></trkpt><trkpt lat="44.068040093732655" lon="10.328326238788476"><ele>489.6666666666667</ele><time>2026-04-24T11:11:58Z</time></trkpt><trkpt lat="44.067929082838255" lon="10.328302520247155"><ele>484.33333333333337</ele><time>2026-04-24T11:11:59Z</time></trkpt><trkpt lat="44.06784117292122" lon="10.328275129642142"><ele>479.0</ele><time>2026-04-24T11:12:00Z</time></trkpt><trkpt lat="44.06776740046969" lon="10.328274670956585"><ele>473.6666666666667</ele><time>2026-04-24T11:12:01Z</time></trkpt><trkpt lat="44.06768995365037" lon="10.328311795737939"><ele>468.33333333333337</ele><time>2026-04-24T11:12:02Z</time></trkpt><trkpt lat="44.06762722976023" lon="10.328397428796018"><ele>463.0</ele><time>2026-04-24T11:12:03Z</time></trkpt><trkpt lat="44.0675874387592" lon="10.328514200471439"><ele>463.0</ele><time>2026-04-24T11:12:04Z</time></trkpt><trkpt lat="44.067594184252904" lon="10.3286586061982"><ele>463.0</ele><time>2026-04-24T11:12:05Z</time></trkpt><trkpt lat="44.06767542545595" lon="10.328844764336393"><ele>463.0</ele><time>2026-04-24T11:12:06Z</time></trkpt><trkpt lat="44.067748123137505" lon="10.329023750198154"><ele>463.0</ele><time>2026-04-24T11:12:07Z</time></trkpt><trkpt lat="44.067817611183855" lon="10.329175446505344"><ele>458.75</ele><time>2026-04-24T11:12:08Z</time></trkpt><trkpt lat="44.067900333274814" lon="10.329304284498207"><ele>454.5</ele><time>2026-04-24T11:12:09Z</time></trkpt><trkpt lat="44.067995427150414" lon="10.329398128951786"><ele>450.25</ele><time>2026-04-24T11:12:10Z</time></trkpt><trkpt lat="44.06812038477093" lon="10.329461738945055"><ele>446.0</ele><time>2026-04-24T11:12:11Z</time></trkpt><trkpt lat="44.06825528628061" lon="10.32953014439657"><ele>444.5</ele><time>2026-04-24T11:12:12Z</time></trkpt><trkpt lat="44.06836161352375" lon="10.329639753227257"><ele>443.0</ele><time>2026-04-24T11:12:13Z</time></trkpt><trkpt lat="44.06848546456664" lon="10.329719650489729"><ele>441.5</ele><time>2026-04-24T11:12:14Z</time></trkpt><trkpt lat="44.06859999271249" lon="10.329829871399172"><ele>440.0</ele><time>2026-04-24T11:12:15Z</time></trkpt><trkpt lat="44.068710137430976" lon="10.329971291563327"><ele>440.0</ele><time>2026-04-24T11:12:16Z</time></trkpt><trkpt lat="44.0688124492869" lon="10.330122673015811"><ele>440.0</ele><time>2026-04-24T11:12:17Z</time></trkpt><trkpt lat="44.068919757686956" lon="10.330250526173863"><ele>440.0</ele><time>2026-04-24T11:12:18Z</time></trkpt><trkpt lat="44.06902128915047" lon="10.3303764861697"><ele>440.0</ele><time>2026-04-24T11:12:19Z</time></trkpt><trkpt lat="44.06915558286137" lon="10.330488483846475"><ele>440.3333333333333</ele><time>2026-04-24T11:12:20Z</time></trkpt><trkpt lat="44.069309483614994" lon="10.330601077866197"><ele>440.66666666666663</ele><time>2026-04-24T11:12:21Z</time></trkpt><trkpt lat="44.069454790910214" lon="10.330738631307732"><ele>441.0</ele><time>2026-04-24T11:12:22Z</time></trkpt><trkpt lat="44.06959674404527" lon="10.330847955330444"><ele>441.0</ele><time>2026-04-24T11:12:23Z</time></trkpt><trkpt lat="44.06973484010928" lon="10.330957085594186"><ele>441.0</ele><time>2026-04-24T11:12:24Z</time></trkpt><trkpt lat="44.06984526682924" lon="10.331078243854481"><ele>441.0</ele><time>2026-04-24T11:12:25Z</time></trkpt><trkpt lat="44.06993142559833" lon="10.33122355065766"><ele>441.0</ele><time>2026-04-24T11:12:26Z</time></trkpt><trkpt lat="44.070006597374515" lon="10.331385230422395"><ele>441.5</ele><time>2026-04-24T11:12:27Z</time></trkpt><trkpt lat="44.07006233602948" lon="10.331564079195916"><ele>442.0</ele><time>2026-04-24T11:12:28Z</time></trkpt><trkpt lat="44.07008920379825" lon="10.331741692593639"><ele>442.5</ele><time>2026-04-24T11:12:29Z</time></trkpt><trkpt lat="44.07011247043117" lon="10.33196238454633"><ele>443.0</ele><time>2026-04-24T11:12:30Z</time></trkpt><trkpt lat="44.07013748139541" lon="10.332215447354985"><ele>440.3333333333333</ele><time>2026-04-24T11:12:31Z</time></trkpt><trkpt lat="44.07016247221574" lon="10.332476012060587"><ele>437.66666666666663</ele><time>2026-04-24T11:12:32Z</time></trkpt><trkpt lat="44.070183579014845" lon="10.3327065059122"><ele>435.0</ele><time>2026-04-24T11:12:33Z</time></trkpt><trkpt lat="44.07020253843669" lon="10.332919403408876"><ele>436.66666666666663</ele><time>2026-04-24T11:12:34Z</time></trkpt><trkpt lat="44.07024123642854" lon="10.333122416064498"><ele>438.3333333333333</ele><time>2026-04-24T11:12:35Z</time></trkpt><trkpt lat="44.070265723192406" lon="10.333342083688121"><ele>440.0</ele><time>2026-04-24T11:12:36Z</time></trkpt><trkpt lat="44.070303337423454" lon="10.333555483765673"><ele>440.0</ele><time>2026-04-24T11:12:37Z</time></trkpt><trkpt lat="44.07034019689112" lon="10.333754052684283"><ele>440.0</ele><time>2026-04-24T11:12:38Z</time></trkpt><trkpt lat="44.070371568799736" lon="10.333940627689774"><ele>440.0</ele><time>2026-04-24T11:12:39Z</time></trkpt><trkpt lat="44.07040233113597" lon="10.334131709104193"><ele>440.0</ele><time>2026-04-24T11:12:40Z</time></trkpt><trkpt lat="44.07043328454563" lon="10.334330249632632"><ele>437.0</ele><time>2026-04-24T11:12:41Z</time></trkpt><trkpt lat="44.07047594028081" lon="10.33451213600971"><ele>434.0</ele><time>2026-04-24T11:12:42Z</time></trkpt><trkpt lat="44.07050202912342" lon="10.334687283627062"><ele>431.0</ele><time>2026-04-24T11:12:43Z</time></trkpt><trkpt lat="44.070519512106905" lon="10.33484465905759"><ele>428.0</ele><time>2026-04-24T11:12:44Z</time></trkpt><trkpt lat="44.07053057622835" lon="10.3349820671034"><ele>427.79999999999995</ele><time>2026-04-24T11:12:45Z</time></trkpt><trkpt lat="44.07055299880845" lon="10.335111348164554"><ele>427.59999999999997</ele><time>2026-04-24T11:12:46Z</time></trkpt><trkpt lat="44.07059905947905" lon="10.33522717676315"><ele>427.40000000000003</ele><time>2026-04-24T11:12:47Z</time></trkpt><trkpt lat="44.07067856010519" lon="10.335312662977163"><ele>427.20000000000005</ele><time>2026-04-24T11:12:48Z</time></trkpt><trkpt lat="44.07078669999155" lon="10.335359409115739"><ele>427.0</ele><time>2026-04-24T11:12:49Z</time></trkpt><trkpt lat="44.07092341124607" lon="10.335348211615226"><ele>426.25</ele><time>2026-04-24T11:12:50Z</time></trkpt><trkpt lat="44.071076356382996" lon="10.335316747945557"><ele>425.5</ele><time>2026-04-24T11:12:51Z</time></trkpt><trkpt lat="44.07123151067224" lon="10.335305333482474"><ele>424.75</ele><time>2026-04-24T11:12:52Z</time></trkpt><trkpt lat="44.07136728666564" lon="10.335292494087678"><ele>424.0</ele><time>2026-04-24T11:12:53Z</time></trkpt><trkpt lat="44.07148828957338" lon="10.335287192345335"><ele>424.0</ele><time>2026-04-24T11:12:54Z</time></trkpt><trkpt lat="44.07160625151269" lon="10.335316865129558"><ele>424.0</ele><time>2026-04-24T11:12:55Z</time></trkpt><trkpt lat="44.071721916431926" lon="10.335414016808366"><ele>424.0</ele><time>2026-04-24T11:12:56Z</time></trkpt><trkpt lat="44.071846015673245" lon="10.335515674559478"><ele>424.0</ele><time>2026-04-24T11:12:57Z</time></trkpt><trkpt lat="44.07196783379034" lon="10.335602739084923"><ele>419.5</ele><time>2026-04-24T11:12:58Z</time></trkpt><trkpt lat="44.07207060779353" lon="10.335688814016205"><ele>415.0</ele><time>2026-04-24T11:12:59Z</time></trkpt><trkpt lat="44.072170829486005" lon="10.33578370722374"><ele>410.5</ele><time>2026-04-24T11:13:00Z</time></trkpt><trkpt lat="44.0722643585797" lon="10.335862378206011"><ele>406.0</ele><time>2026-04-24T11:13:01Z</time></trkpt><trkpt lat="44.072362351006426" lon="10.335919271230557"><ele>406.0</ele><time>2026-04-24T11:13:02Z</time></trkpt><trkpt lat="44.07243490946835" lon="10.336026932017292"><ele>406.0</ele><time>2026-04-24T11:13:03Z</time></trkpt><trkpt lat="44.07249475366018" lon="10.336170798759754"><ele>406.0</ele><time>2026-04-24T11:13:04Z</time></trkpt><trkpt lat="44.07255796857486" lon="10.336330814903217"><ele>406.0</ele><time>2026-04-24T11:13:05Z</time></trkpt><trkpt lat="44.07258775621506" lon="10.336495935368978"><ele>410.0</ele><time>2026-04-24T11:13:06Z</time></trkpt><trkpt lat="44.072609026811485" lon="10.336657910763947"><ele>414.0</ele><time>2026-04-24T11:13:07Z</time></trkpt><trkpt lat="44.072623648217196" lon="10.336842135955553"><ele>418.0</ele><time>2026-04-24T11:13:08Z</time></trkpt><trkpt lat="44.07263575560722" lon="10.337045294927155"><ele>422.0</ele><time>2026-04-24T11:13:09Z</time></trkpt><trkpt lat="44.072642646553795" lon="10.337234033438854"><ele>422.25</ele><time>2026-04-24T11:13:10Z</time></trkpt><trkpt lat="44.07264683059689" lon="10.337420363507933"><ele>422.5</ele><time>2026-04-24T11:13:11Z</time></trkpt><trkpt lat="44.07264509857078" lon="10.33761238117936"><ele>422.75</ele><time>2026-04-24T11:13:12Z</time></trkpt><trkpt lat="44.072625898120016" lon="10.337801207860627"><ele>423.0</ele><time>2026-04-24T11:13:13Z</time></trkpt><trkpt lat="44.07258873477594" lon="10.337980986461558"><ele>423.0</ele><time>2026-04-24T11:13:14Z</time></trkpt><trkpt lat="44.0725359294791" lon="10.338168106236854"><ele>423.0</ele><time>2026-04-24T11:13:15Z</time></trkpt><trkpt lat="44.072477935600034" lon="10.338365380749913"><ele>423.0</ele><time>2026-04-24T11:13:16Z</time></trkpt><trkpt lat="44.07242457091476" lon="10.338546908510729"><ele>423.0</ele><time>2026-04-24T11:13:17Z</time></trkpt><trkpt lat="44.07237651968051" lon="10.338713816414819"><ele>425.75</ele><time>2026-04-24T11:13:18Z</time></trkpt><trkpt lat="44.072339904691624" lon="10.338868014971835"><ele>428.5</ele><time>2026-04-24T11:13:19Z</time></trkpt><trkpt lat="44.07233019470565" lon="10.339022933209888"><ele>431.25</ele><time>2026-04-24T11:13:20Z</time></trkpt><trkpt lat="44.07232539815176" lon="10.33918084446395"><ele>434.0</ele><time>2026-04-24T11:13:21Z</time></trkpt><trkpt lat="44.07236102066816" lon="10.339362943665948"><ele>434.0</ele><time>2026-04-24T11:13:22Z</time></trkpt><trkpt lat="44.07243112925405" lon="10.339566829284971"><ele>434.0</ele><time>2026-04-24T11:13:23Z</time></trkpt><trkpt lat="44.072489626141255" lon="10.339804653342954"><ele>434.0</ele><time>2026-04-24T11:13:24Z</time></trkpt><trkpt lat="44.07255872136369" lon="10.340029053530868"><ele>429.0</ele><time>2026-04-24T11:13:25Z</time></trkpt><trkpt lat="44.072631938122065" lon="10.340215974935454"><ele>424.0</ele><time>2026-04-24T11:13:26Z</time></trkpt><trkpt lat="44.07267771339236" lon="10.340416863288938"><ele>419.0</ele><time>2026-04-24T11:13:27Z</time></trkpt><trkpt lat="44.07274431728041" lon="10.34058923478735"><ele>414.0</ele><time>2026-04-24T11:13:28Z</time></trkpt><trkpt lat="44.07278471782242" lon="10.340752182873462"><ele>412.75</ele><time>2026-04-24T11:13:29Z</time></trkpt><trkpt lat="44.07282728644469" lon="10.340885412025186"><ele>411.5</ele><time>2026-04-24T11:13:30Z</time></trkpt><trkpt lat="44.07287926835999" lon="10.341008085570312"><ele>410.25</ele><time>2026-04-24T11:13:31Z</time></trkpt><trkpt lat="44.0729617823839" lon="10.341116620778912"><ele>409.0</ele><time>2026-04-24T11:13:32Z</time></trkpt><trkpt lat="44.073081765882854" lon="10.341212346051801"><ele>409.0</ele><time>2026-04-24T11:13:33Z</time></trkpt><trkpt lat="44.07320763921708" lon="10.341284987265572"><ele>409.0</ele><time>2026-04-24T11:13:34Z</time></trkpt><trkpt lat="44.0733124525709" lon="10.341348136805058"><ele>409.0</ele><time>2026-04-24T11:13:35Z</time></trkpt><trkpt lat="44.07339731040732" lon="10.341405379380534"><ele>409.0</ele><time>2026-04-24T11:13:36Z</time></trkpt><trkpt lat="44.073484229300675" lon="10.341432140966223"><ele>409.0</ele><time>2026-04-24T11:13:37Z</time></trkpt><trkpt lat="44.07359456552026" lon="10.34140416441664"><ele>414.6666666666667</ele><time>2026-04-24T11:13:38Z</time></trkpt><trkpt lat="44.07371091372789" lon="10.341319360855513"><ele>420.33333333333337</ele><time>2026-04-24T11:13:39Z</time></trkpt><trkpt lat="44.07383747012991" lon="10.341209917261295"><ele>426.0</ele><time>2026-04-24T11:13:40Z</time></trkpt><trkpt lat="44.073979681955784" lon="10.341073010325012"><ele>423.75</ele><time>2026-04-24T11:13:41Z</time></trkpt><trkpt lat="44.07411625363749" lon="10.340955418295891"><ele>421.5</ele><time>2026-04-24T11:13:42Z</time></trkpt><trkpt lat="44.07423602762419" lon="10.34086290703466"><ele>419.25</ele><time>2026-04-24T11:13:43Z</time></trkpt><trkpt lat="44.074353687155245" lon="10.340775984396751"><ele>417.0</ele><time>2026-04-24T11:13:44Z</time></trkpt><trkpt lat="44.074486046942226" lon="10.340753696481107"><ele>417.0</ele><time>2026-04-24T11:13:45Z</time></trkpt><trkpt lat="44.07460476609241" lon="10.340705827463855"><ele>417.0</ele><time>2026-04-24T11:13:46Z</time></trkpt><trkpt lat="44.074714893998646" lon="10.340685361583365"><ele>417.0</ele><time>2026-04-24T11:13:47Z</time></trkpt><trkpt lat="44.07482143128818" lon="10.340735921296341"><ele>417.0</ele><time>2026-04-24T11:13:48Z</time></trkpt><trkpt lat="44.07493810334273" lon="10.340783464513343"><ele>418.0</ele><time>2026-04-24T11:13:49Z</time></trkpt><trkpt lat="44.075048180905355" lon="10.340823908841266"><ele>419.0</ele><time>2026-04-24T11:13:50Z</time></trkpt><trkpt lat="44.07513665469211" lon="10.340897577713024"><ele>420.0</ele><time>2026-04-24T11:13:51Z</time></trkpt><trkpt lat="44.075198709168205" lon="10.341011728227087"><ele>421.0</ele><time>2026-04-24T11:13:52Z</time></trkpt><trkpt lat="44.0752440215308" lon="10.34117494761956"><ele>422.0</ele><time>2026-04-24T11:13:53Z</time></trkpt><trkpt lat="44.07529862519642" lon="10.341334034873352"><ele>419.20000000000005</ele><time>2026-04-24T11:13:54Z</time></trkpt><trkpt lat="44.07535118243758" lon="10.341472568684232"><ele>416.4</ele><time>2026-04-24T11:13:55Z</time></trkpt><trkpt lat="44.07539327079141" lon="10.34159288784138"><ele>413.6</ele><time>2026-04-24T11:13:56Z</time></trkpt><trkpt lat="44.07542706538525" lon="10.341732156731359"><ele>410.79999999999995</ele><time>2026-04-24T11:13:57Z</time></trkpt><trkpt lat="44.07537299331231" lon="10.341883149493894"><ele>408.0</ele><time>2026-04-24T11:13:58Z</time></trkpt><trkpt lat="44.075334333587705" lon="10.342028608801305"><ele>408.0</ele><time>2026-04-24T11:13:59Z</time></trkpt><trkpt lat="44.07528113985336" lon="10.34214823440404"><ele>408.0</ele><time>2026-04-24T11:14:00Z</time></trkpt><trkpt lat="44.07518722490468" lon="10.342229434699686"><ele>408.0</ele><time>2026-04-24T11:14:01Z</time></trkpt><trkpt lat="44.07511084964619" lon="10.342354088704592"><ele>408.0</ele><time>2026-04-24T11:14:02Z</time></trkpt><trkpt lat="44.075032653615416" lon="10.34248337108199"><ele>411.33333333333337</ele><time>2026-04-24T11:14:03Z</time></trkpt><trkpt lat="44.07496700053653" lon="10.342664013750822"><ele>414.6666666666667</ele><time>2026-04-24T11:14:04Z</time></trkpt><trkpt lat="44.07488870284308" lon="10.342857556784171"><ele>418.0</ele><time>2026-04-24T11:14:05Z</time></trkpt><trkpt lat="44.07482082924129" lon="10.343038486645899"><ele>419.25</ele><time>2026-04-24T11:14:06Z</time></trkpt><trkpt lat="44.074739315914755" lon="10.343174641368545"><ele>420.5</ele><time>2026-04-24T11:14:07Z</time></trkpt><trkpt lat="44.0746730132447" lon="10.343311765747854"><ele>421.75</ele><time>2026-04-24T11:14:08Z</time></trkpt><trkpt lat="44.0746063566538" lon="10.343450021884763"><ele>423.0</ele><time>2026-04-24T11:14:09Z</time></trkpt><trkpt lat="44.07453624092282" lon="10.343569985489271"><ele>423.0</ele><time>2026-04-24T11:14:10Z</time></trkpt><trkpt lat="44.07448992114479" lon="10.343702836767001"><ele>423.0</ele><time>2026-04-24T11:14:11Z</time></trkpt><trkpt lat="44.07447306122274" lon="10.343853280606696"><ele>423.0</ele><time>2026-04-24T11:14:12Z</time></trkpt><trkpt lat="44.07449238276677" lon="10.344010740458863"><ele>423.0</ele><time>2026-04-24T11:14:13Z</time></trkpt><trkpt lat="44.07452841340978" lon="10.344147594832295"><ele>423.0</ele><time>2026-04-24T11:14:14Z</time></trkpt><trkpt lat="44.07460237677167" lon="10.344254140180475"><ele>420.25</ele><time>2026-04-24T11:14:15Z</time></trkpt><trkpt lat="44.07470809346883" lon="10.344327368580016"><ele>417.5</ele><time>2026-04-24T11:14:16Z</time></trkpt><trkpt lat="44.07484196662533" lon="10.344367349154801"><ele>414.75</ele><time>2026-04-24T11:14:17Z</time></trkpt><trkpt lat="44.07497046230617" lon="10.344412726511049"><ele>412.0</ele><time>2026-04-24T11:14:18Z</time></trkpt><trkpt lat="44.07508443613429" lon="10.344439652425278"><ele>412.0</ele><time>2026-04-24T11:14:19Z</time></trkpt><trkpt lat="44.075196403375" lon="10.344439329068939"><ele>412.0</ele><time>2026-04-24T11:14:20Z</time></trkpt><trkpt lat="44.0753056581315" lon="10.344407822124996"><ele>412.0</ele><time>2026-04-24T11:14:21Z</time></trkpt><trkpt lat="44.07541923260839" lon="10.344336938753424"><ele>412.0</ele><time>2026-04-24T11:14:22Z</time></trkpt><trkpt lat="44.075534915989174" lon="10.344225390045201"><ele>412.0</ele><time>2026-04-24T11:14:23Z</time></trkpt><trkpt lat="44.07564811301363" lon="10.344132280950305"><ele>412.0</ele><time>2026-04-24T11:14:24Z</time></trkpt><trkpt lat="44.075746104833456" lon="10.344041332477785"><ele>412.0</ele><time>2026-04-24T11:14:25Z</time></trkpt><trkpt lat="44.07584381494946" lon="10.34395010765067"><ele>412.0</ele><time>2026-04-24T11:14:26Z</time></trkpt><trkpt lat="44.07595406272424" lon="10.343862133611394"><ele>416.0</ele><time>2026-04-24T11:14:27Z</time></trkpt><trkpt lat="44.07608235093026" lon="10.34384964026303"><ele>420.0</ele><time>2026-04-24T11:14:28Z</time></trkpt><trkpt lat="44.076214678546265" lon="10.343813542488945"><ele>424.0</ele><time>2026-04-24T11:14:29Z</time></trkpt><trkpt lat="44.07635476834216" lon="10.343782569702846"><ele>428.0</ele><time>2026-04-24T11:14:30Z</time></trkpt><trkpt lat="44.07648419556035" lon="10.343764967853971"><ele>428.0</ele><time>2026-04-24T11:14:31Z</time></trkpt><trkpt lat="44.07659876311265" lon="10.343790993370677"><ele>428.0</ele><time>2026-04-24T11:14:32Z</time></trkpt><trkpt lat="44.07670916628877" lon="10.343818003388026"><ele>428.0</ele><time>2026-04-24T11:14:33Z</time></trkpt><trkpt lat="44.07681455336095" lon="10.343898343430379"><ele>428.0</ele><time>2026-04-24T11:14:34Z</time></trkpt><trkpt lat="44.07691908872376" lon="10.344004047516906"><ele>419.75</ele><time>2026-04-24T11:14:35Z</time></trkpt><trkpt lat="44.07702155339973" lon="10.344090861003158"><ele>411.5</ele><time>2026-04-24T11:14:36Z</time></trkpt><trkpt lat="44.07712502669203" lon="10.344183506367326"><ele>403.25</ele><time>2026-04-24T11:14:37Z</time></trkpt><trkpt lat="44.077214292564925" lon="10.344273296403701"><ele>395.0</ele><time>2026-04-24T11:14:38Z</time></trkpt><trkpt lat="44.077289058241305" lon="10.344383162953328"><ele>395.0</ele><time>2026-04-24T11:14:39Z</time></trkpt><trkpt lat="44.07733353443813" lon="10.344512998941747"><ele>395.0</ele><time>2026-04-24T11:14:40Z</time></trkpt><trkpt lat="44.0773443785112" lon="10.344654075787235"><ele>395.0</ele><time>2026-04-24T11:14:41Z</time></trkpt><trkpt lat="44.07732381654734" lon="10.344808376260161"><ele>395.0</ele><time>2026-04-24T11:14:42Z</time></trkpt><trkpt lat="44.077264573601184" lon="10.344945449920926"><ele>395.0</ele><time>2026-04-24T11:14:43Z</time></trkpt><trkpt lat="44.077195912014936" lon="10.345090955539098"><ele>395.0</ele><time>2026-04-24T11:14:44Z</time></trkpt><trkpt lat="44.07711332069612" lon="10.34522917741146"><ele>395.0</ele><time>2026-04-24T11:14:45Z</time></trkpt><trkpt lat="44.0770252673465" lon="10.34535448195427"><ele>395.0</ele><time>2026-04-24T11:14:46Z</time></trkpt><trkpt lat="44.07696369530049" lon="10.345533812951441"><ele>395.0</ele><time>2026-04-24T11:14:47Z</time></trkpt><trkpt lat="44.07691020526354" lon="10.345703825659431"><ele>395.4</ele><time>2026-04-24T11:14:48Z</time></trkpt><trkpt lat="44.07688074243761" lon="10.345844455066272"><ele>395.8</ele><time>2026-04-24T11:14:49Z</time></trkpt><trkpt lat="44.07685123950686" lon="10.345955342761087"><ele>396.20000000000005</ele><time>2026-04-24T11:14:50Z</time></trkpt><trkpt lat="44.07685546851919" lon="10.34608154495619"><ele>396.6</ele><time>2026-04-24T11:14:51Z</time></trkpt><trkpt lat="44.07688973179119" lon="10.346219808766012"><ele>397.0</ele><time>2026-04-24T11:14:52Z</time></trkpt><trkpt lat="44.07696316472811" lon="10.346363966375428"><ele>397.25</ele><time>2026-04-24T11:14:53Z</time></trkpt><trkpt lat="44.077054478860944" lon="10.346490795161268"><ele>397.5</ele><time>2026-04-24T11:14:54Z</time></trkpt><trkpt lat="44.077165013258636" lon="10.346578340907582"><ele>397.75</ele><time>2026-04-24T11:14:55Z</time></trkpt><trkpt lat="44.077274059167976" lon="10.34667807585126"><ele>398.0</ele><time>2026-04-24T11:14:56Z</time></trkpt><trkpt lat="44.07736819477915" lon="10.346766724603416"><ele>396.0</ele><time>2026-04-24T11:14:57Z</time></trkpt><trkpt lat="44.07744710144306" lon="10.346881871503886"><ele>394.0</ele><time>2026-04-24T11:14:58Z</time></trkpt><trkpt lat="44.077517187472054" lon="10.347031113930688"><ele>392.0</ele><time>2026-04-24T11:14:59Z</time></trkpt><trkpt lat="44.07759495171848" lon="10.347203240042457"><ele>390.0</ele><time>2026-04-24T11:15:00Z</time></trkpt><trkpt lat="44.07766994723133" lon="10.347357516493018"><ele>390.0</ele><time>2026-04-24T11:15:01Z</time></trkpt><trkpt lat="44.077739413907686" lon="10.347502824696704"><ele>390.0</ele><time>2026-04-24T11:15:02Z</time></trkpt><trkpt lat="44.07780195201457" lon="10.347652792561249"><ele>390.0</ele><time>2026-04-24T11:15:03Z</time></trkpt><trkpt lat="44.07782877172021" lon="10.347813931872029"><ele>390.0</ele><time>2026-04-24T11:15:04Z</time></trkpt><trkpt lat="44.077847946719025" lon="10.347998857786608"><ele>390.4</ele><time>2026-04-24T11:15:05Z</time></trkpt><trkpt lat="44.07786058784587" lon="10.348164887281444"><ele>390.8</ele><time>2026-04-24T11:15:06Z</time></trkpt><trkpt lat="44.077864689542324" lon="10.348310854761314"><ele>391.20000000000005</ele><time>2026-04-24T11:15:07Z</time></trkpt><trkpt lat="44.077859582355636" lon="10.348458486848083"><ele>391.6</ele><time>2026-04-24T11:15:08Z</time></trkpt><trkpt lat="44.07783581928677" lon="10.348617334632648"><ele>392.0</ele><time>2026-04-24T11:15:09Z</time></trkpt><trkpt lat="44.07779006163115" lon="10.348755435634073"><ele>393.25</ele><time>2026-04-24T11:15:10Z</time></trkpt><trkpt lat="44.077709144353065" lon="10.348879757403004"><ele>394.5</ele><time>2026-04-24T11:15:11Z</time></trkpt><trkpt lat="44.07761529726604" lon="10.349021396624735"><ele>395.75</ele><time>2026-04-24T11:15:12Z</time></trkpt><trkpt lat="44.07752010007838" lon="10.349149675459238"><ele>397.0</ele><time>2026-04-24T11:15:13Z</time></trkpt><trkpt lat="44.07743819967365" lon="10.34926452460052"><ele>396.6</ele><time>2026-04-24T11:15:14Z</time></trkpt><trkpt lat="44.07735837061655" lon="10.349362808102615"><ele>396.20000000000005</ele><time>2026-04-24T11:15:15Z</time></trkpt><trkpt lat="44.077288816540054" lon="10.34947218967098"><ele>395.8</ele><time>2026-04-24T11:15:16Z</time></trkpt><trkpt lat="44.07724062853304" lon="10.349614568697781"><ele>395.4</ele><time>2026-04-24T11:15:17Z</time></trkpt><trkpt lat="44.07721511409396" lon="10.349782764692236"><ele>395.0</ele><time>2026-04-24T11:15:18Z</time></trkpt><trkpt lat="44.077215681268754" lon="10.349964924260219"><ele>395.0</ele><time>2026-04-24T11:15:19Z</time></trkpt><trkpt lat="44.07724039732995" lon="10.350156316126407"><ele>395.0</ele><time>2026-04-24T11:15:20Z</time></trkpt><trkpt lat="44.07726435277352" lon="10.350341910183644"><ele>395.0</ele><time>2026-04-24T11:15:21Z</time></trkpt><trkpt lat="44.077267134529464" lon="10.350516401884553"><ele>395.0</ele><time>2026-04-24T11:15:22Z</time></trkpt><trkpt lat="44.07721827213003" lon="10.350688854239982"><ele>392.8</ele><time>2026-04-24T11:15:23Z</time></trkpt><trkpt lat="44.0771605219624" lon="10.350831201928916"><ele>390.6</ele><time>2026-04-24T11:15:24Z</time></trkpt><trkpt lat="44.07709652248209" lon="10.350949007266443"><ele>388.4</ele><time>2026-04-24T11:15:25Z</time></trkpt><trkpt lat="44.07702279524607" lon="10.351050798437052"><ele>386.2</ele><time>2026-04-24T11:15:26Z</time></trkpt><trkpt lat="44.07696105559224" lon="10.351129904979597"><ele>384.0</ele><time>2026-04-24T11:15:27Z</time></trkpt><trkpt lat="44.0769267799337" lon="10.351231972466627"><ele>384.0</ele><time>2026-04-24T11:15:28Z</time></trkpt><trkpt lat="44.076934263493335" lon="10.35135285965302"><ele>384.0</ele><time>2026-04-24T11:15:29Z</time></trkpt><trkpt lat="44.07698632406254" lon="10.351478093597969"><ele>384.0</ele><time>2026-04-24T11:15:30Z</time></trkpt><trkpt lat="44.077082907059584" lon="10.351560035868582"><ele>384.0</ele><time>2026-04-24T11:15:31Z</time></trkpt><trkpt lat="44.07720708859847" lon="10.351602024855367"><ele>384.0</ele><time>2026-04-24T11:15:32Z</time></trkpt><trkpt lat="44.07734939693954" lon="10.351622766538968"><ele>385.75</ele><time>2026-04-24T11:15:33Z</time></trkpt><trkpt lat="44.07748129847461" lon="10.351634998992964"><ele>387.5</ele><time>2026-04-24T11:15:34Z</time></trkpt><trkpt lat="44.077588224534786" lon="10.351660938686914"><ele>389.25</ele><time>2026-04-24T11:15:35Z</time></trkpt><trkpt lat="44.077678391012576" lon="10.351741976174816"><ele>391.0</ele><time>2026-04-24T11:15:36Z</time></trkpt><trkpt lat="44.07775308945425" lon="10.351881688393192"><ele>391.0</ele><time>2026-04-24T11:15:37Z</time></trkpt><trkpt lat="44.07783932170442" lon="10.352029059814788"><ele>391.0</ele><time>2026-04-24T11:15:38Z</time></trkpt><trkpt lat="44.07793448930488" lon="10.352173467942752"><ele>391.0</ele><time>2026-04-24T11:15:39Z</time></trkpt><trkpt lat="44.078019463196114" lon="10.35230174698441"><ele>391.0</ele><time>2026-04-24T11:15:40Z</time></trkpt><trkpt lat="44.07809382728749" lon="10.352416580432967"><ele>391.0</ele><time>2026-04-24T11:15:41Z</time></trkpt><trkpt lat="44.07816267458665" lon="10.352504774774735"><ele>391.0</ele><time>2026-04-24T11:15:42Z</time></trkpt><trkpt lat="44.07824664086565" lon="10.352573450856335"><ele>391.0</ele><time>2026-04-24T11:15:43Z</time></trkpt><trkpt lat="44.0783625673987" lon="10.35259486043491"><ele>391.0</ele><time>2026-04-24T11:15:44Z</time></trkpt><trkpt lat="44.078512820085045" lon="10.352582289287144"><ele>388.6666666666667</ele><time>2026-04-24T11:15:45Z</time></trkpt><trkpt lat="44.078679048412084" lon="10.352593360344546"><ele>386.33333333333337</ele><time>2026-04-24T11:15:46Z</time></trkpt><trkpt lat="44.07883147373521" lon="10.352607080729754"><ele>384.0</ele><time>2026-04-24T11:15:47Z</time></trkpt><trkpt lat="44.078985866819394" lon="10.352593263248647"><ele>387.25</ele><time>2026-04-24T11:15:48Z</time></trkpt><trkpt lat="44.079124200227405" lon="10.352598891738623"><ele>390.5</ele><time>2026-04-24T11:15:49Z</time></trkpt><trkpt lat="44.07924989114881" lon="10.352606384224561"><ele>393.75</ele><time>2026-04-24T11:15:50Z</time></trkpt><trkpt lat="44.079359743142724" lon="10.352597173684968"><ele>397.0</ele><time>2026-04-24T11:15:51Z</time></trkpt><trkpt lat="44.079471170051974" lon="10.352609379144024"><ele>397.0</ele><time>2026-04-24T11:15:52Z</time></trkpt><trkpt lat="44.079571124618724" lon="10.352657350616484"><ele>397.0</ele><time>2026-04-24T11:15:53Z</time></trkpt><trkpt lat="44.079670072756265" lon="10.352744225761805"><ele>397.0</ele><time>2026-04-24T11:15:54Z</time></trkpt><trkpt lat="44.0797639642833" lon="10.352873902769328"><ele>397.0</ele><time>2026-04-24T11:15:55Z</time></trkpt><trkpt lat="44.07986061949511" lon="10.352994224057504"><ele>396.5</ele><time>2026-04-24T11:15:56Z</time></trkpt><trkpt lat="44.07995119823436" lon="10.353086393667178"><ele>396.0</ele><time>2026-04-24T11:15:57Z</time></trkpt><trkpt lat="44.08003101977884" lon="10.353194217454302"><ele>395.5</ele><time>2026-04-24T11:15:58Z</time></trkpt><trkpt lat="44.080098332914" lon="10.353351079066254"><ele>395.0</ele><time>2026-04-24T11:15:59Z</time></trkpt><trkpt lat="44.08016700027645" lon="10.35354156730709"><ele>395.0</ele><time>2026-04-24T11:16:00Z</time></trkpt><trkpt lat="44.080234880723225" lon="10.353722566279151"><ele>395.0</ele><time>2026-04-24T11:16:01Z</time></trkpt><trkpt lat="44.080298277005575" lon="10.35388814782449"><ele>395.0</ele><time>2026-04-24T11:16:02Z</time></trkpt><trkpt lat="44.08036283885571" lon="10.354045534849174"><ele>395.0</ele><time>2026-04-24T11:16:03Z</time></trkpt><trkpt lat="44.08043184060157" lon="10.354200599829547"><ele>394.75</ele><time>2026-04-24T11:16:04Z</time></trkpt><trkpt lat="44.08048247008525" lon="10.354373732890378"><ele>394.5</ele><time>2026-04-24T11:16:05Z</time></trkpt><trkpt lat="44.080508532858396" lon="10.354571819118949"><ele>394.25</ele><time>2026-04-24T11:16:06Z</time></trkpt><trkpt lat="44.08051977539367" lon="10.354786155683485"><ele>394.0</ele><time>2026-04-24T11:16:07Z</time></trkpt><trkpt lat="44.08053680388639" lon="10.354989162466188"><ele>394.0</ele><time>2026-04-24T11:16:08Z</time></trkpt><trkpt lat="44.08055862785174" lon="10.355189846609932"><ele>394.0</ele><time>2026-04-24T11:16:09Z</time></trkpt><trkpt lat="44.080557929094645" lon="10.35539740803288"><ele>394.0</ele><time>2026-04-24T11:16:10Z</time></trkpt><trkpt lat="44.08054383880165" lon="10.355587073798185"><ele>394.0</ele><time>2026-04-24T11:16:11Z</time></trkpt><trkpt lat="44.08053644115748" lon="10.355778233867843"><ele>399.25</ele><time>2026-04-24T11:16:12Z</time></trkpt><trkpt lat="44.08054210396347" lon="10.355980001836134"><ele>404.5</ele><time>2026-04-24T11:16:13Z</time></trkpt><trkpt lat="44.08057076670881" lon="10.35617870691358"><ele>409.75</ele><time>2026-04-24T11:16:14Z</time></trkpt><trkpt lat="44.08060776037577" lon="10.356350297337343"><ele>415.0</ele><time>2026-04-24T11:16:15Z</time></trkpt><trkpt lat="44.080656623879946" lon="10.356522328999798"><ele>418.0</ele><time>2026-04-24T11:16:16Z</time></trkpt><trkpt lat="44.0807238426286" lon="10.35670280512761"><ele>421.0</ele><time>2026-04-24T11:16:17Z</time></trkpt><trkpt lat="44.08080324441016" lon="10.356876288829525"><ele>424.0</ele><time>2026-04-24T11:16:18Z</time></trkpt><trkpt lat="44.08088238517453" lon="10.35705641285363"><ele>427.0</ele><time>2026-04-24T11:16:19Z</time></trkpt><trkpt lat="44.08096256191924" lon="10.357243791441789"><ele>416.0</ele><time>2026-04-24T11:16:20Z</time></trkpt><trkpt lat="44.08104205724788" lon="10.357428458822987"><ele>405.0</ele><time>2026-04-24T11:16:21Z</time></trkpt><trkpt lat="44.08111142052" lon="10.357597084822121"><ele>394.0</ele><time>2026-04-24T11:16:22Z</time></trkpt><trkpt lat="44.08117909235067" lon="10.357773168159294"><ele>383.0</ele><time>2026-04-24T11:16:23Z</time></trkpt><trkpt lat="44.08122594419082" lon="10.357940532929325"><ele>381.25</ele><time>2026-04-24T11:16:24Z</time></trkpt><trkpt lat="44.08125874430635" lon="10.35809984981113"><ele>379.5</ele><time>2026-04-24T11:16:25Z</time></trkpt><trkpt lat="44.08128393387326" lon="10.358278606806824"><ele>377.75</ele><time>2026-04-24T11:16:26Z</time></trkpt><trkpt lat="44.08131516092945" lon="10.358447792336841"><ele>376.0</ele><time>2026-04-24T11:16:27Z</time></trkpt><trkpt lat="44.08134451936897" lon="10.358594053804355"><ele>376.0</ele><time>2026-04-24T11:16:28Z</time></trkpt><trkpt lat="44.0813474129205" lon="10.358718673497204"><ele>376.0</ele><time>2026-04-24T11:16:29Z</time></trkpt><trkpt lat="44.08131224861167" lon="10.358857644400054"><ele>376.0</ele><time>2026-04-24T11:16:30Z</time></trkpt><trkpt lat="44.081253519989296" lon="10.359007238826802"><ele>376.0</ele><time>2026-04-24T11:16:31Z</time></trkpt><trkpt lat="44.081150705030524" lon="10.359159178948987"><ele>375.75</ele><time>2026-04-24T11:16:32Z</time></trkpt><trkpt lat="44.08106967090594" lon="10.359335401079342"><ele>375.5</ele><time>2026-04-24T11:16:33Z</time></trkpt><trkpt lat="44.08099582437696" lon="10.359523270641251"><ele>375.25</ele><time>2026-04-24T11:16:34Z</time></trkpt><trkpt lat="44.08091197357398" lon="10.359672879761987"><ele>375.0</ele><time>2026-04-24T11:16:35Z</time></trkpt><trkpt lat="44.080830959882576" lon="10.359821575095932"><ele>377.0</ele><time>2026-04-24T11:16:36Z</time></trkpt><trkpt lat="44.08076295941148" lon="10.359972658070541"><ele>379.0</ele><time>2026-04-24T11:16:37Z</time></trkpt><trkpt lat="44.080717051017785" lon="10.360110549519108"><ele>381.0</ele><time>2026-04-24T11:16:38Z</time></trkpt><trkpt lat="44.080681983461965" lon="10.360261820106556"><ele>383.0</ele><time>2026-04-24T11:16:39Z</time></trkpt><trkpt lat="44.08066811927624" lon="10.360453107590583"><ele>382.33333333333337</ele><time>2026-04-24T11:16:40Z</time></trkpt><trkpt lat="44.08068564739632" lon="10.360675410579407"><ele>381.6666666666667</ele><time>2026-04-24T11:16:41Z</time></trkpt><trkpt lat="44.08069892207336" lon="10.360925452710687"><ele>381.0</ele><time>2026-04-24T11:16:42Z</time></trkpt><trkpt lat="44.08070788932413" lon="10.361196082526629"><ele>380.3333333333333</ele><time>2026-04-24T11:16:43Z</time></trkpt><trkpt lat="44.08071302753228" lon="10.3614851805068"><ele>379.66666666666663</ele><time>2026-04-24T11:16:44Z</time></trkpt><trkpt lat="44.08071336179742" lon="10.361771822742938"><ele>379.0</ele><time>2026-04-24T11:16:45Z</time></trkpt><trkpt lat="44.080710772291305" lon="10.362021640961713"><ele>379.0</ele><time>2026-04-24T11:16:46Z</time></trkpt><trkpt lat="44.080714281639615" lon="10.362236227872579"><ele>379.0</ele><time>2026-04-24T11:16:47Z</time></trkpt><trkpt lat="44.080717855787746" lon="10.362423108395177"><ele>379.0</ele><time>2026-04-24T11:16:48Z</time></trkpt><trkpt lat="44.08072561361116" lon="10.362603758438716"><ele>379.0</ele><time>2026-04-24T11:16:49Z</time></trkpt><trkpt lat="44.0807300856315" lon="10.362776974546119"><ele>379.0</ele><time>2026-04-24T11:16:50Z</time></trkpt><trkpt lat="44.080734655198874" lon="10.362952552171025"><ele>379.0</ele><time>2026-04-24T11:16:51Z</time></trkpt><trkpt lat="44.080739505189214" lon="10.363115593529479"><ele>379.0</ele><time>2026-04-24T11:16:52Z</time></trkpt><trkpt lat="44.08074494217629" lon="10.363264657736948"><ele>379.0</ele><time>2026-04-24T11:16:53Z</time></trkpt><trkpt lat="44.080770898259196" lon="10.363416972946139"><ele>376.0</ele><time>2026-04-24T11:16:54Z</time></trkpt><trkpt lat="44.08082458672705" lon="10.363596975082391"><ele>373.0</ele><time>2026-04-24T11:16:55Z</time></trkpt><trkpt lat="44.080892970673744" lon="10.36378649947341"><ele>370.0</ele><time>2026-04-24T11:16:56Z</time></trkpt><trkpt lat="44.08095313749331" lon="10.363980368069553"><ele>367.0</ele><time>2026-04-24T11:16:57Z</time></trkpt><trkpt lat="44.081006482904236" lon="10.364153037186727"><ele>367.0</ele><time>2026-04-24T11:16:58Z</time></trkpt><trkpt lat="44.08107358313083" lon="10.36433830668617"><ele>367.0</ele><time>2026-04-24T11:16:59Z</time></trkpt><trkpt lat="44.08115087273512" lon="10.364524008234946"><ele>367.0</ele><time>2026-04-24T11:17:00Z</time></trkpt><trkpt lat="44.0812391780055" lon="10.36471735415444"><ele>365.0</ele><time>2026-04-24T11:17:01Z</time></trkpt><trkpt lat="44.08131780645795" lon="10.36490826232936"><ele>363.0</ele><time>2026-04-24T11:17:02Z</time></trkpt><trkpt lat="44.081387625481405" lon="10.365068134535713"><ele>361.0</ele><time>2026-04-24T11:17:03Z</time></trkpt><trkpt lat="44.08147262552917" lon="10.365189333368296"><ele>359.0</ele><time>2026-04-24T11:17:04Z</time></trkpt><trkpt lat="44.08158582862492" lon="10.365283829365406"><ele>356.0</ele><time>2026-04-24T11:17:05Z</time></trkpt><trkpt lat="44.08173464710819" lon="10.365359567655014"><ele>353.0</ele><time>2026-04-24T11:17:06Z</time></trkpt><trkpt lat="44.08189687108024" lon="10.365452445403475"><ele>350.0</ele><time>2026-04-24T11:17:07Z</time></trkpt><trkpt lat="44.08205216900852" lon="10.365565261298526"><ele>350.0</ele><time>2026-04-24T11:17:08Z</time></trkpt><trkpt lat="44.08218953195181" lon="10.365647812013453"><ele>350.0</ele><time>2026-04-24T11:17:09Z</time></trkpt><trkpt lat="44.082309622789346" lon="10.365736680813159"><ele>350.0</ele><time>2026-04-24T11:17:10Z</time></trkpt><trkpt lat="44.082416530494974" lon="10.365825058456311"><ele>350.0</ele><time>2026-04-24T11:17:11Z</time></trkpt><trkpt lat="44.082530080886166" lon="10.365892847080739"><ele>352.75</ele><time>2026-04-24T11:17:12Z</time></trkpt><trkpt lat="44.0826537239194" lon="10.365930574794522"><ele>355.5</ele><time>2026-04-24T11:17:13Z</time></trkpt><trkpt lat="44.082789835552404" lon="10.365926315428224"><ele>358.25</ele><time>2026-04-24T11:17:14Z</time></trkpt><trkpt lat="44.08293206011325" lon="10.36593075980355"><ele>361.0</ele><time>2026-04-24T11:17:15Z</time></trkpt><trkpt lat="44.08306778826096" lon="10.365927409972098"><ele>361.0</ele><time>2026-04-24T11:17:16Z</time></trkpt><trkpt lat="44.08320415542244" lon="10.365907166618577"><ele>361.0</ele><time>2026-04-24T11:17:17Z</time></trkpt><trkpt lat="44.083319721512204" lon="10.36589186780862"><ele>361.0</ele><time>2026-04-24T11:17:18Z</time></trkpt><trkpt lat="44.08343607149065" lon="10.36587708211808"><ele>361.0</ele><time>2026-04-24T11:17:19Z</time></trkpt><trkpt lat="44.08353957292676" lon="10.36586604833135"><ele>360.8333333333333</ele><time>2026-04-24T11:17:20Z</time></trkpt><trkpt lat="44.08363548680293" lon="10.365866055622783"><ele>360.66666666666663</ele><time>2026-04-24T11:17:21Z</time></trkpt><trkpt lat="44.08371189052093" lon="10.365875154086236"><ele>360.5</ele><time>2026-04-24T11:17:22Z</time></trkpt><trkpt lat="44.08377551598233" lon="10.365928101259733"><ele>360.3333333333333</ele><time>2026-04-24T11:17:23Z</time></trkpt><trkpt lat="44.08381985088839" lon="10.36600815614838"><ele>360.1666666666667</ele><time>2026-04-24T11:17:24Z</time></trkpt><trkpt lat="44.083843792533" lon="10.366119708278214"><ele>360.0</ele><time>2026-04-24T11:17:25Z</time></trkpt><trkpt lat="44.083875520596486" lon="10.36626547084508"><ele>358.8</ele><time>2026-04-24T11:17:26Z</time></trkpt><trkpt lat="44.083915135383315" lon="10.366404392564553"><ele>357.6</ele><time>2026-04-24T11:17:27Z</time></trkpt><trkpt lat="44.0839532271407" lon="10.36652768536446"><ele>356.4</ele><time>2026-04-24T11:17:28Z</time></trkpt><trkpt lat="44.08396254417888" lon="10.366665841020069"><ele>355.2</ele><time>2026-04-24T11:17:29Z</time></trkpt><trkpt lat="44.083943007236186" lon="10.3668302121328"><ele>354.0</ele><time>2026-04-24T11:17:30Z</time></trkpt><trkpt lat="44.083912666605094" lon="10.367007464315343"><ele>354.0</ele><time>2026-04-24T11:17:31Z</time></trkpt><trkpt lat="44.08388728267095" lon="10.367185714970477"><ele>354.0</ele><time>2026-04-24T11:17:32Z</time></trkpt><trkpt lat="44.08384687135328" lon="10.367355959868238"><ele>354.0</ele><time>2026-04-24T11:17:33Z</time></trkpt><trkpt lat="44.083794760792976" lon="10.367514864834705"><ele>354.0</ele><time>2026-04-24T11:17:34Z</time></trkpt><trkpt lat="44.08373624857069" lon="10.36764753927982"><ele>354.5</ele><time>2026-04-24T11:17:35Z</time></trkpt><trkpt lat="44.08366172271058" lon="10.367756175154673"><ele>355.0</ele><time>2026-04-24T11:17:36Z</time></trkpt><trkpt lat="44.08361268694526" lon="10.36786920741674"><ele>355.5</ele><time>2026-04-24T11:17:37Z</time></trkpt><trkpt lat="44.08364522309973" lon="10.368061292653048"><ele>356.0</ele><time>2026-04-24T11:17:39Z</time></trkpt><trkpt lat="44.083719272169176" lon="10.368197986658858"><ele>356.0</ele><time>2026-04-24T11:17:40Z</time></trkpt><trkpt lat="44.08379970971043" lon="10.368347571834084"><ele>356.0</ele><time>2026-04-24T11:17:41Z</time></trkpt><trkpt lat="44.08387009173353" lon="10.368496176388433"><ele>356.0</ele><time>2026-04-24T11:17:42Z</time></trkpt><trkpt lat="44.0839249469211" lon="10.36862236206543"><ele>356.0</ele><time>2026-04-24T11:17:43Z</time></trkpt><trkpt lat="44.084000861596564" lon="10.368726004196802"><ele>358.6666666666667</ele><time>2026-04-24T11:17:44Z</time></trkpt><trkpt lat="44.08412736748964" lon="10.368791936308165"><ele>361.3333333333333</ele><time>2026-04-24T11:17:45Z</time></trkpt><trkpt lat="44.08428256704511" lon="10.368868142677643"><ele>364.0</ele><time>2026-04-24T11:17:46Z</time></trkpt><trkpt lat="44.084440734732375" lon="10.368966562322546"><ele>358.3333333333333</ele><time>2026-04-24T11:17:47Z</time></trkpt><trkpt lat="44.08459538837456" lon="10.369080787518945"><ele>352.6666666666667</ele><time>2026-04-24T11:17:48Z</time></trkpt><trkpt lat="44.08472268706969" lon="10.369221308512863"><ele>347.0</ele><time>2026-04-24T11:17:49Z</time></trkpt><trkpt lat="44.084829618788234" lon="10.369344203416006"><ele>347.0</ele><time>2026-04-24T11:17:50Z</time></trkpt><trkpt lat="44.08492061599488" lon="10.369473100867136"><ele>347.0</ele><time>2026-04-24T11:17:51Z</time></trkpt><trkpt lat="44.08498710240786" lon="10.369583982483512"><ele>347.0</ele><time>2026-04-24T11:17:52Z</time></trkpt><trkpt lat="44.085077111457565" lon="10.369649837437706"><ele>347.0</ele><time>2026-04-24T11:17:53Z</time></trkpt><trkpt lat="44.085112822862534" lon="10.369770845437053"><ele>347.0</ele><time>2026-04-24T11:17:54Z</time></trkpt><trkpt lat="44.08510725838393" lon="10.369910469526296"><ele>348.6</ele><time>2026-04-24T11:17:55Z</time></trkpt><trkpt lat="44.085067548336156" lon="10.37004186571776"><ele>350.20000000000005</ele><time>2026-04-24T11:17:56Z</time></trkpt><trkpt lat="44.08499510882495" lon="10.370122308919166"><ele>351.8</ele><time>2026-04-24T11:17:57Z</time></trkpt><trkpt lat="44.08490890743273" lon="10.37019872549592"><ele>353.4</ele><time>2026-04-24T11:17:58Z</time></trkpt><trkpt lat="44.08484037399476" lon="10.370307003952524"><ele>355.0</ele><time>2026-04-24T11:17:59Z</time></trkpt><trkpt lat="44.08481221646004" lon="10.370465349387295"><ele>353.8</ele><time>2026-04-24T11:18:00Z</time></trkpt><trkpt lat="44.08479570566279" lon="10.37060514870397"><ele>352.6</ele><time>2026-04-24T11:18:01Z</time></trkpt><trkpt lat="44.08479026424085" lon="10.370721497385448"><ele>351.4</ele><time>2026-04-24T11:18:02Z</time></trkpt><trkpt lat="44.08482313284269" lon="10.370825784012803"><ele>350.2</ele><time>2026-04-24T11:18:03Z</time></trkpt><trkpt lat="44.08489587427428" lon="10.370915560490143"><ele>349.0</ele><time>2026-04-24T11:18:04Z</time></trkpt><trkpt lat="44.08501348172412" lon="10.370964976026732"><ele>349.0</ele><time>2026-04-24T11:18:05Z</time></trkpt><trkpt lat="44.085145996019584" lon="10.371009779595493"><ele>349.0</ele><time>2026-04-24T11:18:06Z</time></trkpt><trkpt lat="44.08527657479972" lon="10.371056552758988"><ele>349.0</ele><time>2026-04-24T11:18:07Z</time></trkpt><trkpt lat="44.08538663368665" lon="10.371094886145187"><ele>349.0</ele><time>2026-04-24T11:18:08Z</time></trkpt><trkpt lat="44.08549275178406" lon="10.371102698591121"><ele>349.0</ele><time>2026-04-24T11:18:09Z</time></trkpt><trkpt lat="44.085612457940336" lon="10.37105783199303"><ele>349.0</ele><time>2026-04-24T11:18:10Z</time></trkpt><trkpt lat="44.085734563293876" lon="10.370975040639186"><ele>349.0</ele><time>2026-04-24T11:18:11Z</time></trkpt><trkpt lat="44.08587167293516" lon="10.370930842908935"><ele>349.0</ele><time>2026-04-24T11:18:12Z</time></trkpt><trkpt lat="44.08601453617001" lon="10.370915345182226"><ele>353.4</ele><time>2026-04-24T11:18:13Z</time></trkpt><trkpt lat="44.086137947346636" lon="10.370909194612338"><ele>357.79999999999995</ele><time>2026-04-24T11:18:14Z</time></trkpt><trkpt lat="44.08624065086312" lon="10.370923368778238"><ele>362.20000000000005</ele><time>2026-04-24T11:18:15Z</time></trkpt><trkpt lat="44.08633513371154" lon="10.37096269838373"><ele>366.6</ele><time>2026-04-24T11:18:16Z</time></trkpt><trkpt lat="44.08641584832473" lon="10.371039500614971"><ele>371.0</ele><time>2026-04-24T11:18:17Z</time></trkpt><trkpt lat="44.08648787283932" lon="10.371135698035031"><ele>371.0</ele><time>2026-04-24T11:18:18Z</time></trkpt><trkpt lat="44.08650572626336" lon="10.371262528394107"><ele>371.0</ele><time>2026-04-24T11:18:19Z</time></trkpt><trkpt lat="44.08653826592745" lon="10.371411260046655"><ele>371.0</ele><time>2026-04-24T11:18:20Z</time></trkpt><trkpt lat="44.08658773933782" lon="10.371570005239004"><ele>371.0</ele><time>2026-04-24T11:18:21Z</time></trkpt><trkpt lat="44.086657059746436" lon="10.371705637597056"><ele>371.0</ele><time>2026-04-24T11:18:22Z</time></trkpt><trkpt lat="44.08677438647325" lon="10.37185084949215"><ele>364.6666666666667</ele><time>2026-04-24T11:18:23Z</time></trkpt><trkpt lat="44.08688870007158" lon="10.372016162436928"><ele>358.3333333333333</ele><time>2026-04-24T11:18:24Z</time></trkpt><trkpt lat="44.08701863533385" lon="10.372182271714394"><ele>352.0</ele><time>2026-04-24T11:18:25Z</time></trkpt><trkpt lat="44.0871491019775" lon="10.372345474206051"><ele>350.5</ele><time>2026-04-24T11:18:26Z</time></trkpt><trkpt lat="44.087257120937906" lon="10.372503223204445"><ele>349.0</ele><time>2026-04-24T11:18:27Z</time></trkpt><trkpt lat="44.08736209536611" lon="10.3726508285374"><ele>347.5</ele><time>2026-04-24T11:18:28Z</time></trkpt><trkpt lat="44.087460695651636" lon="10.372777726708312"><ele>346.0</ele><time>2026-04-24T11:18:29Z</time></trkpt><trkpt lat="44.08753783685622" lon="10.372905811767593"><ele>344.5</ele><time>2026-04-24T11:18:30Z</time></trkpt><trkpt lat="44.0875921525348" lon="10.373073018786558"><ele>343.0</ele><time>2026-04-24T11:18:31Z</time></trkpt><trkpt lat="44.087652499782855" lon="10.373252163501848"><ele>341.5</ele><time>2026-04-24T11:18:32Z</time></trkpt><trkpt lat="44.087714853655896" lon="10.373473377654522"><ele>340.0</ele><time>2026-04-24T11:18:33Z</time></trkpt><trkpt lat="44.08776876462289" lon="10.37365184058843"><ele>340.0</ele><time>2026-04-24T11:18:34Z</time></trkpt><trkpt lat="44.08781584630088" lon="10.37383991137401"><ele>340.0</ele><time>2026-04-24T11:18:35Z</time></trkpt><trkpt lat="44.0878684846757" lon="10.374023177455687"><ele>340.0</ele><time>2026-04-24T11:18:36Z</time></trkpt><trkpt lat="44.08790725924337" lon="10.37421019888431"><ele>340.0</ele><time>2026-04-24T11:18:37Z</time></trkpt><trkpt lat="44.087946903816835" lon="10.374378160775432"><ele>339.5</ele><time>2026-04-24T11:18:38Z</time></trkpt><trkpt lat="44.0879989970045" lon="10.374537682159051"><ele>339.0</ele><time>2026-04-24T11:18:39Z</time></trkpt><trkpt lat="44.08805812420958" lon="10.374673294309261"><ele>338.5</ele><time>2026-04-24T11:18:40Z</time></trkpt><trkpt lat="44.0881281408985" lon="10.374786379390047"><ele>338.0</ele><time>2026-04-24T11:18:41Z</time></trkpt><trkpt lat="44.088215617399385" lon="10.374868580346577"><ele>340.75</ele><time>2026-04-24T11:18:42Z</time></trkpt><trkpt lat="44.08832484444511" lon="10.374919574484752"><ele>343.5</ele><time>2026-04-24T11:18:43Z</time></trkpt><trkpt lat="44.08846172347297" lon="10.374940247241133"><ele>346.25</ele><time>2026-04-24T11:18:44Z</time></trkpt><trkpt lat="44.08861995942913" lon="10.374965027038087"><ele>349.0</ele><time>2026-04-24T11:18:45Z</time></trkpt><trkpt lat="44.088793032328404" lon="10.37501943111265"><ele>349.0</ele><time>2026-04-24T11:18:46Z</time></trkpt><trkpt lat="44.08894767351405" lon="10.375090312724506"><ele>349.0</ele><time>2026-04-24T11:18:47Z</time></trkpt><trkpt lat="44.08907409293065" lon="10.375146172373203"><ele>349.0</ele><time>2026-04-24T11:18:48Z</time></trkpt><trkpt lat="44.089197838623285" lon="10.37520108552425"><ele>349.0</ele><time>2026-04-24T11:18:49Z</time></trkpt><trkpt lat="44.08930505207542" lon="10.3752691702565"><ele>347.79999999999995</ele><time>2026-04-24T11:18:50Z</time></trkpt><trkpt lat="44.08940809130492" lon="10.375327783995582"><ele>346.59999999999997</ele><time>2026-04-24T11:18:51Z</time></trkpt><trkpt lat="44.08948761521098" lon="10.375380416992678"><ele>345.4</ele><time>2026-04-24T11:18:52Z</time></trkpt><trkpt lat="44.08954215315773" lon="10.375463735624615"><ele>344.2</ele><time>2026-04-24T11:18:53Z</time></trkpt><trkpt lat="44.089586290757374" lon="10.375578995918211"><ele>343.0</ele><time>2026-04-24T11:18:54Z</time></trkpt><trkpt lat="44.089611847476235" lon="10.375726122363403"><ele>343.0</ele><time>2026-04-24T11:18:55Z</time></trkpt><trkpt lat="44.08962101681513" lon="10.375875670434233"><ele>343.0</ele><time>2026-04-24T11:18:56Z</time></trkpt><trkpt lat="44.08961238739186" lon="10.3760093019818"><ele>343.0</ele><time>2026-04-24T11:18:57Z</time></trkpt><trkpt lat="44.08957214513593" lon="10.37613023021328"><ele>343.0</ele><time>2026-04-24T11:18:58Z</time></trkpt><trkpt lat="44.08948581488188" lon="10.376217080065596"><ele>343.0</ele><time>2026-04-24T11:18:59Z</time></trkpt><trkpt lat="44.08937896581081" lon="10.376285115550099"><ele>346.5</ele><time>2026-04-24T11:19:00Z</time></trkpt><trkpt lat="44.08929507487135" lon="10.376367499380983"><ele>350.0</ele><time>2026-04-24T11:19:01Z</time></trkpt><trkpt lat="44.08923533892825" lon="10.376511606884803"><ele>353.5</ele><time>2026-04-24T11:19:02Z</time></trkpt><trkpt lat="44.089181404210066" lon="10.376708419120764"><ele>357.0</ele><time>2026-04-24T11:19:03Z</time></trkpt><trkpt lat="44.08910954096399" lon="10.376933762544862"><ele>356.6666666666667</ele><time>2026-04-24T11:19:04Z</time></trkpt><trkpt lat="44.08903695702512" lon="10.377145085728745"><ele>356.33333333333337</ele><time>2026-04-24T11:19:05Z</time></trkpt><trkpt lat="44.08896401661727" lon="10.377327621497543"><ele>356.0</ele><time>2026-04-24T11:19:06Z</time></trkpt><trkpt lat="44.088895226550775" lon="10.377496912650809"><ele>356.0</ele><time>2026-04-24T11:19:07Z</time></trkpt><trkpt lat="44.088815851766455" lon="10.377648251817154"><ele>356.0</ele><time>2026-04-24T11:19:08Z</time></trkpt><trkpt lat="44.08873478338374" lon="10.377793575422382"><ele>356.0</ele><time>2026-04-24T11:19:09Z</time></trkpt><trkpt lat="44.08864864969217" lon="10.377927693889731"><ele>356.0</ele><time>2026-04-24T11:19:10Z</time></trkpt><trkpt lat="44.088556453655755" lon="10.378028333268771"><ele>355.6</ele><time>2026-04-24T11:19:11Z</time></trkpt><trkpt lat="44.08847868167932" lon="10.378116670237484"><ele>355.20000000000005</ele><time>2026-04-24T11:19:12Z</time></trkpt><trkpt lat="44.08841554460113" lon="10.378236800755767"><ele>354.79999999999995</ele><time>2026-04-24T11:19:13Z</time></trkpt><trkpt lat="44.088360402611265" lon="10.378392492140664"><ele>354.4</ele><time>2026-04-24T11:19:14Z</time></trkpt><trkpt lat="44.08832268547402" lon="10.378525580428034"><ele>354.0</ele><time>2026-04-24T11:19:15Z</time></trkpt><trkpt lat="44.08830245283345" lon="10.378644187445904"><ele>354.0</ele><time>2026-04-24T11:19:16Z</time></trkpt><trkpt lat="44.08830894478052" lon="10.378766097090034"><ele>354.0</ele><time>2026-04-24T11:19:17Z</time></trkpt><trkpt lat="44.08837412187651" lon="10.378898494784798"><ele>354.0</ele><time>2026-04-24T11:19:18Z</time></trkpt><trkpt lat="44.088452336818584" lon="10.378966516658835"><ele>354.0</ele><time>2026-04-24T11:19:19Z</time></trkpt><trkpt lat="44.08855592717073" lon="10.37899831218768"><ele>354.0</ele><time>2026-04-24T11:19:20Z</time></trkpt><trkpt lat="44.088661231090576" lon="10.379000016968487"><ele>352.5</ele><time>2026-04-24T11:19:21Z</time></trkpt><trkpt lat="44.08880318089106" lon="10.379003016093002"><ele>351.0</ele><time>2026-04-24T11:19:22Z</time></trkpt><trkpt lat="44.08895673338876" lon="10.379025022153757"><ele>349.5</ele><time>2026-04-24T11:19:23Z</time></trkpt><trkpt lat="44.089103472657975" lon="10.379037344919007"><ele>348.0</ele><time>2026-04-24T11:19:24Z</time></trkpt><trkpt lat="44.08924239681394" lon="10.37907277392712"><ele>348.0</ele><time>2026-04-24T11:19:25Z</time></trkpt><trkpt lat="44.08937308967022" lon="10.379120226888805"><ele>348.0</ele><time>2026-04-24T11:19:26Z</time></trkpt><trkpt lat="44.089491218058114" lon="10.379187834043082"><ele>348.0</ele><time>2026-04-24T11:19:27Z</time></trkpt><trkpt lat="44.089599268880846" lon="10.379283474925517"><ele>348.0</ele><time>2026-04-24T11:19:28Z</time></trkpt><trkpt lat="44.08969192589323" lon="10.379418088289782"><ele>348.0</ele><time>2026-04-24T11:19:29Z</time></trkpt><trkpt lat="44.08976146148305" lon="10.379580406315096"><ele>348.0</ele><time>2026-04-24T11:19:30Z</time></trkpt><trkpt lat="44.089809168731314" lon="10.379764375630097"><ele>348.0</ele><time>2026-04-24T11:19:31Z</time></trkpt><trkpt lat="44.08984119556487" lon="10.37994249092568"><ele>348.0</ele><time>2026-04-24T11:19:32Z</time></trkpt><trkpt lat="44.08990122164111" lon="10.380074328396983"><ele>346.59999999999997</ele><time>2026-04-24T11:19:33Z</time></trkpt><trkpt lat="44.089930557845996" lon="10.380214050735585"><ele>345.2</ele><time>2026-04-24T11:19:34Z</time></trkpt><trkpt lat="44.089927079703095" lon="10.38035827860661"><ele>343.8</ele><time>2026-04-24T11:19:35Z</time></trkpt><trkpt lat="44.089889757204375" lon="10.380508123096739"><ele>342.4</ele><time>2026-04-24T11:19:36Z</time></trkpt><trkpt lat="44.08982729170097" lon="10.38065606895172"><ele>341.0</ele><time>2026-04-24T11:19:37Z</time></trkpt><trkpt lat="44.0897571398642" lon="10.380820789907016"><ele>341.0</ele><time>2026-04-24T11:19:38Z</time></trkpt><trkpt lat="44.089676824128816" lon="10.380990201455258"><ele>341.0</ele><time>2026-04-24T11:19:39Z</time></trkpt><trkpt lat="44.089618799269175" lon="10.381188885436114"><ele>341.0</ele><time>2026-04-24T11:19:40Z</time></trkpt><trkpt lat="44.08958946235663" lon="10.381409583384821"><ele>340.75</ele><time>2026-04-24T11:19:41Z</time></trkpt><trkpt lat="44.089562080696695" lon="10.38162674178877"><ele>340.5</ele><time>2026-04-24T11:19:42Z</time></trkpt><trkpt lat="44.08952971563229" lon="10.38180935846574"><ele>340.25</ele><time>2026-04-24T11:19:43Z</time></trkpt><trkpt lat="44.08950728251697" lon="10.381970006491697"><ele>340.0</ele><time>2026-04-24T11:19:44Z</time></trkpt><trkpt lat="44.0894840389225" lon="10.382122121222105"><ele>338.5</ele><time>2026-04-24T11:19:45Z</time></trkpt><trkpt lat="44.08945762388849" lon="10.382280946557962"><ele>337.0</ele><time>2026-04-24T11:19:46Z</time></trkpt><trkpt lat="44.08942936806881" lon="10.382443195703683"><ele>335.5</ele><time>2026-04-24T11:19:47Z</time></trkpt><trkpt lat="44.089401910351896" lon="10.38261165445225"><ele>334.0</ele><time>2026-04-24T11:19:48Z</time></trkpt><trkpt lat="44.08939231493153" lon="10.38277469636561"><ele>334.0</ele><time>2026-04-24T11:19:49Z</time></trkpt><trkpt lat="44.08940674688185" lon="10.382931958730618"><ele>334.0</ele><time>2026-04-24T11:19:50Z</time></trkpt><trkpt lat="44.08944526219458" lon="10.383091632247922"><ele>334.0</ele><time>2026-04-24T11:19:51Z</time></trkpt><trkpt lat="44.08949847522248" lon="10.383231452914604"><ele>334.0</ele><time>2026-04-24T11:19:52Z</time></trkpt><trkpt lat="44.0895536839475" lon="10.383360732550853"><ele>334.25</ele><time>2026-04-24T11:19:53Z</time></trkpt><trkpt lat="44.08962114570338" lon="10.38348581460954"><ele>334.5</ele><time>2026-04-24T11:19:54Z</time></trkpt><trkpt lat="44.08971581297857" lon="10.383597877085334"><ele>334.75</ele><time>2026-04-24T11:19:55Z</time></trkpt><trkpt lat="44.08983893685497" lon="10.383708225473958"><ele>335.0</ele><time>2026-04-24T11:19:56Z</time></trkpt><trkpt lat="44.08998242545057" lon="10.383851692858746"><ele>333.33333333333337</ele><time>2026-04-24T11:19:57Z</time></trkpt><trkpt lat="44.090122593446814" lon="10.384014442136051"><ele>331.6666666666667</ele><time>2026-04-24T11:19:58Z</time></trkpt><trkpt lat="44.090260286352255" lon="10.384143590320633"><ele>330.0</ele><time>2026-04-24T11:19:59Z</time></trkpt><trkpt lat="44.09039906909183" lon="10.384244471566076"><ele>330.0</ele><time>2026-04-24T11:20:00Z</time></trkpt><trkpt lat="44.09055207319014" lon="10.384315489181636"><ele>330.0</ele><time>2026-04-24T11:20:01Z</time></trkpt><trkpt lat="44.09073002169053" lon="10.384376656152261"><ele>330.0</ele><time>2026-04-24T11:20:02Z</time></trkpt><trkpt lat="44.090909120833075" lon="10.384468058859968"><ele>332.0</ele><time>2026-04-24T11:20:03Z</time></trkpt><trkpt lat="44.091095252732906" lon="10.384564232684601"><ele>334.0</ele><time>2026-04-24T11:20:04Z</time></trkpt><trkpt lat="44.09126714865299" lon="10.384655400649947"><ele>336.0</ele><time>2026-04-24T11:20:05Z</time></trkpt><trkpt lat="44.0914273995339" lon="10.384740392467153"><ele>334.3333333333333</ele><time>2026-04-24T11:20:06Z</time></trkpt><trkpt lat="44.09158258124579" lon="10.38482094762807"><ele>332.66666666666663</ele><time>2026-04-24T11:20:07Z</time></trkpt><trkpt lat="44.09172123163378" lon="10.38489240512296"><ele>331.0</ele><time>2026-04-24T11:20:08Z</time></trkpt><trkpt lat="44.09185103232348" lon="10.384968224917765"><ele>331.0</ele><time>2026-04-24T11:20:09Z</time></trkpt><trkpt lat="44.091976098940705" lon="10.385062919042769"><ele>331.0</ele><time>2026-04-24T11:20:10Z</time></trkpt><trkpt lat="44.09207206119511" lon="10.385194521095839"><ele>331.0</ele><time>2026-04-24T11:20:11Z</time></trkpt><trkpt lat="44.092181920088706" lon="10.385314351229699"><ele>331.0</ele><time>2026-04-24T11:20:12Z</time></trkpt><trkpt lat="44.09230032311592" lon="10.385409828383837"><ele>329.66666666666663</ele><time>2026-04-24T11:20:13Z</time></trkpt><trkpt lat="44.0924474117311" lon="10.385465271480081"><ele>328.3333333333333</ele><time>2026-04-24T11:20:14Z</time></trkpt><trkpt lat="44.09260398353525" lon="10.385528066936155"><ele>327.0</ele><time>2026-04-24T11:20:15Z</time></trkpt><trkpt lat="44.092764595537595" lon="10.385599094930202"><ele>327.0</ele><time>2026-04-24T11:20:16Z</time></trkpt><trkpt lat="44.09291537332658" lon="10.385668116741824"><ele>327.0</ele><time>2026-04-24T11:20:17Z</time></trkpt><trkpt lat="44.09306380011939" lon="10.385729833422864"><ele>327.0</ele><time>2026-04-24T11:20:18Z</time></trkpt><trkpt lat="44.0932355816914" lon="10.385776505091876"><ele>329.3333333333333</ele><time>2026-04-24T11:20:19Z</time></trkpt><trkpt lat="44.09341006673944" lon="10.385804439724257"><ele>331.66666666666663</ele><time>2026-04-24T11:20:20Z</time></trkpt><trkpt lat="44.09357023824517" lon="10.385809115942628"><ele>334.0</ele><time>2026-04-24T11:20:21Z</time></trkpt><trkpt lat="44.09373372937434" lon="10.385821397040667"><ele>334.0</ele><time>2026-04-24T11:20:22Z</time></trkpt><trkpt lat="44.09389739147215" lon="10.385860789966342"><ele>334.0</ele><time>2026-04-24T11:20:23Z</time></trkpt><trkpt lat="44.094051912249476" lon="10.385917512580171"><ele>334.0</ele><time>2026-04-24T11:20:24Z</time></trkpt><trkpt lat="44.0941884427569" lon="10.385984886717367"><ele>335.75</ele><time>2026-04-24T11:20:25Z</time></trkpt><trkpt lat="44.09432169456672" lon="10.38603131185993"><ele>337.5</ele><time>2026-04-24T11:20:26Z</time></trkpt><trkpt lat="44.09446845066734" lon="10.386065742660266"><ele>339.25</ele><time>2026-04-24T11:20:27Z</time></trkpt><trkpt lat="44.09459145443439" lon="10.38606800104888"><ele>341.0</ele><time>2026-04-24T11:20:28Z</time></trkpt><trkpt lat="44.09474321527503" lon="10.386066100569893"><ele>341.0</ele><time>2026-04-24T11:20:29Z</time></trkpt><trkpt lat="44.09489949441371" lon="10.386061571214379"><ele>341.0</ele><time>2026-04-24T11:20:30Z</time></trkpt><trkpt lat="44.09504001961719" lon="10.386055535481002"><ele>341.0</ele><time>2026-04-24T11:20:31Z</time></trkpt><trkpt lat="44.09516965233813" lon="10.386048076053132"><ele>341.0</ele><time>2026-04-24T11:20:32Z</time></trkpt><trkpt lat="44.095306775964836" lon="10.386039022438633"><ele>338.0</ele><time>2026-04-24T11:20:33Z</time></trkpt><trkpt lat="44.09544244593744" lon="10.385996769844361"><ele>335.0</ele><time>2026-04-24T11:20:34Z</time></trkpt><trkpt lat="44.09558257823432" lon="10.385953225713422"><ele>332.0</ele><time>2026-04-24T11:20:35Z</time></trkpt><trkpt lat="44.09570712813744" lon="10.385899890673041"><ele>329.0</ele><time>2026-04-24T11:20:36Z</time></trkpt><trkpt lat="44.095821711962074" lon="10.385858697519964"><ele>329.0</ele><time>2026-04-24T11:20:37Z</time></trkpt><trkpt lat="44.09592079653435" lon="10.385821456783821"><ele>329.0</ele><time>2026-04-24T11:20:38Z</time></trkpt><trkpt lat="44.09602139999456" lon="10.38575753567681"><ele>329.0</ele><time>2026-04-24T11:20:39Z</time></trkpt><trkpt lat="44.096104679908485" lon="10.385654232994044"><ele>329.0</ele><time>2026-04-24T11:20:40Z</time></trkpt><trkpt lat="44.09616702572946" lon="10.385504726968495"><ele>329.0</ele><time>2026-04-24T11:20:41Z</time></trkpt><trkpt lat="44.09620640175084" lon="10.385318586106656"><ele>336.5</ele><time>2026-04-24T11:20:42Z</time></trkpt><trkpt lat="44.09623042147607" lon="10.385130580617554"><ele>344.0</ele><time>2026-04-24T11:20:43Z</time></trkpt><trkpt lat="44.09624225226559" lon="10.384968621977958"><ele>351.5</ele><time>2026-04-24T11:20:44Z</time></trkpt><trkpt lat="44.09623870780447" lon="10.384816413046515"><ele>359.0</ele><time>2026-04-24T11:20:45Z</time></trkpt><trkpt lat="44.096271340322666" lon="10.384678087476065"><ele>354.75</ele><time>2026-04-24T11:20:46Z</time></trkpt><trkpt lat="44.09636928961735" lon="10.384566397594924"><ele>350.5</ele><time>2026-04-24T11:20:47Z</time></trkpt><trkpt lat="44.09646687537416" lon="10.384438511285174"><ele>346.25</ele><time>2026-04-24T11:20:48Z</time></trkpt><trkpt lat="44.096582961875676" lon="10.384317306112875"><ele>342.0</ele><time>2026-04-24T11:20:49Z</time></trkpt><trkpt lat="44.09670453045342" lon="10.384181320660812"><ele>342.0</ele><time>2026-04-24T11:20:50Z</time></trkpt><trkpt lat="44.096825253153646" lon="10.384084849746527"><ele>342.0</ele><time>2026-04-24T11:20:51Z</time></trkpt><trkpt lat="44.09696094721121" lon="10.383989443431721"><ele>342.0</ele><time>2026-04-24T11:20:52Z</time></trkpt><trkpt lat="44.09709332981417" lon="10.383915942004398"><ele>342.0</ele><time>2026-04-24T11:20:53Z</time></trkpt><trkpt lat="44.09722503971167" lon="10.383846249393486"><ele>346.0</ele><time>2026-04-24T11:20:54Z</time></trkpt><trkpt lat="44.097373977327415" lon="10.383832449722815"><ele>350.0</ele><time>2026-04-24T11:20:55Z</time></trkpt><trkpt lat="44.097528008349535" lon="10.383819049827645"><ele>354.0</ele><time>2026-04-24T11:20:56Z</time></trkpt><trkpt lat="44.097698785404575" lon="10.383789000704216"><ele>354.0</ele><time>2026-04-24T11:20:57Z</time></trkpt><trkpt lat="44.097866895658356" lon="10.38379536424887"><ele>354.0</ele><time>2026-04-24T11:20:58Z</time></trkpt><trkpt lat="44.098016782043786" lon="10.383785116509546"><ele>354.0</ele><time>2026-04-24T11:20:59Z</time></trkpt><trkpt lat="44.09815823544749" lon="10.383750217228743"><ele>349.5</ele><time>2026-04-24T11:21:00Z</time></trkpt><trkpt lat="44.098300126658835" lon="10.38370906405642"><ele>345.0</ele><time>2026-04-24T11:21:01Z</time></trkpt><trkpt lat="44.09843936077756" lon="10.383672788352367"><ele>340.5</ele><time>2026-04-24T11:21:02Z</time></trkpt><trkpt lat="44.09857748779511" lon="10.383616876754017"><ele>336.0</ele><time>2026-04-24T11:21:03Z</time></trkpt><trkpt lat="44.098728540926516" lon="10.383514329512016"><ele>336.0</ele><time>2026-04-24T11:21:04Z</time></trkpt><trkpt lat="44.09888261506392" lon="10.383433292122975"><ele>336.0</ele><time>2026-04-24T11:21:05Z</time></trkpt><trkpt lat="44.09901276276522" lon="10.383336389775284"><ele>336.0</ele><time>2026-04-24T11:21:06Z</time></trkpt><trkpt lat="44.09913158997674" lon="10.383263700950629"><ele>336.0</ele><time>2026-04-24T11:21:07Z</time></trkpt><trkpt lat="44.09922465939389" lon="10.383185310558622"><ele>332.40000000000003</ele><time>2026-04-24T11:21:08Z</time></trkpt><trkpt lat="44.09932548616866" lon="10.383118950315982"><ele>328.8</ele><time>2026-04-24T11:21:09Z</time></trkpt><trkpt lat="44.09942371177639" lon="10.38308330738791"><ele>325.20000000000005</ele><time>2026-04-24T11:21:10Z</time></trkpt><trkpt lat="44.099530671073445" lon="10.38307839779521"><ele>321.6</ele><time>2026-04-24T11:21:11Z</time></trkpt><trkpt lat="44.09963384150286" lon="10.383110139877724"><ele>318.0</ele><time>2026-04-24T11:21:12Z</time></trkpt><trkpt lat="44.09969956895273" lon="10.383212148246487"><ele>318.0</ele><time>2026-04-24T11:21:13Z</time></trkpt><trkpt lat="44.09975658215815" lon="10.3833278004282"><ele>318.0</ele><time>2026-04-24T11:21:14Z</time></trkpt><trkpt lat="44.099841617633345" lon="10.383407558608578"><ele>318.0</ele><time>2026-04-24T11:21:15Z</time></trkpt><trkpt lat="44.099937076292264" lon="10.3834956175936"><ele>318.0</ele><time>2026-04-24T11:21:16Z</time></trkpt><trkpt lat="44.100069876051855" lon="10.383555044448993"><ele>315.75</ele><time>2026-04-24T11:21:17Z</time></trkpt><trkpt lat="44.100213713965225" lon="10.383603821072862"><ele>313.5</ele><time>2026-04-24T11:21:18Z</time></trkpt><trkpt lat="44.10033534133448" lon="10.383653258334052"><ele>311.25</ele><time>2026-04-24T11:21:19Z</time></trkpt><trkpt lat="44.1004542660597" lon="10.383688020476745"><ele>309.0</ele><time>2026-04-24T11:21:20Z</time></trkpt><trkpt lat="44.10056584240971" lon="10.383755596595375"><ele>312.6666666666667</ele><time>2026-04-24T11:21:21Z</time></trkpt><trkpt lat="44.10067398002288" lon="10.383858417408414"><ele>316.33333333333337</ele><time>2026-04-24T11:21:22Z</time></trkpt><trkpt lat="44.10079607200571" lon="10.38398805068284"><ele>320.0</ele><time>2026-04-24T11:21:23Z</time></trkpt><trkpt lat="44.10093394540541" lon="10.384122309872962"><ele>320.0</ele><time>2026-04-24T11:21:24Z</time></trkpt><trkpt lat="44.101055555328465" lon="10.384270781188121"><ele>320.0</ele><time>2026-04-24T11:21:25Z</time></trkpt><trkpt lat="44.10117818010472" lon="10.384393728584161"><ele>320.0</ele><time>2026-04-24T11:21:26Z</time></trkpt><trkpt lat="44.10130196287595" lon="10.384524301806271"><ele>320.0</ele><time>2026-04-24T11:21:27Z</time></trkpt><trkpt lat="44.10143223897383" lon="10.384657821407512"><ele>320.0</ele><time>2026-04-24T11:21:28Z</time></trkpt><trkpt lat="44.10157581936848" lon="10.384775733081053"><ele>320.0</ele><time>2026-04-24T11:21:29Z</time></trkpt><trkpt lat="44.101710386785" lon="10.384871429538721"><ele>321.0</ele><time>2026-04-24T11:21:30Z</time></trkpt><trkpt lat="44.10184839516944" lon="10.384956888246625"><ele>322.0</ele><time>2026-04-24T11:21:31Z</time></trkpt><trkpt lat="44.10197514792208" lon="10.385046386477846"><ele>323.0</ele><time>2026-04-24T11:21:32Z</time></trkpt><trkpt lat="44.10208893326444" lon="10.385162304857962"><ele>324.0</ele><time>2026-04-24T11:21:33Z</time></trkpt><trkpt lat="44.10220232070186" lon="10.385257464096082"><ele>324.0</ele><time>2026-04-24T11:21:34Z</time></trkpt><trkpt lat="44.10229810889842" lon="10.385350978686217"><ele>324.0</ele><time>2026-04-24T11:21:35Z</time></trkpt><trkpt lat="44.10237123826376" lon="10.38545245894137"><ele>324.0</ele><time>2026-04-24T11:21:36Z</time></trkpt><trkpt lat="44.10243469488782" lon="10.38557823823154"><ele>324.0</ele><time>2026-04-24T11:21:37Z</time></trkpt><trkpt lat="44.1024771004392" lon="10.385741666750189"><ele>319.0</ele><time>2026-04-24T11:21:38Z</time></trkpt><trkpt lat="44.10252871709591" lon="10.385934450719438"><ele>314.0</ele><time>2026-04-24T11:21:39Z</time></trkpt><trkpt lat="44.10255858612324" lon="10.386161230107296"><ele>309.0</ele><time>2026-04-24T11:21:40Z</time></trkpt><trkpt lat="44.10262122099058" lon="10.38639231912722"><ele>309.0</ele><time>2026-04-24T11:21:41Z</time></trkpt><trkpt lat="44.10266770137401" lon="10.386623247542884"><ele>309.0</ele><time>2026-04-24T11:21:42Z</time></trkpt><trkpt lat="44.10270964207169" lon="10.386828959834613"><ele>309.0</ele><time>2026-04-24T11:21:43Z</time></trkpt><trkpt lat="44.10275088405348" lon="10.387024349826673"><ele>308.0</ele><time>2026-04-24T11:21:44Z</time></trkpt><trkpt lat="44.10277142192476" lon="10.387230579695716"><ele>307.0</ele><time>2026-04-24T11:21:45Z</time></trkpt><trkpt lat="44.102779798467495" lon="10.387449405053479"><ele>306.0</ele><time>2026-04-24T11:21:46Z</time></trkpt><trkpt lat="44.102758428882794" lon="10.387673942120204"><ele>306.0</ele><time>2026-04-24T11:21:47Z</time></trkpt><trkpt lat="44.10273417221967" lon="10.387904445399686"><ele>306.0</ele><time>2026-04-24T11:21:48Z</time></trkpt><trkpt lat="44.102707351994056" lon="10.38815487433201"><ele>306.0</ele><time>2026-04-24T11:21:49Z</time></trkpt><trkpt lat="44.10266034485489" lon="10.388395211658535"><ele>304.3333333333333</ele><time>2026-04-24T11:21:50Z</time></trkpt><trkpt lat="44.10261979379495" lon="10.388609613390047"><ele>302.66666666666663</ele><time>2026-04-24T11:21:51Z</time></trkpt><trkpt lat="44.102585331367514" lon="10.388806450068493"><ele>301.0</ele><time>2026-04-24T11:21:52Z</time></trkpt><trkpt lat="44.102550608301634" lon="10.389011559948178"><ele>299.66666666666663</ele><time>2026-04-24T11:21:53Z</time></trkpt><trkpt lat="44.1025119424815" lon="10.38922715792561"><ele>298.3333333333333</ele><time>2026-04-24T11:21:54Z</time></trkpt><trkpt lat="44.10247151794994" lon="10.389455855238422"><ele>297.0</ele><time>2026-04-24T11:21:55Z</time></trkpt><trkpt lat="44.1024334040301" lon="10.389687716779104"><ele>298.3333333333333</ele><time>2026-04-24T11:21:56Z</time></trkpt><trkpt lat="44.10238934593219" lon="10.38992620472949"><ele>299.66666666666663</ele><time>2026-04-24T11:21:57Z</time></trkpt><trkpt lat="44.10234800583696" lon="10.390161483606226"><ele>301.0</ele><time>2026-04-24T11:21:58Z</time></trkpt><trkpt lat="44.102307442457175" lon="10.390367506684514"><ele>300.3333333333333</ele><time>2026-04-24T11:21:59Z</time></trkpt><trkpt lat="44.10227114722901" lon="10.390575998007517"><ele>299.6666666666667</ele><time>2026-04-24T11:22:00Z</time></trkpt><trkpt lat="44.102232664251574" lon="10.39078168523923"><ele>299.0</ele><time>2026-04-24T11:22:01Z</time></trkpt><trkpt lat="44.10219296258466" lon="10.390998895168915"><ele>299.0</ele><time>2026-04-24T11:22:02Z</time></trkpt><trkpt lat="44.102149709212675" lon="10.391210726784918"><ele>299.0</ele><time>2026-04-24T11:22:03Z</time></trkpt><trkpt lat="44.10211492008723" lon="10.391427868541449"><ele>299.0</ele><time>2026-04-24T11:22:04Z</time></trkpt><trkpt lat="44.1020956403506" lon="10.391644976337474"><ele>298.25</ele><time>2026-04-24T11:22:05Z</time></trkpt><trkpt lat="44.102091941004694" lon="10.391864871990578"><ele>297.5</ele><time>2026-04-24T11:22:06Z</time></trkpt><trkpt lat="44.10209734395542" lon="10.392058432261862"><ele>296.75</ele><time>2026-04-24T11:22:07Z</time></trkpt><trkpt lat="44.10211365627227" lon="10.392235111155824"><ele>296.0</ele><time>2026-04-24T11:22:08Z</time></trkpt><trkpt lat="44.102146399533304" lon="10.39240368794585"><ele>296.0</ele><time>2026-04-24T11:22:09Z</time></trkpt><trkpt lat="44.102185233376254" lon="10.392593739632602"><ele>296.0</ele><time>2026-04-24T11:22:10Z</time></trkpt><trkpt lat="44.10221883163576" lon="10.392812440982796"><ele>296.0</ele><time>2026-04-24T11:22:11Z</time></trkpt><trkpt lat="44.10226095386765" lon="10.393044203289678"><ele>300.33333333333337</ele><time>2026-04-24T11:22:12Z</time></trkpt><trkpt lat="44.10230824647422" lon="10.393289072055325"><ele>304.6666666666667</ele><time>2026-04-24T11:22:13Z</time></trkpt><trkpt lat="44.102351651497884" lon="10.393542404164277"><ele>309.0</ele><time>2026-04-24T11:22:14Z</time></trkpt><trkpt lat="44.10239644218849" lon="10.39380230749843"><ele>303.6666666666667</ele><time>2026-04-24T11:22:15Z</time></trkpt><trkpt lat="44.10244143882898" lon="10.3940500201626"><ele>298.33333333333337</ele><time>2026-04-24T11:22:16Z</time></trkpt><trkpt lat="44.102487155278325" lon="10.394295160131643"><ele>293.0</ele><time>2026-04-24T11:22:17Z</time></trkpt><trkpt lat="44.10254610370012" lon="10.394578607473738"><ele>297.0</ele><time>2026-04-24T11:22:18Z</time></trkpt><trkpt lat="44.10261069628355" lon="10.394890776738485"><ele>301.0</ele><time>2026-04-24T11:22:19Z</time></trkpt><trkpt lat="44.10266594579764" lon="10.39523001976324"><ele>301.0</ele><time>2026-04-24T11:22:20Z</time></trkpt><trkpt lat="44.102712933551864" lon="10.39554178018556"><ele>301.0</ele><time>2026-04-24T11:22:21Z</time></trkpt><trkpt lat="44.10276576916575" lon="10.395844254779822"><ele>301.0</ele><time>2026-04-24T11:22:22Z</time></trkpt><trkpt lat="44.10280234809744" lon="10.396130399073007"><ele>301.0</ele><time>2026-04-24T11:22:23Z</time></trkpt><trkpt lat="44.102864982349296" lon="10.3963897724793"><ele>301.0</ele><time>2026-04-24T11:22:24Z</time></trkpt><trkpt lat="44.10290749101086" lon="10.396659363020198"><ele>300.66666666666663</ele><time>2026-04-24T11:22:25Z</time></trkpt><trkpt lat="44.102960221564864" lon="10.396936228282666"><ele>300.3333333333333</ele><time>2026-04-24T11:22:26Z</time></trkpt><trkpt lat="44.10300852959128" lon="10.397223332560333"><ele>300.0</ele><time>2026-04-24T11:22:27Z</time></trkpt><trkpt lat="44.10306020971306" lon="10.397510520425724"><ele>299.0</ele><time>2026-04-24T11:22:28Z</time></trkpt><trkpt lat="44.103111330478704" lon="10.397774648480851"><ele>298.0</ele><time>2026-04-24T11:22:29Z</time></trkpt><trkpt lat="44.10314327728367" lon="10.398048623843552"><ele>297.0</ele><time>2026-04-24T11:22:30Z</time></trkpt><trkpt lat="44.1032089234302" lon="10.398333541285659"><ele>293.3333333333333</ele><time>2026-04-24T11:22:31Z</time></trkpt><trkpt lat="44.10325194217108" lon="10.398615015345056"><ele>289.66666666666663</ele><time>2026-04-24T11:22:32Z</time></trkpt><trkpt lat="44.10329448893185" lon="10.398928605554728"><ele>286.0</ele><time>2026-04-24T11:22:33Z</time></trkpt><trkpt lat="44.103327846921054" lon="10.39925389101881"><ele>285.3333333333333</ele><time>2026-04-24T11:22:34Z</time></trkpt><trkpt lat="44.10335120985613" lon="10.399546471593446"><ele>284.6666666666667</ele><time>2026-04-24T11:22:35Z</time></trkpt><trkpt lat="44.10337374795985" lon="10.399814380738139"><ele>284.0</ele><time>2026-04-24T11:22:36Z</time></trkpt><trkpt lat="44.103396214384695" lon="10.400074682991875"><ele>283.6666666666667</ele><time>2026-04-24T11:22:37Z</time></trkpt><trkpt lat="44.103417006571036" lon="10.400303203473062"><ele>283.3333333333333</ele><time>2026-04-24T11:22:38Z</time></trkpt><trkpt lat="44.10343549806052" lon="10.400506407391283"><ele>283.0</ele><time>2026-04-24T11:22:39Z</time></trkpt><trkpt lat="44.10345799356483" lon="10.400716135668885"><ele>282.66666666666663</ele><time>2026-04-24T11:22:40Z</time></trkpt><trkpt lat="44.103478184835375" lon="10.400934030126354"><ele>282.3333333333333</ele><time>2026-04-24T11:22:41Z</time></trkpt><trkpt lat="44.10349466815019" lon="10.401149459545971"><ele>282.0</ele><time>2026-04-24T11:22:42Z</time></trkpt><trkpt lat="44.10351157704991" lon="10.401374202830974"><ele>282.0</ele><time>2026-04-24T11:22:43Z</time></trkpt><trkpt lat="44.103534122750304" lon="10.401573384261145"><ele>282.0</ele><time>2026-04-24T11:22:44Z</time></trkpt><trkpt lat="44.10355145175431" lon="10.401758902662484"><ele>282.0</ele><time>2026-04-24T11:22:45Z</time></trkpt><trkpt lat="44.10356335660298" lon="10.401936491494881"><ele>282.0</ele><time>2026-04-24T11:22:46Z</time></trkpt><trkpt lat="44.103581374913716" lon="10.402111013197748"><ele>282.25</ele><time>2026-04-24T11:22:47Z</time></trkpt><trkpt lat="44.10360096763739" lon="10.40229723433573"><ele>282.5</ele><time>2026-04-24T11:22:48Z</time></trkpt><trkpt lat="44.103616353082096" lon="10.402481653537963"><ele>282.75</ele><time>2026-04-24T11:22:49Z</time></trkpt><trkpt lat="44.1036244727626" lon="10.402649907553306"><ele>283.0</ele><time>2026-04-24T11:22:50Z</time></trkpt><trkpt lat="44.103648850533915" lon="10.402811818328438"><ele>283.0</ele><time>2026-04-24T11:22:51Z</time></trkpt><trkpt lat="44.10366909148644" lon="10.402990362543344"><ele>283.0</ele><time>2026-04-24T11:22:52Z</time></trkpt><trkpt lat="44.10367558346113" lon="10.40314740421651"><ele>283.0</ele><time>2026-04-24T11:22:53Z</time></trkpt><trkpt lat="44.103685391233604" lon="10.403300960888819"><ele>283.0</ele><time>2026-04-24T11:22:54Z</time></trkpt><trkpt lat="44.10369863301154" lon="10.403448269571985"><ele>283.25</ele><time>2026-04-24T11:22:55Z</time></trkpt><trkpt lat="44.1037185102035" lon="10.40373841395527"><ele>283.5</ele><time>2026-04-24T11:22:57Z</time></trkpt><trkpt lat="44.103729946054514" lon="10.403857641534119"><ele>283.75</ele><time>2026-04-24T11:22:58Z</time></trkpt><trkpt lat="44.1037394385475" lon="10.403950251643282"><ele>284.0</ele><time>2026-04-24T11:22:59Z</time></trkpt><trkpt lat="44.10375375650545" lon="10.404075578182047"><ele>284.0</ele><time>2026-04-24T11:23:01Z</time></trkpt><trkpt lat="44.10366069743722" lon="10.404049873527647"><ele>284.0</ele><time>2026-04-24T11:23:05Z</time></trkpt><trkpt lat="44.103567198373355" lon="10.404045688992756"><ele>284.0</ele><time>2026-04-24T11:23:07Z</time></trkpt><trkpt lat="44.10349552658552" lon="10.404048983548943"><ele>284.0</ele><time>2026-04-24T11:23:09Z</time></trkpt><trkpt lat="44.10349600969166" lon="10.404144816040953"><ele>284.0</ele><time>2026-04-24T11:23:12Z</time></trkpt><trkpt lat="44.103509424684255" lon="10.404275226349666"><ele>284.0</ele><time>2026-04-24T11:23:15Z</time></trkpt></trkseg></trk></gpx>